<?xml version="1.0" encoding="UTF-8" standalone="no" ?>
<gpx xmlns="http://www.topografix.com/GPX/1/1" xmlns:xsi="http://www.w3.org/2001/XMLSchema-instance" xsi:schemaLocation="http://www.topografix.com/GPX/1/1 http://www.topografix.com/GPX/1/1/gpx.xsd" version="1.1" creator="VisuGPX - https://www.visugpx.com">
  <metadata>
    <name>Chemin de la Reine Marguerite</name>
    <desc><![CDATA[Globalement ombragée et sans difficulté,très agréable par temps chaud.]]></desc>
  </metadata>
  <trk>
    <name><![CDATA[ITI0111 2018-MNT]]></name>
    <trkseg>
      <trkpt lat="45.50049" lon="2.62992">
        <ele>867</ele>
        <time>2018-09-26T12:49:57Z</time>
      </trkpt>
      <trkpt lat="45.50048" lon="2.62992">
        <ele>867</ele>
        <time>2018-09-26T12:49:57Z</time>
      </trkpt>
      <trkpt lat="45.50049" lon="2.6299">
        <ele>867</ele>
        <time>2018-09-26T12:49:57Z</time>
      </trkpt>
      <trkpt lat="45.50051" lon="2.62986">
        <ele>867</ele>
        <time>2018-09-26T12:49:57Z</time>
      </trkpt>
      <trkpt lat="45.50052" lon="2.62982">
        <ele>867</ele>
        <time>2018-09-26T12:49:57Z</time>
      </trkpt>
      <trkpt lat="45.50054" lon="2.62977">
        <ele>867</ele>
        <time>2018-09-26T12:49:57Z</time>
      </trkpt>
      <trkpt lat="45.50054" lon="2.62975">
        <ele>867</ele>
        <time>2018-09-26T12:49:57Z</time>
      </trkpt>
      <trkpt lat="45.50055" lon="2.62971">
        <ele>867</ele>
        <time>2018-09-26T12:49:57Z</time>
      </trkpt>
      <trkpt lat="45.50056" lon="2.62971">
        <ele>867</ele>
        <time>2018-09-26T12:49:57Z</time>
      </trkpt>
      <trkpt lat="45.50056" lon="2.62968">
        <ele>867</ele>
        <time>2018-09-26T12:49:57Z</time>
      </trkpt>
      <trkpt lat="45.50057" lon="2.62964">
        <ele>867</ele>
        <time>2018-09-26T12:49:57Z</time>
      </trkpt>
      <trkpt lat="45.50058" lon="2.62958">
        <ele>868</ele>
        <time>2018-09-26T12:49:57Z</time>
      </trkpt>
      <trkpt lat="45.50058" lon="2.62954">
        <ele>868</ele>
        <time>2018-09-26T12:49:57Z</time>
      </trkpt>
      <trkpt lat="45.50059" lon="2.62949">
        <ele>868</ele>
        <time>2018-09-26T12:49:57Z</time>
      </trkpt>
      <trkpt lat="45.50062" lon="2.62945">
        <ele>868</ele>
        <time>2018-09-26T12:49:57Z</time>
      </trkpt>
      <trkpt lat="45.50065" lon="2.62941">
        <ele>868</ele>
        <time>2018-09-26T12:49:57Z</time>
      </trkpt>
      <trkpt lat="45.50066" lon="2.62936">
        <ele>868</ele>
        <time>2018-09-26T12:49:57Z</time>
      </trkpt>
      <trkpt lat="45.50066" lon="2.62931">
        <ele>868</ele>
        <time>2018-09-26T12:49:57Z</time>
      </trkpt>
      <trkpt lat="45.50067" lon="2.62929">
        <ele>868</ele>
        <time>2018-09-26T12:49:57Z</time>
      </trkpt>
      <trkpt lat="45.50067" lon="2.62929">
        <ele>868</ele>
        <time>2018-09-26T12:49:57Z</time>
      </trkpt>
      <trkpt lat="45.50067" lon="2.62929">
        <ele>868</ele>
        <time>2018-09-26T12:49:57Z</time>
      </trkpt>
      <trkpt lat="45.50067" lon="2.62928">
        <ele>868</ele>
        <time>2018-09-26T12:49:57Z</time>
      </trkpt>
      <trkpt lat="45.50066" lon="2.62929">
        <ele>868</ele>
        <time>2018-09-26T12:49:57Z</time>
      </trkpt>
      <trkpt lat="45.50065" lon="2.62928">
        <ele>868</ele>
        <time>2018-09-26T12:49:57Z</time>
      </trkpt>
      <trkpt lat="45.50065" lon="2.62926">
        <ele>868</ele>
        <time>2018-09-26T12:49:57Z</time>
      </trkpt>
      <trkpt lat="45.50082" lon="2.62918">
        <ele>869</ele>
        <time>2018-09-26T12:49:57Z</time>
      </trkpt>
      <trkpt lat="45.50084" lon="2.62917">
        <ele>869</ele>
        <time>2018-09-26T12:49:57Z</time>
      </trkpt>
      <trkpt lat="45.50086" lon="2.62915">
        <ele>869</ele>
        <time>2018-09-26T12:49:57Z</time>
      </trkpt>
      <trkpt lat="45.50087" lon="2.62915">
        <ele>869</ele>
        <time>2018-09-26T12:49:57Z</time>
      </trkpt>
      <trkpt lat="45.50087" lon="2.62915">
        <ele>869</ele>
        <time>2018-09-26T12:49:57Z</time>
      </trkpt>
      <trkpt lat="45.50087" lon="2.62914">
        <ele>869</ele>
        <time>2018-09-26T12:49:57Z</time>
      </trkpt>
      <trkpt lat="45.50089" lon="2.62913">
        <ele>869</ele>
        <time>2018-09-26T12:49:57Z</time>
      </trkpt>
      <trkpt lat="45.50091" lon="2.62912">
        <ele>869</ele>
        <time>2018-09-26T12:49:57Z</time>
      </trkpt>
      <trkpt lat="45.50093" lon="2.6291">
        <ele>869</ele>
        <time>2018-09-26T12:49:57Z</time>
      </trkpt>
      <trkpt lat="45.50095" lon="2.62908">
        <ele>869</ele>
        <time>2018-09-26T12:49:57Z</time>
      </trkpt>
      <trkpt lat="45.50096" lon="2.62905">
        <ele>869</ele>
        <time>2018-09-26T12:49:57Z</time>
      </trkpt>
      <trkpt lat="45.50098" lon="2.62904">
        <ele>869</ele>
        <time>2018-09-26T12:49:57Z</time>
      </trkpt>
      <trkpt lat="45.50098" lon="2.62904">
        <ele>869</ele>
        <time>2018-09-26T12:49:57Z</time>
      </trkpt>
      <trkpt lat="45.50099" lon="2.62904">
        <ele>869</ele>
        <time>2018-09-26T12:49:57Z</time>
      </trkpt>
      <trkpt lat="45.50098" lon="2.62903">
        <ele>869</ele>
        <time>2018-09-26T12:49:57Z</time>
      </trkpt>
      <trkpt lat="45.50098" lon="2.62903">
        <ele>869</ele>
        <time>2018-09-26T12:49:57Z</time>
      </trkpt>
      <trkpt lat="45.50098" lon="2.62903">
        <ele>869</ele>
        <time>2018-09-26T12:49:57Z</time>
      </trkpt>
      <trkpt lat="45.50097" lon="2.62903">
        <ele>869</ele>
        <time>2018-09-26T12:49:57Z</time>
      </trkpt>
      <trkpt lat="45.50096" lon="2.62902">
        <ele>869</ele>
        <time>2018-09-26T12:49:57Z</time>
      </trkpt>
      <trkpt lat="45.50097" lon="2.62901">
        <ele>869</ele>
        <time>2018-09-26T12:49:57Z</time>
      </trkpt>
      <trkpt lat="45.50099" lon="2.629">
        <ele>869</ele>
        <time>2018-09-26T12:49:57Z</time>
      </trkpt>
      <trkpt lat="45.501" lon="2.62899">
        <ele>869</ele>
        <time>2018-09-26T12:49:57Z</time>
      </trkpt>
      <trkpt lat="45.50102" lon="2.62897">
        <ele>870</ele>
        <time>2018-09-26T12:49:57Z</time>
      </trkpt>
      <trkpt lat="45.50104" lon="2.62896">
        <ele>870</ele>
        <time>2018-09-26T12:49:57Z</time>
      </trkpt>
      <trkpt lat="45.50105" lon="2.62896">
        <ele>870</ele>
        <time>2018-09-26T12:49:57Z</time>
      </trkpt>
      <trkpt lat="45.50105" lon="2.62896">
        <ele>870</ele>
        <time>2018-09-26T12:49:57Z</time>
      </trkpt>
      <trkpt lat="45.50105" lon="2.62896">
        <ele>870</ele>
        <time>2018-09-26T12:49:57Z</time>
      </trkpt>
      <trkpt lat="45.50108" lon="2.62898">
        <ele>870</ele>
        <time>2018-09-26T12:49:57Z</time>
      </trkpt>
      <trkpt lat="45.50109" lon="2.62897">
        <ele>870</ele>
        <time>2018-09-26T12:49:57Z</time>
      </trkpt>
      <trkpt lat="45.5011" lon="2.62896">
        <ele>870</ele>
        <time>2018-09-26T12:49:57Z</time>
      </trkpt>
      <trkpt lat="45.50112" lon="2.62894">
        <ele>870</ele>
        <time>2018-09-26T12:49:57Z</time>
      </trkpt>
      <trkpt lat="45.50114" lon="2.62892">
        <ele>870</ele>
        <time>2018-09-26T12:49:57Z</time>
      </trkpt>
      <trkpt lat="45.50117" lon="2.62891">
        <ele>870</ele>
        <time>2018-09-26T12:49:57Z</time>
      </trkpt>
      <trkpt lat="45.50119" lon="2.62889">
        <ele>870</ele>
        <time>2018-09-26T12:49:57Z</time>
      </trkpt>
      <trkpt lat="45.50122" lon="2.62888">
        <ele>870</ele>
        <time>2018-09-26T12:49:57Z</time>
      </trkpt>
      <trkpt lat="45.50123" lon="2.62885">
        <ele>871</ele>
        <time>2018-09-26T12:49:57Z</time>
      </trkpt>
      <trkpt lat="45.50123" lon="2.62882">
        <ele>871</ele>
        <time>2018-09-26T12:49:57Z</time>
      </trkpt>
      <trkpt lat="45.50123" lon="2.62879">
        <ele>871</ele>
        <time>2018-09-26T12:49:57Z</time>
      </trkpt>
      <trkpt lat="45.50122" lon="2.62879">
        <ele>871</ele>
        <time>2018-09-26T12:49:57Z</time>
      </trkpt>
      <trkpt lat="45.50122" lon="2.62878">
        <ele>871</ele>
        <time>2018-09-26T12:49:57Z</time>
      </trkpt>
      <trkpt lat="45.50122" lon="2.62878">
        <ele>871</ele>
        <time>2018-09-26T12:49:57Z</time>
      </trkpt>
      <trkpt lat="45.50123" lon="2.62878">
        <ele>871</ele>
        <time>2018-09-26T12:49:57Z</time>
      </trkpt>
      <trkpt lat="45.50123" lon="2.62878">
        <ele>871</ele>
        <time>2018-09-26T12:49:57Z</time>
      </trkpt>
      <trkpt lat="45.50123" lon="2.6288">
        <ele>871</ele>
        <time>2018-09-26T12:49:57Z</time>
      </trkpt>
      <trkpt lat="45.50123" lon="2.62883">
        <ele>871</ele>
        <time>2018-09-26T12:49:57Z</time>
      </trkpt>
      <trkpt lat="45.50123" lon="2.62883">
        <ele>871</ele>
        <time>2018-09-26T12:49:57Z</time>
      </trkpt>
      <trkpt lat="45.50122" lon="2.62883">
        <ele>871</ele>
        <time>2018-09-26T12:49:57Z</time>
      </trkpt>
      <trkpt lat="45.50122" lon="2.62883">
        <ele>871</ele>
        <time>2018-09-26T12:49:57Z</time>
      </trkpt>
      <trkpt lat="45.50124" lon="2.62884">
        <ele>871</ele>
        <time>2018-09-26T12:49:57Z</time>
      </trkpt>
      <trkpt lat="45.50124" lon="2.62882">
        <ele>871</ele>
        <time>2018-09-26T12:49:57Z</time>
      </trkpt>
      <trkpt lat="45.50124" lon="2.62879">
        <ele>871</ele>
        <time>2018-09-26T12:49:57Z</time>
      </trkpt>
      <trkpt lat="45.50124" lon="2.62878">
        <ele>871</ele>
        <time>2018-09-26T12:49:57Z</time>
      </trkpt>
      <trkpt lat="45.50124" lon="2.62876">
        <ele>871</ele>
        <time>2018-09-26T12:49:57Z</time>
      </trkpt>
      <trkpt lat="45.50124" lon="2.62873">
        <ele>871</ele>
        <time>2018-09-26T12:49:57Z</time>
      </trkpt>
      <trkpt lat="45.50123" lon="2.62869">
        <ele>871</ele>
        <time>2018-09-26T12:49:57Z</time>
      </trkpt>
      <trkpt lat="45.50122" lon="2.62864">
        <ele>871</ele>
        <time>2018-09-26T12:49:57Z</time>
      </trkpt>
      <trkpt lat="45.50122" lon="2.6286">
        <ele>870</ele>
        <time>2018-09-26T12:49:57Z</time>
      </trkpt>
      <trkpt lat="45.50122" lon="2.62856">
        <ele>871</ele>
        <time>2018-09-26T12:49:57Z</time>
      </trkpt>
      <trkpt lat="45.50122" lon="2.62852">
        <ele>871</ele>
        <time>2018-09-26T12:49:57Z</time>
      </trkpt>
      <trkpt lat="45.50122" lon="2.62847">
        <ele>870</ele>
        <time>2018-09-26T12:49:57Z</time>
      </trkpt>
      <trkpt lat="45.50122" lon="2.62842">
        <ele>870</ele>
        <time>2018-09-26T12:49:57Z</time>
      </trkpt>
      <trkpt lat="45.50122" lon="2.6284">
        <ele>870</ele>
        <time>2018-09-26T12:49:57Z</time>
      </trkpt>
      <trkpt lat="45.50122" lon="2.6284">
        <ele>870</ele>
        <time>2018-09-26T12:49:57Z</time>
      </trkpt>
      <trkpt lat="45.50122" lon="2.62839">
        <ele>871</ele>
        <time>2018-09-26T12:49:57Z</time>
      </trkpt>
      <trkpt lat="45.50122" lon="2.62837">
        <ele>871</ele>
        <time>2018-09-26T12:49:57Z</time>
      </trkpt>
      <trkpt lat="45.50122" lon="2.62833">
        <ele>870</ele>
        <time>2018-09-26T12:49:57Z</time>
      </trkpt>
      <trkpt lat="45.50122" lon="2.62829">
        <ele>871</ele>
        <time>2018-09-26T12:49:57Z</time>
      </trkpt>
      <trkpt lat="45.50122" lon="2.62825">
        <ele>870</ele>
        <time>2018-09-26T12:49:57Z</time>
      </trkpt>
      <trkpt lat="45.50122" lon="2.6282">
        <ele>870</ele>
        <time>2018-09-26T12:49:57Z</time>
      </trkpt>
      <trkpt lat="45.50122" lon="2.62817">
        <ele>870</ele>
        <time>2018-09-26T12:49:57Z</time>
      </trkpt>
      <trkpt lat="45.50122" lon="2.62813">
        <ele>870</ele>
        <time>2018-09-26T12:49:57Z</time>
      </trkpt>
      <trkpt lat="45.50121" lon="2.62809">
        <ele>870</ele>
        <time>2018-09-26T12:49:57Z</time>
      </trkpt>
      <trkpt lat="45.50121" lon="2.62806">
        <ele>870</ele>
        <time>2018-09-26T12:49:57Z</time>
      </trkpt>
      <trkpt lat="45.50121" lon="2.62803">
        <ele>870</ele>
        <time>2018-09-26T12:49:57Z</time>
      </trkpt>
      <trkpt lat="45.5012" lon="2.62799">
        <ele>870</ele>
        <time>2018-09-26T12:49:57Z</time>
      </trkpt>
      <trkpt lat="45.5012" lon="2.62797">
        <ele>870</ele>
        <time>2018-09-26T12:49:57Z</time>
      </trkpt>
      <trkpt lat="45.5012" lon="2.62796">
        <ele>870</ele>
        <time>2018-09-26T12:49:57Z</time>
      </trkpt>
      <trkpt lat="45.5012" lon="2.62795">
        <ele>870</ele>
        <time>2018-09-26T12:49:57Z</time>
      </trkpt>
      <trkpt lat="45.50119" lon="2.62794">
        <ele>870</ele>
        <time>2018-09-26T12:49:57Z</time>
      </trkpt>
      <trkpt lat="45.5012" lon="2.6279">
        <ele>870</ele>
        <time>2018-09-26T12:49:57Z</time>
      </trkpt>
      <trkpt lat="45.5012" lon="2.62789">
        <ele>870</ele>
        <time>2018-09-26T12:49:57Z</time>
      </trkpt>
      <trkpt lat="45.5012" lon="2.62789">
        <ele>870</ele>
        <time>2018-09-26T12:49:57Z</time>
      </trkpt>
      <trkpt lat="45.5012" lon="2.62788">
        <ele>870</ele>
        <time>2018-09-26T12:49:57Z</time>
      </trkpt>
      <trkpt lat="45.50122" lon="2.62787">
        <ele>870</ele>
        <time>2018-09-26T12:49:57Z</time>
      </trkpt>
      <trkpt lat="45.50123" lon="2.62786">
        <ele>871</ele>
        <time>2018-09-26T12:49:57Z</time>
      </trkpt>
      <trkpt lat="45.50123" lon="2.62786">
        <ele>871</ele>
        <time>2018-09-26T12:49:57Z</time>
      </trkpt>
      <trkpt lat="45.50122" lon="2.62787">
        <ele>870</ele>
        <time>2018-09-26T12:49:57Z</time>
      </trkpt>
      <trkpt lat="45.50123" lon="2.62787">
        <ele>871</ele>
        <time>2018-09-26T12:49:57Z</time>
      </trkpt>
      <trkpt lat="45.50122" lon="2.62786">
        <ele>870</ele>
        <time>2018-09-26T12:49:57Z</time>
      </trkpt>
      <trkpt lat="45.50123" lon="2.62785">
        <ele>871</ele>
        <time>2018-09-26T12:49:57Z</time>
      </trkpt>
      <trkpt lat="45.50124" lon="2.62781">
        <ele>871</ele>
        <time>2018-09-26T12:49:57Z</time>
      </trkpt>
      <trkpt lat="45.50126" lon="2.62777">
        <ele>871</ele>
        <time>2018-09-26T12:49:57Z</time>
      </trkpt>
      <trkpt lat="45.50126" lon="2.62776">
        <ele>871</ele>
        <time>2018-09-26T12:49:57Z</time>
      </trkpt>
      <trkpt lat="45.50126" lon="2.62776">
        <ele>871</ele>
        <time>2018-09-26T12:49:57Z</time>
      </trkpt>
      <trkpt lat="45.50127" lon="2.62776">
        <ele>871</ele>
        <time>2018-09-26T12:49:57Z</time>
      </trkpt>
      <trkpt lat="45.50127" lon="2.62776">
        <ele>871</ele>
        <time>2018-09-26T12:49:57Z</time>
      </trkpt>
      <trkpt lat="45.50127" lon="2.62775">
        <ele>871</ele>
        <time>2018-09-26T12:49:57Z</time>
      </trkpt>
      <trkpt lat="45.50127" lon="2.62775">
        <ele>871</ele>
        <time>2018-09-26T12:49:57Z</time>
      </trkpt>
      <trkpt lat="45.50123" lon="2.62775">
        <ele>871</ele>
        <time>2018-09-26T12:49:57Z</time>
      </trkpt>
      <trkpt lat="45.50123" lon="2.62771">
        <ele>871</ele>
        <time>2018-09-26T12:49:57Z</time>
      </trkpt>
      <trkpt lat="45.50123" lon="2.62767">
        <ele>871</ele>
        <time>2018-09-26T12:49:57Z</time>
      </trkpt>
      <trkpt lat="45.50123" lon="2.62762">
        <ele>871</ele>
        <time>2018-09-26T12:49:57Z</time>
      </trkpt>
      <trkpt lat="45.50124" lon="2.62759">
        <ele>871</ele>
        <time>2018-09-26T12:49:57Z</time>
      </trkpt>
      <trkpt lat="45.50126" lon="2.62755">
        <ele>871</ele>
        <time>2018-09-26T12:49:57Z</time>
      </trkpt>
      <trkpt lat="45.50127" lon="2.6275">
        <ele>871</ele>
        <time>2018-09-26T12:49:57Z</time>
      </trkpt>
      <trkpt lat="45.50128" lon="2.62746">
        <ele>871</ele>
        <time>2018-09-26T12:49:57Z</time>
      </trkpt>
      <trkpt lat="45.5013" lon="2.62741">
        <ele>871</ele>
        <time>2018-09-26T12:49:57Z</time>
      </trkpt>
      <trkpt lat="45.50132" lon="2.62737">
        <ele>871</ele>
        <time>2018-09-26T12:49:57Z</time>
      </trkpt>
      <trkpt lat="45.50135" lon="2.62734">
        <ele>871</ele>
        <time>2018-09-26T12:49:57Z</time>
      </trkpt>
      <trkpt lat="45.50137" lon="2.62729">
        <ele>871</ele>
        <time>2018-09-26T12:49:57Z</time>
      </trkpt>
      <trkpt lat="45.50138" lon="2.62723">
        <ele>871</ele>
        <time>2018-09-26T12:49:57Z</time>
      </trkpt>
      <trkpt lat="45.50143" lon="2.62722">
        <ele>871</ele>
        <time>2018-09-26T12:49:57Z</time>
      </trkpt>
      <trkpt lat="45.50146" lon="2.62719">
        <ele>871</ele>
        <time>2018-09-26T12:49:57Z</time>
      </trkpt>
      <trkpt lat="45.50148" lon="2.62717">
        <ele>871</ele>
        <time>2018-09-26T12:49:57Z</time>
      </trkpt>
      <trkpt lat="45.5015" lon="2.62714">
        <ele>871</ele>
        <time>2018-09-26T12:49:57Z</time>
      </trkpt>
      <trkpt lat="45.50154" lon="2.62712">
        <ele>871</ele>
        <time>2018-09-26T12:49:57Z</time>
      </trkpt>
      <trkpt lat="45.50155" lon="2.62709">
        <ele>871</ele>
        <time>2018-09-26T12:49:57Z</time>
      </trkpt>
      <trkpt lat="45.50157" lon="2.62706">
        <ele>871</ele>
        <time>2018-09-26T12:49:57Z</time>
      </trkpt>
      <trkpt lat="45.50158" lon="2.62702">
        <ele>871</ele>
        <time>2018-09-26T12:49:57Z</time>
      </trkpt>
      <trkpt lat="45.5016" lon="2.62698">
        <ele>871</ele>
        <time>2018-09-26T12:49:57Z</time>
      </trkpt>
      <trkpt lat="45.50163" lon="2.62694">
        <ele>871</ele>
        <time>2018-09-26T12:49:57Z</time>
      </trkpt>
      <trkpt lat="45.50164" lon="2.62689">
        <ele>871</ele>
        <time>2018-09-26T12:49:57Z</time>
      </trkpt>
      <trkpt lat="45.50165" lon="2.62685">
        <ele>871</ele>
        <time>2018-09-26T12:49:57Z</time>
      </trkpt>
      <trkpt lat="45.50165" lon="2.62684">
        <ele>871</ele>
        <time>2018-09-26T12:49:57Z</time>
      </trkpt>
      <trkpt lat="45.50164" lon="2.62682">
        <ele>871</ele>
        <time>2018-09-26T12:49:57Z</time>
      </trkpt>
      <trkpt lat="45.50164" lon="2.62676">
        <ele>871</ele>
        <time>2018-09-26T12:49:57Z</time>
      </trkpt>
      <trkpt lat="45.50165" lon="2.6267">
        <ele>871</ele>
        <time>2018-09-26T12:49:57Z</time>
      </trkpt>
      <trkpt lat="45.50167" lon="2.62667">
        <ele>871</ele>
        <time>2018-09-26T12:49:57Z</time>
      </trkpt>
      <trkpt lat="45.50169" lon="2.62662">
        <ele>871</ele>
        <time>2018-09-26T12:49:57Z</time>
      </trkpt>
      <trkpt lat="45.50171" lon="2.62657">
        <ele>871</ele>
        <time>2018-09-26T12:49:57Z</time>
      </trkpt>
      <trkpt lat="45.50173" lon="2.62653">
        <ele>871</ele>
        <time>2018-09-26T12:49:57Z</time>
      </trkpt>
      <trkpt lat="45.50175" lon="2.6265">
        <ele>871</ele>
        <time>2018-09-26T12:49:57Z</time>
      </trkpt>
      <trkpt lat="45.50177" lon="2.62646">
        <ele>871</ele>
        <time>2018-09-26T12:49:57Z</time>
      </trkpt>
      <trkpt lat="45.50178" lon="2.62642">
        <ele>871</ele>
        <time>2018-09-26T12:49:57Z</time>
      </trkpt>
      <trkpt lat="45.5018" lon="2.62639">
        <ele>871</ele>
        <time>2018-09-26T12:49:57Z</time>
      </trkpt>
      <trkpt lat="45.50181" lon="2.62632">
        <ele>871</ele>
        <time>2018-09-26T12:49:57Z</time>
      </trkpt>
      <trkpt lat="45.50183" lon="2.62628">
        <ele>871</ele>
        <time>2018-09-26T12:49:57Z</time>
      </trkpt>
      <trkpt lat="45.50185" lon="2.62623">
        <ele>871</ele>
        <time>2018-09-26T12:49:57Z</time>
      </trkpt>
      <trkpt lat="45.50187" lon="2.62619">
        <ele>871</ele>
        <time>2018-09-26T12:49:57Z</time>
      </trkpt>
      <trkpt lat="45.50189" lon="2.62615">
        <ele>871</ele>
        <time>2018-09-26T12:49:57Z</time>
      </trkpt>
      <trkpt lat="45.50191" lon="2.62611">
        <ele>871</ele>
        <time>2018-09-26T12:49:57Z</time>
      </trkpt>
      <trkpt lat="45.50194" lon="2.62608">
        <ele>871</ele>
        <time>2018-09-26T12:49:57Z</time>
      </trkpt>
      <trkpt lat="45.50197" lon="2.62605">
        <ele>871</ele>
        <time>2018-09-26T12:49:57Z</time>
      </trkpt>
      <trkpt lat="45.50201" lon="2.62601">
        <ele>871</ele>
        <time>2018-09-26T12:49:57Z</time>
      </trkpt>
      <trkpt lat="45.50204" lon="2.62597">
        <ele>872</ele>
        <time>2018-09-26T12:49:57Z</time>
      </trkpt>
      <trkpt lat="45.50205" lon="2.62593">
        <ele>872</ele>
        <time>2018-09-26T12:49:57Z</time>
      </trkpt>
      <trkpt lat="45.50207" lon="2.6259">
        <ele>872</ele>
        <time>2018-09-26T12:49:57Z</time>
      </trkpt>
      <trkpt lat="45.50209" lon="2.62585">
        <ele>872</ele>
        <time>2018-09-26T12:49:57Z</time>
      </trkpt>
      <trkpt lat="45.50211" lon="2.6258">
        <ele>872</ele>
        <time>2018-09-26T12:49:57Z</time>
      </trkpt>
      <trkpt lat="45.50213" lon="2.62576">
        <ele>872</ele>
        <time>2018-09-26T12:49:57Z</time>
      </trkpt>
      <trkpt lat="45.50215" lon="2.62573">
        <ele>872</ele>
        <time>2018-09-26T12:49:57Z</time>
      </trkpt>
      <trkpt lat="45.50217" lon="2.62569">
        <ele>872</ele>
        <time>2018-09-26T12:49:57Z</time>
      </trkpt>
      <trkpt lat="45.50219" lon="2.62564">
        <ele>872</ele>
        <time>2018-09-26T12:49:57Z</time>
      </trkpt>
      <trkpt lat="45.50221" lon="2.6256">
        <ele>872</ele>
        <time>2018-09-26T12:49:57Z</time>
      </trkpt>
      <trkpt lat="45.50222" lon="2.62555">
        <ele>872</ele>
        <time>2018-09-26T12:49:57Z</time>
      </trkpt>
      <trkpt lat="45.50224" lon="2.62551">
        <ele>872</ele>
        <time>2018-09-26T12:49:57Z</time>
      </trkpt>
      <trkpt lat="45.50225" lon="2.62546">
        <ele>872</ele>
        <time>2018-09-26T12:49:57Z</time>
      </trkpt>
      <trkpt lat="45.50227" lon="2.62542">
        <ele>872</ele>
        <time>2018-09-26T12:49:57Z</time>
      </trkpt>
      <trkpt lat="45.50228" lon="2.62536">
        <ele>872</ele>
        <time>2018-09-26T12:49:57Z</time>
      </trkpt>
      <trkpt lat="45.50228" lon="2.6253">
        <ele>872</ele>
        <time>2018-09-26T12:49:57Z</time>
      </trkpt>
      <trkpt lat="45.50229" lon="2.62524">
        <ele>871</ele>
        <time>2018-09-26T12:49:57Z</time>
      </trkpt>
      <trkpt lat="45.5023" lon="2.62519">
        <ele>871</ele>
        <time>2018-09-26T12:49:57Z</time>
      </trkpt>
      <trkpt lat="45.5023" lon="2.62514">
        <ele>871</ele>
        <time>2018-09-26T12:49:57Z</time>
      </trkpt>
      <trkpt lat="45.50229" lon="2.62509">
        <ele>871</ele>
        <time>2018-09-26T12:49:57Z</time>
      </trkpt>
      <trkpt lat="45.50229" lon="2.62504">
        <ele>871</ele>
        <time>2018-09-26T12:49:57Z</time>
      </trkpt>
      <trkpt lat="45.5023" lon="2.62499">
        <ele>871</ele>
        <time>2018-09-26T12:49:57Z</time>
      </trkpt>
      <trkpt lat="45.5023" lon="2.62494">
        <ele>871</ele>
        <time>2018-09-26T12:49:57Z</time>
      </trkpt>
      <trkpt lat="45.5023" lon="2.6249">
        <ele>871</ele>
        <time>2018-09-26T12:49:57Z</time>
      </trkpt>
      <trkpt lat="45.50232" lon="2.62486">
        <ele>871</ele>
        <time>2018-09-26T12:49:57Z</time>
      </trkpt>
      <trkpt lat="45.50232" lon="2.62483">
        <ele>871</ele>
        <time>2018-09-26T12:49:57Z</time>
      </trkpt>
      <trkpt lat="45.50233" lon="2.62483">
        <ele>871</ele>
        <time>2018-09-26T12:49:57Z</time>
      </trkpt>
      <trkpt lat="45.50233" lon="2.62483">
        <ele>871</ele>
        <time>2018-09-26T12:49:57Z</time>
      </trkpt>
      <trkpt lat="45.50233" lon="2.62484">
        <ele>871</ele>
        <time>2018-09-26T12:49:57Z</time>
      </trkpt>
      <trkpt lat="45.50232" lon="2.62484">
        <ele>871</ele>
        <time>2018-09-26T12:49:57Z</time>
      </trkpt>
      <trkpt lat="45.50232" lon="2.62483">
        <ele>871</ele>
        <time>2018-09-26T12:49:57Z</time>
      </trkpt>
      <trkpt lat="45.50231" lon="2.62483">
        <ele>870</ele>
        <time>2018-09-26T12:49:57Z</time>
      </trkpt>
      <trkpt lat="45.50233" lon="2.62478">
        <ele>870</ele>
        <time>2018-09-26T12:49:57Z</time>
      </trkpt>
      <trkpt lat="45.50235" lon="2.62475">
        <ele>870</ele>
        <time>2018-09-26T12:49:57Z</time>
      </trkpt>
      <trkpt lat="45.50237" lon="2.62472">
        <ele>870</ele>
        <time>2018-09-26T12:49:57Z</time>
      </trkpt>
      <trkpt lat="45.50238" lon="2.62469">
        <ele>870</ele>
        <time>2018-09-26T12:49:57Z</time>
      </trkpt>
      <trkpt lat="45.5024" lon="2.62467">
        <ele>870</ele>
        <time>2018-09-26T12:49:57Z</time>
      </trkpt>
      <trkpt lat="45.50243" lon="2.62465">
        <ele>870</ele>
        <time>2018-09-26T12:49:57Z</time>
      </trkpt>
      <trkpt lat="45.50246" lon="2.62464">
        <ele>870</ele>
        <time>2018-09-26T12:49:57Z</time>
      </trkpt>
      <trkpt lat="45.50248" lon="2.62463">
        <ele>870</ele>
        <time>2018-09-26T12:49:57Z</time>
      </trkpt>
      <trkpt lat="45.50251" lon="2.62461">
        <ele>870</ele>
        <time>2018-09-26T12:49:57Z</time>
      </trkpt>
      <trkpt lat="45.50253" lon="2.62459">
        <ele>870</ele>
        <time>2018-09-26T12:49:57Z</time>
      </trkpt>
      <trkpt lat="45.50255" lon="2.62457">
        <ele>870</ele>
        <time>2018-09-26T12:49:57Z</time>
      </trkpt>
      <trkpt lat="45.50258" lon="2.62454">
        <ele>870</ele>
        <time>2018-09-26T12:49:57Z</time>
      </trkpt>
      <trkpt lat="45.50261" lon="2.62452">
        <ele>870</ele>
        <time>2018-09-26T12:49:57Z</time>
      </trkpt>
      <trkpt lat="45.50263" lon="2.62449">
        <ele>870</ele>
        <time>2018-09-26T12:49:57Z</time>
      </trkpt>
      <trkpt lat="45.50266" lon="2.62446">
        <ele>870</ele>
        <time>2018-09-26T12:49:57Z</time>
      </trkpt>
      <trkpt lat="45.50269" lon="2.62443">
        <ele>870</ele>
        <time>2018-09-26T12:49:57Z</time>
      </trkpt>
      <trkpt lat="45.50272" lon="2.6244">
        <ele>870</ele>
        <time>2018-09-26T12:49:57Z</time>
      </trkpt>
      <trkpt lat="45.50274" lon="2.62436">
        <ele>870</ele>
        <time>2018-09-26T12:49:57Z</time>
      </trkpt>
      <trkpt lat="45.50277" lon="2.62433">
        <ele>870</ele>
        <time>2018-09-26T12:49:57Z</time>
      </trkpt>
      <trkpt lat="45.5028" lon="2.62429">
        <ele>870</ele>
        <time>2018-09-26T12:49:57Z</time>
      </trkpt>
      <trkpt lat="45.50283" lon="2.62426">
        <ele>870</ele>
        <time>2018-09-26T12:49:57Z</time>
      </trkpt>
      <trkpt lat="45.50285" lon="2.62423">
        <ele>870</ele>
        <time>2018-09-26T12:49:57Z</time>
      </trkpt>
      <trkpt lat="45.50288" lon="2.6242">
        <ele>870</ele>
        <time>2018-09-26T12:49:57Z</time>
      </trkpt>
      <trkpt lat="45.50291" lon="2.62416">
        <ele>870</ele>
        <time>2018-09-26T12:49:57Z</time>
      </trkpt>
      <trkpt lat="45.50292" lon="2.62411">
        <ele>870</ele>
        <time>2018-09-26T12:49:57Z</time>
      </trkpt>
      <trkpt lat="45.50294" lon="2.62407">
        <ele>870</ele>
        <time>2018-09-26T12:49:57Z</time>
      </trkpt>
      <trkpt lat="45.50296" lon="2.62403">
        <ele>869</ele>
        <time>2018-09-26T12:49:57Z</time>
      </trkpt>
      <trkpt lat="45.50297" lon="2.62398">
        <ele>869</ele>
        <time>2018-09-26T12:49:57Z</time>
      </trkpt>
      <trkpt lat="45.50298" lon="2.62394">
        <ele>869</ele>
        <time>2018-09-26T12:49:57Z</time>
      </trkpt>
      <trkpt lat="45.503" lon="2.62389">
        <ele>869</ele>
        <time>2018-09-26T12:49:57Z</time>
      </trkpt>
      <trkpt lat="45.50301" lon="2.62383">
        <ele>869</ele>
        <time>2018-09-26T12:49:57Z</time>
      </trkpt>
      <trkpt lat="45.50302" lon="2.62378">
        <ele>868</ele>
        <time>2018-09-26T12:49:57Z</time>
      </trkpt>
      <trkpt lat="45.50303" lon="2.62373">
        <ele>868</ele>
        <time>2018-09-26T12:49:57Z</time>
      </trkpt>
      <trkpt lat="45.50304" lon="2.62368">
        <ele>868</ele>
        <time>2018-09-26T12:49:57Z</time>
      </trkpt>
      <trkpt lat="45.50305" lon="2.62363">
        <ele>868</ele>
        <time>2018-09-26T12:49:57Z</time>
      </trkpt>
      <trkpt lat="45.50305" lon="2.62359">
        <ele>868</ele>
        <time>2018-09-26T12:49:57Z</time>
      </trkpt>
      <trkpt lat="45.50306" lon="2.62354">
        <ele>868</ele>
        <time>2018-09-26T12:49:57Z</time>
      </trkpt>
      <trkpt lat="45.50307" lon="2.62348">
        <ele>867</ele>
        <time>2018-09-26T12:49:57Z</time>
      </trkpt>
      <trkpt lat="45.50308" lon="2.62344">
        <ele>867</ele>
        <time>2018-09-26T12:49:57Z</time>
      </trkpt>
      <trkpt lat="45.50309" lon="2.62339">
        <ele>867</ele>
        <time>2018-09-26T12:49:57Z</time>
      </trkpt>
      <trkpt lat="45.50311" lon="2.62335">
        <ele>867</ele>
        <time>2018-09-26T12:49:57Z</time>
      </trkpt>
      <trkpt lat="45.50311" lon="2.62332">
        <ele>867</ele>
        <time>2018-09-26T12:49:57Z</time>
      </trkpt>
      <trkpt lat="45.50311" lon="2.62331">
        <ele>867</ele>
        <time>2018-09-26T12:49:57Z</time>
      </trkpt>
      <trkpt lat="45.50313" lon="2.62326">
        <ele>867</ele>
        <time>2018-09-26T12:49:57Z</time>
      </trkpt>
      <trkpt lat="45.50315" lon="2.62321">
        <ele>866</ele>
        <time>2018-09-26T12:49:57Z</time>
      </trkpt>
      <trkpt lat="45.50316" lon="2.62316">
        <ele>866</ele>
        <time>2018-09-26T12:49:57Z</time>
      </trkpt>
      <trkpt lat="45.50317" lon="2.62311">
        <ele>866</ele>
        <time>2018-09-26T12:49:57Z</time>
      </trkpt>
      <trkpt lat="45.50318" lon="2.62306">
        <ele>866</ele>
        <time>2018-09-26T12:49:57Z</time>
      </trkpt>
      <trkpt lat="45.50319" lon="2.62302">
        <ele>866</ele>
        <time>2018-09-26T12:49:57Z</time>
      </trkpt>
      <trkpt lat="45.5032" lon="2.62298">
        <ele>866</ele>
        <time>2018-09-26T12:49:57Z</time>
      </trkpt>
      <trkpt lat="45.50321" lon="2.62294">
        <ele>866</ele>
        <time>2018-09-26T12:49:57Z</time>
      </trkpt>
      <trkpt lat="45.50322" lon="2.6229">
        <ele>865</ele>
        <time>2018-09-26T12:49:57Z</time>
      </trkpt>
      <trkpt lat="45.50324" lon="2.62286">
        <ele>865</ele>
        <time>2018-09-26T12:49:57Z</time>
      </trkpt>
      <trkpt lat="45.50325" lon="2.62281">
        <ele>865</ele>
        <time>2018-09-26T12:49:57Z</time>
      </trkpt>
      <trkpt lat="45.50326" lon="2.62277">
        <ele>865</ele>
        <time>2018-09-26T12:49:57Z</time>
      </trkpt>
      <trkpt lat="45.50328" lon="2.62273">
        <ele>865</ele>
        <time>2018-09-26T12:49:57Z</time>
      </trkpt>
      <trkpt lat="45.5033" lon="2.62268">
        <ele>865</ele>
        <time>2018-09-26T12:49:57Z</time>
      </trkpt>
      <trkpt lat="45.50332" lon="2.62263">
        <ele>865</ele>
        <time>2018-09-26T12:49:57Z</time>
      </trkpt>
      <trkpt lat="45.50333" lon="2.62258">
        <ele>865</ele>
        <time>2018-09-26T12:49:57Z</time>
      </trkpt>
      <trkpt lat="45.50335" lon="2.62254">
        <ele>865</ele>
        <time>2018-09-26T12:49:57Z</time>
      </trkpt>
      <trkpt lat="45.50336" lon="2.62249">
        <ele>865</ele>
        <time>2018-09-26T12:49:57Z</time>
      </trkpt>
      <trkpt lat="45.50338" lon="2.62245">
        <ele>865</ele>
        <time>2018-09-26T12:49:57Z</time>
      </trkpt>
      <trkpt lat="45.50339" lon="2.6224">
        <ele>865</ele>
        <time>2018-09-26T12:49:57Z</time>
      </trkpt>
      <trkpt lat="45.5034" lon="2.62235">
        <ele>865</ele>
        <time>2018-09-26T12:49:57Z</time>
      </trkpt>
      <trkpt lat="45.50341" lon="2.62231">
        <ele>865</ele>
        <time>2018-09-26T12:49:57Z</time>
      </trkpt>
      <trkpt lat="45.50341" lon="2.6223">
        <ele>865</ele>
        <time>2018-09-26T12:49:57Z</time>
      </trkpt>
      <trkpt lat="45.5034" lon="2.62229">
        <ele>865</ele>
        <time>2018-09-26T12:49:57Z</time>
      </trkpt>
      <trkpt lat="45.5034" lon="2.62224">
        <ele>865</ele>
        <time>2018-09-26T12:49:57Z</time>
      </trkpt>
      <trkpt lat="45.50341" lon="2.62218">
        <ele>865</ele>
        <time>2018-09-26T12:49:57Z</time>
      </trkpt>
      <trkpt lat="45.50341" lon="2.62211">
        <ele>864</ele>
        <time>2018-09-26T12:49:57Z</time>
      </trkpt>
      <trkpt lat="45.50342" lon="2.62206">
        <ele>864</ele>
        <time>2018-09-26T12:49:57Z</time>
      </trkpt>
      <trkpt lat="45.50342" lon="2.622">
        <ele>864</ele>
        <time>2018-09-26T12:49:57Z</time>
      </trkpt>
      <trkpt lat="45.50343" lon="2.62195">
        <ele>864</ele>
        <time>2018-09-26T12:49:57Z</time>
      </trkpt>
      <trkpt lat="45.50344" lon="2.62191">
        <ele>864</ele>
        <time>2018-09-26T12:49:57Z</time>
      </trkpt>
      <trkpt lat="45.50345" lon="2.62186">
        <ele>864</ele>
        <time>2018-09-26T12:49:57Z</time>
      </trkpt>
      <trkpt lat="45.50347" lon="2.62183">
        <ele>864</ele>
        <time>2018-09-26T12:49:57Z</time>
      </trkpt>
      <trkpt lat="45.50349" lon="2.62179">
        <ele>864</ele>
        <time>2018-09-26T12:49:57Z</time>
      </trkpt>
      <trkpt lat="45.50351" lon="2.62176">
        <ele>864</ele>
        <time>2018-09-26T12:49:57Z</time>
      </trkpt>
      <trkpt lat="45.50353" lon="2.62172">
        <ele>864</ele>
        <time>2018-09-26T12:49:57Z</time>
      </trkpt>
      <trkpt lat="45.50355" lon="2.62168">
        <ele>865</ele>
        <time>2018-09-26T12:49:57Z</time>
      </trkpt>
      <trkpt lat="45.50357" lon="2.62164">
        <ele>865</ele>
        <time>2018-09-26T12:49:57Z</time>
      </trkpt>
      <trkpt lat="45.50359" lon="2.6216">
        <ele>865</ele>
        <time>2018-09-26T12:49:57Z</time>
      </trkpt>
      <trkpt lat="45.50362" lon="2.62156">
        <ele>865</ele>
        <time>2018-09-26T12:49:57Z</time>
      </trkpt>
      <trkpt lat="45.50363" lon="2.62152">
        <ele>865</ele>
        <time>2018-09-26T12:49:57Z</time>
      </trkpt>
      <trkpt lat="45.50364" lon="2.62148">
        <ele>865</ele>
        <time>2018-09-26T12:49:57Z</time>
      </trkpt>
      <trkpt lat="45.50367" lon="2.62143">
        <ele>866</ele>
        <time>2018-09-26T12:49:57Z</time>
      </trkpt>
      <trkpt lat="45.50369" lon="2.62139">
        <ele>866</ele>
        <time>2018-09-26T12:49:57Z</time>
      </trkpt>
      <trkpt lat="45.50371" lon="2.62135">
        <ele>866</ele>
        <time>2018-09-26T12:49:57Z</time>
      </trkpt>
      <trkpt lat="45.50374" lon="2.62131">
        <ele>866</ele>
        <time>2018-09-26T12:49:57Z</time>
      </trkpt>
      <trkpt lat="45.50376" lon="2.62127">
        <ele>866</ele>
        <time>2018-09-26T12:49:57Z</time>
      </trkpt>
      <trkpt lat="45.50378" lon="2.62124">
        <ele>867</ele>
        <time>2018-09-26T12:49:57Z</time>
      </trkpt>
      <trkpt lat="45.5038" lon="2.62122">
        <ele>867</ele>
        <time>2018-09-26T12:49:57Z</time>
      </trkpt>
      <trkpt lat="45.50381" lon="2.62121">
        <ele>867</ele>
        <time>2018-09-26T12:49:57Z</time>
      </trkpt>
      <trkpt lat="45.50381" lon="2.6212">
        <ele>867</ele>
        <time>2018-09-26T12:49:57Z</time>
      </trkpt>
      <trkpt lat="45.50381" lon="2.62119">
        <ele>867</ele>
        <time>2018-09-26T12:49:57Z</time>
      </trkpt>
      <trkpt lat="45.50381" lon="2.62118">
        <ele>867</ele>
        <time>2018-09-26T12:49:57Z</time>
      </trkpt>
      <trkpt lat="45.50381" lon="2.62117">
        <ele>867</ele>
        <time>2018-09-26T12:49:57Z</time>
      </trkpt>
      <trkpt lat="45.50381" lon="2.62116">
        <ele>867</ele>
        <time>2018-09-26T12:49:57Z</time>
      </trkpt>
      <trkpt lat="45.50381" lon="2.62117">
        <ele>867</ele>
        <time>2018-09-26T12:49:57Z</time>
      </trkpt>
      <trkpt lat="45.50381" lon="2.62117">
        <ele>867</ele>
        <time>2018-09-26T12:49:57Z</time>
      </trkpt>
      <trkpt lat="45.50381" lon="2.62117">
        <ele>867</ele>
        <time>2018-09-26T12:49:57Z</time>
      </trkpt>
      <trkpt lat="45.50381" lon="2.62117">
        <ele>867</ele>
        <time>2018-09-26T12:49:57Z</time>
      </trkpt>
      <trkpt lat="45.50381" lon="2.62117">
        <ele>867</ele>
        <time>2018-09-26T12:49:57Z</time>
      </trkpt>
      <trkpt lat="45.50381" lon="2.62116">
        <ele>867</ele>
        <time>2018-09-26T12:49:57Z</time>
      </trkpt>
      <trkpt lat="45.50381" lon="2.62116">
        <ele>867</ele>
        <time>2018-09-26T12:49:57Z</time>
      </trkpt>
      <trkpt lat="45.5038" lon="2.62116">
        <ele>867</ele>
        <time>2018-09-26T12:49:57Z</time>
      </trkpt>
      <trkpt lat="45.5038" lon="2.62116">
        <ele>867</ele>
        <time>2018-09-26T12:49:57Z</time>
      </trkpt>
      <trkpt lat="45.5038" lon="2.62116">
        <ele>867</ele>
        <time>2018-09-26T12:49:57Z</time>
      </trkpt>
      <trkpt lat="45.5038" lon="2.62116">
        <ele>867</ele>
        <time>2018-09-26T12:49:57Z</time>
      </trkpt>
      <trkpt lat="45.5038" lon="2.62116">
        <ele>867</ele>
        <time>2018-09-26T12:49:57Z</time>
      </trkpt>
      <trkpt lat="45.50379" lon="2.62116">
        <ele>867</ele>
        <time>2018-09-26T12:49:57Z</time>
      </trkpt>
      <trkpt lat="45.50379" lon="2.62115">
        <ele>867</ele>
        <time>2018-09-26T12:49:57Z</time>
      </trkpt>
      <trkpt lat="45.5039" lon="2.62108">
        <ele>867</ele>
        <time>2018-09-26T12:49:57Z</time>
      </trkpt>
      <trkpt lat="45.5039" lon="2.62108">
        <ele>867</ele>
        <time>2018-09-26T12:49:57Z</time>
      </trkpt>
      <trkpt lat="45.5039" lon="2.62108">
        <ele>867</ele>
        <time>2018-09-26T12:49:57Z</time>
      </trkpt>
      <trkpt lat="45.5039" lon="2.62108">
        <ele>867</ele>
        <time>2018-09-26T12:49:57Z</time>
      </trkpt>
      <trkpt lat="45.5039" lon="2.62108">
        <ele>867</ele>
        <time>2018-09-26T12:49:57Z</time>
      </trkpt>
      <trkpt lat="45.5039" lon="2.62108">
        <ele>867</ele>
        <time>2018-09-26T12:49:57Z</time>
      </trkpt>
      <trkpt lat="45.5039" lon="2.62108">
        <ele>867</ele>
        <time>2018-09-26T12:49:57Z</time>
      </trkpt>
      <trkpt lat="45.5039" lon="2.62107">
        <ele>867</ele>
        <time>2018-09-26T12:49:57Z</time>
      </trkpt>
      <trkpt lat="45.5039" lon="2.62108">
        <ele>867</ele>
        <time>2018-09-26T12:49:57Z</time>
      </trkpt>
      <trkpt lat="45.5039" lon="2.62108">
        <ele>867</ele>
        <time>2018-09-26T12:49:57Z</time>
      </trkpt>
      <trkpt lat="45.5039" lon="2.62108">
        <ele>867</ele>
        <time>2018-09-26T12:49:57Z</time>
      </trkpt>
      <trkpt lat="45.5039" lon="2.62108">
        <ele>867</ele>
        <time>2018-09-26T12:49:57Z</time>
      </trkpt>
      <trkpt lat="45.50391" lon="2.62109">
        <ele>868</ele>
        <time>2018-09-26T12:49:57Z</time>
      </trkpt>
      <trkpt lat="45.50391" lon="2.6211">
        <ele>868</ele>
        <time>2018-09-26T12:49:57Z</time>
      </trkpt>
      <trkpt lat="45.50392" lon="2.62111">
        <ele>868</ele>
        <time>2018-09-26T12:49:57Z</time>
      </trkpt>
      <trkpt lat="45.50394" lon="2.62112">
        <ele>868</ele>
        <time>2018-09-26T12:49:57Z</time>
      </trkpt>
      <trkpt lat="45.50396" lon="2.62112">
        <ele>868</ele>
        <time>2018-09-26T12:49:57Z</time>
      </trkpt>
      <trkpt lat="45.50398" lon="2.62112">
        <ele>868</ele>
        <time>2018-09-26T12:49:57Z</time>
      </trkpt>
      <trkpt lat="45.504" lon="2.62112">
        <ele>868</ele>
        <time>2018-09-26T12:49:57Z</time>
      </trkpt>
      <trkpt lat="45.50401" lon="2.62113">
        <ele>869</ele>
        <time>2018-09-26T12:49:57Z</time>
      </trkpt>
      <trkpt lat="45.50403" lon="2.62113">
        <ele>869</ele>
        <time>2018-09-26T12:49:57Z</time>
      </trkpt>
      <trkpt lat="45.50404" lon="2.62113">
        <ele>869</ele>
        <time>2018-09-26T12:49:57Z</time>
      </trkpt>
      <trkpt lat="45.50406" lon="2.62113">
        <ele>869</ele>
        <time>2018-09-26T12:49:57Z</time>
      </trkpt>
      <trkpt lat="45.50407" lon="2.62113">
        <ele>869</ele>
        <time>2018-09-26T12:49:57Z</time>
      </trkpt>
      <trkpt lat="45.50408" lon="2.62113">
        <ele>869</ele>
        <time>2018-09-26T12:49:57Z</time>
      </trkpt>
      <trkpt lat="45.5041" lon="2.62113">
        <ele>869</ele>
        <time>2018-09-26T12:49:57Z</time>
      </trkpt>
      <trkpt lat="45.50411" lon="2.62113">
        <ele>869</ele>
        <time>2018-09-26T12:49:57Z</time>
      </trkpt>
      <trkpt lat="45.50413" lon="2.62113">
        <ele>870</ele>
        <time>2018-09-26T12:49:57Z</time>
      </trkpt>
      <trkpt lat="45.50415" lon="2.62114">
        <ele>870</ele>
        <time>2018-09-26T12:49:57Z</time>
      </trkpt>
      <trkpt lat="45.50418" lon="2.62114">
        <ele>870</ele>
        <time>2018-09-26T12:49:57Z</time>
      </trkpt>
      <trkpt lat="45.5042" lon="2.62114">
        <ele>870</ele>
        <time>2018-09-26T12:49:57Z</time>
      </trkpt>
      <trkpt lat="45.50421" lon="2.62114">
        <ele>870</ele>
        <time>2018-09-26T12:49:57Z</time>
      </trkpt>
      <trkpt lat="45.50423" lon="2.62115">
        <ele>871</ele>
        <time>2018-09-26T12:49:57Z</time>
      </trkpt>
      <trkpt lat="45.50425" lon="2.62115">
        <ele>871</ele>
        <time>2018-09-26T12:49:57Z</time>
      </trkpt>
      <trkpt lat="45.50427" lon="2.62116">
        <ele>871</ele>
        <time>2018-09-26T12:49:57Z</time>
      </trkpt>
      <trkpt lat="45.5043" lon="2.62116">
        <ele>871</ele>
        <time>2018-09-26T12:49:57Z</time>
      </trkpt>
      <trkpt lat="45.50432" lon="2.62116">
        <ele>871</ele>
        <time>2018-09-26T12:49:57Z</time>
      </trkpt>
      <trkpt lat="45.50434" lon="2.62116">
        <ele>872</ele>
        <time>2018-09-26T12:49:57Z</time>
      </trkpt>
      <trkpt lat="45.50436" lon="2.62115">
        <ele>872</ele>
        <time>2018-09-26T12:49:57Z</time>
      </trkpt>
      <trkpt lat="45.50438" lon="2.62115">
        <ele>872</ele>
        <time>2018-09-26T12:49:57Z</time>
      </trkpt>
      <trkpt lat="45.5044" lon="2.62115">
        <ele>872</ele>
        <time>2018-09-26T12:49:57Z</time>
      </trkpt>
      <trkpt lat="45.50442" lon="2.62115">
        <ele>872</ele>
        <time>2018-09-26T12:49:57Z</time>
      </trkpt>
      <trkpt lat="45.50444" lon="2.62115">
        <ele>872</ele>
        <time>2018-09-26T12:49:57Z</time>
      </trkpt>
      <trkpt lat="45.50446" lon="2.62115">
        <ele>873</ele>
        <time>2018-09-26T12:49:57Z</time>
      </trkpt>
      <trkpt lat="45.50447" lon="2.62115">
        <ele>873</ele>
        <time>2018-09-26T12:49:57Z</time>
      </trkpt>
      <trkpt lat="45.50449" lon="2.62115">
        <ele>873</ele>
        <time>2018-09-26T12:49:57Z</time>
      </trkpt>
      <trkpt lat="45.5045" lon="2.62114">
        <ele>873</ele>
        <time>2018-09-26T12:49:57Z</time>
      </trkpt>
      <trkpt lat="45.50452" lon="2.62114">
        <ele>873</ele>
        <time>2018-09-26T12:49:57Z</time>
      </trkpt>
      <trkpt lat="45.50453" lon="2.62114">
        <ele>873</ele>
        <time>2018-09-26T12:49:57Z</time>
      </trkpt>
      <trkpt lat="45.50455" lon="2.62115">
        <ele>873</ele>
        <time>2018-09-26T12:49:57Z</time>
      </trkpt>
      <trkpt lat="45.50456" lon="2.62115">
        <ele>873</ele>
        <time>2018-09-26T12:49:57Z</time>
      </trkpt>
      <trkpt lat="45.50459" lon="2.62114">
        <ele>874</ele>
        <time>2018-09-26T12:49:57Z</time>
      </trkpt>
      <trkpt lat="45.50461" lon="2.62112">
        <ele>874</ele>
        <time>2018-09-26T12:49:57Z</time>
      </trkpt>
      <trkpt lat="45.50463" lon="2.62112">
        <ele>874</ele>
        <time>2018-09-26T12:49:57Z</time>
      </trkpt>
      <trkpt lat="45.50465" lon="2.62111">
        <ele>874</ele>
        <time>2018-09-26T12:49:57Z</time>
      </trkpt>
      <trkpt lat="45.50466" lon="2.62109">
        <ele>874</ele>
        <time>2018-09-26T12:49:57Z</time>
      </trkpt>
      <trkpt lat="45.50468" lon="2.62106">
        <ele>874</ele>
        <time>2018-09-26T12:49:57Z</time>
      </trkpt>
      <trkpt lat="45.5047" lon="2.62105">
        <ele>875</ele>
        <time>2018-09-26T12:49:57Z</time>
      </trkpt>
      <trkpt lat="45.50473" lon="2.62104">
        <ele>875</ele>
        <time>2018-09-26T12:49:57Z</time>
      </trkpt>
      <trkpt lat="45.50475" lon="2.62102">
        <ele>875</ele>
        <time>2018-09-26T12:49:57Z</time>
      </trkpt>
      <trkpt lat="45.50477" lon="2.62099">
        <ele>875</ele>
        <time>2018-09-26T12:49:57Z</time>
      </trkpt>
      <trkpt lat="45.50479" lon="2.62097">
        <ele>875</ele>
        <time>2018-09-26T12:49:57Z</time>
      </trkpt>
      <trkpt lat="45.50481" lon="2.62095">
        <ele>876</ele>
        <time>2018-09-26T12:49:57Z</time>
      </trkpt>
      <trkpt lat="45.50484" lon="2.62091">
        <ele>876</ele>
        <time>2018-09-26T12:49:57Z</time>
      </trkpt>
      <trkpt lat="45.50487" lon="2.62089">
        <ele>876</ele>
        <time>2018-09-26T12:49:57Z</time>
      </trkpt>
      <trkpt lat="45.50488" lon="2.62089">
        <ele>876</ele>
        <time>2018-09-26T12:49:57Z</time>
      </trkpt>
      <trkpt lat="45.5049" lon="2.62088">
        <ele>876</ele>
        <time>2018-09-26T12:49:57Z</time>
      </trkpt>
      <trkpt lat="45.50491" lon="2.62087">
        <ele>877</ele>
        <time>2018-09-26T12:49:57Z</time>
      </trkpt>
      <trkpt lat="45.50493" lon="2.62086">
        <ele>877</ele>
        <time>2018-09-26T12:49:57Z</time>
      </trkpt>
      <trkpt lat="45.50495" lon="2.62085">
        <ele>877</ele>
        <time>2018-09-26T12:49:57Z</time>
      </trkpt>
      <trkpt lat="45.50496" lon="2.62084">
        <ele>877</ele>
        <time>2018-09-26T12:49:57Z</time>
      </trkpt>
      <trkpt lat="45.50498" lon="2.62083">
        <ele>877</ele>
        <time>2018-09-26T12:49:57Z</time>
      </trkpt>
      <trkpt lat="45.50502" lon="2.6208">
        <ele>878</ele>
        <time>2018-09-26T12:49:57Z</time>
      </trkpt>
      <trkpt lat="45.50508" lon="2.62077">
        <ele>878</ele>
        <time>2018-09-26T12:49:57Z</time>
      </trkpt>
      <trkpt lat="45.50512" lon="2.62075">
        <ele>879</ele>
        <time>2018-09-26T12:49:57Z</time>
      </trkpt>
      <trkpt lat="45.50515" lon="2.62072">
        <ele>879</ele>
        <time>2018-09-26T12:49:57Z</time>
      </trkpt>
      <trkpt lat="45.50518" lon="2.6207">
        <ele>879</ele>
        <time>2018-09-26T12:49:57Z</time>
      </trkpt>
      <trkpt lat="45.5052" lon="2.62067">
        <ele>879</ele>
        <time>2018-09-26T12:49:57Z</time>
      </trkpt>
      <trkpt lat="45.50522" lon="2.62065">
        <ele>879</ele>
        <time>2018-09-26T12:49:57Z</time>
      </trkpt>
      <trkpt lat="45.50524" lon="2.62063">
        <ele>880</ele>
        <time>2018-09-26T12:49:57Z</time>
      </trkpt>
      <trkpt lat="45.50526" lon="2.6206">
        <ele>880</ele>
        <time>2018-09-26T12:49:57Z</time>
      </trkpt>
      <trkpt lat="45.50528" lon="2.62057">
        <ele>880</ele>
        <time>2018-09-26T12:49:57Z</time>
      </trkpt>
      <trkpt lat="45.50528" lon="2.62053">
        <ele>880</ele>
        <time>2018-09-26T12:49:57Z</time>
      </trkpt>
      <trkpt lat="45.50529" lon="2.6205">
        <ele>880</ele>
        <time>2018-09-26T12:49:57Z</time>
      </trkpt>
      <trkpt lat="45.50531" lon="2.62047">
        <ele>880</ele>
        <time>2018-09-26T12:49:57Z</time>
      </trkpt>
      <trkpt lat="45.50532" lon="2.62044">
        <ele>880</ele>
        <time>2018-09-26T12:49:57Z</time>
      </trkpt>
      <trkpt lat="45.50533" lon="2.62042">
        <ele>880</ele>
        <time>2018-09-26T12:49:57Z</time>
      </trkpt>
      <trkpt lat="45.50534" lon="2.62039">
        <ele>880</ele>
        <time>2018-09-26T12:49:57Z</time>
      </trkpt>
      <trkpt lat="45.50535" lon="2.62035">
        <ele>880</ele>
        <time>2018-09-26T12:49:57Z</time>
      </trkpt>
      <trkpt lat="45.50537" lon="2.62032">
        <ele>880</ele>
        <time>2018-09-26T12:49:57Z</time>
      </trkpt>
      <trkpt lat="45.50538" lon="2.6203">
        <ele>880</ele>
        <time>2018-09-26T12:49:57Z</time>
      </trkpt>
      <trkpt lat="45.50539" lon="2.62027">
        <ele>880</ele>
        <time>2018-09-26T12:49:57Z</time>
      </trkpt>
      <trkpt lat="45.50541" lon="2.62025">
        <ele>881</ele>
        <time>2018-09-26T12:49:57Z</time>
      </trkpt>
      <trkpt lat="45.50543" lon="2.62023">
        <ele>881</ele>
        <time>2018-09-26T12:49:57Z</time>
      </trkpt>
      <trkpt lat="45.50545" lon="2.62022">
        <ele>881</ele>
        <time>2018-09-26T12:49:57Z</time>
      </trkpt>
      <trkpt lat="45.50547" lon="2.6202">
        <ele>881</ele>
        <time>2018-09-26T12:49:57Z</time>
      </trkpt>
      <trkpt lat="45.50549" lon="2.62019">
        <ele>881</ele>
        <time>2018-09-26T12:49:57Z</time>
      </trkpt>
      <trkpt lat="45.50551" lon="2.62018">
        <ele>881</ele>
        <time>2018-09-26T12:49:57Z</time>
      </trkpt>
      <trkpt lat="45.50553" lon="2.62017">
        <ele>882</ele>
        <time>2018-09-26T12:49:57Z</time>
      </trkpt>
      <trkpt lat="45.50556" lon="2.62016">
        <ele>882</ele>
        <time>2018-09-26T12:49:57Z</time>
      </trkpt>
      <trkpt lat="45.50558" lon="2.62016">
        <ele>882</ele>
        <time>2018-09-26T12:49:57Z</time>
      </trkpt>
      <trkpt lat="45.5056" lon="2.62015">
        <ele>882</ele>
        <time>2018-09-26T12:49:57Z</time>
      </trkpt>
      <trkpt lat="45.50562" lon="2.62014">
        <ele>882</ele>
        <time>2018-09-26T12:49:57Z</time>
      </trkpt>
      <trkpt lat="45.50564" lon="2.62012">
        <ele>882</ele>
        <time>2018-09-26T12:49:57Z</time>
      </trkpt>
      <trkpt lat="45.50566" lon="2.62011">
        <ele>882</ele>
        <time>2018-09-26T12:49:57Z</time>
      </trkpt>
      <trkpt lat="45.50568" lon="2.6201">
        <ele>883</ele>
        <time>2018-09-26T12:49:57Z</time>
      </trkpt>
      <trkpt lat="45.5057" lon="2.62009">
        <ele>883</ele>
        <time>2018-09-26T12:49:57Z</time>
      </trkpt>
      <trkpt lat="45.50572" lon="2.62008">
        <ele>883</ele>
        <time>2018-09-26T12:49:57Z</time>
      </trkpt>
      <trkpt lat="45.50574" lon="2.62008">
        <ele>883</ele>
        <time>2018-09-26T12:49:57Z</time>
      </trkpt>
      <trkpt lat="45.50576" lon="2.62007">
        <ele>883</ele>
        <time>2018-09-26T12:49:57Z</time>
      </trkpt>
      <trkpt lat="45.50578" lon="2.62006">
        <ele>884</ele>
        <time>2018-09-26T12:49:57Z</time>
      </trkpt>
      <trkpt lat="45.50581" lon="2.62005">
        <ele>884</ele>
        <time>2018-09-26T12:49:57Z</time>
      </trkpt>
      <trkpt lat="45.50583" lon="2.62003">
        <ele>884</ele>
        <time>2018-09-26T12:49:57Z</time>
      </trkpt>
      <trkpt lat="45.50585" lon="2.62003">
        <ele>884</ele>
        <time>2018-09-26T12:49:57Z</time>
      </trkpt>
      <trkpt lat="45.50588" lon="2.62003">
        <ele>884</ele>
        <time>2018-09-26T12:49:57Z</time>
      </trkpt>
      <trkpt lat="45.5059" lon="2.62002">
        <ele>885</ele>
        <time>2018-09-26T12:49:57Z</time>
      </trkpt>
      <trkpt lat="45.50592" lon="2.62001">
        <ele>885</ele>
        <time>2018-09-26T12:49:57Z</time>
      </trkpt>
      <trkpt lat="45.50595" lon="2.62">
        <ele>885</ele>
        <time>2018-09-26T12:49:57Z</time>
      </trkpt>
      <trkpt lat="45.50597" lon="2.61999">
        <ele>885</ele>
        <time>2018-09-26T12:49:57Z</time>
      </trkpt>
      <trkpt lat="45.50599" lon="2.61998">
        <ele>885</ele>
        <time>2018-09-26T12:49:57Z</time>
      </trkpt>
      <trkpt lat="45.50601" lon="2.61997">
        <ele>885</ele>
        <time>2018-09-26T12:49:57Z</time>
      </trkpt>
      <trkpt lat="45.50603" lon="2.61995">
        <ele>886</ele>
        <time>2018-09-26T12:49:57Z</time>
      </trkpt>
      <trkpt lat="45.50606" lon="2.61994">
        <ele>886</ele>
        <time>2018-09-26T12:49:57Z</time>
      </trkpt>
      <trkpt lat="45.50607" lon="2.61993">
        <ele>886</ele>
        <time>2018-09-26T12:49:57Z</time>
      </trkpt>
      <trkpt lat="45.50609" lon="2.61992">
        <ele>886</ele>
        <time>2018-09-26T12:49:57Z</time>
      </trkpt>
      <trkpt lat="45.50611" lon="2.6199">
        <ele>886</ele>
        <time>2018-09-26T12:49:57Z</time>
      </trkpt>
      <trkpt lat="45.50614" lon="2.61989">
        <ele>886</ele>
        <time>2018-09-26T12:49:57Z</time>
      </trkpt>
      <trkpt lat="45.50616" lon="2.61988">
        <ele>886</ele>
        <time>2018-09-26T12:49:57Z</time>
      </trkpt>
      <trkpt lat="45.50618" lon="2.61987">
        <ele>887</ele>
        <time>2018-09-26T12:49:57Z</time>
      </trkpt>
      <trkpt lat="45.5062" lon="2.61985">
        <ele>887</ele>
        <time>2018-09-26T12:49:57Z</time>
      </trkpt>
      <trkpt lat="45.50621" lon="2.61983">
        <ele>887</ele>
        <time>2018-09-26T12:49:57Z</time>
      </trkpt>
      <trkpt lat="45.50624" lon="2.61982">
        <ele>887</ele>
        <time>2018-09-26T12:49:57Z</time>
      </trkpt>
      <trkpt lat="45.50626" lon="2.61981">
        <ele>887</ele>
        <time>2018-09-26T12:49:57Z</time>
      </trkpt>
      <trkpt lat="45.50628" lon="2.61981">
        <ele>887</ele>
        <time>2018-09-26T12:49:57Z</time>
      </trkpt>
      <trkpt lat="45.50631" lon="2.6198">
        <ele>888</ele>
        <time>2018-09-26T12:49:57Z</time>
      </trkpt>
      <trkpt lat="45.50633" lon="2.6198">
        <ele>888</ele>
        <time>2018-09-26T12:49:57Z</time>
      </trkpt>
      <trkpt lat="45.50635" lon="2.61979">
        <ele>888</ele>
        <time>2018-09-26T12:49:57Z</time>
      </trkpt>
      <trkpt lat="45.50637" lon="2.61979">
        <ele>888</ele>
        <time>2018-09-26T12:49:57Z</time>
      </trkpt>
      <trkpt lat="45.50639" lon="2.61979">
        <ele>888</ele>
        <time>2018-09-26T12:49:57Z</time>
      </trkpt>
      <trkpt lat="45.50642" lon="2.61979">
        <ele>888</ele>
        <time>2018-09-26T12:49:57Z</time>
      </trkpt>
      <trkpt lat="45.50644" lon="2.6198">
        <ele>888</ele>
        <time>2018-09-26T12:49:57Z</time>
      </trkpt>
      <trkpt lat="45.50647" lon="2.61979">
        <ele>888</ele>
        <time>2018-09-26T12:49:57Z</time>
      </trkpt>
      <trkpt lat="45.50649" lon="2.61979">
        <ele>888</ele>
        <time>2018-09-26T12:49:57Z</time>
      </trkpt>
      <trkpt lat="45.50652" lon="2.61979">
        <ele>889</ele>
        <time>2018-09-26T12:49:57Z</time>
      </trkpt>
      <trkpt lat="45.50654" lon="2.61979">
        <ele>889</ele>
        <time>2018-09-26T12:49:57Z</time>
      </trkpt>
      <trkpt lat="45.50656" lon="2.61978">
        <ele>889</ele>
        <time>2018-09-26T12:49:57Z</time>
      </trkpt>
      <trkpt lat="45.50659" lon="2.61978">
        <ele>889</ele>
        <time>2018-09-26T12:49:57Z</time>
      </trkpt>
      <trkpt lat="45.50661" lon="2.61978">
        <ele>889</ele>
        <time>2018-09-26T12:49:57Z</time>
      </trkpt>
      <trkpt lat="45.50662" lon="2.61978">
        <ele>889</ele>
        <time>2018-09-26T12:49:57Z</time>
      </trkpt>
      <trkpt lat="45.50664" lon="2.61977">
        <ele>889</ele>
        <time>2018-09-26T12:49:57Z</time>
      </trkpt>
      <trkpt lat="45.50667" lon="2.61976">
        <ele>889</ele>
        <time>2018-09-26T12:49:57Z</time>
      </trkpt>
      <trkpt lat="45.50669" lon="2.61976">
        <ele>889</ele>
        <time>2018-09-26T12:49:57Z</time>
      </trkpt>
      <trkpt lat="45.5067" lon="2.61974">
        <ele>889</ele>
        <time>2018-09-26T12:49:57Z</time>
      </trkpt>
      <trkpt lat="45.50671" lon="2.61974">
        <ele>889</ele>
        <time>2018-09-26T12:49:57Z</time>
      </trkpt>
      <trkpt lat="45.50671" lon="2.61974">
        <ele>889</ele>
        <time>2018-09-26T12:49:57Z</time>
      </trkpt>
      <trkpt lat="45.50672" lon="2.61973">
        <ele>889</ele>
        <time>2018-09-26T12:49:57Z</time>
      </trkpt>
      <trkpt lat="45.50674" lon="2.61971">
        <ele>890</ele>
        <time>2018-09-26T12:49:57Z</time>
      </trkpt>
      <trkpt lat="45.50675" lon="2.61968">
        <ele>890</ele>
        <time>2018-09-26T12:49:57Z</time>
      </trkpt>
      <trkpt lat="45.50677" lon="2.61967">
        <ele>890</ele>
        <time>2018-09-26T12:49:57Z</time>
      </trkpt>
      <trkpt lat="45.50678" lon="2.61966">
        <ele>890</ele>
        <time>2018-09-26T12:49:57Z</time>
      </trkpt>
      <trkpt lat="45.5068" lon="2.61964">
        <ele>890</ele>
        <time>2018-09-26T12:49:57Z</time>
      </trkpt>
      <trkpt lat="45.50681" lon="2.61962">
        <ele>890</ele>
        <time>2018-09-26T12:49:57Z</time>
      </trkpt>
      <trkpt lat="45.50682" lon="2.6196">
        <ele>890</ele>
        <time>2018-09-26T12:49:57Z</time>
      </trkpt>
      <trkpt lat="45.50683" lon="2.61957">
        <ele>889</ele>
        <time>2018-09-26T12:49:57Z</time>
      </trkpt>
      <trkpt lat="45.50685" lon="2.61955">
        <ele>889</ele>
        <time>2018-09-26T12:49:57Z</time>
      </trkpt>
      <trkpt lat="45.50687" lon="2.61952">
        <ele>889</ele>
        <time>2018-09-26T12:49:57Z</time>
      </trkpt>
      <trkpt lat="45.50689" lon="2.6195">
        <ele>889</ele>
        <time>2018-09-26T12:49:57Z</time>
      </trkpt>
      <trkpt lat="45.5069" lon="2.61948">
        <ele>889</ele>
        <time>2018-09-26T12:49:57Z</time>
      </trkpt>
      <trkpt lat="45.50692" lon="2.61946">
        <ele>889</ele>
        <time>2018-09-26T12:49:57Z</time>
      </trkpt>
      <trkpt lat="45.50695" lon="2.61944">
        <ele>889</ele>
        <time>2018-09-26T12:49:57Z</time>
      </trkpt>
      <trkpt lat="45.50697" lon="2.61942">
        <ele>889</ele>
        <time>2018-09-26T12:49:57Z</time>
      </trkpt>
      <trkpt lat="45.507" lon="2.61941">
        <ele>889</ele>
        <time>2018-09-26T12:49:57Z</time>
      </trkpt>
      <trkpt lat="45.50702" lon="2.6194">
        <ele>889</ele>
        <time>2018-09-26T12:49:57Z</time>
      </trkpt>
      <trkpt lat="45.50704" lon="2.61939">
        <ele>889</ele>
        <time>2018-09-26T12:49:57Z</time>
      </trkpt>
      <trkpt lat="45.50706" lon="2.61938">
        <ele>889</ele>
        <time>2018-09-26T12:49:57Z</time>
      </trkpt>
      <trkpt lat="45.50708" lon="2.61938">
        <ele>889</ele>
        <time>2018-09-26T12:49:57Z</time>
      </trkpt>
      <trkpt lat="45.5071" lon="2.61938">
        <ele>889</ele>
        <time>2018-09-26T12:49:57Z</time>
      </trkpt>
      <trkpt lat="45.50713" lon="2.61938">
        <ele>889</ele>
        <time>2018-09-26T12:49:57Z</time>
      </trkpt>
      <trkpt lat="45.50715" lon="2.61937">
        <ele>889</ele>
        <time>2018-09-26T12:49:57Z</time>
      </trkpt>
      <trkpt lat="45.50716" lon="2.61937">
        <ele>889</ele>
        <time>2018-09-26T12:49:57Z</time>
      </trkpt>
      <trkpt lat="45.50718" lon="2.61937">
        <ele>889</ele>
        <time>2018-09-26T12:49:57Z</time>
      </trkpt>
      <trkpt lat="45.5072" lon="2.61937">
        <ele>889</ele>
        <time>2018-09-26T12:49:57Z</time>
      </trkpt>
      <trkpt lat="45.50721" lon="2.61938">
        <ele>889</ele>
        <time>2018-09-26T12:49:57Z</time>
      </trkpt>
      <trkpt lat="45.50723" lon="2.61939">
        <ele>889</ele>
        <time>2018-09-26T12:49:57Z</time>
      </trkpt>
      <trkpt lat="45.50725" lon="2.6194">
        <ele>889</ele>
        <time>2018-09-26T12:49:57Z</time>
      </trkpt>
      <trkpt lat="45.50726" lon="2.61941">
        <ele>889</ele>
        <time>2018-09-26T12:49:57Z</time>
      </trkpt>
      <trkpt lat="45.50728" lon="2.61942">
        <ele>889</ele>
        <time>2018-09-26T12:49:57Z</time>
      </trkpt>
      <trkpt lat="45.5073" lon="2.61944">
        <ele>889</ele>
        <time>2018-09-26T12:49:57Z</time>
      </trkpt>
      <trkpt lat="45.50732" lon="2.61945">
        <ele>889</ele>
        <time>2018-09-26T12:49:57Z</time>
      </trkpt>
      <trkpt lat="45.50734" lon="2.61946">
        <ele>889</ele>
        <time>2018-09-26T12:49:57Z</time>
      </trkpt>
      <trkpt lat="45.50736" lon="2.61946">
        <ele>889</ele>
        <time>2018-09-26T12:49:57Z</time>
      </trkpt>
      <trkpt lat="45.50738" lon="2.61947">
        <ele>889</ele>
        <time>2018-09-26T12:49:57Z</time>
      </trkpt>
      <trkpt lat="45.50741" lon="2.61947">
        <ele>889</ele>
        <time>2018-09-26T12:49:57Z</time>
      </trkpt>
      <trkpt lat="45.50743" lon="2.61947">
        <ele>889</ele>
        <time>2018-09-26T12:49:57Z</time>
      </trkpt>
      <trkpt lat="45.50745" lon="2.61946">
        <ele>889</ele>
        <time>2018-09-26T12:49:57Z</time>
      </trkpt>
      <trkpt lat="45.50747" lon="2.61946">
        <ele>889</ele>
        <time>2018-09-26T12:49:57Z</time>
      </trkpt>
      <trkpt lat="45.50749" lon="2.61945">
        <ele>889</ele>
        <time>2018-09-26T12:49:57Z</time>
      </trkpt>
      <trkpt lat="45.50752" lon="2.61946">
        <ele>889</ele>
        <time>2018-09-26T12:49:57Z</time>
      </trkpt>
      <trkpt lat="45.50755" lon="2.61946">
        <ele>889</ele>
        <time>2018-09-26T12:49:57Z</time>
      </trkpt>
      <trkpt lat="45.50758" lon="2.61946">
        <ele>889</ele>
        <time>2018-09-26T12:49:57Z</time>
      </trkpt>
      <trkpt lat="45.50759" lon="2.61947">
        <ele>889</ele>
        <time>2018-09-26T12:49:57Z</time>
      </trkpt>
      <trkpt lat="45.50762" lon="2.61948">
        <ele>889</ele>
        <time>2018-09-26T12:49:57Z</time>
      </trkpt>
      <trkpt lat="45.50765" lon="2.6195">
        <ele>889</ele>
        <time>2018-09-26T12:49:57Z</time>
      </trkpt>
      <trkpt lat="45.50766" lon="2.6195">
        <ele>889</ele>
        <time>2018-09-26T12:49:57Z</time>
      </trkpt>
      <trkpt lat="45.50769" lon="2.6195">
        <ele>888</ele>
        <time>2018-09-26T12:49:57Z</time>
      </trkpt>
      <trkpt lat="45.50771" lon="2.6195">
        <ele>888</ele>
        <time>2018-09-26T12:49:57Z</time>
      </trkpt>
      <trkpt lat="45.50774" lon="2.61951">
        <ele>888</ele>
        <time>2018-09-26T12:49:57Z</time>
      </trkpt>
      <trkpt lat="45.50776" lon="2.61952">
        <ele>888</ele>
        <time>2018-09-26T12:49:57Z</time>
      </trkpt>
      <trkpt lat="45.50779" lon="2.61952">
        <ele>888</ele>
        <time>2018-09-26T12:49:57Z</time>
      </trkpt>
      <trkpt lat="45.50782" lon="2.61952">
        <ele>888</ele>
        <time>2018-09-26T12:49:57Z</time>
      </trkpt>
      <trkpt lat="45.50785" lon="2.61952">
        <ele>887</ele>
        <time>2018-09-26T12:49:57Z</time>
      </trkpt>
      <trkpt lat="45.50788" lon="2.61952">
        <ele>887</ele>
        <time>2018-09-26T12:49:57Z</time>
      </trkpt>
      <trkpt lat="45.50791" lon="2.61952">
        <ele>887</ele>
        <time>2018-09-26T12:49:57Z</time>
      </trkpt>
      <trkpt lat="45.50794" lon="2.61952">
        <ele>887</ele>
        <time>2018-09-26T12:49:57Z</time>
      </trkpt>
      <trkpt lat="45.50796" lon="2.61952">
        <ele>887</ele>
        <time>2018-09-26T12:49:57Z</time>
      </trkpt>
      <trkpt lat="45.50799" lon="2.61952">
        <ele>886</ele>
        <time>2018-09-26T12:49:57Z</time>
      </trkpt>
      <trkpt lat="45.50801" lon="2.61951">
        <ele>886</ele>
        <time>2018-09-26T12:49:57Z</time>
      </trkpt>
      <trkpt lat="45.50804" lon="2.6195">
        <ele>886</ele>
        <time>2018-09-26T12:49:57Z</time>
      </trkpt>
      <trkpt lat="45.50806" lon="2.61948">
        <ele>886</ele>
        <time>2018-09-26T12:49:57Z</time>
      </trkpt>
      <trkpt lat="45.50809" lon="2.61946">
        <ele>886</ele>
        <time>2018-09-26T12:49:57Z</time>
      </trkpt>
      <trkpt lat="45.50812" lon="2.61944">
        <ele>885</ele>
        <time>2018-09-26T12:49:57Z</time>
      </trkpt>
      <trkpt lat="45.50814" lon="2.61944">
        <ele>885</ele>
        <time>2018-09-26T12:49:57Z</time>
      </trkpt>
      <trkpt lat="45.50817" lon="2.61943">
        <ele>885</ele>
        <time>2018-09-26T12:49:57Z</time>
      </trkpt>
      <trkpt lat="45.50819" lon="2.61942">
        <ele>885</ele>
        <time>2018-09-26T12:49:57Z</time>
      </trkpt>
      <trkpt lat="45.5082" lon="2.61941">
        <ele>884</ele>
        <time>2018-09-26T12:49:57Z</time>
      </trkpt>
      <trkpt lat="45.50822" lon="2.6194">
        <ele>884</ele>
        <time>2018-09-26T12:49:57Z</time>
      </trkpt>
      <trkpt lat="45.50824" lon="2.61938">
        <ele>884</ele>
        <time>2018-09-26T12:49:57Z</time>
      </trkpt>
      <trkpt lat="45.50826" lon="2.61937">
        <ele>884</ele>
        <time>2018-09-26T12:49:57Z</time>
      </trkpt>
      <trkpt lat="45.50828" lon="2.61936">
        <ele>884</ele>
        <time>2018-09-26T12:49:57Z</time>
      </trkpt>
      <trkpt lat="45.5083" lon="2.61936">
        <ele>883</ele>
        <time>2018-09-26T12:49:57Z</time>
      </trkpt>
      <trkpt lat="45.50832" lon="2.61935">
        <ele>883</ele>
        <time>2018-09-26T12:49:57Z</time>
      </trkpt>
      <trkpt lat="45.50834" lon="2.61935">
        <ele>883</ele>
        <time>2018-09-26T12:49:57Z</time>
      </trkpt>
      <trkpt lat="45.50836" lon="2.61934">
        <ele>883</ele>
        <time>2018-09-26T12:49:57Z</time>
      </trkpt>
      <trkpt lat="45.50838" lon="2.61934">
        <ele>883</ele>
        <time>2018-09-26T12:49:57Z</time>
      </trkpt>
      <trkpt lat="45.50839" lon="2.61933">
        <ele>882</ele>
        <time>2018-09-26T12:49:57Z</time>
      </trkpt>
      <trkpt lat="45.50842" lon="2.61932">
        <ele>882</ele>
        <time>2018-09-26T12:49:57Z</time>
      </trkpt>
      <trkpt lat="45.50844" lon="2.61931">
        <ele>882</ele>
        <time>2018-09-26T12:49:57Z</time>
      </trkpt>
      <trkpt lat="45.50846" lon="2.6193">
        <ele>882</ele>
        <time>2018-09-26T12:49:57Z</time>
      </trkpt>
      <trkpt lat="45.50848" lon="2.61928">
        <ele>882</ele>
        <time>2018-09-26T12:49:57Z</time>
      </trkpt>
      <trkpt lat="45.5085" lon="2.61927">
        <ele>881</ele>
        <time>2018-09-26T12:49:57Z</time>
      </trkpt>
      <trkpt lat="45.50852" lon="2.61926">
        <ele>881</ele>
        <time>2018-09-26T12:49:57Z</time>
      </trkpt>
      <trkpt lat="45.50854" lon="2.61925">
        <ele>881</ele>
        <time>2018-09-26T12:49:57Z</time>
      </trkpt>
      <trkpt lat="45.50857" lon="2.61924">
        <ele>881</ele>
        <time>2018-09-26T12:49:57Z</time>
      </trkpt>
      <trkpt lat="45.50859" lon="2.61923">
        <ele>881</ele>
        <time>2018-09-26T12:49:57Z</time>
      </trkpt>
      <trkpt lat="45.50862" lon="2.61921">
        <ele>880</ele>
        <time>2018-09-26T12:49:57Z</time>
      </trkpt>
      <trkpt lat="45.50864" lon="2.6192">
        <ele>880</ele>
        <time>2018-09-26T12:49:57Z</time>
      </trkpt>
      <trkpt lat="45.50867" lon="2.61918">
        <ele>880</ele>
        <time>2018-09-26T12:49:57Z</time>
      </trkpt>
      <trkpt lat="45.50869" lon="2.61917">
        <ele>880</ele>
        <time>2018-09-26T12:49:57Z</time>
      </trkpt>
      <trkpt lat="45.50871" lon="2.61916">
        <ele>879</ele>
        <time>2018-09-26T12:49:57Z</time>
      </trkpt>
      <trkpt lat="45.50873" lon="2.61914">
        <ele>879</ele>
        <time>2018-09-26T12:49:57Z</time>
      </trkpt>
      <trkpt lat="45.50875" lon="2.61913">
        <ele>879</ele>
        <time>2018-09-26T12:49:57Z</time>
      </trkpt>
      <trkpt lat="45.50877" lon="2.61912">
        <ele>879</ele>
        <time>2018-09-26T12:49:57Z</time>
      </trkpt>
      <trkpt lat="45.5088" lon="2.61911">
        <ele>879</ele>
        <time>2018-09-26T12:49:57Z</time>
      </trkpt>
      <trkpt lat="45.50882" lon="2.61911">
        <ele>879</ele>
        <time>2018-09-26T12:49:57Z</time>
      </trkpt>
      <trkpt lat="45.50885" lon="2.6191">
        <ele>878</ele>
        <time>2018-09-26T12:49:57Z</time>
      </trkpt>
      <trkpt lat="45.50887" lon="2.61909">
        <ele>878</ele>
        <time>2018-09-26T12:49:57Z</time>
      </trkpt>
      <trkpt lat="45.5089" lon="2.61909">
        <ele>878</ele>
        <time>2018-09-26T12:49:57Z</time>
      </trkpt>
      <trkpt lat="45.50893" lon="2.61908">
        <ele>878</ele>
        <time>2018-09-26T12:49:57Z</time>
      </trkpt>
      <trkpt lat="45.50896" lon="2.61907">
        <ele>878</ele>
        <time>2018-09-26T12:49:57Z</time>
      </trkpt>
      <trkpt lat="45.50899" lon="2.61905">
        <ele>877</ele>
        <time>2018-09-26T12:49:57Z</time>
      </trkpt>
      <trkpt lat="45.50901" lon="2.61904">
        <ele>877</ele>
        <time>2018-09-26T12:49:57Z</time>
      </trkpt>
      <trkpt lat="45.50903" lon="2.61903">
        <ele>877</ele>
        <time>2018-09-26T12:49:57Z</time>
      </trkpt>
      <trkpt lat="45.50905" lon="2.61901">
        <ele>877</ele>
        <time>2018-09-26T12:49:57Z</time>
      </trkpt>
      <trkpt lat="45.50908" lon="2.619">
        <ele>877</ele>
        <time>2018-09-26T12:49:57Z</time>
      </trkpt>
      <trkpt lat="45.5091" lon="2.619">
        <ele>876</ele>
        <time>2018-09-26T12:49:57Z</time>
      </trkpt>
      <trkpt lat="45.50912" lon="2.61898">
        <ele>876</ele>
        <time>2018-09-26T12:49:57Z</time>
      </trkpt>
      <trkpt lat="45.50915" lon="2.61896">
        <ele>876</ele>
        <time>2018-09-26T12:49:57Z</time>
      </trkpt>
      <trkpt lat="45.50917" lon="2.61894">
        <ele>876</ele>
        <time>2018-09-26T12:49:57Z</time>
      </trkpt>
      <trkpt lat="45.50919" lon="2.61893">
        <ele>876</ele>
        <time>2018-09-26T12:49:57Z</time>
      </trkpt>
      <trkpt lat="45.50922" lon="2.61892">
        <ele>875</ele>
        <time>2018-09-26T12:49:57Z</time>
      </trkpt>
      <trkpt lat="45.50924" lon="2.6189">
        <ele>875</ele>
        <time>2018-09-26T12:49:57Z</time>
      </trkpt>
      <trkpt lat="45.50927" lon="2.61888">
        <ele>875</ele>
        <time>2018-09-26T12:49:57Z</time>
      </trkpt>
      <trkpt lat="45.5093" lon="2.61887">
        <ele>875</ele>
        <time>2018-09-26T12:49:57Z</time>
      </trkpt>
      <trkpt lat="45.50932" lon="2.61885">
        <ele>874</ele>
        <time>2018-09-26T12:49:57Z</time>
      </trkpt>
      <trkpt lat="45.50934" lon="2.61883">
        <ele>874</ele>
        <time>2018-09-26T12:49:57Z</time>
      </trkpt>
      <trkpt lat="45.50936" lon="2.6188">
        <ele>874</ele>
        <time>2018-09-26T12:49:57Z</time>
      </trkpt>
      <trkpt lat="45.50939" lon="2.61879">
        <ele>874</ele>
        <time>2018-09-26T12:49:57Z</time>
      </trkpt>
      <trkpt lat="45.50941" lon="2.61878">
        <ele>874</ele>
        <time>2018-09-26T12:49:57Z</time>
      </trkpt>
      <trkpt lat="45.50943" lon="2.61875">
        <ele>873</ele>
        <time>2018-09-26T12:49:57Z</time>
      </trkpt>
      <trkpt lat="45.50944" lon="2.61872">
        <ele>873</ele>
        <time>2018-09-26T12:49:57Z</time>
      </trkpt>
      <trkpt lat="45.50946" lon="2.61869">
        <ele>873</ele>
        <time>2018-09-26T12:49:57Z</time>
      </trkpt>
      <trkpt lat="45.50948" lon="2.61867">
        <ele>873</ele>
        <time>2018-09-26T12:49:57Z</time>
      </trkpt>
      <trkpt lat="45.5095" lon="2.61864">
        <ele>873</ele>
        <time>2018-09-26T12:49:57Z</time>
      </trkpt>
      <trkpt lat="45.50952" lon="2.61861">
        <ele>873</ele>
        <time>2018-09-26T12:49:57Z</time>
      </trkpt>
      <trkpt lat="45.50953" lon="2.61857">
        <ele>872</ele>
        <time>2018-09-26T12:49:57Z</time>
      </trkpt>
      <trkpt lat="45.50954" lon="2.61854">
        <ele>872</ele>
        <time>2018-09-26T12:49:57Z</time>
      </trkpt>
      <trkpt lat="45.50955" lon="2.6185">
        <ele>872</ele>
        <time>2018-09-26T12:49:57Z</time>
      </trkpt>
      <trkpt lat="45.50956" lon="2.61847">
        <ele>872</ele>
        <time>2018-09-26T12:49:57Z</time>
      </trkpt>
      <trkpt lat="45.50957" lon="2.61843">
        <ele>872</ele>
        <time>2018-09-26T12:49:57Z</time>
      </trkpt>
      <trkpt lat="45.50958" lon="2.6184">
        <ele>871</ele>
        <time>2018-09-26T12:49:57Z</time>
      </trkpt>
      <trkpt lat="45.50958" lon="2.61837">
        <ele>871</ele>
        <time>2018-09-26T12:49:57Z</time>
      </trkpt>
      <trkpt lat="45.50959" lon="2.61834">
        <ele>871</ele>
        <time>2018-09-26T12:49:57Z</time>
      </trkpt>
      <trkpt lat="45.5096" lon="2.61831">
        <ele>871</ele>
        <time>2018-09-26T12:49:57Z</time>
      </trkpt>
      <trkpt lat="45.5096" lon="2.61828">
        <ele>871</ele>
        <time>2018-09-26T12:49:57Z</time>
      </trkpt>
      <trkpt lat="45.50961" lon="2.61825">
        <ele>871</ele>
        <time>2018-09-26T12:49:57Z</time>
      </trkpt>
      <trkpt lat="45.50962" lon="2.61822">
        <ele>870</ele>
        <time>2018-09-26T12:49:57Z</time>
      </trkpt>
      <trkpt lat="45.50962" lon="2.61819">
        <ele>870</ele>
        <time>2018-09-26T12:49:57Z</time>
      </trkpt>
      <trkpt lat="45.50962" lon="2.61816">
        <ele>870</ele>
        <time>2018-09-26T12:49:57Z</time>
      </trkpt>
      <trkpt lat="45.50962" lon="2.61812">
        <ele>870</ele>
        <time>2018-09-26T12:49:57Z</time>
      </trkpt>
      <trkpt lat="45.50962" lon="2.61809">
        <ele>870</ele>
        <time>2018-09-26T12:49:57Z</time>
      </trkpt>
      <trkpt lat="45.50962" lon="2.61806">
        <ele>870</ele>
        <time>2018-09-26T12:49:57Z</time>
      </trkpt>
      <trkpt lat="45.50962" lon="2.61803">
        <ele>870</ele>
        <time>2018-09-26T12:49:57Z</time>
      </trkpt>
      <trkpt lat="45.50962" lon="2.61799">
        <ele>869</ele>
        <time>2018-09-26T12:49:57Z</time>
      </trkpt>
      <trkpt lat="45.50962" lon="2.61795">
        <ele>869</ele>
        <time>2018-09-26T12:49:57Z</time>
      </trkpt>
      <trkpt lat="45.50962" lon="2.61792">
        <ele>869</ele>
        <time>2018-09-26T12:49:57Z</time>
      </trkpt>
      <trkpt lat="45.50963" lon="2.61789">
        <ele>869</ele>
        <time>2018-09-26T12:49:57Z</time>
      </trkpt>
      <trkpt lat="45.50962" lon="2.61786">
        <ele>869</ele>
        <time>2018-09-26T12:49:57Z</time>
      </trkpt>
      <trkpt lat="45.50962" lon="2.61783">
        <ele>869</ele>
        <time>2018-09-26T12:49:57Z</time>
      </trkpt>
      <trkpt lat="45.50963" lon="2.61779">
        <ele>869</ele>
        <time>2018-09-26T12:49:57Z</time>
      </trkpt>
      <trkpt lat="45.50963" lon="2.61776">
        <ele>869</ele>
        <time>2018-09-26T12:49:57Z</time>
      </trkpt>
      <trkpt lat="45.50963" lon="2.61774">
        <ele>868</ele>
        <time>2018-09-26T12:49:57Z</time>
      </trkpt>
      <trkpt lat="45.50963" lon="2.6177">
        <ele>868</ele>
        <time>2018-09-26T12:49:57Z</time>
      </trkpt>
      <trkpt lat="45.50964" lon="2.61767">
        <ele>868</ele>
        <time>2018-09-26T12:49:57Z</time>
      </trkpt>
      <trkpt lat="45.50964" lon="2.61763">
        <ele>868</ele>
        <time>2018-09-26T12:49:57Z</time>
      </trkpt>
      <trkpt lat="45.50966" lon="2.6176">
        <ele>868</ele>
        <time>2018-09-26T12:49:57Z</time>
      </trkpt>
      <trkpt lat="45.50966" lon="2.61756">
        <ele>868</ele>
        <time>2018-09-26T12:49:57Z</time>
      </trkpt>
      <trkpt lat="45.50967" lon="2.61752">
        <ele>868</ele>
        <time>2018-09-26T12:49:57Z</time>
      </trkpt>
      <trkpt lat="45.50967" lon="2.61747">
        <ele>867</ele>
        <time>2018-09-26T12:49:57Z</time>
      </trkpt>
      <trkpt lat="45.50968" lon="2.61744">
        <ele>867</ele>
        <time>2018-09-26T12:49:57Z</time>
      </trkpt>
      <trkpt lat="45.50969" lon="2.61742">
        <ele>867</ele>
        <time>2018-09-26T12:49:57Z</time>
      </trkpt>
      <trkpt lat="45.50969" lon="2.61738">
        <ele>867</ele>
        <time>2018-09-26T12:49:57Z</time>
      </trkpt>
      <trkpt lat="45.50969" lon="2.61734">
        <ele>867</ele>
        <time>2018-09-26T12:49:57Z</time>
      </trkpt>
      <trkpt lat="45.5097" lon="2.61731">
        <ele>867</ele>
        <time>2018-09-26T12:49:57Z</time>
      </trkpt>
      <trkpt lat="45.50971" lon="2.61728">
        <ele>866</ele>
        <time>2018-09-26T12:49:57Z</time>
      </trkpt>
      <trkpt lat="45.50971" lon="2.61725">
        <ele>866</ele>
        <time>2018-09-26T12:49:57Z</time>
      </trkpt>
      <trkpt lat="45.50971" lon="2.61723">
        <ele>866</ele>
        <time>2018-09-26T12:49:57Z</time>
      </trkpt>
      <trkpt lat="45.50972" lon="2.6172">
        <ele>866</ele>
        <time>2018-09-26T12:49:57Z</time>
      </trkpt>
      <trkpt lat="45.50972" lon="2.61717">
        <ele>866</ele>
        <time>2018-09-26T12:49:57Z</time>
      </trkpt>
      <trkpt lat="45.50973" lon="2.61713">
        <ele>866</ele>
        <time>2018-09-26T12:49:57Z</time>
      </trkpt>
      <trkpt lat="45.50974" lon="2.61711">
        <ele>865</ele>
        <time>2018-09-26T12:49:57Z</time>
      </trkpt>
      <trkpt lat="45.50976" lon="2.61708">
        <ele>865</ele>
        <time>2018-09-26T12:49:57Z</time>
      </trkpt>
      <trkpt lat="45.50977" lon="2.61706">
        <ele>865</ele>
        <time>2018-09-26T12:49:57Z</time>
      </trkpt>
      <trkpt lat="45.50978" lon="2.61705">
        <ele>865</ele>
        <time>2018-09-26T12:49:57Z</time>
      </trkpt>
      <trkpt lat="45.50979" lon="2.61708">
        <ele>865</ele>
        <time>2018-09-26T12:49:57Z</time>
      </trkpt>
      <trkpt lat="45.50981" lon="2.61707">
        <ele>865</ele>
        <time>2018-09-26T12:49:57Z</time>
      </trkpt>
      <trkpt lat="45.50982" lon="2.61707">
        <ele>865</ele>
        <time>2018-09-26T12:49:57Z</time>
      </trkpt>
      <trkpt lat="45.50984" lon="2.61706">
        <ele>865</ele>
        <time>2018-09-26T12:49:57Z</time>
      </trkpt>
      <trkpt lat="45.50987" lon="2.61704">
        <ele>864</ele>
        <time>2018-09-26T12:49:57Z</time>
      </trkpt>
      <trkpt lat="45.5099" lon="2.61706">
        <ele>864</ele>
        <time>2018-09-26T12:49:57Z</time>
      </trkpt>
      <trkpt lat="45.50993" lon="2.61706">
        <ele>864</ele>
        <time>2018-09-26T12:49:57Z</time>
      </trkpt>
      <trkpt lat="45.50995" lon="2.6171">
        <ele>865</ele>
        <time>2018-09-26T12:49:57Z</time>
      </trkpt>
      <trkpt lat="45.50998" lon="2.6171">
        <ele>865</ele>
        <time>2018-09-26T12:49:57Z</time>
      </trkpt>
      <trkpt lat="45.51" lon="2.61712">
        <ele>865</ele>
        <time>2018-09-26T12:49:57Z</time>
      </trkpt>
      <trkpt lat="45.51004" lon="2.61714">
        <ele>865</ele>
        <time>2018-09-26T12:49:57Z</time>
      </trkpt>
      <trkpt lat="45.51007" lon="2.61715">
        <ele>865</ele>
        <time>2018-09-26T12:49:57Z</time>
      </trkpt>
      <trkpt lat="45.5101" lon="2.61717">
        <ele>865</ele>
        <time>2018-09-26T12:49:57Z</time>
      </trkpt>
      <trkpt lat="45.51013" lon="2.61719">
        <ele>865</ele>
        <time>2018-09-26T12:49:57Z</time>
      </trkpt>
      <trkpt lat="45.51016" lon="2.6172">
        <ele>866</ele>
        <time>2018-09-26T12:49:57Z</time>
      </trkpt>
      <trkpt lat="45.51018" lon="2.61722">
        <ele>866</ele>
        <time>2018-09-26T12:49:57Z</time>
      </trkpt>
      <trkpt lat="45.5102" lon="2.61723">
        <ele>866</ele>
        <time>2018-09-26T12:49:57Z</time>
      </trkpt>
      <trkpt lat="45.51023" lon="2.61723">
        <ele>866</ele>
        <time>2018-09-26T12:49:57Z</time>
      </trkpt>
      <trkpt lat="45.51025" lon="2.61723">
        <ele>866</ele>
        <time>2018-09-26T12:49:57Z</time>
      </trkpt>
      <trkpt lat="45.51027" lon="2.61723">
        <ele>866</ele>
        <time>2018-09-26T12:49:57Z</time>
      </trkpt>
      <trkpt lat="45.51029" lon="2.61723">
        <ele>866</ele>
        <time>2018-09-26T12:49:57Z</time>
      </trkpt>
      <trkpt lat="45.51031" lon="2.61723">
        <ele>866</ele>
        <time>2018-09-26T12:49:57Z</time>
      </trkpt>
      <trkpt lat="45.51033" lon="2.61722">
        <ele>866</ele>
        <time>2018-09-26T12:49:57Z</time>
      </trkpt>
      <trkpt lat="45.51034" lon="2.61722">
        <ele>866</ele>
        <time>2018-09-26T12:49:57Z</time>
      </trkpt>
      <trkpt lat="45.51036" lon="2.61722">
        <ele>866</ele>
        <time>2018-09-26T12:49:57Z</time>
      </trkpt>
      <trkpt lat="45.51038" lon="2.61722">
        <ele>866</ele>
        <time>2018-09-26T12:49:57Z</time>
      </trkpt>
      <trkpt lat="45.51041" lon="2.61722">
        <ele>866</ele>
        <time>2018-09-26T12:49:57Z</time>
      </trkpt>
      <trkpt lat="45.51042" lon="2.61722">
        <ele>867</ele>
        <time>2018-09-26T12:49:57Z</time>
      </trkpt>
      <trkpt lat="45.51043" lon="2.61721">
        <ele>867</ele>
        <time>2018-09-26T12:49:57Z</time>
      </trkpt>
      <trkpt lat="45.51045" lon="2.6172">
        <ele>867</ele>
        <time>2018-09-26T12:49:57Z</time>
      </trkpt>
      <trkpt lat="45.51046" lon="2.61717">
        <ele>867</ele>
        <time>2018-09-26T12:49:57Z</time>
      </trkpt>
      <trkpt lat="45.51047" lon="2.61714">
        <ele>867</ele>
        <time>2018-09-26T12:49:57Z</time>
      </trkpt>
      <trkpt lat="45.51048" lon="2.61713">
        <ele>867</ele>
        <time>2018-09-26T12:49:57Z</time>
      </trkpt>
      <trkpt lat="45.51049" lon="2.61712">
        <ele>867</ele>
        <time>2018-09-26T12:49:57Z</time>
      </trkpt>
      <trkpt lat="45.5105" lon="2.6171">
        <ele>867</ele>
        <time>2018-09-26T12:49:57Z</time>
      </trkpt>
      <trkpt lat="45.51051" lon="2.61708">
        <ele>867</ele>
        <time>2018-09-26T12:49:57Z</time>
      </trkpt>
      <trkpt lat="45.51052" lon="2.61708">
        <ele>867</ele>
        <time>2018-09-26T12:49:57Z</time>
      </trkpt>
      <trkpt lat="45.51054" lon="2.61706">
        <ele>867</ele>
        <time>2018-09-26T12:49:57Z</time>
      </trkpt>
      <trkpt lat="45.51055" lon="2.61706">
        <ele>867</ele>
        <time>2018-09-26T12:49:57Z</time>
      </trkpt>
      <trkpt lat="45.51056" lon="2.61704">
        <ele>867</ele>
        <time>2018-09-26T12:49:57Z</time>
      </trkpt>
      <trkpt lat="45.51057" lon="2.61703">
        <ele>867</ele>
        <time>2018-09-26T12:49:57Z</time>
      </trkpt>
      <trkpt lat="45.51059" lon="2.61701">
        <ele>867</ele>
        <time>2018-09-26T12:49:57Z</time>
      </trkpt>
      <trkpt lat="45.5106" lon="2.61699">
        <ele>867</ele>
        <time>2018-09-26T12:49:57Z</time>
      </trkpt>
      <trkpt lat="45.51062" lon="2.61698">
        <ele>867</ele>
        <time>2018-09-26T12:49:57Z</time>
      </trkpt>
      <trkpt lat="45.51064" lon="2.61697">
        <ele>867</ele>
        <time>2018-09-26T12:49:57Z</time>
      </trkpt>
      <trkpt lat="45.51065" lon="2.61695">
        <ele>867</ele>
        <time>2018-09-26T12:49:57Z</time>
      </trkpt>
      <trkpt lat="45.51067" lon="2.61693">
        <ele>867</ele>
        <time>2018-09-26T12:49:57Z</time>
      </trkpt>
      <trkpt lat="45.51068" lon="2.6169">
        <ele>867</ele>
        <time>2018-09-26T12:49:57Z</time>
      </trkpt>
      <trkpt lat="45.5107" lon="2.61688">
        <ele>867</ele>
        <time>2018-09-26T12:49:57Z</time>
      </trkpt>
      <trkpt lat="45.51072" lon="2.61687">
        <ele>868</ele>
        <time>2018-09-26T12:49:57Z</time>
      </trkpt>
      <trkpt lat="45.51074" lon="2.61685">
        <ele>868</ele>
        <time>2018-09-26T12:49:57Z</time>
      </trkpt>
      <trkpt lat="45.51077" lon="2.61683">
        <ele>868</ele>
        <time>2018-09-26T12:49:57Z</time>
      </trkpt>
      <trkpt lat="45.51079" lon="2.61683">
        <ele>868</ele>
        <time>2018-09-26T12:49:57Z</time>
      </trkpt>
      <trkpt lat="45.51082" lon="2.61682">
        <ele>868</ele>
        <time>2018-09-26T12:49:57Z</time>
      </trkpt>
      <trkpt lat="45.51085" lon="2.61682">
        <ele>869</ele>
        <time>2018-09-26T12:49:57Z</time>
      </trkpt>
      <trkpt lat="45.51087" lon="2.6168">
        <ele>869</ele>
        <time>2018-09-26T12:49:57Z</time>
      </trkpt>
      <trkpt lat="45.5109" lon="2.61681">
        <ele>869</ele>
        <time>2018-09-26T12:49:57Z</time>
      </trkpt>
      <trkpt lat="45.51092" lon="2.61682">
        <ele>870</ele>
        <time>2018-09-26T12:49:57Z</time>
      </trkpt>
      <trkpt lat="45.51093" lon="2.61682">
        <ele>870</ele>
        <time>2018-09-26T12:49:57Z</time>
      </trkpt>
      <trkpt lat="45.51096" lon="2.61682">
        <ele>870</ele>
        <time>2018-09-26T12:49:57Z</time>
      </trkpt>
      <trkpt lat="45.51097" lon="2.61683">
        <ele>870</ele>
        <time>2018-09-26T12:49:57Z</time>
      </trkpt>
      <trkpt lat="45.51099" lon="2.61684">
        <ele>871</ele>
        <time>2018-09-26T12:49:57Z</time>
      </trkpt>
      <trkpt lat="45.51101" lon="2.61685">
        <ele>871</ele>
        <time>2018-09-26T12:49:57Z</time>
      </trkpt>
      <trkpt lat="45.51103" lon="2.61687">
        <ele>871</ele>
        <time>2018-09-26T12:49:57Z</time>
      </trkpt>
      <trkpt lat="45.51108" lon="2.61686">
        <ele>872</ele>
        <time>2018-09-26T12:49:57Z</time>
      </trkpt>
      <trkpt lat="45.51111" lon="2.61687">
        <ele>872</ele>
        <time>2018-09-26T12:49:57Z</time>
      </trkpt>
      <trkpt lat="45.51115" lon="2.61689">
        <ele>873</ele>
        <time>2018-09-26T12:49:57Z</time>
      </trkpt>
      <trkpt lat="45.51118" lon="2.6169">
        <ele>873</ele>
        <time>2018-09-26T12:49:57Z</time>
      </trkpt>
      <trkpt lat="45.51121" lon="2.61692">
        <ele>874</ele>
        <time>2018-09-26T12:49:57Z</time>
      </trkpt>
      <trkpt lat="45.51123" lon="2.61693">
        <ele>874</ele>
        <time>2018-09-26T12:49:57Z</time>
      </trkpt>
      <trkpt lat="45.51125" lon="2.61695">
        <ele>874</ele>
        <time>2018-09-26T12:49:57Z</time>
      </trkpt>
      <trkpt lat="45.51127" lon="2.61697">
        <ele>874</ele>
        <time>2018-09-26T12:49:57Z</time>
      </trkpt>
      <trkpt lat="45.51128" lon="2.61699">
        <ele>875</ele>
        <time>2018-09-26T12:49:57Z</time>
      </trkpt>
      <trkpt lat="45.51128" lon="2.61702">
        <ele>875</ele>
        <time>2018-09-26T12:49:57Z</time>
      </trkpt>
      <trkpt lat="45.51129" lon="2.61704">
        <ele>875</ele>
        <time>2018-09-26T12:49:57Z</time>
      </trkpt>
      <trkpt lat="45.5113" lon="2.61707">
        <ele>875</ele>
        <time>2018-09-26T12:49:57Z</time>
      </trkpt>
      <trkpt lat="45.51131" lon="2.61709">
        <ele>875</ele>
        <time>2018-09-26T12:49:57Z</time>
      </trkpt>
      <trkpt lat="45.51132" lon="2.61712">
        <ele>875</ele>
        <time>2018-09-26T12:49:57Z</time>
      </trkpt>
      <trkpt lat="45.51132" lon="2.61714">
        <ele>875</ele>
        <time>2018-09-26T12:49:57Z</time>
      </trkpt>
      <trkpt lat="45.51133" lon="2.61716">
        <ele>876</ele>
        <time>2018-09-26T12:49:57Z</time>
      </trkpt>
      <trkpt lat="45.51135" lon="2.61718">
        <ele>876</ele>
        <time>2018-09-26T12:49:57Z</time>
      </trkpt>
      <trkpt lat="45.51136" lon="2.6172">
        <ele>876</ele>
        <time>2018-09-26T12:49:57Z</time>
      </trkpt>
      <trkpt lat="45.51137" lon="2.61722">
        <ele>876</ele>
        <time>2018-09-26T12:49:57Z</time>
      </trkpt>
      <trkpt lat="45.51138" lon="2.61724">
        <ele>876</ele>
        <time>2018-09-26T12:49:57Z</time>
      </trkpt>
      <trkpt lat="45.51138" lon="2.61727">
        <ele>876</ele>
        <time>2018-09-26T12:49:57Z</time>
      </trkpt>
      <trkpt lat="45.51139" lon="2.6173">
        <ele>876</ele>
        <time>2018-09-26T12:49:57Z</time>
      </trkpt>
      <trkpt lat="45.5114" lon="2.61733">
        <ele>876</ele>
        <time>2018-09-26T12:49:57Z</time>
      </trkpt>
      <trkpt lat="45.51141" lon="2.61735">
        <ele>877</ele>
        <time>2018-09-26T12:49:57Z</time>
      </trkpt>
      <trkpt lat="45.51141" lon="2.61738">
        <ele>877</ele>
        <time>2018-09-26T12:49:57Z</time>
      </trkpt>
      <trkpt lat="45.51142" lon="2.61741">
        <ele>877</ele>
        <time>2018-09-26T12:49:57Z</time>
      </trkpt>
      <trkpt lat="45.51143" lon="2.61743">
        <ele>877</ele>
        <time>2018-09-26T12:49:57Z</time>
      </trkpt>
      <trkpt lat="45.51143" lon="2.61746">
        <ele>877</ele>
        <time>2018-09-26T12:49:57Z</time>
      </trkpt>
      <trkpt lat="45.51145" lon="2.61748">
        <ele>877</ele>
        <time>2018-09-26T12:49:57Z</time>
      </trkpt>
      <trkpt lat="45.51146" lon="2.6175">
        <ele>877</ele>
        <time>2018-09-26T12:49:57Z</time>
      </trkpt>
      <trkpt lat="45.51147" lon="2.61752">
        <ele>877</ele>
        <time>2018-09-26T12:49:57Z</time>
      </trkpt>
      <trkpt lat="45.51148" lon="2.61754">
        <ele>878</ele>
        <time>2018-09-26T12:49:57Z</time>
      </trkpt>
      <trkpt lat="45.51149" lon="2.61757">
        <ele>878</ele>
        <time>2018-09-26T12:49:57Z</time>
      </trkpt>
      <trkpt lat="45.5115" lon="2.61761">
        <ele>878</ele>
        <time>2018-09-26T12:49:57Z</time>
      </trkpt>
      <trkpt lat="45.51151" lon="2.61763">
        <ele>878</ele>
        <time>2018-09-26T12:49:57Z</time>
      </trkpt>
      <trkpt lat="45.51151" lon="2.61766">
        <ele>878</ele>
        <time>2018-09-26T12:49:57Z</time>
      </trkpt>
      <trkpt lat="45.51151" lon="2.61768">
        <ele>878</ele>
        <time>2018-09-26T12:49:57Z</time>
      </trkpt>
      <trkpt lat="45.51153" lon="2.6177">
        <ele>878</ele>
        <time>2018-09-26T12:49:57Z</time>
      </trkpt>
      <trkpt lat="45.51153" lon="2.61773">
        <ele>878</ele>
        <time>2018-09-26T12:49:57Z</time>
      </trkpt>
      <trkpt lat="45.51155" lon="2.61775">
        <ele>878</ele>
        <time>2018-09-26T12:49:57Z</time>
      </trkpt>
      <trkpt lat="45.51155" lon="2.61778">
        <ele>878</ele>
        <time>2018-09-26T12:49:57Z</time>
      </trkpt>
      <trkpt lat="45.51156" lon="2.61781">
        <ele>879</ele>
        <time>2018-09-26T12:49:57Z</time>
      </trkpt>
      <trkpt lat="45.51157" lon="2.61783">
        <ele>879</ele>
        <time>2018-09-26T12:49:57Z</time>
      </trkpt>
      <trkpt lat="45.51159" lon="2.61786">
        <ele>879</ele>
        <time>2018-09-26T12:49:57Z</time>
      </trkpt>
      <trkpt lat="45.5116" lon="2.61789">
        <ele>879</ele>
        <time>2018-09-26T12:49:57Z</time>
      </trkpt>
      <trkpt lat="45.51161" lon="2.61793">
        <ele>879</ele>
        <time>2018-09-26T12:49:57Z</time>
      </trkpt>
      <trkpt lat="45.51161" lon="2.61796">
        <ele>879</ele>
        <time>2018-09-26T12:49:57Z</time>
      </trkpt>
      <trkpt lat="45.51162" lon="2.61799">
        <ele>879</ele>
        <time>2018-09-26T12:49:57Z</time>
      </trkpt>
      <trkpt lat="45.51163" lon="2.61801">
        <ele>879</ele>
        <time>2018-09-26T12:49:57Z</time>
      </trkpt>
      <trkpt lat="45.51165" lon="2.61803">
        <ele>879</ele>
        <time>2018-09-26T12:49:57Z</time>
      </trkpt>
      <trkpt lat="45.51167" lon="2.61805">
        <ele>880</ele>
        <time>2018-09-26T12:49:57Z</time>
      </trkpt>
      <trkpt lat="45.51168" lon="2.61807">
        <ele>880</ele>
        <time>2018-09-26T12:49:57Z</time>
      </trkpt>
      <trkpt lat="45.51169" lon="2.61809">
        <ele>880</ele>
        <time>2018-09-26T12:49:57Z</time>
      </trkpt>
      <trkpt lat="45.5117" lon="2.61811">
        <ele>880</ele>
        <time>2018-09-26T12:49:57Z</time>
      </trkpt>
      <trkpt lat="45.51172" lon="2.61815">
        <ele>880</ele>
        <time>2018-09-26T12:49:57Z</time>
      </trkpt>
      <trkpt lat="45.51173" lon="2.61817">
        <ele>880</ele>
        <time>2018-09-26T12:49:57Z</time>
      </trkpt>
      <trkpt lat="45.51174" lon="2.61818">
        <ele>880</ele>
        <time>2018-09-26T12:49:57Z</time>
      </trkpt>
      <trkpt lat="45.51175" lon="2.61819">
        <ele>880</ele>
        <time>2018-09-26T12:49:57Z</time>
      </trkpt>
      <trkpt lat="45.51177" lon="2.61821">
        <ele>881</ele>
        <time>2018-09-26T12:49:57Z</time>
      </trkpt>
      <trkpt lat="45.51178" lon="2.61822">
        <ele>881</ele>
        <time>2018-09-26T12:49:57Z</time>
      </trkpt>
      <trkpt lat="45.51179" lon="2.61824">
        <ele>881</ele>
        <time>2018-09-26T12:49:57Z</time>
      </trkpt>
      <trkpt lat="45.5118" lon="2.61826">
        <ele>881</ele>
        <time>2018-09-26T12:49:57Z</time>
      </trkpt>
      <trkpt lat="45.51181" lon="2.61828">
        <ele>881</ele>
        <time>2018-09-26T12:49:57Z</time>
      </trkpt>
      <trkpt lat="45.51182" lon="2.61832">
        <ele>881</ele>
        <time>2018-09-26T12:49:57Z</time>
      </trkpt>
      <trkpt lat="45.51183" lon="2.61837">
        <ele>881</ele>
        <time>2018-09-26T12:49:57Z</time>
      </trkpt>
      <trkpt lat="45.51183" lon="2.61844">
        <ele>881</ele>
        <time>2018-09-26T12:49:57Z</time>
      </trkpt>
      <trkpt lat="45.51183" lon="2.6185">
        <ele>881</ele>
        <time>2018-09-26T12:49:57Z</time>
      </trkpt>
      <trkpt lat="45.51183" lon="2.61855">
        <ele>881</ele>
        <time>2018-09-26T12:49:57Z</time>
      </trkpt>
      <trkpt lat="45.51183" lon="2.6186">
        <ele>881</ele>
        <time>2018-09-26T12:49:57Z</time>
      </trkpt>
      <trkpt lat="45.51183" lon="2.61863">
        <ele>881</ele>
        <time>2018-09-26T12:49:57Z</time>
      </trkpt>
      <trkpt lat="45.51184" lon="2.61867">
        <ele>881</ele>
        <time>2018-09-26T12:49:57Z</time>
      </trkpt>
      <trkpt lat="45.51184" lon="2.6187">
        <ele>881</ele>
        <time>2018-09-26T12:49:57Z</time>
      </trkpt>
      <trkpt lat="45.51184" lon="2.61873">
        <ele>881</ele>
        <time>2018-09-26T12:49:57Z</time>
      </trkpt>
      <trkpt lat="45.51186" lon="2.61875">
        <ele>881</ele>
        <time>2018-09-26T12:49:57Z</time>
      </trkpt>
      <trkpt lat="45.51187" lon="2.61877">
        <ele>881</ele>
        <time>2018-09-26T12:49:57Z</time>
      </trkpt>
      <trkpt lat="45.51188" lon="2.61879">
        <ele>881</ele>
        <time>2018-09-26T12:49:57Z</time>
      </trkpt>
      <trkpt lat="45.51189" lon="2.61881">
        <ele>881</ele>
        <time>2018-09-26T12:49:57Z</time>
      </trkpt>
      <trkpt lat="45.5119" lon="2.61885">
        <ele>881</ele>
        <time>2018-09-26T12:49:57Z</time>
      </trkpt>
      <trkpt lat="45.51191" lon="2.61888">
        <ele>881</ele>
        <time>2018-09-26T12:49:57Z</time>
      </trkpt>
      <trkpt lat="45.51191" lon="2.61891">
        <ele>881</ele>
        <time>2018-09-26T12:49:57Z</time>
      </trkpt>
      <trkpt lat="45.51192" lon="2.61894">
        <ele>881</ele>
        <time>2018-09-26T12:49:57Z</time>
      </trkpt>
      <trkpt lat="45.51193" lon="2.61897">
        <ele>881</ele>
        <time>2018-09-26T12:49:57Z</time>
      </trkpt>
      <trkpt lat="45.51195" lon="2.619">
        <ele>881</ele>
        <time>2018-09-26T12:49:57Z</time>
      </trkpt>
      <trkpt lat="45.51196" lon="2.61902">
        <ele>881</ele>
        <time>2018-09-26T12:49:57Z</time>
      </trkpt>
      <trkpt lat="45.51197" lon="2.61904">
        <ele>881</ele>
        <time>2018-09-26T12:49:57Z</time>
      </trkpt>
      <trkpt lat="45.51199" lon="2.61906">
        <ele>882</ele>
        <time>2018-09-26T12:49:57Z</time>
      </trkpt>
      <trkpt lat="45.51201" lon="2.6191">
        <ele>882</ele>
        <time>2018-09-26T12:49:57Z</time>
      </trkpt>
      <trkpt lat="45.51202" lon="2.61913">
        <ele>882</ele>
        <time>2018-09-26T12:49:57Z</time>
      </trkpt>
      <trkpt lat="45.51202" lon="2.61916">
        <ele>882</ele>
        <time>2018-09-26T12:49:57Z</time>
      </trkpt>
      <trkpt lat="45.51203" lon="2.61921">
        <ele>882</ele>
        <time>2018-09-26T12:49:57Z</time>
      </trkpt>
      <trkpt lat="45.51202" lon="2.61924">
        <ele>882</ele>
        <time>2018-09-26T12:49:57Z</time>
      </trkpt>
      <trkpt lat="45.51204" lon="2.61927">
        <ele>882</ele>
        <time>2018-09-26T12:49:57Z</time>
      </trkpt>
      <trkpt lat="45.51205" lon="2.61929">
        <ele>882</ele>
        <time>2018-09-26T12:49:57Z</time>
      </trkpt>
      <trkpt lat="45.51206" lon="2.61932">
        <ele>882</ele>
        <time>2018-09-26T12:49:57Z</time>
      </trkpt>
      <trkpt lat="45.51207" lon="2.61933">
        <ele>882</ele>
        <time>2018-09-26T12:49:57Z</time>
      </trkpt>
      <trkpt lat="45.51208" lon="2.61935">
        <ele>882</ele>
        <time>2018-09-26T12:49:57Z</time>
      </trkpt>
      <trkpt lat="45.51208" lon="2.61938">
        <ele>882</ele>
        <time>2018-09-26T12:49:57Z</time>
      </trkpt>
      <trkpt lat="45.5121" lon="2.61942">
        <ele>882</ele>
        <time>2018-09-26T12:49:57Z</time>
      </trkpt>
      <trkpt lat="45.51211" lon="2.61944">
        <ele>882</ele>
        <time>2018-09-26T12:49:57Z</time>
      </trkpt>
      <trkpt lat="45.51212" lon="2.61948">
        <ele>882</ele>
        <time>2018-09-26T12:49:57Z</time>
      </trkpt>
      <trkpt lat="45.51214" lon="2.61953">
        <ele>882</ele>
        <time>2018-09-26T12:49:57Z</time>
      </trkpt>
      <trkpt lat="45.51215" lon="2.61956">
        <ele>882</ele>
        <time>2018-09-26T12:49:57Z</time>
      </trkpt>
      <trkpt lat="45.51217" lon="2.61959">
        <ele>882</ele>
        <time>2018-09-26T12:49:57Z</time>
      </trkpt>
      <trkpt lat="45.51219" lon="2.61963">
        <ele>882</ele>
        <time>2018-09-26T12:49:57Z</time>
      </trkpt>
      <trkpt lat="45.5122" lon="2.61965">
        <ele>882</ele>
        <time>2018-09-26T12:49:57Z</time>
      </trkpt>
      <trkpt lat="45.51221" lon="2.61968">
        <ele>882</ele>
        <time>2018-09-26T12:49:57Z</time>
      </trkpt>
      <trkpt lat="45.51221" lon="2.61972">
        <ele>882</ele>
        <time>2018-09-26T12:49:57Z</time>
      </trkpt>
      <trkpt lat="45.51221" lon="2.61975">
        <ele>882</ele>
        <time>2018-09-26T12:49:57Z</time>
      </trkpt>
      <trkpt lat="45.51221" lon="2.61977">
        <ele>882</ele>
        <time>2018-09-26T12:49:57Z</time>
      </trkpt>
      <trkpt lat="45.51222" lon="2.61979">
        <ele>882</ele>
        <time>2018-09-26T12:49:57Z</time>
      </trkpt>
      <trkpt lat="45.51223" lon="2.61982">
        <ele>882</ele>
        <time>2018-09-26T12:49:57Z</time>
      </trkpt>
      <trkpt lat="45.51224" lon="2.61984">
        <ele>883</ele>
        <time>2018-09-26T12:49:57Z</time>
      </trkpt>
      <trkpt lat="45.51224" lon="2.61988">
        <ele>883</ele>
        <time>2018-09-26T12:49:57Z</time>
      </trkpt>
      <trkpt lat="45.51225" lon="2.61991">
        <ele>883</ele>
        <time>2018-09-26T12:49:57Z</time>
      </trkpt>
      <trkpt lat="45.51226" lon="2.61994">
        <ele>883</ele>
        <time>2018-09-26T12:49:57Z</time>
      </trkpt>
      <trkpt lat="45.51226" lon="2.61997">
        <ele>883</ele>
        <time>2018-09-26T12:49:57Z</time>
      </trkpt>
      <trkpt lat="45.51227" lon="2.62001">
        <ele>883</ele>
        <time>2018-09-26T12:49:57Z</time>
      </trkpt>
      <trkpt lat="45.51227" lon="2.62004">
        <ele>883</ele>
        <time>2018-09-26T12:49:57Z</time>
      </trkpt>
      <trkpt lat="45.51228" lon="2.62007">
        <ele>883</ele>
        <time>2018-09-26T12:49:57Z</time>
      </trkpt>
      <trkpt lat="45.51228" lon="2.6201">
        <ele>883</ele>
        <time>2018-09-26T12:49:57Z</time>
      </trkpt>
      <trkpt lat="45.51229" lon="2.62013">
        <ele>883</ele>
        <time>2018-09-26T12:49:57Z</time>
      </trkpt>
      <trkpt lat="45.5123" lon="2.62016">
        <ele>883</ele>
        <time>2018-09-26T12:49:57Z</time>
      </trkpt>
      <trkpt lat="45.5123" lon="2.62019">
        <ele>883</ele>
        <time>2018-09-26T12:49:57Z</time>
      </trkpt>
      <trkpt lat="45.51231" lon="2.62022">
        <ele>883</ele>
        <time>2018-09-26T12:49:57Z</time>
      </trkpt>
      <trkpt lat="45.51232" lon="2.62025">
        <ele>883</ele>
        <time>2018-09-26T12:49:57Z</time>
      </trkpt>
      <trkpt lat="45.51232" lon="2.62029">
        <ele>883</ele>
        <time>2018-09-26T12:49:57Z</time>
      </trkpt>
      <trkpt lat="45.51232" lon="2.62032">
        <ele>883</ele>
        <time>2018-09-26T12:49:57Z</time>
      </trkpt>
      <trkpt lat="45.51234" lon="2.62035">
        <ele>883</ele>
        <time>2018-09-26T12:49:57Z</time>
      </trkpt>
      <trkpt lat="45.51235" lon="2.62037">
        <ele>883</ele>
        <time>2018-09-26T12:49:57Z</time>
      </trkpt>
      <trkpt lat="45.51237" lon="2.6204">
        <ele>883</ele>
        <time>2018-09-26T12:49:57Z</time>
      </trkpt>
      <trkpt lat="45.51239" lon="2.62042">
        <ele>884</ele>
        <time>2018-09-26T12:49:57Z</time>
      </trkpt>
      <trkpt lat="45.5124" lon="2.62045">
        <ele>884</ele>
        <time>2018-09-26T12:49:57Z</time>
      </trkpt>
      <trkpt lat="45.51242" lon="2.62048">
        <ele>884</ele>
        <time>2018-09-26T12:49:57Z</time>
      </trkpt>
      <trkpt lat="45.51245" lon="2.62051">
        <ele>884</ele>
        <time>2018-09-26T12:49:57Z</time>
      </trkpt>
      <trkpt lat="45.51247" lon="2.62053">
        <ele>884</ele>
        <time>2018-09-26T12:49:57Z</time>
      </trkpt>
      <trkpt lat="45.51247" lon="2.62056">
        <ele>884</ele>
        <time>2018-09-26T12:49:57Z</time>
      </trkpt>
      <trkpt lat="45.51247" lon="2.62058">
        <ele>884</ele>
        <time>2018-09-26T12:49:57Z</time>
      </trkpt>
      <trkpt lat="45.51249" lon="2.62062">
        <ele>884</ele>
        <time>2018-09-26T12:49:57Z</time>
      </trkpt>
      <trkpt lat="45.51249" lon="2.62064">
        <ele>884</ele>
        <time>2018-09-26T12:49:57Z</time>
      </trkpt>
      <trkpt lat="45.5125" lon="2.62066">
        <ele>884</ele>
        <time>2018-09-26T12:49:57Z</time>
      </trkpt>
      <trkpt lat="45.51251" lon="2.62069">
        <ele>884</ele>
        <time>2018-09-26T12:49:57Z</time>
      </trkpt>
      <trkpt lat="45.51252" lon="2.62071">
        <ele>884</ele>
        <time>2018-09-26T12:49:57Z</time>
      </trkpt>
      <trkpt lat="45.51252" lon="2.62074">
        <ele>884</ele>
        <time>2018-09-26T12:49:57Z</time>
      </trkpt>
      <trkpt lat="45.51254" lon="2.62075">
        <ele>885</ele>
        <time>2018-09-26T12:49:57Z</time>
      </trkpt>
      <trkpt lat="45.51255" lon="2.62077">
        <ele>885</ele>
        <time>2018-09-26T12:49:57Z</time>
      </trkpt>
      <trkpt lat="45.51257" lon="2.6208">
        <ele>885</ele>
        <time>2018-09-26T12:49:57Z</time>
      </trkpt>
      <trkpt lat="45.51258" lon="2.62084">
        <ele>885</ele>
        <time>2018-09-26T12:49:57Z</time>
      </trkpt>
      <trkpt lat="45.51258" lon="2.62088">
        <ele>885</ele>
        <time>2018-09-26T12:49:57Z</time>
      </trkpt>
      <trkpt lat="45.51258" lon="2.62091">
        <ele>885</ele>
        <time>2018-09-26T12:49:57Z</time>
      </trkpt>
      <trkpt lat="45.51259" lon="2.62094">
        <ele>885</ele>
        <time>2018-09-26T12:49:57Z</time>
      </trkpt>
      <trkpt lat="45.51259" lon="2.62098">
        <ele>885</ele>
        <time>2018-09-26T12:49:57Z</time>
      </trkpt>
      <trkpt lat="45.5126" lon="2.62101">
        <ele>885</ele>
        <time>2018-09-26T12:49:57Z</time>
      </trkpt>
      <trkpt lat="45.5126" lon="2.62104">
        <ele>885</ele>
        <time>2018-09-26T12:49:57Z</time>
      </trkpt>
      <trkpt lat="45.51261" lon="2.62107">
        <ele>885</ele>
        <time>2018-09-26T12:49:57Z</time>
      </trkpt>
      <trkpt lat="45.51261" lon="2.6211">
        <ele>885</ele>
        <time>2018-09-26T12:49:57Z</time>
      </trkpt>
      <trkpt lat="45.51262" lon="2.62113">
        <ele>885</ele>
        <time>2018-09-26T12:49:57Z</time>
      </trkpt>
      <trkpt lat="45.51262" lon="2.62116">
        <ele>885</ele>
        <time>2018-09-26T12:49:57Z</time>
      </trkpt>
      <trkpt lat="45.51263" lon="2.62119">
        <ele>885</ele>
        <time>2018-09-26T12:49:57Z</time>
      </trkpt>
      <trkpt lat="45.51263" lon="2.62122">
        <ele>885</ele>
        <time>2018-09-26T12:49:57Z</time>
      </trkpt>
      <trkpt lat="45.51264" lon="2.62126">
        <ele>885</ele>
        <time>2018-09-26T12:49:57Z</time>
      </trkpt>
      <trkpt lat="45.51264" lon="2.62129">
        <ele>885</ele>
        <time>2018-09-26T12:49:57Z</time>
      </trkpt>
      <trkpt lat="45.51265" lon="2.62132">
        <ele>885</ele>
        <time>2018-09-26T12:49:57Z</time>
      </trkpt>
      <trkpt lat="45.51266" lon="2.62135">
        <ele>886</ele>
        <time>2018-09-26T12:49:57Z</time>
      </trkpt>
      <trkpt lat="45.51267" lon="2.62138">
        <ele>886</ele>
        <time>2018-09-26T12:49:57Z</time>
      </trkpt>
      <trkpt lat="45.51267" lon="2.62141">
        <ele>886</ele>
        <time>2018-09-26T12:49:57Z</time>
      </trkpt>
      <trkpt lat="45.51267" lon="2.62144">
        <ele>886</ele>
        <time>2018-09-26T12:49:57Z</time>
      </trkpt>
      <trkpt lat="45.51268" lon="2.62147">
        <ele>886</ele>
        <time>2018-09-26T12:49:57Z</time>
      </trkpt>
      <trkpt lat="45.51269" lon="2.6215">
        <ele>886</ele>
        <time>2018-09-26T12:49:57Z</time>
      </trkpt>
      <trkpt lat="45.51269" lon="2.62153">
        <ele>886</ele>
        <time>2018-09-26T12:49:57Z</time>
      </trkpt>
      <trkpt lat="45.5127" lon="2.62156">
        <ele>886</ele>
        <time>2018-09-26T12:49:57Z</time>
      </trkpt>
      <trkpt lat="45.51271" lon="2.62159">
        <ele>886</ele>
        <time>2018-09-26T12:49:57Z</time>
      </trkpt>
      <trkpt lat="45.51273" lon="2.62161">
        <ele>886</ele>
        <time>2018-09-26T12:49:57Z</time>
      </trkpt>
      <trkpt lat="45.51274" lon="2.62165">
        <ele>887</ele>
        <time>2018-09-26T12:49:57Z</time>
      </trkpt>
      <trkpt lat="45.51275" lon="2.62168">
        <ele>887</ele>
        <time>2018-09-26T12:49:57Z</time>
      </trkpt>
      <trkpt lat="45.51275" lon="2.62171">
        <ele>887</ele>
        <time>2018-09-26T12:49:57Z</time>
      </trkpt>
      <trkpt lat="45.51277" lon="2.62174">
        <ele>887</ele>
        <time>2018-09-26T12:49:57Z</time>
      </trkpt>
      <trkpt lat="45.51278" lon="2.62177">
        <ele>887</ele>
        <time>2018-09-26T12:49:57Z</time>
      </trkpt>
      <trkpt lat="45.51279" lon="2.6218">
        <ele>887</ele>
        <time>2018-09-26T12:49:57Z</time>
      </trkpt>
      <trkpt lat="45.5128" lon="2.62183">
        <ele>887</ele>
        <time>2018-09-26T12:49:57Z</time>
      </trkpt>
      <trkpt lat="45.51281" lon="2.62186">
        <ele>887</ele>
        <time>2018-09-26T12:49:57Z</time>
      </trkpt>
      <trkpt lat="45.51282" lon="2.62189">
        <ele>888</ele>
        <time>2018-09-26T12:49:57Z</time>
      </trkpt>
      <trkpt lat="45.51283" lon="2.62192">
        <ele>888</ele>
        <time>2018-09-26T12:49:57Z</time>
      </trkpt>
      <trkpt lat="45.51284" lon="2.62195">
        <ele>888</ele>
        <time>2018-09-26T12:49:57Z</time>
      </trkpt>
      <trkpt lat="45.51286" lon="2.62198">
        <ele>888</ele>
        <time>2018-09-26T12:49:57Z</time>
      </trkpt>
      <trkpt lat="45.51286" lon="2.62201">
        <ele>888</ele>
        <time>2018-09-26T12:49:57Z</time>
      </trkpt>
      <trkpt lat="45.51287" lon="2.62204">
        <ele>888</ele>
        <time>2018-09-26T12:49:57Z</time>
      </trkpt>
      <trkpt lat="45.51288" lon="2.62207">
        <ele>888</ele>
        <time>2018-09-26T12:49:57Z</time>
      </trkpt>
      <trkpt lat="45.51289" lon="2.62209">
        <ele>888</ele>
        <time>2018-09-26T12:49:57Z</time>
      </trkpt>
      <trkpt lat="45.5129" lon="2.62212">
        <ele>888</ele>
        <time>2018-09-26T12:49:57Z</time>
      </trkpt>
      <trkpt lat="45.51291" lon="2.62215">
        <ele>888</ele>
        <time>2018-09-26T12:49:57Z</time>
      </trkpt>
      <trkpt lat="45.51292" lon="2.62217">
        <ele>889</ele>
        <time>2018-09-26T12:49:57Z</time>
      </trkpt>
      <trkpt lat="45.51293" lon="2.6222">
        <ele>889</ele>
        <time>2018-09-26T12:49:57Z</time>
      </trkpt>
      <trkpt lat="45.51294" lon="2.62223">
        <ele>889</ele>
        <time>2018-09-26T12:49:57Z</time>
      </trkpt>
      <trkpt lat="45.51295" lon="2.62226">
        <ele>889</ele>
        <time>2018-09-26T12:49:57Z</time>
      </trkpt>
      <trkpt lat="45.51298" lon="2.62228">
        <ele>889</ele>
        <time>2018-09-26T12:49:57Z</time>
      </trkpt>
      <trkpt lat="45.51299" lon="2.62231">
        <ele>889</ele>
        <time>2018-09-26T12:49:57Z</time>
      </trkpt>
      <trkpt lat="45.513" lon="2.62234">
        <ele>889</ele>
        <time>2018-09-26T12:49:57Z</time>
      </trkpt>
      <trkpt lat="45.51301" lon="2.62237">
        <ele>889</ele>
        <time>2018-09-26T12:49:57Z</time>
      </trkpt>
      <trkpt lat="45.51302" lon="2.6224">
        <ele>890</ele>
        <time>2018-09-26T12:49:57Z</time>
      </trkpt>
      <trkpt lat="45.51304" lon="2.62243">
        <ele>890</ele>
        <time>2018-09-26T12:49:57Z</time>
      </trkpt>
      <trkpt lat="45.51305" lon="2.62246">
        <ele>890</ele>
        <time>2018-09-26T12:49:57Z</time>
      </trkpt>
      <trkpt lat="45.51306" lon="2.62249">
        <ele>890</ele>
        <time>2018-09-26T12:49:57Z</time>
      </trkpt>
      <trkpt lat="45.51307" lon="2.62252">
        <ele>890</ele>
        <time>2018-09-26T12:49:57Z</time>
      </trkpt>
      <trkpt lat="45.51308" lon="2.62255">
        <ele>890</ele>
        <time>2018-09-26T12:49:57Z</time>
      </trkpt>
      <trkpt lat="45.51311" lon="2.62257">
        <ele>891</ele>
        <time>2018-09-26T12:49:57Z</time>
      </trkpt>
      <trkpt lat="45.51314" lon="2.62259">
        <ele>891</ele>
        <time>2018-09-26T12:49:57Z</time>
      </trkpt>
      <trkpt lat="45.51316" lon="2.62262">
        <ele>891</ele>
        <time>2018-09-26T12:49:57Z</time>
      </trkpt>
      <trkpt lat="45.51317" lon="2.62265">
        <ele>891</ele>
        <time>2018-09-26T12:49:57Z</time>
      </trkpt>
      <trkpt lat="45.51318" lon="2.62268">
        <ele>891</ele>
        <time>2018-09-26T12:49:57Z</time>
      </trkpt>
      <trkpt lat="45.51319" lon="2.62271">
        <ele>891</ele>
        <time>2018-09-26T12:49:57Z</time>
      </trkpt>
      <trkpt lat="45.5132" lon="2.62274">
        <ele>892</ele>
        <time>2018-09-26T12:49:57Z</time>
      </trkpt>
      <trkpt lat="45.51321" lon="2.62278">
        <ele>892</ele>
        <time>2018-09-26T12:49:57Z</time>
      </trkpt>
      <trkpt lat="45.51322" lon="2.62281">
        <ele>892</ele>
        <time>2018-09-26T12:49:57Z</time>
      </trkpt>
      <trkpt lat="45.51323" lon="2.62285">
        <ele>892</ele>
        <time>2018-09-26T12:49:57Z</time>
      </trkpt>
      <trkpt lat="45.51324" lon="2.62288">
        <ele>892</ele>
        <time>2018-09-26T12:49:57Z</time>
      </trkpt>
      <trkpt lat="45.51325" lon="2.62291">
        <ele>892</ele>
        <time>2018-09-26T12:49:57Z</time>
      </trkpt>
      <trkpt lat="45.51326" lon="2.62295">
        <ele>892</ele>
        <time>2018-09-26T12:49:57Z</time>
      </trkpt>
      <trkpt lat="45.51326" lon="2.62298">
        <ele>892</ele>
        <time>2018-09-26T12:49:57Z</time>
      </trkpt>
      <trkpt lat="45.51327" lon="2.62301">
        <ele>892</ele>
        <time>2018-09-26T12:49:57Z</time>
      </trkpt>
      <trkpt lat="45.51328" lon="2.62304">
        <ele>892</ele>
        <time>2018-09-26T12:49:57Z</time>
      </trkpt>
      <trkpt lat="45.51329" lon="2.62307">
        <ele>893</ele>
        <time>2018-09-26T12:49:57Z</time>
      </trkpt>
      <trkpt lat="45.5133" lon="2.62312">
        <ele>893</ele>
        <time>2018-09-26T12:49:57Z</time>
      </trkpt>
      <trkpt lat="45.5133" lon="2.62314">
        <ele>893</ele>
        <time>2018-09-26T12:49:57Z</time>
      </trkpt>
      <trkpt lat="45.51331" lon="2.62317">
        <ele>893</ele>
        <time>2018-09-26T12:49:57Z</time>
      </trkpt>
      <trkpt lat="45.51331" lon="2.62319">
        <ele>893</ele>
        <time>2018-09-26T12:49:57Z</time>
      </trkpt>
      <trkpt lat="45.51332" lon="2.62322">
        <ele>893</ele>
        <time>2018-09-26T12:49:57Z</time>
      </trkpt>
      <trkpt lat="45.51333" lon="2.62324">
        <ele>893</ele>
        <time>2018-09-26T12:49:57Z</time>
      </trkpt>
      <trkpt lat="45.51333" lon="2.62327">
        <ele>893</ele>
        <time>2018-09-26T12:49:57Z</time>
      </trkpt>
      <trkpt lat="45.51334" lon="2.62329">
        <ele>893</ele>
        <time>2018-09-26T12:49:57Z</time>
      </trkpt>
      <trkpt lat="45.51334" lon="2.62332">
        <ele>893</ele>
        <time>2018-09-26T12:49:57Z</time>
      </trkpt>
      <trkpt lat="45.51336" lon="2.62335">
        <ele>893</ele>
        <time>2018-09-26T12:49:57Z</time>
      </trkpt>
      <trkpt lat="45.51336" lon="2.62338">
        <ele>893</ele>
        <time>2018-09-26T12:49:57Z</time>
      </trkpt>
      <trkpt lat="45.51336" lon="2.62341">
        <ele>894</ele>
        <time>2018-09-26T12:49:57Z</time>
      </trkpt>
      <trkpt lat="45.51338" lon="2.62344">
        <ele>894</ele>
        <time>2018-09-26T12:49:57Z</time>
      </trkpt>
      <trkpt lat="45.51339" lon="2.62347">
        <ele>894</ele>
        <time>2018-09-26T12:49:57Z</time>
      </trkpt>
      <trkpt lat="45.51339" lon="2.6235">
        <ele>894</ele>
        <time>2018-09-26T12:49:57Z</time>
      </trkpt>
      <trkpt lat="45.5134" lon="2.62353">
        <ele>894</ele>
        <time>2018-09-26T12:49:57Z</time>
      </trkpt>
      <trkpt lat="45.51341" lon="2.62356">
        <ele>894</ele>
        <time>2018-09-26T12:49:57Z</time>
      </trkpt>
      <trkpt lat="45.51342" lon="2.6236">
        <ele>894</ele>
        <time>2018-09-26T12:49:57Z</time>
      </trkpt>
      <trkpt lat="45.51343" lon="2.62363">
        <ele>894</ele>
        <time>2018-09-26T12:49:57Z</time>
      </trkpt>
      <trkpt lat="45.51344" lon="2.62365">
        <ele>894</ele>
        <time>2018-09-26T12:49:57Z</time>
      </trkpt>
      <trkpt lat="45.51345" lon="2.62367">
        <ele>894</ele>
        <time>2018-09-26T12:49:57Z</time>
      </trkpt>
      <trkpt lat="45.51346" lon="2.62369">
        <ele>895</ele>
        <time>2018-09-26T12:49:57Z</time>
      </trkpt>
      <trkpt lat="45.51347" lon="2.62372">
        <ele>895</ele>
        <time>2018-09-26T12:49:57Z</time>
      </trkpt>
      <trkpt lat="45.51348" lon="2.62376">
        <ele>895</ele>
        <time>2018-09-26T12:49:57Z</time>
      </trkpt>
      <trkpt lat="45.51348" lon="2.62379">
        <ele>895</ele>
        <time>2018-09-26T12:49:57Z</time>
      </trkpt>
      <trkpt lat="45.51349" lon="2.62383">
        <ele>895</ele>
        <time>2018-09-26T12:49:57Z</time>
      </trkpt>
      <trkpt lat="45.5135" lon="2.62388">
        <ele>895</ele>
        <time>2018-09-26T12:49:57Z</time>
      </trkpt>
      <trkpt lat="45.51351" lon="2.62391">
        <ele>895</ele>
        <time>2018-09-26T12:49:57Z</time>
      </trkpt>
      <trkpt lat="45.51353" lon="2.62394">
        <ele>895</ele>
        <time>2018-09-26T12:49:57Z</time>
      </trkpt>
      <trkpt lat="45.51354" lon="2.62397">
        <ele>895</ele>
        <time>2018-09-26T12:49:57Z</time>
      </trkpt>
      <trkpt lat="45.51356" lon="2.624">
        <ele>895</ele>
        <time>2018-09-26T12:49:57Z</time>
      </trkpt>
      <trkpt lat="45.51357" lon="2.62404">
        <ele>895</ele>
        <time>2018-09-26T12:49:57Z</time>
      </trkpt>
      <trkpt lat="45.51358" lon="2.62407">
        <ele>896</ele>
        <time>2018-09-26T12:49:57Z</time>
      </trkpt>
      <trkpt lat="45.51359" lon="2.6241">
        <ele>896</ele>
        <time>2018-09-26T12:49:57Z</time>
      </trkpt>
      <trkpt lat="45.5136" lon="2.62413">
        <ele>896</ele>
        <time>2018-09-26T12:49:57Z</time>
      </trkpt>
      <trkpt lat="45.51361" lon="2.62417">
        <ele>896</ele>
        <time>2018-09-26T12:49:57Z</time>
      </trkpt>
      <trkpt lat="45.51361" lon="2.62421">
        <ele>896</ele>
        <time>2018-09-26T12:49:57Z</time>
      </trkpt>
      <trkpt lat="45.51361" lon="2.62425">
        <ele>896</ele>
        <time>2018-09-26T12:49:57Z</time>
      </trkpt>
      <trkpt lat="45.51362" lon="2.62429">
        <ele>896</ele>
        <time>2018-09-26T12:49:57Z</time>
      </trkpt>
      <trkpt lat="45.51362" lon="2.62434">
        <ele>896</ele>
        <time>2018-09-26T12:49:57Z</time>
      </trkpt>
      <trkpt lat="45.51362" lon="2.62437">
        <ele>896</ele>
        <time>2018-09-26T12:49:57Z</time>
      </trkpt>
      <trkpt lat="45.51363" lon="2.62441">
        <ele>896</ele>
        <time>2018-09-26T12:49:57Z</time>
      </trkpt>
      <trkpt lat="45.51363" lon="2.62445">
        <ele>896</ele>
        <time>2018-09-26T12:49:57Z</time>
      </trkpt>
      <trkpt lat="45.51364" lon="2.62448">
        <ele>896</ele>
        <time>2018-09-26T12:49:57Z</time>
      </trkpt>
      <trkpt lat="45.51365" lon="2.62452">
        <ele>896</ele>
        <time>2018-09-26T12:49:57Z</time>
      </trkpt>
      <trkpt lat="45.51366" lon="2.62454">
        <ele>896</ele>
        <time>2018-09-26T12:49:57Z</time>
      </trkpt>
      <trkpt lat="45.51366" lon="2.62457">
        <ele>896</ele>
        <time>2018-09-26T12:49:57Z</time>
      </trkpt>
      <trkpt lat="45.51367" lon="2.62461">
        <ele>896</ele>
        <time>2018-09-26T12:49:57Z</time>
      </trkpt>
      <trkpt lat="45.51368" lon="2.62464">
        <ele>896</ele>
        <time>2018-09-26T12:49:57Z</time>
      </trkpt>
      <trkpt lat="45.51369" lon="2.62467">
        <ele>896</ele>
        <time>2018-09-26T12:49:57Z</time>
      </trkpt>
      <trkpt lat="45.5137" lon="2.6247">
        <ele>896</ele>
        <time>2018-09-26T12:49:57Z</time>
      </trkpt>
      <trkpt lat="45.5137" lon="2.62474">
        <ele>896</ele>
        <time>2018-09-26T12:49:57Z</time>
      </trkpt>
      <trkpt lat="45.5137" lon="2.62477">
        <ele>896</ele>
        <time>2018-09-26T12:49:57Z</time>
      </trkpt>
      <trkpt lat="45.51371" lon="2.62481">
        <ele>896</ele>
        <time>2018-09-26T12:49:57Z</time>
      </trkpt>
      <trkpt lat="45.51371" lon="2.62484">
        <ele>896</ele>
        <time>2018-09-26T12:49:57Z</time>
      </trkpt>
      <trkpt lat="45.51375" lon="2.62487">
        <ele>896</ele>
        <time>2018-09-26T12:49:57Z</time>
      </trkpt>
      <trkpt lat="45.51404" lon="2.62498">
        <ele>898</ele>
        <time>2018-09-26T12:49:57Z</time>
      </trkpt>
      <trkpt lat="45.51389" lon="2.62517">
        <ele>897</ele>
        <time>2018-09-26T12:49:57Z</time>
      </trkpt>
      <trkpt lat="45.51391" lon="2.62519">
        <ele>897</ele>
        <time>2018-09-26T12:49:57Z</time>
      </trkpt>
      <trkpt lat="45.51391" lon="2.62519">
        <ele>897</ele>
        <time>2018-09-26T12:49:57Z</time>
      </trkpt>
      <trkpt lat="45.51391" lon="2.62521">
        <ele>897</ele>
        <time>2018-09-26T12:49:57Z</time>
      </trkpt>
      <trkpt lat="45.51391" lon="2.62524">
        <ele>897</ele>
        <time>2018-09-26T12:49:57Z</time>
      </trkpt>
      <trkpt lat="45.51391" lon="2.62527">
        <ele>897</ele>
        <time>2018-09-26T12:49:57Z</time>
      </trkpt>
      <trkpt lat="45.51391" lon="2.62531">
        <ele>897</ele>
        <time>2018-09-26T12:49:57Z</time>
      </trkpt>
      <trkpt lat="45.51392" lon="2.62533">
        <ele>897</ele>
        <time>2018-09-26T12:49:57Z</time>
      </trkpt>
      <trkpt lat="45.51392" lon="2.62535">
        <ele>897</ele>
        <time>2018-09-26T12:49:57Z</time>
      </trkpt>
      <trkpt lat="45.51392" lon="2.62538">
        <ele>897</ele>
        <time>2018-09-26T12:49:57Z</time>
      </trkpt>
      <trkpt lat="45.51393" lon="2.62541">
        <ele>897</ele>
        <time>2018-09-26T12:49:57Z</time>
      </trkpt>
      <trkpt lat="45.51393" lon="2.62544">
        <ele>897</ele>
        <time>2018-09-26T12:49:57Z</time>
      </trkpt>
      <trkpt lat="45.51395" lon="2.62546">
        <ele>897</ele>
        <time>2018-09-26T12:49:57Z</time>
      </trkpt>
      <trkpt lat="45.51397" lon="2.62547">
        <ele>897</ele>
        <time>2018-09-26T12:49:57Z</time>
      </trkpt>
      <trkpt lat="45.51398" lon="2.6255">
        <ele>897</ele>
        <time>2018-09-26T12:49:57Z</time>
      </trkpt>
      <trkpt lat="45.51399" lon="2.62551">
        <ele>897</ele>
        <time>2018-09-26T12:49:57Z</time>
      </trkpt>
      <trkpt lat="45.514" lon="2.62554">
        <ele>897</ele>
        <time>2018-09-26T12:49:57Z</time>
      </trkpt>
      <trkpt lat="45.51401" lon="2.62556">
        <ele>897</ele>
        <time>2018-09-26T12:49:57Z</time>
      </trkpt>
      <trkpt lat="45.51402" lon="2.62558">
        <ele>897</ele>
        <time>2018-09-26T12:49:57Z</time>
      </trkpt>
      <trkpt lat="45.51404" lon="2.62561">
        <ele>897</ele>
        <time>2018-09-26T12:49:57Z</time>
      </trkpt>
      <trkpt lat="45.51404" lon="2.62564">
        <ele>897</ele>
        <time>2018-09-26T12:49:57Z</time>
      </trkpt>
      <trkpt lat="45.51406" lon="2.62567">
        <ele>898</ele>
        <time>2018-09-26T12:49:57Z</time>
      </trkpt>
      <trkpt lat="45.51406" lon="2.6257">
        <ele>898</ele>
        <time>2018-09-26T12:49:57Z</time>
      </trkpt>
      <trkpt lat="45.51407" lon="2.62573">
        <ele>898</ele>
        <time>2018-09-26T12:49:57Z</time>
      </trkpt>
      <trkpt lat="45.51408" lon="2.62575">
        <ele>898</ele>
        <time>2018-09-26T12:49:57Z</time>
      </trkpt>
      <trkpt lat="45.51409" lon="2.62577">
        <ele>898</ele>
        <time>2018-09-26T12:49:57Z</time>
      </trkpt>
      <trkpt lat="45.51409" lon="2.62581">
        <ele>898</ele>
        <time>2018-09-26T12:49:57Z</time>
      </trkpt>
      <trkpt lat="45.5141" lon="2.62585">
        <ele>898</ele>
        <time>2018-09-26T12:49:57Z</time>
      </trkpt>
      <trkpt lat="45.5141" lon="2.62588">
        <ele>898</ele>
        <time>2018-09-26T12:49:57Z</time>
      </trkpt>
      <trkpt lat="45.51411" lon="2.6259">
        <ele>898</ele>
        <time>2018-09-26T12:49:57Z</time>
      </trkpt>
      <trkpt lat="45.51412" lon="2.62594">
        <ele>898</ele>
        <time>2018-09-26T12:49:57Z</time>
      </trkpt>
      <trkpt lat="45.51413" lon="2.62597">
        <ele>898</ele>
        <time>2018-09-26T12:49:57Z</time>
      </trkpt>
      <trkpt lat="45.51414" lon="2.626">
        <ele>898</ele>
        <time>2018-09-26T12:49:57Z</time>
      </trkpt>
      <trkpt lat="45.51414" lon="2.62604">
        <ele>898</ele>
        <time>2018-09-26T12:49:57Z</time>
      </trkpt>
      <trkpt lat="45.51416" lon="2.62607">
        <ele>899</ele>
        <time>2018-09-26T12:49:57Z</time>
      </trkpt>
      <trkpt lat="45.51417" lon="2.6261">
        <ele>899</ele>
        <time>2018-09-26T12:49:57Z</time>
      </trkpt>
      <trkpt lat="45.51419" lon="2.62613">
        <ele>899</ele>
        <time>2018-09-26T12:49:57Z</time>
      </trkpt>
      <trkpt lat="45.51419" lon="2.62617">
        <ele>899</ele>
        <time>2018-09-26T12:49:57Z</time>
      </trkpt>
      <trkpt lat="45.5142" lon="2.62621">
        <ele>899</ele>
        <time>2018-09-26T12:49:57Z</time>
      </trkpt>
      <trkpt lat="45.51421" lon="2.62624">
        <ele>899</ele>
        <time>2018-09-26T12:49:57Z</time>
      </trkpt>
      <trkpt lat="45.51421" lon="2.62628">
        <ele>899</ele>
        <time>2018-09-26T12:49:57Z</time>
      </trkpt>
      <trkpt lat="45.51422" lon="2.62631">
        <ele>899</ele>
        <time>2018-09-26T12:49:57Z</time>
      </trkpt>
      <trkpt lat="45.51423" lon="2.62635">
        <ele>899</ele>
        <time>2018-09-26T12:49:57Z</time>
      </trkpt>
      <trkpt lat="45.51424" lon="2.62638">
        <ele>899</ele>
        <time>2018-09-26T12:49:57Z</time>
      </trkpt>
      <trkpt lat="45.51425" lon="2.62641">
        <ele>899</ele>
        <time>2018-09-26T12:49:57Z</time>
      </trkpt>
      <trkpt lat="45.51426" lon="2.62644">
        <ele>900</ele>
        <time>2018-09-26T12:49:57Z</time>
      </trkpt>
      <trkpt lat="45.51427" lon="2.62647">
        <ele>900</ele>
        <time>2018-09-26T12:49:57Z</time>
      </trkpt>
      <trkpt lat="45.51428" lon="2.62651">
        <ele>900</ele>
        <time>2018-09-26T12:49:57Z</time>
      </trkpt>
      <trkpt lat="45.51429" lon="2.62653">
        <ele>900</ele>
        <time>2018-09-26T12:49:57Z</time>
      </trkpt>
      <trkpt lat="45.51429" lon="2.62656">
        <ele>900</ele>
        <time>2018-09-26T12:49:57Z</time>
      </trkpt>
      <trkpt lat="45.51432" lon="2.62658">
        <ele>900</ele>
        <time>2018-09-26T12:49:57Z</time>
      </trkpt>
      <trkpt lat="45.51434" lon="2.62661">
        <ele>900</ele>
        <time>2018-09-26T12:49:57Z</time>
      </trkpt>
      <trkpt lat="45.51436" lon="2.62664">
        <ele>900</ele>
        <time>2018-09-26T12:49:57Z</time>
      </trkpt>
      <trkpt lat="45.51438" lon="2.62666">
        <ele>900</ele>
        <time>2018-09-26T12:49:57Z</time>
      </trkpt>
      <trkpt lat="45.51439" lon="2.62669">
        <ele>900</ele>
        <time>2018-09-26T12:49:57Z</time>
      </trkpt>
      <trkpt lat="45.51439" lon="2.62673">
        <ele>901</ele>
        <time>2018-09-26T12:49:57Z</time>
      </trkpt>
      <trkpt lat="45.5144" lon="2.62676">
        <ele>901</ele>
        <time>2018-09-26T12:49:57Z</time>
      </trkpt>
      <trkpt lat="45.5144" lon="2.62679">
        <ele>901</ele>
        <time>2018-09-26T12:49:57Z</time>
      </trkpt>
      <trkpt lat="45.51441" lon="2.62683">
        <ele>901</ele>
        <time>2018-09-26T12:49:57Z</time>
      </trkpt>
      <trkpt lat="45.51441" lon="2.62686">
        <ele>901</ele>
        <time>2018-09-26T12:49:57Z</time>
      </trkpt>
      <trkpt lat="45.51442" lon="2.62689">
        <ele>901</ele>
        <time>2018-09-26T12:49:57Z</time>
      </trkpt>
      <trkpt lat="45.51443" lon="2.62692">
        <ele>901</ele>
        <time>2018-09-26T12:49:57Z</time>
      </trkpt>
      <trkpt lat="45.51445" lon="2.62694">
        <ele>901</ele>
        <time>2018-09-26T12:49:57Z</time>
      </trkpt>
      <trkpt lat="45.51446" lon="2.62696">
        <ele>901</ele>
        <time>2018-09-26T12:49:57Z</time>
      </trkpt>
      <trkpt lat="45.51446" lon="2.62699">
        <ele>901</ele>
        <time>2018-09-26T12:49:57Z</time>
      </trkpt>
      <trkpt lat="45.51448" lon="2.62702">
        <ele>901</ele>
        <time>2018-09-26T12:49:57Z</time>
      </trkpt>
      <trkpt lat="45.5145" lon="2.62705">
        <ele>901</ele>
        <time>2018-09-26T12:49:57Z</time>
      </trkpt>
      <trkpt lat="45.51452" lon="2.62708">
        <ele>901</ele>
        <time>2018-09-26T12:49:57Z</time>
      </trkpt>
      <trkpt lat="45.51453" lon="2.62711">
        <ele>901</ele>
        <time>2018-09-26T12:49:57Z</time>
      </trkpt>
      <trkpt lat="45.51453" lon="2.62715">
        <ele>902</ele>
        <time>2018-09-26T12:49:57Z</time>
      </trkpt>
      <trkpt lat="45.51454" lon="2.62719">
        <ele>902</ele>
        <time>2018-09-26T12:49:57Z</time>
      </trkpt>
      <trkpt lat="45.51454" lon="2.62722">
        <ele>902</ele>
        <time>2018-09-26T12:49:57Z</time>
      </trkpt>
      <trkpt lat="45.51454" lon="2.62726">
        <ele>902</ele>
        <time>2018-09-26T12:49:57Z</time>
      </trkpt>
      <trkpt lat="45.51455" lon="2.6273">
        <ele>902</ele>
        <time>2018-09-26T12:49:57Z</time>
      </trkpt>
      <trkpt lat="45.51455" lon="2.62733">
        <ele>902</ele>
        <time>2018-09-26T12:49:57Z</time>
      </trkpt>
      <trkpt lat="45.51455" lon="2.62736">
        <ele>902</ele>
        <time>2018-09-26T12:49:57Z</time>
      </trkpt>
      <trkpt lat="45.51456" lon="2.6274">
        <ele>902</ele>
        <time>2018-09-26T12:49:57Z</time>
      </trkpt>
      <trkpt lat="45.51457" lon="2.62743">
        <ele>902</ele>
        <time>2018-09-26T12:49:57Z</time>
      </trkpt>
      <trkpt lat="45.51459" lon="2.62745">
        <ele>902</ele>
        <time>2018-09-26T12:49:57Z</time>
      </trkpt>
      <trkpt lat="45.51461" lon="2.62748">
        <ele>902</ele>
        <time>2018-09-26T12:49:57Z</time>
      </trkpt>
      <trkpt lat="45.51462" lon="2.62752">
        <ele>902</ele>
        <time>2018-09-26T12:49:57Z</time>
      </trkpt>
      <trkpt lat="45.51464" lon="2.62754">
        <ele>902</ele>
        <time>2018-09-26T12:49:57Z</time>
      </trkpt>
      <trkpt lat="45.51465" lon="2.62757">
        <ele>902</ele>
        <time>2018-09-26T12:49:57Z</time>
      </trkpt>
      <trkpt lat="45.51466" lon="2.62761">
        <ele>903</ele>
        <time>2018-09-26T12:49:57Z</time>
      </trkpt>
      <trkpt lat="45.51466" lon="2.62764">
        <ele>903</ele>
        <time>2018-09-26T12:49:57Z</time>
      </trkpt>
      <trkpt lat="45.51467" lon="2.62767">
        <ele>903</ele>
        <time>2018-09-26T12:49:57Z</time>
      </trkpt>
      <trkpt lat="45.51468" lon="2.62771">
        <ele>903</ele>
        <time>2018-09-26T12:49:57Z</time>
      </trkpt>
      <trkpt lat="45.51468" lon="2.62774">
        <ele>903</ele>
        <time>2018-09-26T12:49:57Z</time>
      </trkpt>
      <trkpt lat="45.51469" lon="2.62777">
        <ele>903</ele>
        <time>2018-09-26T12:49:57Z</time>
      </trkpt>
      <trkpt lat="45.5147" lon="2.62781">
        <ele>903</ele>
        <time>2018-09-26T12:49:57Z</time>
      </trkpt>
      <trkpt lat="45.51471" lon="2.62784">
        <ele>903</ele>
        <time>2018-09-26T12:49:57Z</time>
      </trkpt>
      <trkpt lat="45.51471" lon="2.62787">
        <ele>903</ele>
        <time>2018-09-26T12:49:57Z</time>
      </trkpt>
      <trkpt lat="45.51472" lon="2.6279">
        <ele>903</ele>
        <time>2018-09-26T12:49:57Z</time>
      </trkpt>
      <trkpt lat="45.51472" lon="2.62793">
        <ele>903</ele>
        <time>2018-09-26T12:49:57Z</time>
      </trkpt>
      <trkpt lat="45.51473" lon="2.62796">
        <ele>903</ele>
        <time>2018-09-26T12:49:57Z</time>
      </trkpt>
      <trkpt lat="45.51474" lon="2.62798">
        <ele>903</ele>
        <time>2018-09-26T12:49:57Z</time>
      </trkpt>
      <trkpt lat="45.51475" lon="2.62801">
        <ele>903</ele>
        <time>2018-09-26T12:49:57Z</time>
      </trkpt>
      <trkpt lat="45.51476" lon="2.62803">
        <ele>903</ele>
        <time>2018-09-26T12:49:57Z</time>
      </trkpt>
      <trkpt lat="45.51478" lon="2.62806">
        <ele>903</ele>
        <time>2018-09-26T12:49:57Z</time>
      </trkpt>
      <trkpt lat="45.51479" lon="2.62809">
        <ele>904</ele>
        <time>2018-09-26T12:49:57Z</time>
      </trkpt>
      <trkpt lat="45.5148" lon="2.62812">
        <ele>904</ele>
        <time>2018-09-26T12:49:57Z</time>
      </trkpt>
      <trkpt lat="45.51481" lon="2.62815">
        <ele>904</ele>
        <time>2018-09-26T12:49:57Z</time>
      </trkpt>
      <trkpt lat="45.51481" lon="2.62817">
        <ele>904</ele>
        <time>2018-09-26T12:49:57Z</time>
      </trkpt>
      <trkpt lat="45.51482" lon="2.62819">
        <ele>904</ele>
        <time>2018-09-26T12:49:57Z</time>
      </trkpt>
      <trkpt lat="45.51482" lon="2.6282">
        <ele>904</ele>
        <time>2018-09-26T12:49:57Z</time>
      </trkpt>
      <trkpt lat="45.51482" lon="2.62821">
        <ele>904</ele>
        <time>2018-09-26T12:49:57Z</time>
      </trkpt>
      <trkpt lat="45.51484" lon="2.62821">
        <ele>904</ele>
        <time>2018-09-26T12:49:57Z</time>
      </trkpt>
      <trkpt lat="45.51484" lon="2.6282">
        <ele>904</ele>
        <time>2018-09-26T12:49:57Z</time>
      </trkpt>
      <trkpt lat="45.51484" lon="2.6282">
        <ele>904</ele>
        <time>2018-09-26T12:49:57Z</time>
      </trkpt>
      <trkpt lat="45.51484" lon="2.6282">
        <ele>904</ele>
        <time>2018-09-26T12:49:57Z</time>
      </trkpt>
      <trkpt lat="45.51484" lon="2.6282">
        <ele>904</ele>
        <time>2018-09-26T12:49:57Z</time>
      </trkpt>
      <trkpt lat="45.51484" lon="2.6282">
        <ele>904</ele>
        <time>2018-09-26T12:49:57Z</time>
      </trkpt>
      <trkpt lat="45.51484" lon="2.6282">
        <ele>904</ele>
        <time>2018-09-26T12:49:57Z</time>
      </trkpt>
      <trkpt lat="45.51483" lon="2.62819">
        <ele>904</ele>
        <time>2018-09-26T12:49:57Z</time>
      </trkpt>
      <trkpt lat="45.51483" lon="2.62819">
        <ele>904</ele>
        <time>2018-09-26T12:49:57Z</time>
      </trkpt>
      <trkpt lat="45.51483" lon="2.62819">
        <ele>904</ele>
        <time>2018-09-26T12:49:57Z</time>
      </trkpt>
      <trkpt lat="45.51482" lon="2.62817">
        <ele>904</ele>
        <time>2018-09-26T12:49:57Z</time>
      </trkpt>
      <trkpt lat="45.51483" lon="2.62815">
        <ele>904</ele>
        <time>2018-09-26T12:49:57Z</time>
      </trkpt>
      <trkpt lat="45.51483" lon="2.62812">
        <ele>904</ele>
        <time>2018-09-26T12:49:57Z</time>
      </trkpt>
      <trkpt lat="45.51482" lon="2.62808">
        <ele>904</ele>
        <time>2018-09-26T12:49:57Z</time>
      </trkpt>
      <trkpt lat="45.51482" lon="2.62805">
        <ele>904</ele>
        <time>2018-09-26T12:49:57Z</time>
      </trkpt>
      <trkpt lat="45.51482" lon="2.62802">
        <ele>904</ele>
        <time>2018-09-26T12:49:57Z</time>
      </trkpt>
      <trkpt lat="45.51483" lon="2.62799">
        <ele>904</ele>
        <time>2018-09-26T12:49:57Z</time>
      </trkpt>
      <trkpt lat="45.51483" lon="2.62797">
        <ele>903</ele>
        <time>2018-09-26T12:49:57Z</time>
      </trkpt>
      <trkpt lat="45.51484" lon="2.62794">
        <ele>903</ele>
        <time>2018-09-26T12:49:57Z</time>
      </trkpt>
      <trkpt lat="45.51485" lon="2.62792">
        <ele>903</ele>
        <time>2018-09-26T12:49:57Z</time>
      </trkpt>
      <trkpt lat="45.51486" lon="2.62789">
        <ele>903</ele>
        <time>2018-09-26T12:49:57Z</time>
      </trkpt>
      <trkpt lat="45.51487" lon="2.62786">
        <ele>903</ele>
        <time>2018-09-26T12:49:57Z</time>
      </trkpt>
      <trkpt lat="45.51487" lon="2.62783">
        <ele>903</ele>
        <time>2018-09-26T12:49:57Z</time>
      </trkpt>
      <trkpt lat="45.51489" lon="2.62781">
        <ele>903</ele>
        <time>2018-09-26T12:49:57Z</time>
      </trkpt>
      <trkpt lat="45.5149" lon="2.62778">
        <ele>903</ele>
        <time>2018-09-26T12:49:57Z</time>
      </trkpt>
      <trkpt lat="45.51491" lon="2.62775">
        <ele>903</ele>
        <time>2018-09-26T12:49:57Z</time>
      </trkpt>
      <trkpt lat="45.51491" lon="2.62772">
        <ele>903</ele>
        <time>2018-09-26T12:49:57Z</time>
      </trkpt>
      <trkpt lat="45.51491" lon="2.62768">
        <ele>903</ele>
        <time>2018-09-26T12:49:57Z</time>
      </trkpt>
      <trkpt lat="45.51491" lon="2.62764">
        <ele>903</ele>
        <time>2018-09-26T12:49:57Z</time>
      </trkpt>
      <trkpt lat="45.51491" lon="2.6276">
        <ele>903</ele>
        <time>2018-09-26T12:49:57Z</time>
      </trkpt>
      <trkpt lat="45.51491" lon="2.62756">
        <ele>903</ele>
        <time>2018-09-26T12:49:57Z</time>
      </trkpt>
      <trkpt lat="45.51491" lon="2.62752">
        <ele>903</ele>
        <time>2018-09-26T12:49:57Z</time>
      </trkpt>
      <trkpt lat="45.51491" lon="2.62748">
        <ele>903</ele>
        <time>2018-09-26T12:49:57Z</time>
      </trkpt>
      <trkpt lat="45.51491" lon="2.62744">
        <ele>902</ele>
        <time>2018-09-26T12:49:57Z</time>
      </trkpt>
      <trkpt lat="45.51491" lon="2.62741">
        <ele>902</ele>
        <time>2018-09-26T12:49:57Z</time>
      </trkpt>
      <trkpt lat="45.51491" lon="2.62737">
        <ele>902</ele>
        <time>2018-09-26T12:49:57Z</time>
      </trkpt>
      <trkpt lat="45.51491" lon="2.62734">
        <ele>902</ele>
        <time>2018-09-26T12:49:57Z</time>
      </trkpt>
      <trkpt lat="45.51491" lon="2.62731">
        <ele>902</ele>
        <time>2018-09-26T12:49:57Z</time>
      </trkpt>
      <trkpt lat="45.5149" lon="2.62728">
        <ele>902</ele>
        <time>2018-09-26T12:49:57Z</time>
      </trkpt>
      <trkpt lat="45.51491" lon="2.62725">
        <ele>902</ele>
        <time>2018-09-26T12:49:57Z</time>
      </trkpt>
      <trkpt lat="45.51491" lon="2.62722">
        <ele>902</ele>
        <time>2018-09-26T12:49:57Z</time>
      </trkpt>
      <trkpt lat="45.5149" lon="2.62718">
        <ele>902</ele>
        <time>2018-09-26T12:49:57Z</time>
      </trkpt>
      <trkpt lat="45.5149" lon="2.62715">
        <ele>902</ele>
        <time>2018-09-26T12:49:57Z</time>
      </trkpt>
      <trkpt lat="45.5149" lon="2.62712">
        <ele>902</ele>
        <time>2018-09-26T12:49:57Z</time>
      </trkpt>
      <trkpt lat="45.5149" lon="2.62709">
        <ele>902</ele>
        <time>2018-09-26T12:49:57Z</time>
      </trkpt>
      <trkpt lat="45.51489" lon="2.62706">
        <ele>902</ele>
        <time>2018-09-26T12:49:57Z</time>
      </trkpt>
      <trkpt lat="45.51489" lon="2.62703">
        <ele>902</ele>
        <time>2018-09-26T12:49:57Z</time>
      </trkpt>
      <trkpt lat="45.51489" lon="2.627">
        <ele>902</ele>
        <time>2018-09-26T12:49:57Z</time>
      </trkpt>
      <trkpt lat="45.51489" lon="2.62698">
        <ele>902</ele>
        <time>2018-09-26T12:49:57Z</time>
      </trkpt>
      <trkpt lat="45.5149" lon="2.62695">
        <ele>902</ele>
        <time>2018-09-26T12:49:57Z</time>
      </trkpt>
      <trkpt lat="45.5149" lon="2.62692">
        <ele>902</ele>
        <time>2018-09-26T12:49:57Z</time>
      </trkpt>
      <trkpt lat="45.5149" lon="2.6269">
        <ele>902</ele>
        <time>2018-09-26T12:49:57Z</time>
      </trkpt>
      <trkpt lat="45.51489" lon="2.62686">
        <ele>902</ele>
        <time>2018-09-26T12:49:57Z</time>
      </trkpt>
      <trkpt lat="45.51489" lon="2.62683">
        <ele>902</ele>
        <time>2018-09-26T12:49:57Z</time>
      </trkpt>
      <trkpt lat="45.51488" lon="2.6268">
        <ele>902</ele>
        <time>2018-09-26T12:49:57Z</time>
      </trkpt>
      <trkpt lat="45.51488" lon="2.62677">
        <ele>902</ele>
        <time>2018-09-26T12:49:57Z</time>
      </trkpt>
      <trkpt lat="45.51487" lon="2.62673">
        <ele>902</ele>
        <time>2018-09-26T12:49:57Z</time>
      </trkpt>
      <trkpt lat="45.51486" lon="2.62669">
        <ele>902</ele>
        <time>2018-09-26T12:49:57Z</time>
      </trkpt>
      <trkpt lat="45.51486" lon="2.62666">
        <ele>902</ele>
        <time>2018-09-26T12:49:57Z</time>
      </trkpt>
      <trkpt lat="45.51485" lon="2.62662">
        <ele>902</ele>
        <time>2018-09-26T12:49:57Z</time>
      </trkpt>
      <trkpt lat="45.51485" lon="2.62659">
        <ele>902</ele>
        <time>2018-09-26T12:49:57Z</time>
      </trkpt>
      <trkpt lat="45.51484" lon="2.62655">
        <ele>902</ele>
        <time>2018-09-26T12:49:57Z</time>
      </trkpt>
      <trkpt lat="45.51484" lon="2.62651">
        <ele>902</ele>
        <time>2018-09-26T12:49:57Z</time>
      </trkpt>
      <trkpt lat="45.51484" lon="2.62647">
        <ele>902</ele>
        <time>2018-09-26T12:49:57Z</time>
      </trkpt>
      <trkpt lat="45.51483" lon="2.62643">
        <ele>902</ele>
        <time>2018-09-26T12:49:57Z</time>
      </trkpt>
      <trkpt lat="45.51482" lon="2.6264">
        <ele>902</ele>
        <time>2018-09-26T12:49:57Z</time>
      </trkpt>
      <trkpt lat="45.51481" lon="2.62636">
        <ele>902</ele>
        <time>2018-09-26T12:49:57Z</time>
      </trkpt>
      <trkpt lat="45.51481" lon="2.62632">
        <ele>902</ele>
        <time>2018-09-26T12:49:57Z</time>
      </trkpt>
      <trkpt lat="45.5148" lon="2.62628">
        <ele>902</ele>
        <time>2018-09-26T12:49:57Z</time>
      </trkpt>
      <trkpt lat="45.5148" lon="2.62624">
        <ele>902</ele>
        <time>2018-09-26T12:49:57Z</time>
      </trkpt>
      <trkpt lat="45.51479" lon="2.62621">
        <ele>902</ele>
        <time>2018-09-26T12:49:57Z</time>
      </trkpt>
      <trkpt lat="45.51479" lon="2.62617">
        <ele>901</ele>
        <time>2018-09-26T12:49:57Z</time>
      </trkpt>
      <trkpt lat="45.51479" lon="2.62614">
        <ele>901</ele>
        <time>2018-09-26T12:49:57Z</time>
      </trkpt>
      <trkpt lat="45.51478" lon="2.6261">
        <ele>901</ele>
        <time>2018-09-26T12:49:57Z</time>
      </trkpt>
      <trkpt lat="45.51478" lon="2.62606">
        <ele>901</ele>
        <time>2018-09-26T12:49:57Z</time>
      </trkpt>
      <trkpt lat="45.51477" lon="2.62603">
        <ele>901</ele>
        <time>2018-09-26T12:49:57Z</time>
      </trkpt>
      <trkpt lat="45.51477" lon="2.62599">
        <ele>901</ele>
        <time>2018-09-26T12:49:57Z</time>
      </trkpt>
      <trkpt lat="45.51477" lon="2.62595">
        <ele>901</ele>
        <time>2018-09-26T12:49:57Z</time>
      </trkpt>
      <trkpt lat="45.51476" lon="2.62592">
        <ele>901</ele>
        <time>2018-09-26T12:49:57Z</time>
      </trkpt>
      <trkpt lat="45.51476" lon="2.62588">
        <ele>901</ele>
        <time>2018-09-26T12:49:57Z</time>
      </trkpt>
      <trkpt lat="45.51476" lon="2.62584">
        <ele>901</ele>
        <time>2018-09-26T12:49:57Z</time>
      </trkpt>
      <trkpt lat="45.51476" lon="2.6258">
        <ele>901</ele>
        <time>2018-09-26T12:49:57Z</time>
      </trkpt>
      <trkpt lat="45.51476" lon="2.62576">
        <ele>901</ele>
        <time>2018-09-26T12:49:57Z</time>
      </trkpt>
      <trkpt lat="45.51476" lon="2.62572">
        <ele>901</ele>
        <time>2018-09-26T12:49:57Z</time>
      </trkpt>
      <trkpt lat="45.51476" lon="2.62568">
        <ele>901</ele>
        <time>2018-09-26T12:49:57Z</time>
      </trkpt>
      <trkpt lat="45.51476" lon="2.62564">
        <ele>901</ele>
        <time>2018-09-26T12:49:57Z</time>
      </trkpt>
      <trkpt lat="45.51476" lon="2.6256">
        <ele>901</ele>
        <time>2018-09-26T12:49:57Z</time>
      </trkpt>
      <trkpt lat="45.51476" lon="2.62556">
        <ele>901</ele>
        <time>2018-09-26T12:49:57Z</time>
      </trkpt>
      <trkpt lat="45.51476" lon="2.62552">
        <ele>901</ele>
        <time>2018-09-26T12:49:57Z</time>
      </trkpt>
      <trkpt lat="45.51476" lon="2.62549">
        <ele>901</ele>
        <time>2018-09-26T12:49:57Z</time>
      </trkpt>
      <trkpt lat="45.51476" lon="2.62545">
        <ele>901</ele>
        <time>2018-09-26T12:49:57Z</time>
      </trkpt>
      <trkpt lat="45.51477" lon="2.62541">
        <ele>901</ele>
        <time>2018-09-26T12:49:57Z</time>
      </trkpt>
      <trkpt lat="45.51476" lon="2.62538">
        <ele>901</ele>
        <time>2018-09-26T12:49:57Z</time>
      </trkpt>
      <trkpt lat="45.51476" lon="2.62534">
        <ele>901</ele>
        <time>2018-09-26T12:49:57Z</time>
      </trkpt>
      <trkpt lat="45.51476" lon="2.6253">
        <ele>901</ele>
        <time>2018-09-26T12:49:57Z</time>
      </trkpt>
      <trkpt lat="45.51476" lon="2.62526">
        <ele>901</ele>
        <time>2018-09-26T12:49:57Z</time>
      </trkpt>
      <trkpt lat="45.51476" lon="2.62522">
        <ele>901</ele>
        <time>2018-09-26T12:49:57Z</time>
      </trkpt>
      <trkpt lat="45.51476" lon="2.62519">
        <ele>901</ele>
        <time>2018-09-26T12:49:57Z</time>
      </trkpt>
      <trkpt lat="45.51476" lon="2.62515">
        <ele>901</ele>
        <time>2018-09-26T12:49:57Z</time>
      </trkpt>
      <trkpt lat="45.51476" lon="2.62511">
        <ele>901</ele>
        <time>2018-09-26T12:49:57Z</time>
      </trkpt>
      <trkpt lat="45.51475" lon="2.62508">
        <ele>901</ele>
        <time>2018-09-26T12:49:57Z</time>
      </trkpt>
      <trkpt lat="45.51475" lon="2.62504">
        <ele>901</ele>
        <time>2018-09-26T12:49:57Z</time>
      </trkpt>
      <trkpt lat="45.51475" lon="2.625">
        <ele>901</ele>
        <time>2018-09-26T12:49:57Z</time>
      </trkpt>
      <trkpt lat="45.51475" lon="2.62496">
        <ele>901</ele>
        <time>2018-09-26T12:49:57Z</time>
      </trkpt>
      <trkpt lat="45.51475" lon="2.62493">
        <ele>901</ele>
        <time>2018-09-26T12:49:57Z</time>
      </trkpt>
      <trkpt lat="45.51474" lon="2.62489">
        <ele>901</ele>
        <time>2018-09-26T12:49:57Z</time>
      </trkpt>
      <trkpt lat="45.51474" lon="2.62485">
        <ele>901</ele>
        <time>2018-09-26T12:49:57Z</time>
      </trkpt>
      <trkpt lat="45.51473" lon="2.62481">
        <ele>901</ele>
        <time>2018-09-26T12:49:57Z</time>
      </trkpt>
      <trkpt lat="45.51473" lon="2.62478">
        <ele>901</ele>
        <time>2018-09-26T12:49:57Z</time>
      </trkpt>
      <trkpt lat="45.51473" lon="2.62474">
        <ele>901</ele>
        <time>2018-09-26T12:49:57Z</time>
      </trkpt>
      <trkpt lat="45.51473" lon="2.62471">
        <ele>901</ele>
        <time>2018-09-26T12:49:57Z</time>
      </trkpt>
      <trkpt lat="45.51473" lon="2.62467">
        <ele>901</ele>
        <time>2018-09-26T12:49:57Z</time>
      </trkpt>
      <trkpt lat="45.51472" lon="2.62464">
        <ele>901</ele>
        <time>2018-09-26T12:49:57Z</time>
      </trkpt>
      <trkpt lat="45.51472" lon="2.6246">
        <ele>901</ele>
        <time>2018-09-26T12:49:57Z</time>
      </trkpt>
      <trkpt lat="45.51471" lon="2.62456">
        <ele>901</ele>
        <time>2018-09-26T12:49:57Z</time>
      </trkpt>
      <trkpt lat="45.51471" lon="2.62454">
        <ele>901</ele>
        <time>2018-09-26T12:49:57Z</time>
      </trkpt>
      <trkpt lat="45.5147" lon="2.62451">
        <ele>901</ele>
        <time>2018-09-26T12:49:57Z</time>
      </trkpt>
      <trkpt lat="45.51469" lon="2.62447">
        <ele>901</ele>
        <time>2018-09-26T12:49:57Z</time>
      </trkpt>
      <trkpt lat="45.51468" lon="2.62445">
        <ele>901</ele>
        <time>2018-09-26T12:49:57Z</time>
      </trkpt>
      <trkpt lat="45.51467" lon="2.62442">
        <ele>901</ele>
        <time>2018-09-26T12:49:57Z</time>
      </trkpt>
      <trkpt lat="45.51466" lon="2.62438">
        <ele>901</ele>
        <time>2018-09-26T12:49:57Z</time>
      </trkpt>
      <trkpt lat="45.51465" lon="2.62435">
        <ele>901</ele>
        <time>2018-09-26T12:49:57Z</time>
      </trkpt>
      <trkpt lat="45.51464" lon="2.62432">
        <ele>901</ele>
        <time>2018-09-26T12:49:57Z</time>
      </trkpt>
      <trkpt lat="45.51463" lon="2.62428">
        <ele>901</ele>
        <time>2018-09-26T12:49:57Z</time>
      </trkpt>
      <trkpt lat="45.51462" lon="2.62424">
        <ele>901</ele>
        <time>2018-09-26T12:49:57Z</time>
      </trkpt>
      <trkpt lat="45.51461" lon="2.62421">
        <ele>900</ele>
        <time>2018-09-26T12:49:57Z</time>
      </trkpt>
      <trkpt lat="45.5146" lon="2.62417">
        <ele>900</ele>
        <time>2018-09-26T12:49:57Z</time>
      </trkpt>
      <trkpt lat="45.51459" lon="2.62413">
        <ele>900</ele>
        <time>2018-09-26T12:49:57Z</time>
      </trkpt>
      <trkpt lat="45.51458" lon="2.6241">
        <ele>900</ele>
        <time>2018-09-26T12:49:57Z</time>
      </trkpt>
      <trkpt lat="45.51457" lon="2.62406">
        <ele>900</ele>
        <time>2018-09-26T12:49:57Z</time>
      </trkpt>
      <trkpt lat="45.51456" lon="2.62402">
        <ele>900</ele>
        <time>2018-09-26T12:49:57Z</time>
      </trkpt>
      <trkpt lat="45.51456" lon="2.62399">
        <ele>900</ele>
        <time>2018-09-26T12:49:57Z</time>
      </trkpt>
      <trkpt lat="45.51455" lon="2.62395">
        <ele>900</ele>
        <time>2018-09-26T12:49:57Z</time>
      </trkpt>
      <trkpt lat="45.51454" lon="2.62391">
        <ele>900</ele>
        <time>2018-09-26T12:49:57Z</time>
      </trkpt>
      <trkpt lat="45.51453" lon="2.62388">
        <ele>900</ele>
        <time>2018-09-26T12:49:57Z</time>
      </trkpt>
      <trkpt lat="45.51452" lon="2.62384">
        <ele>900</ele>
        <time>2018-09-26T12:49:57Z</time>
      </trkpt>
      <trkpt lat="45.51451" lon="2.62381">
        <ele>900</ele>
        <time>2018-09-26T12:49:57Z</time>
      </trkpt>
      <trkpt lat="45.5145" lon="2.62377">
        <ele>900</ele>
        <time>2018-09-26T12:49:57Z</time>
      </trkpt>
      <trkpt lat="45.51449" lon="2.62373">
        <ele>900</ele>
        <time>2018-09-26T12:49:57Z</time>
      </trkpt>
      <trkpt lat="45.51448" lon="2.6237">
        <ele>900</ele>
        <time>2018-09-26T12:49:57Z</time>
      </trkpt>
      <trkpt lat="45.51447" lon="2.62366">
        <ele>900</ele>
        <time>2018-09-26T12:49:57Z</time>
      </trkpt>
      <trkpt lat="45.51446" lon="2.62362">
        <ele>900</ele>
        <time>2018-09-26T12:49:57Z</time>
      </trkpt>
      <trkpt lat="45.51445" lon="2.62358">
        <ele>900</ele>
        <time>2018-09-26T12:49:57Z</time>
      </trkpt>
      <trkpt lat="45.51444" lon="2.62354">
        <ele>901</ele>
        <time>2018-09-26T12:49:57Z</time>
      </trkpt>
      <trkpt lat="45.51443" lon="2.62351">
        <ele>901</ele>
        <time>2018-09-26T12:49:57Z</time>
      </trkpt>
      <trkpt lat="45.51442" lon="2.62347">
        <ele>901</ele>
        <time>2018-09-26T12:49:57Z</time>
      </trkpt>
      <trkpt lat="45.51441" lon="2.62344">
        <ele>901</ele>
        <time>2018-09-26T12:49:57Z</time>
      </trkpt>
      <trkpt lat="45.51441" lon="2.6234">
        <ele>901</ele>
        <time>2018-09-26T12:49:57Z</time>
      </trkpt>
      <trkpt lat="45.5144" lon="2.62337">
        <ele>901</ele>
        <time>2018-09-26T12:49:57Z</time>
      </trkpt>
      <trkpt lat="45.5144" lon="2.62334">
        <ele>901</ele>
        <time>2018-09-26T12:49:57Z</time>
      </trkpt>
      <trkpt lat="45.51439" lon="2.62331">
        <ele>901</ele>
        <time>2018-09-26T12:49:57Z</time>
      </trkpt>
      <trkpt lat="45.51439" lon="2.62327">
        <ele>901</ele>
        <time>2018-09-26T12:49:57Z</time>
      </trkpt>
      <trkpt lat="45.51438" lon="2.62323">
        <ele>901</ele>
        <time>2018-09-26T12:49:57Z</time>
      </trkpt>
      <trkpt lat="45.51437" lon="2.6232">
        <ele>901</ele>
        <time>2018-09-26T12:49:57Z</time>
      </trkpt>
      <trkpt lat="45.51436" lon="2.62316">
        <ele>901</ele>
        <time>2018-09-26T12:49:57Z</time>
      </trkpt>
      <trkpt lat="45.51436" lon="2.62312">
        <ele>901</ele>
        <time>2018-09-26T12:49:57Z</time>
      </trkpt>
      <trkpt lat="45.51435" lon="2.62308">
        <ele>901</ele>
        <time>2018-09-26T12:49:57Z</time>
      </trkpt>
      <trkpt lat="45.51434" lon="2.62304">
        <ele>901</ele>
        <time>2018-09-26T12:49:57Z</time>
      </trkpt>
      <trkpt lat="45.51434" lon="2.62301">
        <ele>901</ele>
        <time>2018-09-26T12:49:57Z</time>
      </trkpt>
      <trkpt lat="45.51433" lon="2.62298">
        <ele>901</ele>
        <time>2018-09-26T12:49:57Z</time>
      </trkpt>
      <trkpt lat="45.51433" lon="2.62295">
        <ele>901</ele>
        <time>2018-09-26T12:49:57Z</time>
      </trkpt>
      <trkpt lat="45.51433" lon="2.62293">
        <ele>901</ele>
        <time>2018-09-26T12:49:57Z</time>
      </trkpt>
      <trkpt lat="45.51433" lon="2.62289">
        <ele>901</ele>
        <time>2018-09-26T12:49:57Z</time>
      </trkpt>
      <trkpt lat="45.51432" lon="2.62285">
        <ele>901</ele>
        <time>2018-09-26T12:49:57Z</time>
      </trkpt>
      <trkpt lat="45.51432" lon="2.62281">
        <ele>901</ele>
        <time>2018-09-26T12:49:57Z</time>
      </trkpt>
      <trkpt lat="45.51432" lon="2.62278">
        <ele>900</ele>
        <time>2018-09-26T12:49:57Z</time>
      </trkpt>
      <trkpt lat="45.51431" lon="2.62274">
        <ele>900</ele>
        <time>2018-09-26T12:49:57Z</time>
      </trkpt>
      <trkpt lat="45.51431" lon="2.62271">
        <ele>900</ele>
        <time>2018-09-26T12:49:57Z</time>
      </trkpt>
      <trkpt lat="45.51431" lon="2.62267">
        <ele>900</ele>
        <time>2018-09-26T12:49:57Z</time>
      </trkpt>
      <trkpt lat="45.51431" lon="2.62263">
        <ele>900</ele>
        <time>2018-09-26T12:49:57Z</time>
      </trkpt>
      <trkpt lat="45.51431" lon="2.6226">
        <ele>900</ele>
        <time>2018-09-26T12:49:57Z</time>
      </trkpt>
      <trkpt lat="45.5143" lon="2.62256">
        <ele>900</ele>
        <time>2018-09-26T12:49:57Z</time>
      </trkpt>
      <trkpt lat="45.5143" lon="2.62252">
        <ele>900</ele>
        <time>2018-09-26T12:49:57Z</time>
      </trkpt>
      <trkpt lat="45.5143" lon="2.62248">
        <ele>900</ele>
        <time>2018-09-26T12:49:57Z</time>
      </trkpt>
      <trkpt lat="45.5143" lon="2.62245">
        <ele>900</ele>
        <time>2018-09-26T12:49:57Z</time>
      </trkpt>
      <trkpt lat="45.51429" lon="2.62241">
        <ele>900</ele>
        <time>2018-09-26T12:49:57Z</time>
      </trkpt>
      <trkpt lat="45.51429" lon="2.62237">
        <ele>900</ele>
        <time>2018-09-26T12:49:57Z</time>
      </trkpt>
      <trkpt lat="45.51429" lon="2.62233">
        <ele>900</ele>
        <time>2018-09-26T12:49:57Z</time>
      </trkpt>
      <trkpt lat="45.51429" lon="2.62229">
        <ele>900</ele>
        <time>2018-09-26T12:49:57Z</time>
      </trkpt>
      <trkpt lat="45.51429" lon="2.62225">
        <ele>900</ele>
        <time>2018-09-26T12:49:57Z</time>
      </trkpt>
      <trkpt lat="45.51429" lon="2.62222">
        <ele>900</ele>
        <time>2018-09-26T12:49:57Z</time>
      </trkpt>
      <trkpt lat="45.51429" lon="2.62218">
        <ele>900</ele>
        <time>2018-09-26T12:49:57Z</time>
      </trkpt>
      <trkpt lat="45.51429" lon="2.62215">
        <ele>900</ele>
        <time>2018-09-26T12:49:57Z</time>
      </trkpt>
      <trkpt lat="45.5143" lon="2.62212">
        <ele>900</ele>
        <time>2018-09-26T12:49:57Z</time>
      </trkpt>
      <trkpt lat="45.5143" lon="2.62209">
        <ele>900</ele>
        <time>2018-09-26T12:49:57Z</time>
      </trkpt>
      <trkpt lat="45.51431" lon="2.62206">
        <ele>900</ele>
        <time>2018-09-26T12:49:57Z</time>
      </trkpt>
      <trkpt lat="45.51431" lon="2.62203">
        <ele>900</ele>
        <time>2018-09-26T12:49:57Z</time>
      </trkpt>
      <trkpt lat="45.51431" lon="2.622">
        <ele>900</ele>
        <time>2018-09-26T12:49:57Z</time>
      </trkpt>
      <trkpt lat="45.51431" lon="2.62197">
        <ele>900</ele>
        <time>2018-09-26T12:49:57Z</time>
      </trkpt>
      <trkpt lat="45.51431" lon="2.62194">
        <ele>900</ele>
        <time>2018-09-26T12:49:57Z</time>
      </trkpt>
      <trkpt lat="45.51431" lon="2.62191">
        <ele>900</ele>
        <time>2018-09-26T12:49:57Z</time>
      </trkpt>
      <trkpt lat="45.51431" lon="2.62188">
        <ele>900</ele>
        <time>2018-09-26T12:49:57Z</time>
      </trkpt>
      <trkpt lat="45.51431" lon="2.62184">
        <ele>900</ele>
        <time>2018-09-26T12:49:57Z</time>
      </trkpt>
      <trkpt lat="45.51431" lon="2.62181">
        <ele>900</ele>
        <time>2018-09-26T12:49:57Z</time>
      </trkpt>
      <trkpt lat="45.51431" lon="2.62178">
        <ele>900</ele>
        <time>2018-09-26T12:49:57Z</time>
      </trkpt>
      <trkpt lat="45.5143" lon="2.62175">
        <ele>899</ele>
        <time>2018-09-26T12:49:57Z</time>
      </trkpt>
      <trkpt lat="45.5143" lon="2.62171">
        <ele>899</ele>
        <time>2018-09-26T12:49:57Z</time>
      </trkpt>
      <trkpt lat="45.51429" lon="2.62168">
        <ele>899</ele>
        <time>2018-09-26T12:49:57Z</time>
      </trkpt>
      <trkpt lat="45.51429" lon="2.62164">
        <ele>899</ele>
        <time>2018-09-26T12:49:57Z</time>
      </trkpt>
      <trkpt lat="45.51428" lon="2.62161">
        <ele>899</ele>
        <time>2018-09-26T12:49:57Z</time>
      </trkpt>
      <trkpt lat="45.51427" lon="2.62157">
        <ele>898</ele>
        <time>2018-09-26T12:49:57Z</time>
      </trkpt>
      <trkpt lat="45.51426" lon="2.62154">
        <ele>898</ele>
        <time>2018-09-26T12:49:57Z</time>
      </trkpt>
      <trkpt lat="45.51425" lon="2.6215">
        <ele>898</ele>
        <time>2018-09-26T12:49:57Z</time>
      </trkpt>
      <trkpt lat="45.51425" lon="2.62147">
        <ele>898</ele>
        <time>2018-09-26T12:49:57Z</time>
      </trkpt>
      <trkpt lat="45.51424" lon="2.62143">
        <ele>898</ele>
        <time>2018-09-26T12:49:57Z</time>
      </trkpt>
      <trkpt lat="45.51424" lon="2.62139">
        <ele>897</ele>
        <time>2018-09-26T12:49:57Z</time>
      </trkpt>
      <trkpt lat="45.51423" lon="2.62136">
        <ele>897</ele>
        <time>2018-09-26T12:49:57Z</time>
      </trkpt>
      <trkpt lat="45.51421" lon="2.62132">
        <ele>897</ele>
        <time>2018-09-26T12:49:57Z</time>
      </trkpt>
      <trkpt lat="45.5142" lon="2.62129">
        <ele>897</ele>
        <time>2018-09-26T12:49:57Z</time>
      </trkpt>
      <trkpt lat="45.5142" lon="2.62126">
        <ele>897</ele>
        <time>2018-09-26T12:49:57Z</time>
      </trkpt>
      <trkpt lat="45.51419" lon="2.62123">
        <ele>896</ele>
        <time>2018-09-26T12:49:57Z</time>
      </trkpt>
      <trkpt lat="45.51418" lon="2.62119">
        <ele>896</ele>
        <time>2018-09-26T12:49:57Z</time>
      </trkpt>
      <trkpt lat="45.51418" lon="2.62116">
        <ele>896</ele>
        <time>2018-09-26T12:49:57Z</time>
      </trkpt>
      <trkpt lat="45.51417" lon="2.62112">
        <ele>896</ele>
        <time>2018-09-26T12:49:57Z</time>
      </trkpt>
      <trkpt lat="45.51417" lon="2.62109">
        <ele>896</ele>
        <time>2018-09-26T12:49:57Z</time>
      </trkpt>
      <trkpt lat="45.51417" lon="2.62105">
        <ele>896</ele>
        <time>2018-09-26T12:49:57Z</time>
      </trkpt>
      <trkpt lat="45.51416" lon="2.62102">
        <ele>896</ele>
        <time>2018-09-26T12:49:57Z</time>
      </trkpt>
      <trkpt lat="45.51416" lon="2.62098">
        <ele>896</ele>
        <time>2018-09-26T12:49:57Z</time>
      </trkpt>
      <trkpt lat="45.51415" lon="2.62094">
        <ele>895</ele>
        <time>2018-09-26T12:49:57Z</time>
      </trkpt>
      <trkpt lat="45.51415" lon="2.62091">
        <ele>895</ele>
        <time>2018-09-26T12:49:57Z</time>
      </trkpt>
      <trkpt lat="45.51414" lon="2.62087">
        <ele>895</ele>
        <time>2018-09-26T12:49:57Z</time>
      </trkpt>
      <trkpt lat="45.51414" lon="2.62083">
        <ele>895</ele>
        <time>2018-09-26T12:49:57Z</time>
      </trkpt>
      <trkpt lat="45.51414" lon="2.6208">
        <ele>895</ele>
        <time>2018-09-26T12:49:57Z</time>
      </trkpt>
      <trkpt lat="45.51413" lon="2.62076">
        <ele>895</ele>
        <time>2018-09-26T12:49:57Z</time>
      </trkpt>
      <trkpt lat="45.51413" lon="2.62072">
        <ele>894</ele>
        <time>2018-09-26T12:49:57Z</time>
      </trkpt>
      <trkpt lat="45.51412" lon="2.62069">
        <ele>894</ele>
        <time>2018-09-26T12:49:57Z</time>
      </trkpt>
      <trkpt lat="45.51412" lon="2.62065">
        <ele>894</ele>
        <time>2018-09-26T12:49:57Z</time>
      </trkpt>
      <trkpt lat="45.51411" lon="2.62062">
        <ele>894</ele>
        <time>2018-09-26T12:49:57Z</time>
      </trkpt>
      <trkpt lat="45.51411" lon="2.62058">
        <ele>894</ele>
        <time>2018-09-26T12:49:57Z</time>
      </trkpt>
      <trkpt lat="45.5141" lon="2.62055">
        <ele>894</ele>
        <time>2018-09-26T12:49:57Z</time>
      </trkpt>
      <trkpt lat="45.5141" lon="2.62051">
        <ele>894</ele>
        <time>2018-09-26T12:49:57Z</time>
      </trkpt>
      <trkpt lat="45.51409" lon="2.62047">
        <ele>894</ele>
        <time>2018-09-26T12:49:57Z</time>
      </trkpt>
      <trkpt lat="45.51409" lon="2.62044">
        <ele>894</ele>
        <time>2018-09-26T12:49:57Z</time>
      </trkpt>
      <trkpt lat="45.51409" lon="2.6204">
        <ele>894</ele>
        <time>2018-09-26T12:49:57Z</time>
      </trkpt>
      <trkpt lat="45.51408" lon="2.62036">
        <ele>893</ele>
        <time>2018-09-26T12:49:57Z</time>
      </trkpt>
      <trkpt lat="45.51408" lon="2.62032">
        <ele>893</ele>
        <time>2018-09-26T12:49:57Z</time>
      </trkpt>
      <trkpt lat="45.51407" lon="2.62028">
        <ele>893</ele>
        <time>2018-09-26T12:49:57Z</time>
      </trkpt>
      <trkpt lat="45.51407" lon="2.62025">
        <ele>893</ele>
        <time>2018-09-26T12:49:57Z</time>
      </trkpt>
      <trkpt lat="45.51407" lon="2.62021">
        <ele>893</ele>
        <time>2018-09-26T12:49:57Z</time>
      </trkpt>
      <trkpt lat="45.51407" lon="2.62017">
        <ele>893</ele>
        <time>2018-09-26T12:49:57Z</time>
      </trkpt>
      <trkpt lat="45.51407" lon="2.62014">
        <ele>893</ele>
        <time>2018-09-26T12:49:57Z</time>
      </trkpt>
      <trkpt lat="45.51407" lon="2.6201">
        <ele>893</ele>
        <time>2018-09-26T12:49:57Z</time>
      </trkpt>
      <trkpt lat="45.51406" lon="2.62006">
        <ele>893</ele>
        <time>2018-09-26T12:49:57Z</time>
      </trkpt>
      <trkpt lat="45.51406" lon="2.62003">
        <ele>893</ele>
        <time>2018-09-26T12:49:57Z</time>
      </trkpt>
      <trkpt lat="45.51405" lon="2.62">
        <ele>893</ele>
        <time>2018-09-26T12:49:57Z</time>
      </trkpt>
      <trkpt lat="45.51405" lon="2.61996">
        <ele>893</ele>
        <time>2018-09-26T12:49:57Z</time>
      </trkpt>
      <trkpt lat="45.51405" lon="2.61993">
        <ele>893</ele>
        <time>2018-09-26T12:49:57Z</time>
      </trkpt>
      <trkpt lat="45.51404" lon="2.6199">
        <ele>893</ele>
        <time>2018-09-26T12:49:57Z</time>
      </trkpt>
      <trkpt lat="45.51404" lon="2.61986">
        <ele>893</ele>
        <time>2018-09-26T12:49:57Z</time>
      </trkpt>
      <trkpt lat="45.51404" lon="2.61982">
        <ele>893</ele>
        <time>2018-09-26T12:49:57Z</time>
      </trkpt>
      <trkpt lat="45.51404" lon="2.61979">
        <ele>893</ele>
        <time>2018-09-26T12:49:57Z</time>
      </trkpt>
      <trkpt lat="45.51403" lon="2.61975">
        <ele>892</ele>
        <time>2018-09-26T12:49:57Z</time>
      </trkpt>
      <trkpt lat="45.51403" lon="2.61971">
        <ele>892</ele>
        <time>2018-09-26T12:49:57Z</time>
      </trkpt>
      <trkpt lat="45.51403" lon="2.61967">
        <ele>892</ele>
        <time>2018-09-26T12:49:57Z</time>
      </trkpt>
      <trkpt lat="45.51404" lon="2.61964">
        <ele>892</ele>
        <time>2018-09-26T12:49:57Z</time>
      </trkpt>
      <trkpt lat="45.51404" lon="2.6196">
        <ele>892</ele>
        <time>2018-09-26T12:49:57Z</time>
      </trkpt>
      <trkpt lat="45.51404" lon="2.61956">
        <ele>892</ele>
        <time>2018-09-26T12:49:57Z</time>
      </trkpt>
      <trkpt lat="45.51404" lon="2.61952">
        <ele>892</ele>
        <time>2018-09-26T12:49:57Z</time>
      </trkpt>
      <trkpt lat="45.51404" lon="2.61948">
        <ele>892</ele>
        <time>2018-09-26T12:49:57Z</time>
      </trkpt>
      <trkpt lat="45.51405" lon="2.61944">
        <ele>892</ele>
        <time>2018-09-26T12:49:57Z</time>
      </trkpt>
      <trkpt lat="45.51404" lon="2.6194">
        <ele>892</ele>
        <time>2018-09-26T12:49:57Z</time>
      </trkpt>
      <trkpt lat="45.51404" lon="2.61936">
        <ele>892</ele>
        <time>2018-09-26T12:49:57Z</time>
      </trkpt>
      <trkpt lat="45.51404" lon="2.61933">
        <ele>892</ele>
        <time>2018-09-26T12:49:57Z</time>
      </trkpt>
      <trkpt lat="45.51403" lon="2.61929">
        <ele>892</ele>
        <time>2018-09-26T12:49:57Z</time>
      </trkpt>
      <trkpt lat="45.51404" lon="2.61926">
        <ele>892</ele>
        <time>2018-09-26T12:49:57Z</time>
      </trkpt>
      <trkpt lat="45.51405" lon="2.61923">
        <ele>892</ele>
        <time>2018-09-26T12:49:57Z</time>
      </trkpt>
      <trkpt lat="45.51406" lon="2.61919">
        <ele>892</ele>
        <time>2018-09-26T12:49:57Z</time>
      </trkpt>
      <trkpt lat="45.51406" lon="2.61915">
        <ele>892</ele>
        <time>2018-09-26T12:49:57Z</time>
      </trkpt>
      <trkpt lat="45.51406" lon="2.61911">
        <ele>892</ele>
        <time>2018-09-26T12:49:57Z</time>
      </trkpt>
      <trkpt lat="45.51407" lon="2.61907">
        <ele>893</ele>
        <time>2018-09-26T12:49:57Z</time>
      </trkpt>
      <trkpt lat="45.51408" lon="2.61904">
        <ele>893</ele>
        <time>2018-09-26T12:49:57Z</time>
      </trkpt>
      <trkpt lat="45.51408" lon="2.619">
        <ele>893</ele>
        <time>2018-09-26T12:49:57Z</time>
      </trkpt>
      <trkpt lat="45.51409" lon="2.61896">
        <ele>893</ele>
        <time>2018-09-26T12:49:57Z</time>
      </trkpt>
      <trkpt lat="45.51409" lon="2.61892">
        <ele>893</ele>
        <time>2018-09-26T12:49:57Z</time>
      </trkpt>
      <trkpt lat="45.5141" lon="2.61888">
        <ele>893</ele>
        <time>2018-09-26T12:49:57Z</time>
      </trkpt>
      <trkpt lat="45.5141" lon="2.61884">
        <ele>893</ele>
        <time>2018-09-26T12:49:57Z</time>
      </trkpt>
      <trkpt lat="45.51411" lon="2.61881">
        <ele>893</ele>
        <time>2018-09-26T12:49:57Z</time>
      </trkpt>
      <trkpt lat="45.51411" lon="2.61877">
        <ele>893</ele>
        <time>2018-09-26T12:49:57Z</time>
      </trkpt>
      <trkpt lat="45.51411" lon="2.61873">
        <ele>893</ele>
        <time>2018-09-26T12:49:57Z</time>
      </trkpt>
      <trkpt lat="45.51411" lon="2.6187">
        <ele>893</ele>
        <time>2018-09-26T12:49:57Z</time>
      </trkpt>
      <trkpt lat="45.51412" lon="2.61866">
        <ele>893</ele>
        <time>2018-09-26T12:49:57Z</time>
      </trkpt>
      <trkpt lat="45.51412" lon="2.61862">
        <ele>893</ele>
        <time>2018-09-26T12:49:57Z</time>
      </trkpt>
      <trkpt lat="45.51413" lon="2.61858">
        <ele>893</ele>
        <time>2018-09-26T12:49:57Z</time>
      </trkpt>
      <trkpt lat="45.51414" lon="2.61855">
        <ele>893</ele>
        <time>2018-09-26T12:49:57Z</time>
      </trkpt>
      <trkpt lat="45.51415" lon="2.61852">
        <ele>893</ele>
        <time>2018-09-26T12:49:57Z</time>
      </trkpt>
      <trkpt lat="45.51416" lon="2.61848">
        <ele>893</ele>
        <time>2018-09-26T12:49:57Z</time>
      </trkpt>
      <trkpt lat="45.51416" lon="2.61845">
        <ele>893</ele>
        <time>2018-09-26T12:49:57Z</time>
      </trkpt>
      <trkpt lat="45.51417" lon="2.61841">
        <ele>893</ele>
        <time>2018-09-26T12:49:57Z</time>
      </trkpt>
      <trkpt lat="45.51417" lon="2.61838">
        <ele>893</ele>
        <time>2018-09-26T12:49:57Z</time>
      </trkpt>
      <trkpt lat="45.51418" lon="2.61835">
        <ele>893</ele>
        <time>2018-09-26T12:49:57Z</time>
      </trkpt>
      <trkpt lat="45.51419" lon="2.61832">
        <ele>893</ele>
        <time>2018-09-26T12:49:57Z</time>
      </trkpt>
      <trkpt lat="45.5142" lon="2.61828">
        <ele>893</ele>
        <time>2018-09-26T12:49:57Z</time>
      </trkpt>
      <trkpt lat="45.51421" lon="2.61825">
        <ele>893</ele>
        <time>2018-09-26T12:49:57Z</time>
      </trkpt>
      <trkpt lat="45.51421" lon="2.61822">
        <ele>893</ele>
        <time>2018-09-26T12:49:57Z</time>
      </trkpt>
      <trkpt lat="45.51422" lon="2.61818">
        <ele>893</ele>
        <time>2018-09-26T12:49:57Z</time>
      </trkpt>
      <trkpt lat="45.51422" lon="2.61815">
        <ele>893</ele>
        <time>2018-09-26T12:49:57Z</time>
      </trkpt>
      <trkpt lat="45.51422" lon="2.61812">
        <ele>893</ele>
        <time>2018-09-26T12:49:57Z</time>
      </trkpt>
      <trkpt lat="45.51422" lon="2.61809">
        <ele>893</ele>
        <time>2018-09-26T12:49:57Z</time>
      </trkpt>
      <trkpt lat="45.51422" lon="2.61806">
        <ele>893</ele>
        <time>2018-09-26T12:49:57Z</time>
      </trkpt>
      <trkpt lat="45.51422" lon="2.61803">
        <ele>893</ele>
        <time>2018-09-26T12:49:57Z</time>
      </trkpt>
      <trkpt lat="45.51422" lon="2.61799">
        <ele>893</ele>
        <time>2018-09-26T12:49:57Z</time>
      </trkpt>
      <trkpt lat="45.51422" lon="2.61796">
        <ele>893</ele>
        <time>2018-09-26T12:49:57Z</time>
      </trkpt>
      <trkpt lat="45.51422" lon="2.61793">
        <ele>893</ele>
        <time>2018-09-26T12:49:57Z</time>
      </trkpt>
      <trkpt lat="45.51422" lon="2.6179">
        <ele>893</ele>
        <time>2018-09-26T12:49:57Z</time>
      </trkpt>
      <trkpt lat="45.51422" lon="2.61786">
        <ele>893</ele>
        <time>2018-09-26T12:49:57Z</time>
      </trkpt>
      <trkpt lat="45.51422" lon="2.61782">
        <ele>893</ele>
        <time>2018-09-26T12:49:57Z</time>
      </trkpt>
      <trkpt lat="45.51422" lon="2.61778">
        <ele>893</ele>
        <time>2018-09-26T12:49:57Z</time>
      </trkpt>
      <trkpt lat="45.51422" lon="2.61775">
        <ele>893</ele>
        <time>2018-09-26T12:49:57Z</time>
      </trkpt>
      <trkpt lat="45.51423" lon="2.61771">
        <ele>893</ele>
        <time>2018-09-26T12:49:57Z</time>
      </trkpt>
      <trkpt lat="45.51423" lon="2.61768">
        <ele>893</ele>
        <time>2018-09-26T12:49:57Z</time>
      </trkpt>
      <trkpt lat="45.51422" lon="2.61765">
        <ele>893</ele>
        <time>2018-09-26T12:49:57Z</time>
      </trkpt>
      <trkpt lat="45.51422" lon="2.61762">
        <ele>893</ele>
        <time>2018-09-26T12:49:57Z</time>
      </trkpt>
      <trkpt lat="45.51421" lon="2.61759">
        <ele>893</ele>
        <time>2018-09-26T12:49:57Z</time>
      </trkpt>
      <trkpt lat="45.5142" lon="2.61757">
        <ele>893</ele>
        <time>2018-09-26T12:49:57Z</time>
      </trkpt>
      <trkpt lat="45.5142" lon="2.61753">
        <ele>893</ele>
        <time>2018-09-26T12:49:57Z</time>
      </trkpt>
      <trkpt lat="45.5142" lon="2.61749">
        <ele>893</ele>
        <time>2018-09-26T12:49:57Z</time>
      </trkpt>
      <trkpt lat="45.51419" lon="2.61746">
        <ele>893</ele>
        <time>2018-09-26T12:49:57Z</time>
      </trkpt>
      <trkpt lat="45.5142" lon="2.61742">
        <ele>893</ele>
        <time>2018-09-26T12:49:57Z</time>
      </trkpt>
      <trkpt lat="45.5142" lon="2.61739">
        <ele>893</ele>
        <time>2018-09-26T12:49:57Z</time>
      </trkpt>
      <trkpt lat="45.5142" lon="2.61736">
        <ele>892</ele>
        <time>2018-09-26T12:49:57Z</time>
      </trkpt>
      <trkpt lat="45.51419" lon="2.61733">
        <ele>892</ele>
        <time>2018-09-26T12:49:57Z</time>
      </trkpt>
      <trkpt lat="45.5142" lon="2.61731">
        <ele>892</ele>
        <time>2018-09-26T12:49:57Z</time>
      </trkpt>
      <trkpt lat="45.5142" lon="2.61727">
        <ele>892</ele>
        <time>2018-09-26T12:49:57Z</time>
      </trkpt>
      <trkpt lat="45.5142" lon="2.61725">
        <ele>892</ele>
        <time>2018-09-26T12:49:57Z</time>
      </trkpt>
      <trkpt lat="45.5142" lon="2.61721">
        <ele>892</ele>
        <time>2018-09-26T12:49:57Z</time>
      </trkpt>
      <trkpt lat="45.5142" lon="2.61718">
        <ele>892</ele>
        <time>2018-09-26T12:49:57Z</time>
      </trkpt>
      <trkpt lat="45.5142" lon="2.61714">
        <ele>892</ele>
        <time>2018-09-26T12:49:57Z</time>
      </trkpt>
      <trkpt lat="45.5142" lon="2.61711">
        <ele>892</ele>
        <time>2018-09-26T12:49:57Z</time>
      </trkpt>
      <trkpt lat="45.5142" lon="2.61708">
        <ele>892</ele>
        <time>2018-09-26T12:49:57Z</time>
      </trkpt>
      <trkpt lat="45.5142" lon="2.61704">
        <ele>892</ele>
        <time>2018-09-26T12:49:57Z</time>
      </trkpt>
      <trkpt lat="45.5142" lon="2.61701">
        <ele>892</ele>
        <time>2018-09-26T12:49:57Z</time>
      </trkpt>
      <trkpt lat="45.5142" lon="2.61697">
        <ele>892</ele>
        <time>2018-09-26T12:49:57Z</time>
      </trkpt>
      <trkpt lat="45.5142" lon="2.61693">
        <ele>892</ele>
        <time>2018-09-26T12:49:57Z</time>
      </trkpt>
      <trkpt lat="45.51419" lon="2.61689">
        <ele>892</ele>
        <time>2018-09-26T12:49:57Z</time>
      </trkpt>
      <trkpt lat="45.5142" lon="2.61685">
        <ele>892</ele>
        <time>2018-09-26T12:49:57Z</time>
      </trkpt>
      <trkpt lat="45.51421" lon="2.61682">
        <ele>892</ele>
        <time>2018-09-26T12:49:57Z</time>
      </trkpt>
      <trkpt lat="45.51421" lon="2.61678">
        <ele>892</ele>
        <time>2018-09-26T12:49:57Z</time>
      </trkpt>
      <trkpt lat="45.51422" lon="2.61674">
        <ele>892</ele>
        <time>2018-09-26T12:49:57Z</time>
      </trkpt>
      <trkpt lat="45.51422" lon="2.61669">
        <ele>892</ele>
        <time>2018-09-26T12:49:57Z</time>
      </trkpt>
      <trkpt lat="45.51423" lon="2.61665">
        <ele>892</ele>
        <time>2018-09-26T12:49:57Z</time>
      </trkpt>
      <trkpt lat="45.51423" lon="2.61662">
        <ele>892</ele>
        <time>2018-09-26T12:49:57Z</time>
      </trkpt>
      <trkpt lat="45.51423" lon="2.61658">
        <ele>892</ele>
        <time>2018-09-26T12:49:57Z</time>
      </trkpt>
      <trkpt lat="45.51422" lon="2.61655">
        <ele>892</ele>
        <time>2018-09-26T12:49:57Z</time>
      </trkpt>
      <trkpt lat="45.51421" lon="2.61651">
        <ele>892</ele>
        <time>2018-09-26T12:49:57Z</time>
      </trkpt>
      <trkpt lat="45.51421" lon="2.61646">
        <ele>892</ele>
        <time>2018-09-26T12:49:57Z</time>
      </trkpt>
      <trkpt lat="45.5142" lon="2.61641">
        <ele>892</ele>
        <time>2018-09-26T12:49:57Z</time>
      </trkpt>
      <trkpt lat="45.5142" lon="2.61638">
        <ele>892</ele>
        <time>2018-09-26T12:49:57Z</time>
      </trkpt>
      <trkpt lat="45.5142" lon="2.61634">
        <ele>892</ele>
        <time>2018-09-26T12:49:57Z</time>
      </trkpt>
      <trkpt lat="45.51421" lon="2.61631">
        <ele>892</ele>
        <time>2018-09-26T12:49:57Z</time>
      </trkpt>
      <trkpt lat="45.51421" lon="2.61629">
        <ele>892</ele>
        <time>2018-09-26T12:49:57Z</time>
      </trkpt>
      <trkpt lat="45.51421" lon="2.61626">
        <ele>892</ele>
        <time>2018-09-26T12:49:57Z</time>
      </trkpt>
      <trkpt lat="45.51421" lon="2.61622">
        <ele>892</ele>
        <time>2018-09-26T12:49:57Z</time>
      </trkpt>
      <trkpt lat="45.51422" lon="2.61618">
        <ele>892</ele>
        <time>2018-09-26T12:49:57Z</time>
      </trkpt>
      <trkpt lat="45.51424" lon="2.61616">
        <ele>892</ele>
        <time>2018-09-26T12:49:57Z</time>
      </trkpt>
      <trkpt lat="45.51424" lon="2.61613">
        <ele>892</ele>
        <time>2018-09-26T12:49:57Z</time>
      </trkpt>
      <trkpt lat="45.51424" lon="2.61608">
        <ele>892</ele>
        <time>2018-09-26T12:49:57Z</time>
      </trkpt>
      <trkpt lat="45.51424" lon="2.61604">
        <ele>891</ele>
        <time>2018-09-26T12:49:57Z</time>
      </trkpt>
      <trkpt lat="45.51424" lon="2.61601">
        <ele>891</ele>
        <time>2018-09-26T12:49:57Z</time>
      </trkpt>
      <trkpt lat="45.51425" lon="2.61599">
        <ele>891</ele>
        <time>2018-09-26T12:49:57Z</time>
      </trkpt>
      <trkpt lat="45.51425" lon="2.61596">
        <ele>891</ele>
        <time>2018-09-26T12:49:57Z</time>
      </trkpt>
      <trkpt lat="45.51424" lon="2.61592">
        <ele>891</ele>
        <time>2018-09-26T12:49:57Z</time>
      </trkpt>
      <trkpt lat="45.51424" lon="2.61589">
        <ele>891</ele>
        <time>2018-09-26T12:49:57Z</time>
      </trkpt>
      <trkpt lat="45.51424" lon="2.61584">
        <ele>891</ele>
        <time>2018-09-26T12:49:57Z</time>
      </trkpt>
      <trkpt lat="45.51424" lon="2.61579">
        <ele>891</ele>
        <time>2018-09-26T12:49:57Z</time>
      </trkpt>
      <trkpt lat="45.51424" lon="2.61575">
        <ele>891</ele>
        <time>2018-09-26T12:49:57Z</time>
      </trkpt>
      <trkpt lat="45.51424" lon="2.61572">
        <ele>891</ele>
        <time>2018-09-26T12:49:57Z</time>
      </trkpt>
      <trkpt lat="45.51423" lon="2.61568">
        <ele>891</ele>
        <time>2018-09-26T12:49:57Z</time>
      </trkpt>
      <trkpt lat="45.51423" lon="2.61566">
        <ele>891</ele>
        <time>2018-09-26T12:49:57Z</time>
      </trkpt>
      <trkpt lat="45.51423" lon="2.61563">
        <ele>891</ele>
        <time>2018-09-26T12:49:57Z</time>
      </trkpt>
      <trkpt lat="45.51422" lon="2.61559">
        <ele>891</ele>
        <time>2018-09-26T12:49:57Z</time>
      </trkpt>
      <trkpt lat="45.51421" lon="2.61556">
        <ele>891</ele>
        <time>2018-09-26T12:49:57Z</time>
      </trkpt>
      <trkpt lat="45.51421" lon="2.61553">
        <ele>891</ele>
        <time>2018-09-26T12:49:57Z</time>
      </trkpt>
      <trkpt lat="45.5142" lon="2.61549">
        <ele>891</ele>
        <time>2018-09-26T12:49:57Z</time>
      </trkpt>
      <trkpt lat="45.51419" lon="2.61546">
        <ele>890</ele>
        <time>2018-09-26T12:49:57Z</time>
      </trkpt>
      <trkpt lat="45.51419" lon="2.61543">
        <ele>890</ele>
        <time>2018-09-26T12:49:57Z</time>
      </trkpt>
      <trkpt lat="45.5142" lon="2.6154">
        <ele>890</ele>
        <time>2018-09-26T12:49:57Z</time>
      </trkpt>
      <trkpt lat="45.5142" lon="2.61537">
        <ele>890</ele>
        <time>2018-09-26T12:49:57Z</time>
      </trkpt>
      <trkpt lat="45.51421" lon="2.61534">
        <ele>890</ele>
        <time>2018-09-26T12:49:57Z</time>
      </trkpt>
      <trkpt lat="45.51422" lon="2.6153">
        <ele>890</ele>
        <time>2018-09-26T12:49:57Z</time>
      </trkpt>
      <trkpt lat="45.51421" lon="2.61528">
        <ele>890</ele>
        <time>2018-09-26T12:49:57Z</time>
      </trkpt>
      <trkpt lat="45.51421" lon="2.61524">
        <ele>890</ele>
        <time>2018-09-26T12:49:57Z</time>
      </trkpt>
      <trkpt lat="45.5142" lon="2.6152">
        <ele>890</ele>
        <time>2018-09-26T12:49:57Z</time>
      </trkpt>
      <trkpt lat="45.5142" lon="2.61516">
        <ele>890</ele>
        <time>2018-09-26T12:49:57Z</time>
      </trkpt>
      <trkpt lat="45.51419" lon="2.61513">
        <ele>890</ele>
        <time>2018-09-26T12:49:57Z</time>
      </trkpt>
      <trkpt lat="45.51419" lon="2.61509">
        <ele>890</ele>
        <time>2018-09-26T12:49:57Z</time>
      </trkpt>
      <trkpt lat="45.51418" lon="2.61507">
        <ele>890</ele>
        <time>2018-09-26T12:49:57Z</time>
      </trkpt>
      <trkpt lat="45.51418" lon="2.61503">
        <ele>890</ele>
        <time>2018-09-26T12:49:57Z</time>
      </trkpt>
      <trkpt lat="45.51418" lon="2.615">
        <ele>890</ele>
        <time>2018-09-26T12:49:57Z</time>
      </trkpt>
      <trkpt lat="45.51417" lon="2.61496">
        <ele>890</ele>
        <time>2018-09-26T12:49:57Z</time>
      </trkpt>
      <trkpt lat="45.51417" lon="2.61493">
        <ele>890</ele>
        <time>2018-09-26T12:49:57Z</time>
      </trkpt>
      <trkpt lat="45.51416" lon="2.6149">
        <ele>890</ele>
        <time>2018-09-26T12:49:57Z</time>
      </trkpt>
      <trkpt lat="45.51415" lon="2.61486">
        <ele>889</ele>
        <time>2018-09-26T12:49:57Z</time>
      </trkpt>
      <trkpt lat="45.51415" lon="2.61482">
        <ele>889</ele>
        <time>2018-09-26T12:49:57Z</time>
      </trkpt>
      <trkpt lat="45.51414" lon="2.61479">
        <ele>889</ele>
        <time>2018-09-26T12:49:57Z</time>
      </trkpt>
      <trkpt lat="45.51413" lon="2.61476">
        <ele>889</ele>
        <time>2018-09-26T12:49:57Z</time>
      </trkpt>
      <trkpt lat="45.51412" lon="2.61472">
        <ele>889</ele>
        <time>2018-09-26T12:49:57Z</time>
      </trkpt>
      <trkpt lat="45.51411" lon="2.61469">
        <ele>889</ele>
        <time>2018-09-26T12:49:57Z</time>
      </trkpt>
      <trkpt lat="45.51411" lon="2.61466">
        <ele>889</ele>
        <time>2018-09-26T12:49:57Z</time>
      </trkpt>
      <trkpt lat="45.5141" lon="2.61463">
        <ele>889</ele>
        <time>2018-09-26T12:49:57Z</time>
      </trkpt>
      <trkpt lat="45.5141" lon="2.6146">
        <ele>889</ele>
        <time>2018-09-26T12:49:57Z</time>
      </trkpt>
      <trkpt lat="45.51409" lon="2.61457">
        <ele>889</ele>
        <time>2018-09-26T12:49:57Z</time>
      </trkpt>
      <trkpt lat="45.51409" lon="2.61455">
        <ele>889</ele>
        <time>2018-09-26T12:49:57Z</time>
      </trkpt>
      <trkpt lat="45.51408" lon="2.61452">
        <ele>889</ele>
        <time>2018-09-26T12:49:57Z</time>
      </trkpt>
      <trkpt lat="45.51408" lon="2.61449">
        <ele>889</ele>
        <time>2018-09-26T12:49:57Z</time>
      </trkpt>
      <trkpt lat="45.51407" lon="2.61446">
        <ele>889</ele>
        <time>2018-09-26T12:49:57Z</time>
      </trkpt>
      <trkpt lat="45.51406" lon="2.61441">
        <ele>889</ele>
        <time>2018-09-26T12:49:57Z</time>
      </trkpt>
      <trkpt lat="45.51405" lon="2.61438">
        <ele>888</ele>
        <time>2018-09-26T12:49:57Z</time>
      </trkpt>
      <trkpt lat="45.51404" lon="2.61435">
        <ele>888</ele>
        <time>2018-09-26T12:49:57Z</time>
      </trkpt>
      <trkpt lat="45.51403" lon="2.61432">
        <ele>888</ele>
        <time>2018-09-26T12:49:57Z</time>
      </trkpt>
      <trkpt lat="45.51402" lon="2.61428">
        <ele>888</ele>
        <time>2018-09-26T12:49:57Z</time>
      </trkpt>
      <trkpt lat="45.51402" lon="2.61425">
        <ele>888</ele>
        <time>2018-09-26T12:49:57Z</time>
      </trkpt>
      <trkpt lat="45.51401" lon="2.61421">
        <ele>888</ele>
        <time>2018-09-26T12:49:57Z</time>
      </trkpt>
      <trkpt lat="45.514" lon="2.61418">
        <ele>888</ele>
        <time>2018-09-26T12:49:57Z</time>
      </trkpt>
      <trkpt lat="45.514" lon="2.61414">
        <ele>888</ele>
        <time>2018-09-26T12:49:57Z</time>
      </trkpt>
      <trkpt lat="45.51399" lon="2.6141">
        <ele>888</ele>
        <time>2018-09-26T12:49:57Z</time>
      </trkpt>
      <trkpt lat="45.51398" lon="2.61407">
        <ele>888</ele>
        <time>2018-09-26T12:49:57Z</time>
      </trkpt>
      <trkpt lat="45.51396" lon="2.61403">
        <ele>888</ele>
        <time>2018-09-26T12:49:57Z</time>
      </trkpt>
      <trkpt lat="45.51396" lon="2.614">
        <ele>888</ele>
        <time>2018-09-26T12:49:57Z</time>
      </trkpt>
      <trkpt lat="45.51395" lon="2.61396">
        <ele>888</ele>
        <time>2018-09-26T12:49:57Z</time>
      </trkpt>
      <trkpt lat="45.51394" lon="2.61393">
        <ele>888</ele>
        <time>2018-09-26T12:49:57Z</time>
      </trkpt>
      <trkpt lat="45.51394" lon="2.6139">
        <ele>887</ele>
        <time>2018-09-26T12:49:57Z</time>
      </trkpt>
      <trkpt lat="45.51393" lon="2.61387">
        <ele>887</ele>
        <time>2018-09-26T12:49:57Z</time>
      </trkpt>
      <trkpt lat="45.51393" lon="2.61384">
        <ele>887</ele>
        <time>2018-09-26T12:49:57Z</time>
      </trkpt>
      <trkpt lat="45.51392" lon="2.61379">
        <ele>887</ele>
        <time>2018-09-26T12:49:57Z</time>
      </trkpt>
      <trkpt lat="45.5139" lon="2.61376">
        <ele>887</ele>
        <time>2018-09-26T12:49:57Z</time>
      </trkpt>
      <trkpt lat="45.5139" lon="2.61372">
        <ele>887</ele>
        <time>2018-09-26T12:49:57Z</time>
      </trkpt>
      <trkpt lat="45.5139" lon="2.61369">
        <ele>887</ele>
        <time>2018-09-26T12:49:57Z</time>
      </trkpt>
      <trkpt lat="45.5139" lon="2.61366">
        <ele>887</ele>
        <time>2018-09-26T12:49:57Z</time>
      </trkpt>
      <trkpt lat="45.51389" lon="2.61363">
        <ele>887</ele>
        <time>2018-09-26T12:49:57Z</time>
      </trkpt>
      <trkpt lat="45.51389" lon="2.61361">
        <ele>887</ele>
        <time>2018-09-26T12:49:57Z</time>
      </trkpt>
      <trkpt lat="45.51388" lon="2.61358">
        <ele>887</ele>
        <time>2018-09-26T12:49:57Z</time>
      </trkpt>
      <trkpt lat="45.51388" lon="2.61354">
        <ele>887</ele>
        <time>2018-09-26T12:49:57Z</time>
      </trkpt>
      <trkpt lat="45.51387" lon="2.61351">
        <ele>887</ele>
        <time>2018-09-26T12:49:57Z</time>
      </trkpt>
      <trkpt lat="45.51387" lon="2.61347">
        <ele>887</ele>
        <time>2018-09-26T12:49:57Z</time>
      </trkpt>
      <trkpt lat="45.51386" lon="2.61344">
        <ele>887</ele>
        <time>2018-09-26T12:49:57Z</time>
      </trkpt>
      <trkpt lat="45.51384" lon="2.61341">
        <ele>887</ele>
        <time>2018-09-26T12:49:57Z</time>
      </trkpt>
      <trkpt lat="45.51383" lon="2.61338">
        <ele>887</ele>
        <time>2018-09-26T12:49:57Z</time>
      </trkpt>
      <trkpt lat="45.51382" lon="2.61335">
        <ele>887</ele>
        <time>2018-09-26T12:49:57Z</time>
      </trkpt>
      <trkpt lat="45.51382" lon="2.61332">
        <ele>887</ele>
        <time>2018-09-26T12:49:57Z</time>
      </trkpt>
      <trkpt lat="45.51381" lon="2.61328">
        <ele>887</ele>
        <time>2018-09-26T12:49:57Z</time>
      </trkpt>
      <trkpt lat="45.51381" lon="2.61325">
        <ele>886</ele>
        <time>2018-09-26T12:49:57Z</time>
      </trkpt>
      <trkpt lat="45.51381" lon="2.61322">
        <ele>886</ele>
        <time>2018-09-26T12:49:57Z</time>
      </trkpt>
      <trkpt lat="45.51381" lon="2.61319">
        <ele>886</ele>
        <time>2018-09-26T12:49:57Z</time>
      </trkpt>
      <trkpt lat="45.51381" lon="2.61316">
        <ele>886</ele>
        <time>2018-09-26T12:49:57Z</time>
      </trkpt>
      <trkpt lat="45.51381" lon="2.61313">
        <ele>886</ele>
        <time>2018-09-26T12:49:57Z</time>
      </trkpt>
      <trkpt lat="45.51381" lon="2.61311">
        <ele>886</ele>
        <time>2018-09-26T12:49:57Z</time>
      </trkpt>
      <trkpt lat="45.51382" lon="2.61309">
        <ele>886</ele>
        <time>2018-09-26T12:49:57Z</time>
      </trkpt>
      <trkpt lat="45.51382" lon="2.61307">
        <ele>886</ele>
        <time>2018-09-26T12:49:57Z</time>
      </trkpt>
      <trkpt lat="45.51334" lon="2.61182">
        <ele>884</ele>
        <time>2018-09-26T12:49:57Z</time>
      </trkpt>
      <trkpt lat="45.51372" lon="2.61291">
        <ele>886</ele>
        <time>2018-09-26T12:49:57Z</time>
      </trkpt>
      <trkpt lat="45.5137" lon="2.61281">
        <ele>886</ele>
        <time>2018-09-26T12:49:57Z</time>
      </trkpt>
      <trkpt lat="45.51369" lon="2.61277">
        <ele>886</ele>
        <time>2018-09-26T12:49:57Z</time>
      </trkpt>
      <trkpt lat="45.51368" lon="2.61273">
        <ele>886</ele>
        <time>2018-09-26T12:49:57Z</time>
      </trkpt>
      <trkpt lat="45.51366" lon="2.61268">
        <ele>886</ele>
        <time>2018-09-26T12:49:57Z</time>
      </trkpt>
      <trkpt lat="45.51366" lon="2.61265">
        <ele>886</ele>
        <time>2018-09-26T12:49:57Z</time>
      </trkpt>
      <trkpt lat="45.51366" lon="2.61264">
        <ele>886</ele>
        <time>2018-09-26T12:49:57Z</time>
      </trkpt>
      <trkpt lat="45.51365" lon="2.61262">
        <ele>885</ele>
        <time>2018-09-26T12:49:57Z</time>
      </trkpt>
      <trkpt lat="45.51364" lon="2.61258">
        <ele>885</ele>
        <time>2018-09-26T12:49:57Z</time>
      </trkpt>
      <trkpt lat="45.51363" lon="2.61255">
        <ele>885</ele>
        <time>2018-09-26T12:49:57Z</time>
      </trkpt>
      <trkpt lat="45.51362" lon="2.61252">
        <ele>885</ele>
        <time>2018-09-26T12:49:57Z</time>
      </trkpt>
      <trkpt lat="45.51361" lon="2.61248">
        <ele>885</ele>
        <time>2018-09-26T12:49:57Z</time>
      </trkpt>
      <trkpt lat="45.51361" lon="2.61244">
        <ele>885</ele>
        <time>2018-09-26T12:49:57Z</time>
      </trkpt>
      <trkpt lat="45.5136" lon="2.61241">
        <ele>885</ele>
        <time>2018-09-26T12:49:57Z</time>
      </trkpt>
      <trkpt lat="45.51359" lon="2.61238">
        <ele>885</ele>
        <time>2018-09-26T12:49:57Z</time>
      </trkpt>
      <trkpt lat="45.51359" lon="2.61235">
        <ele>885</ele>
        <time>2018-09-26T12:49:57Z</time>
      </trkpt>
      <trkpt lat="45.51357" lon="2.61232">
        <ele>885</ele>
        <time>2018-09-26T12:49:57Z</time>
      </trkpt>
      <trkpt lat="45.51356" lon="2.61229">
        <ele>885</ele>
        <time>2018-09-26T12:49:57Z</time>
      </trkpt>
      <trkpt lat="45.51355" lon="2.61227">
        <ele>885</ele>
        <time>2018-09-26T12:49:57Z</time>
      </trkpt>
      <trkpt lat="45.51355" lon="2.61224">
        <ele>885</ele>
        <time>2018-09-26T12:49:57Z</time>
      </trkpt>
      <trkpt lat="45.51354" lon="2.61221">
        <ele>885</ele>
        <time>2018-09-26T12:49:57Z</time>
      </trkpt>
      <trkpt lat="45.51353" lon="2.61218">
        <ele>885</ele>
        <time>2018-09-26T12:49:57Z</time>
      </trkpt>
      <trkpt lat="45.51353" lon="2.61216">
        <ele>885</ele>
        <time>2018-09-26T12:49:57Z</time>
      </trkpt>
      <trkpt lat="45.51352" lon="2.61213">
        <ele>885</ele>
        <time>2018-09-26T12:49:57Z</time>
      </trkpt>
      <trkpt lat="45.51351" lon="2.6121">
        <ele>885</ele>
        <time>2018-09-26T12:49:57Z</time>
      </trkpt>
      <trkpt lat="45.51351" lon="2.61207">
        <ele>885</ele>
        <time>2018-09-26T12:49:57Z</time>
      </trkpt>
      <trkpt lat="45.5135" lon="2.61204">
        <ele>885</ele>
        <time>2018-09-26T12:49:57Z</time>
      </trkpt>
      <trkpt lat="45.51349" lon="2.61201">
        <ele>885</ele>
        <time>2018-09-26T12:49:57Z</time>
      </trkpt>
      <trkpt lat="45.51348" lon="2.61198">
        <ele>884</ele>
        <time>2018-09-26T12:49:57Z</time>
      </trkpt>
      <trkpt lat="45.51347" lon="2.61196">
        <ele>884</ele>
        <time>2018-09-26T12:49:57Z</time>
      </trkpt>
      <trkpt lat="45.51347" lon="2.61192">
        <ele>884</ele>
        <time>2018-09-26T12:49:57Z</time>
      </trkpt>
      <trkpt lat="45.51346" lon="2.6119">
        <ele>884</ele>
        <time>2018-09-26T12:49:57Z</time>
      </trkpt>
      <trkpt lat="45.51345" lon="2.61187">
        <ele>884</ele>
        <time>2018-09-26T12:49:57Z</time>
      </trkpt>
      <trkpt lat="45.51343" lon="2.61183">
        <ele>884</ele>
        <time>2018-09-26T12:49:57Z</time>
      </trkpt>
      <trkpt lat="45.51343" lon="2.61179">
        <ele>884</ele>
        <time>2018-09-26T12:49:57Z</time>
      </trkpt>
      <trkpt lat="45.51343" lon="2.61175">
        <ele>884</ele>
        <time>2018-09-26T12:49:57Z</time>
      </trkpt>
      <trkpt lat="45.51342" lon="2.61172">
        <ele>884</ele>
        <time>2018-09-26T12:49:57Z</time>
      </trkpt>
      <trkpt lat="45.51342" lon="2.6117">
        <ele>884</ele>
        <time>2018-09-26T12:49:57Z</time>
      </trkpt>
      <trkpt lat="45.51341" lon="2.61167">
        <ele>884</ele>
        <time>2018-09-26T12:49:57Z</time>
      </trkpt>
      <trkpt lat="45.5134" lon="2.61164">
        <ele>884</ele>
        <time>2018-09-26T12:49:57Z</time>
      </trkpt>
      <trkpt lat="45.5134" lon="2.61161">
        <ele>884</ele>
        <time>2018-09-26T12:49:57Z</time>
      </trkpt>
      <trkpt lat="45.51339" lon="2.61158">
        <ele>884</ele>
        <time>2018-09-26T12:49:57Z</time>
      </trkpt>
      <trkpt lat="45.51338" lon="2.61154">
        <ele>884</ele>
        <time>2018-09-26T12:49:57Z</time>
      </trkpt>
      <trkpt lat="45.51337" lon="2.61151">
        <ele>884</ele>
        <time>2018-09-26T12:49:57Z</time>
      </trkpt>
      <trkpt lat="45.51336" lon="2.61146">
        <ele>884</ele>
        <time>2018-09-26T12:49:57Z</time>
      </trkpt>
      <trkpt lat="45.51335" lon="2.61143">
        <ele>884</ele>
        <time>2018-09-26T12:49:57Z</time>
      </trkpt>
      <trkpt lat="45.51333" lon="2.6114">
        <ele>884</ele>
        <time>2018-09-26T12:49:57Z</time>
      </trkpt>
      <trkpt lat="45.51333" lon="2.61137">
        <ele>884</ele>
        <time>2018-09-26T12:49:57Z</time>
      </trkpt>
      <trkpt lat="45.51332" lon="2.61132">
        <ele>883</ele>
        <time>2018-09-26T12:49:57Z</time>
      </trkpt>
      <trkpt lat="45.51331" lon="2.61128">
        <ele>883</ele>
        <time>2018-09-26T12:49:57Z</time>
      </trkpt>
      <trkpt lat="45.51329" lon="2.61125">
        <ele>883</ele>
        <time>2018-09-26T12:49:57Z</time>
      </trkpt>
      <trkpt lat="45.51326" lon="2.61122">
        <ele>883</ele>
        <time>2018-09-26T12:49:57Z</time>
      </trkpt>
      <trkpt lat="45.51323" lon="2.61119">
        <ele>883</ele>
        <time>2018-09-26T12:49:57Z</time>
      </trkpt>
      <trkpt lat="45.51322" lon="2.61117">
        <ele>883</ele>
        <time>2018-09-26T12:49:57Z</time>
      </trkpt>
      <trkpt lat="45.5132" lon="2.61115">
        <ele>883</ele>
        <time>2018-09-26T12:49:57Z</time>
      </trkpt>
      <trkpt lat="45.51317" lon="2.61114">
        <ele>883</ele>
        <time>2018-09-26T12:49:57Z</time>
      </trkpt>
      <trkpt lat="45.51315" lon="2.61113">
        <ele>883</ele>
        <time>2018-09-26T12:49:57Z</time>
      </trkpt>
      <trkpt lat="45.51313" lon="2.61113">
        <ele>883</ele>
        <time>2018-09-26T12:49:57Z</time>
      </trkpt>
      <trkpt lat="45.51311" lon="2.6111">
        <ele>883</ele>
        <time>2018-09-26T12:49:57Z</time>
      </trkpt>
      <trkpt lat="45.51308" lon="2.61108">
        <ele>883</ele>
        <time>2018-09-26T12:49:57Z</time>
      </trkpt>
      <trkpt lat="45.51306" lon="2.61105">
        <ele>883</ele>
        <time>2018-09-26T12:49:57Z</time>
      </trkpt>
      <trkpt lat="45.51303" lon="2.61104">
        <ele>883</ele>
        <time>2018-09-26T12:49:57Z</time>
      </trkpt>
      <trkpt lat="45.51302" lon="2.61101">
        <ele>883</ele>
        <time>2018-09-26T12:49:57Z</time>
      </trkpt>
      <trkpt lat="45.513" lon="2.61098">
        <ele>883</ele>
        <time>2018-09-26T12:49:57Z</time>
      </trkpt>
      <trkpt lat="45.51298" lon="2.61096">
        <ele>883</ele>
        <time>2018-09-26T12:49:57Z</time>
      </trkpt>
      <trkpt lat="45.51296" lon="2.61094">
        <ele>883</ele>
        <time>2018-09-26T12:49:57Z</time>
      </trkpt>
      <trkpt lat="45.51295" lon="2.61092">
        <ele>883</ele>
        <time>2018-09-26T12:49:57Z</time>
      </trkpt>
      <trkpt lat="45.51294" lon="2.6109">
        <ele>883</ele>
        <time>2018-09-26T12:49:57Z</time>
      </trkpt>
      <trkpt lat="45.51293" lon="2.61088">
        <ele>883</ele>
        <time>2018-09-26T12:49:57Z</time>
      </trkpt>
      <trkpt lat="45.51291" lon="2.61085">
        <ele>882</ele>
        <time>2018-09-26T12:49:57Z</time>
      </trkpt>
      <trkpt lat="45.51289" lon="2.61083">
        <ele>882</ele>
        <time>2018-09-26T12:49:57Z</time>
      </trkpt>
      <trkpt lat="45.51288" lon="2.61079">
        <ele>882</ele>
        <time>2018-09-26T12:49:57Z</time>
      </trkpt>
      <trkpt lat="45.51286" lon="2.61072">
        <ele>882</ele>
        <time>2018-09-26T12:49:57Z</time>
      </trkpt>
      <trkpt lat="45.51285" lon="2.61069">
        <ele>882</ele>
        <time>2018-09-26T12:49:57Z</time>
      </trkpt>
      <trkpt lat="45.51284" lon="2.61067">
        <ele>882</ele>
        <time>2018-09-26T12:49:57Z</time>
      </trkpt>
      <trkpt lat="45.51283" lon="2.61064">
        <ele>882</ele>
        <time>2018-09-26T12:49:57Z</time>
      </trkpt>
      <trkpt lat="45.51281" lon="2.6106">
        <ele>882</ele>
        <time>2018-09-26T12:49:57Z</time>
      </trkpt>
      <trkpt lat="45.51278" lon="2.61057">
        <ele>882</ele>
        <time>2018-09-26T12:49:57Z</time>
      </trkpt>
      <trkpt lat="45.51276" lon="2.61054">
        <ele>882</ele>
        <time>2018-09-26T12:49:57Z</time>
      </trkpt>
      <trkpt lat="45.51276" lon="2.61053">
        <ele>882</ele>
        <time>2018-09-26T12:49:57Z</time>
      </trkpt>
      <trkpt lat="45.51275" lon="2.61051">
        <ele>882</ele>
        <time>2018-09-26T12:49:57Z</time>
      </trkpt>
      <trkpt lat="45.51273" lon="2.61047">
        <ele>882</ele>
        <time>2018-09-26T12:49:57Z</time>
      </trkpt>
      <trkpt lat="45.51271" lon="2.61045">
        <ele>882</ele>
        <time>2018-09-26T12:49:57Z</time>
      </trkpt>
      <trkpt lat="45.5127" lon="2.61043">
        <ele>882</ele>
        <time>2018-09-26T12:49:57Z</time>
      </trkpt>
      <trkpt lat="45.51267" lon="2.61042">
        <ele>882</ele>
        <time>2018-09-26T12:49:57Z</time>
      </trkpt>
      <trkpt lat="45.51263" lon="2.6104">
        <ele>882</ele>
        <time>2018-09-26T12:49:57Z</time>
      </trkpt>
      <trkpt lat="45.5126" lon="2.61038">
        <ele>882</ele>
        <time>2018-09-26T12:49:57Z</time>
      </trkpt>
      <trkpt lat="45.51259" lon="2.61038">
        <ele>882</ele>
        <time>2018-09-26T12:49:57Z</time>
      </trkpt>
      <trkpt lat="45.51259" lon="2.61038">
        <ele>882</ele>
        <time>2018-09-26T12:49:57Z</time>
      </trkpt>
      <trkpt lat="45.51256" lon="2.61037">
        <ele>882</ele>
        <time>2018-09-26T12:49:57Z</time>
      </trkpt>
      <trkpt lat="45.51254" lon="2.61036">
        <ele>882</ele>
        <time>2018-09-26T12:49:57Z</time>
      </trkpt>
      <trkpt lat="45.51252" lon="2.61036">
        <ele>882</ele>
        <time>2018-09-26T12:49:57Z</time>
      </trkpt>
      <trkpt lat="45.51249" lon="2.61035">
        <ele>882</ele>
        <time>2018-09-26T12:49:57Z</time>
      </trkpt>
      <trkpt lat="45.51247" lon="2.61033">
        <ele>882</ele>
        <time>2018-09-26T12:49:57Z</time>
      </trkpt>
      <trkpt lat="45.51244" lon="2.61029">
        <ele>882</ele>
        <time>2018-09-26T12:49:57Z</time>
      </trkpt>
      <trkpt lat="45.51243" lon="2.61027">
        <ele>882</ele>
        <time>2018-09-26T12:49:57Z</time>
      </trkpt>
      <trkpt lat="45.51241" lon="2.61025">
        <ele>882</ele>
        <time>2018-09-26T12:49:57Z</time>
      </trkpt>
      <trkpt lat="45.51241" lon="2.61023">
        <ele>882</ele>
        <time>2018-09-26T12:49:57Z</time>
      </trkpt>
      <trkpt lat="45.51241" lon="2.61023">
        <ele>882</ele>
        <time>2018-09-26T12:49:57Z</time>
      </trkpt>
      <trkpt lat="45.51242" lon="2.61022">
        <ele>882</ele>
        <time>2018-09-26T12:49:57Z</time>
      </trkpt>
      <trkpt lat="45.51243" lon="2.61022">
        <ele>882</ele>
        <time>2018-09-26T12:49:57Z</time>
      </trkpt>
      <trkpt lat="45.51243" lon="2.61023">
        <ele>882</ele>
        <time>2018-09-26T12:49:57Z</time>
      </trkpt>
      <trkpt lat="45.51243" lon="2.61025">
        <ele>882</ele>
        <time>2018-09-26T12:49:57Z</time>
      </trkpt>
      <trkpt lat="45.51244" lon="2.61026">
        <ele>882</ele>
        <time>2018-09-26T12:49:57Z</time>
      </trkpt>
      <trkpt lat="45.51244" lon="2.61027">
        <ele>882</ele>
        <time>2018-09-26T12:49:57Z</time>
      </trkpt>
      <trkpt lat="45.51244" lon="2.61027">
        <ele>882</ele>
        <time>2018-09-26T12:49:57Z</time>
      </trkpt>
      <trkpt lat="45.51244" lon="2.61027">
        <ele>882</ele>
        <time>2018-09-26T12:49:57Z</time>
      </trkpt>
      <trkpt lat="45.51244" lon="2.61028">
        <ele>882</ele>
        <time>2018-09-26T12:49:57Z</time>
      </trkpt>
      <trkpt lat="45.51244" lon="2.61028">
        <ele>882</ele>
        <time>2018-09-26T12:49:57Z</time>
      </trkpt>
      <trkpt lat="45.51235" lon="2.6102">
        <ele>882</ele>
        <time>2018-09-26T12:49:57Z</time>
      </trkpt>
      <trkpt lat="45.51235" lon="2.61021">
        <ele>882</ele>
        <time>2018-09-26T12:49:57Z</time>
      </trkpt>
      <trkpt lat="45.51234" lon="2.6102">
        <ele>882</ele>
        <time>2018-09-26T12:49:57Z</time>
      </trkpt>
      <trkpt lat="45.51235" lon="2.6102">
        <ele>882</ele>
        <time>2018-09-26T12:49:57Z</time>
      </trkpt>
      <trkpt lat="45.51235" lon="2.61017">
        <ele>882</ele>
        <time>2018-09-26T12:49:57Z</time>
      </trkpt>
      <trkpt lat="45.51235" lon="2.61015">
        <ele>882</ele>
        <time>2018-09-26T12:49:57Z</time>
      </trkpt>
      <trkpt lat="45.51235" lon="2.61013">
        <ele>882</ele>
        <time>2018-09-26T12:49:57Z</time>
      </trkpt>
      <trkpt lat="45.51234" lon="2.6101">
        <ele>882</ele>
        <time>2018-09-26T12:49:57Z</time>
      </trkpt>
      <trkpt lat="45.51234" lon="2.61008">
        <ele>882</ele>
        <time>2018-09-26T12:49:57Z</time>
      </trkpt>
      <trkpt lat="45.51233" lon="2.61005">
        <ele>882</ele>
        <time>2018-09-26T12:49:57Z</time>
      </trkpt>
      <trkpt lat="45.51232" lon="2.61003">
        <ele>882</ele>
        <time>2018-09-26T12:49:57Z</time>
      </trkpt>
      <trkpt lat="45.51231" lon="2.61001">
        <ele>882</ele>
        <time>2018-09-26T12:49:57Z</time>
      </trkpt>
      <trkpt lat="45.5123" lon="2.60999">
        <ele>882</ele>
        <time>2018-09-26T12:49:57Z</time>
      </trkpt>
      <trkpt lat="45.5123" lon="2.60997">
        <ele>882</ele>
        <time>2018-09-26T12:49:57Z</time>
      </trkpt>
      <trkpt lat="45.51229" lon="2.60995">
        <ele>882</ele>
        <time>2018-09-26T12:49:57Z</time>
      </trkpt>
      <trkpt lat="45.51227" lon="2.60992">
        <ele>882</ele>
        <time>2018-09-26T12:49:57Z</time>
      </trkpt>
      <trkpt lat="45.51225" lon="2.6099">
        <ele>882</ele>
        <time>2018-09-26T12:49:57Z</time>
      </trkpt>
      <trkpt lat="45.51224" lon="2.60988">
        <ele>882</ele>
        <time>2018-09-26T12:49:57Z</time>
      </trkpt>
      <trkpt lat="45.51223" lon="2.60986">
        <ele>882</ele>
        <time>2018-09-26T12:49:57Z</time>
      </trkpt>
      <trkpt lat="45.51221" lon="2.60982">
        <ele>882</ele>
        <time>2018-09-26T12:49:57Z</time>
      </trkpt>
      <trkpt lat="45.5122" lon="2.60979">
        <ele>882</ele>
        <time>2018-09-26T12:49:57Z</time>
      </trkpt>
      <trkpt lat="45.51219" lon="2.60977">
        <ele>882</ele>
        <time>2018-09-26T12:49:57Z</time>
      </trkpt>
      <trkpt lat="45.51218" lon="2.60974">
        <ele>882</ele>
        <time>2018-09-26T12:49:57Z</time>
      </trkpt>
      <trkpt lat="45.51219" lon="2.60972">
        <ele>882</ele>
        <time>2018-09-26T12:49:57Z</time>
      </trkpt>
      <trkpt lat="45.51218" lon="2.6097">
        <ele>882</ele>
        <time>2018-09-26T12:49:57Z</time>
      </trkpt>
      <trkpt lat="45.51218" lon="2.60968">
        <ele>882</ele>
        <time>2018-09-26T12:49:57Z</time>
      </trkpt>
      <trkpt lat="45.51217" lon="2.60964">
        <ele>882</ele>
        <time>2018-09-26T12:49:57Z</time>
      </trkpt>
      <trkpt lat="45.51216" lon="2.6096">
        <ele>882</ele>
        <time>2018-09-26T12:49:57Z</time>
      </trkpt>
      <trkpt lat="45.51215" lon="2.60957">
        <ele>882</ele>
        <time>2018-09-26T12:49:57Z</time>
      </trkpt>
      <trkpt lat="45.51215" lon="2.60955">
        <ele>882</ele>
        <time>2018-09-26T12:49:57Z</time>
      </trkpt>
      <trkpt lat="45.51214" lon="2.60951">
        <ele>882</ele>
        <time>2018-09-26T12:49:57Z</time>
      </trkpt>
      <trkpt lat="45.51213" lon="2.60949">
        <ele>882</ele>
        <time>2018-09-26T12:49:57Z</time>
      </trkpt>
      <trkpt lat="45.51213" lon="2.60946">
        <ele>882</ele>
        <time>2018-09-26T12:49:57Z</time>
      </trkpt>
      <trkpt lat="45.51213" lon="2.60944">
        <ele>882</ele>
        <time>2018-09-26T12:49:57Z</time>
      </trkpt>
      <trkpt lat="45.51213" lon="2.60942">
        <ele>882</ele>
        <time>2018-09-26T12:49:57Z</time>
      </trkpt>
      <trkpt lat="45.51213" lon="2.6094">
        <ele>882</ele>
        <time>2018-09-26T12:49:57Z</time>
      </trkpt>
      <trkpt lat="45.51212" lon="2.60937">
        <ele>882</ele>
        <time>2018-09-26T12:49:57Z</time>
      </trkpt>
      <trkpt lat="45.51212" lon="2.60936">
        <ele>882</ele>
        <time>2018-09-26T12:49:57Z</time>
      </trkpt>
      <trkpt lat="45.51212" lon="2.60936">
        <ele>882</ele>
        <time>2018-09-26T12:49:57Z</time>
      </trkpt>
      <trkpt lat="45.51212" lon="2.60935">
        <ele>882</ele>
        <time>2018-09-26T12:49:57Z</time>
      </trkpt>
      <trkpt lat="45.512" lon="2.60922">
        <ele>882</ele>
        <time>2018-09-26T12:49:57Z</time>
      </trkpt>
      <trkpt lat="45.51199" lon="2.60922">
        <ele>882</ele>
        <time>2018-09-26T12:49:57Z</time>
      </trkpt>
      <trkpt lat="45.512" lon="2.60922">
        <ele>882</ele>
        <time>2018-09-26T12:49:57Z</time>
      </trkpt>
      <trkpt lat="45.512" lon="2.60923">
        <ele>882</ele>
        <time>2018-09-26T12:49:57Z</time>
      </trkpt>
      <trkpt lat="45.51199" lon="2.60922">
        <ele>882</ele>
        <time>2018-09-26T12:49:57Z</time>
      </trkpt>
      <trkpt lat="45.51199" lon="2.60921">
        <ele>882</ele>
        <time>2018-09-26T12:49:57Z</time>
      </trkpt>
      <trkpt lat="45.51199" lon="2.6092">
        <ele>882</ele>
        <time>2018-09-26T12:49:57Z</time>
      </trkpt>
      <trkpt lat="45.51199" lon="2.60919">
        <ele>882</ele>
        <time>2018-09-26T12:49:57Z</time>
      </trkpt>
      <trkpt lat="45.51199" lon="2.60917">
        <ele>882</ele>
        <time>2018-09-26T12:49:57Z</time>
      </trkpt>
      <trkpt lat="45.51199" lon="2.60915">
        <ele>882</ele>
        <time>2018-09-26T12:49:57Z</time>
      </trkpt>
      <trkpt lat="45.51199" lon="2.60914">
        <ele>882</ele>
        <time>2018-09-26T12:49:57Z</time>
      </trkpt>
      <trkpt lat="45.51198" lon="2.60913">
        <ele>882</ele>
        <time>2018-09-26T12:49:57Z</time>
      </trkpt>
      <trkpt lat="45.51198" lon="2.60911">
        <ele>882</ele>
        <time>2018-09-26T12:49:57Z</time>
      </trkpt>
      <trkpt lat="45.51197" lon="2.6091">
        <ele>882</ele>
        <time>2018-09-26T12:49:57Z</time>
      </trkpt>
      <trkpt lat="45.51196" lon="2.60908">
        <ele>882</ele>
        <time>2018-09-26T12:49:57Z</time>
      </trkpt>
      <trkpt lat="45.51195" lon="2.60906">
        <ele>882</ele>
        <time>2018-09-26T12:49:57Z</time>
      </trkpt>
      <trkpt lat="45.51194" lon="2.60904">
        <ele>882</ele>
        <time>2018-09-26T12:49:57Z</time>
      </trkpt>
      <trkpt lat="45.51194" lon="2.60902">
        <ele>882</ele>
        <time>2018-09-26T12:49:57Z</time>
      </trkpt>
      <trkpt lat="45.51192" lon="2.60899">
        <ele>882</ele>
        <time>2018-09-26T12:49:57Z</time>
      </trkpt>
      <trkpt lat="45.51192" lon="2.60898">
        <ele>882</ele>
        <time>2018-09-26T12:49:57Z</time>
      </trkpt>
      <trkpt lat="45.51191" lon="2.60896">
        <ele>882</ele>
        <time>2018-09-26T12:49:57Z</time>
      </trkpt>
      <trkpt lat="45.5119" lon="2.60893">
        <ele>882</ele>
        <time>2018-09-26T12:49:57Z</time>
      </trkpt>
      <trkpt lat="45.51189" lon="2.60891">
        <ele>882</ele>
        <time>2018-09-26T12:49:57Z</time>
      </trkpt>
      <trkpt lat="45.51188" lon="2.6089">
        <ele>882</ele>
        <time>2018-09-26T12:49:57Z</time>
      </trkpt>
      <trkpt lat="45.51186" lon="2.60888">
        <ele>882</ele>
        <time>2018-09-26T12:49:57Z</time>
      </trkpt>
      <trkpt lat="45.51184" lon="2.60885">
        <ele>881</ele>
        <time>2018-09-26T12:49:57Z</time>
      </trkpt>
      <trkpt lat="45.51182" lon="2.60884">
        <ele>881</ele>
        <time>2018-09-26T12:49:57Z</time>
      </trkpt>
      <trkpt lat="45.5118" lon="2.6088">
        <ele>881</ele>
        <time>2018-09-26T12:49:57Z</time>
      </trkpt>
      <trkpt lat="45.51178" lon="2.60877">
        <ele>881</ele>
        <time>2018-09-26T12:49:57Z</time>
      </trkpt>
      <trkpt lat="45.51177" lon="2.60876">
        <ele>881</ele>
        <time>2018-09-26T12:49:57Z</time>
      </trkpt>
      <trkpt lat="45.51175" lon="2.60875">
        <ele>881</ele>
        <time>2018-09-26T12:49:57Z</time>
      </trkpt>
      <trkpt lat="45.51173" lon="2.60875">
        <ele>881</ele>
        <time>2018-09-26T12:49:57Z</time>
      </trkpt>
      <trkpt lat="45.51171" lon="2.60874">
        <ele>881</ele>
        <time>2018-09-26T12:49:57Z</time>
      </trkpt>
      <trkpt lat="45.51169" lon="2.60873">
        <ele>881</ele>
        <time>2018-09-26T12:49:57Z</time>
      </trkpt>
      <trkpt lat="45.51167" lon="2.60871">
        <ele>881</ele>
        <time>2018-09-26T12:49:57Z</time>
      </trkpt>
      <trkpt lat="45.51164" lon="2.60869">
        <ele>880</ele>
        <time>2018-09-26T12:49:57Z</time>
      </trkpt>
      <trkpt lat="45.51162" lon="2.60869">
        <ele>880</ele>
        <time>2018-09-26T12:49:57Z</time>
      </trkpt>
      <trkpt lat="45.51161" lon="2.60868">
        <ele>880</ele>
        <time>2018-09-26T12:49:57Z</time>
      </trkpt>
      <trkpt lat="45.51159" lon="2.60868">
        <ele>880</ele>
        <time>2018-09-26T12:49:57Z</time>
      </trkpt>
      <trkpt lat="45.51157" lon="2.60867">
        <ele>880</ele>
        <time>2018-09-26T12:49:57Z</time>
      </trkpt>
      <trkpt lat="45.51154" lon="2.60866">
        <ele>880</ele>
        <time>2018-09-26T12:49:57Z</time>
      </trkpt>
      <trkpt lat="45.51152" lon="2.60866">
        <ele>880</ele>
        <time>2018-09-26T12:49:57Z</time>
      </trkpt>
      <trkpt lat="45.5115" lon="2.60867">
        <ele>879</ele>
        <time>2018-09-26T12:49:57Z</time>
      </trkpt>
      <trkpt lat="45.51147" lon="2.60866">
        <ele>879</ele>
        <time>2018-09-26T12:49:57Z</time>
      </trkpt>
      <trkpt lat="45.51145" lon="2.60865">
        <ele>879</ele>
        <time>2018-09-26T12:49:57Z</time>
      </trkpt>
      <trkpt lat="45.51142" lon="2.60865">
        <ele>879</ele>
        <time>2018-09-26T12:49:57Z</time>
      </trkpt>
      <trkpt lat="45.5114" lon="2.60864">
        <ele>879</ele>
        <time>2018-09-26T12:49:57Z</time>
      </trkpt>
      <trkpt lat="45.51137" lon="2.60865">
        <ele>879</ele>
        <time>2018-09-26T12:49:57Z</time>
      </trkpt>
      <trkpt lat="45.51135" lon="2.60864">
        <ele>878</ele>
        <time>2018-09-26T12:49:57Z</time>
      </trkpt>
      <trkpt lat="45.51132" lon="2.60864">
        <ele>878</ele>
        <time>2018-09-26T12:49:57Z</time>
      </trkpt>
      <trkpt lat="45.5113" lon="2.60863">
        <ele>878</ele>
        <time>2018-09-26T12:49:57Z</time>
      </trkpt>
      <trkpt lat="45.51128" lon="2.60862">
        <ele>878</ele>
        <time>2018-09-26T12:49:57Z</time>
      </trkpt>
      <trkpt lat="45.51125" lon="2.60861">
        <ele>878</ele>
        <time>2018-09-26T12:49:57Z</time>
      </trkpt>
      <trkpt lat="45.51122" lon="2.60859">
        <ele>878</ele>
        <time>2018-09-26T12:49:57Z</time>
      </trkpt>
      <trkpt lat="45.5112" lon="2.60858">
        <ele>877</ele>
        <time>2018-09-26T12:49:57Z</time>
      </trkpt>
      <trkpt lat="45.51117" lon="2.60857">
        <ele>877</ele>
        <time>2018-09-26T12:49:57Z</time>
      </trkpt>
      <trkpt lat="45.51114" lon="2.60857">
        <ele>877</ele>
        <time>2018-09-26T12:49:57Z</time>
      </trkpt>
      <trkpt lat="45.51111" lon="2.60856">
        <ele>877</ele>
        <time>2018-09-26T12:49:57Z</time>
      </trkpt>
      <trkpt lat="45.51109" lon="2.60855">
        <ele>877</ele>
        <time>2018-09-26T12:49:57Z</time>
      </trkpt>
      <trkpt lat="45.51106" lon="2.60853">
        <ele>877</ele>
        <time>2018-09-26T12:49:57Z</time>
      </trkpt>
      <trkpt lat="45.51104" lon="2.60852">
        <ele>876</ele>
        <time>2018-09-26T12:49:57Z</time>
      </trkpt>
      <trkpt lat="45.51101" lon="2.60852">
        <ele>876</ele>
        <time>2018-09-26T12:49:57Z</time>
      </trkpt>
      <trkpt lat="45.51099" lon="2.60852">
        <ele>876</ele>
        <time>2018-09-26T12:49:57Z</time>
      </trkpt>
      <trkpt lat="45.51096" lon="2.60851">
        <ele>876</ele>
        <time>2018-09-26T12:49:57Z</time>
      </trkpt>
      <trkpt lat="45.51094" lon="2.60849">
        <ele>876</ele>
        <time>2018-09-26T12:49:57Z</time>
      </trkpt>
      <trkpt lat="45.51091" lon="2.60849">
        <ele>876</ele>
        <time>2018-09-26T12:49:57Z</time>
      </trkpt>
      <trkpt lat="45.51089" lon="2.60848">
        <ele>875</ele>
        <time>2018-09-26T12:49:57Z</time>
      </trkpt>
      <trkpt lat="45.51086" lon="2.60847">
        <ele>875</ele>
        <time>2018-09-26T12:49:57Z</time>
      </trkpt>
      <trkpt lat="45.51084" lon="2.60845">
        <ele>875</ele>
        <time>2018-09-26T12:49:57Z</time>
      </trkpt>
      <trkpt lat="45.51081" lon="2.60844">
        <ele>875</ele>
        <time>2018-09-26T12:49:57Z</time>
      </trkpt>
      <trkpt lat="45.51078" lon="2.60842">
        <ele>875</ele>
        <time>2018-09-26T12:49:57Z</time>
      </trkpt>
      <trkpt lat="45.51076" lon="2.60841">
        <ele>875</ele>
        <time>2018-09-26T12:49:57Z</time>
      </trkpt>
      <trkpt lat="45.51073" lon="2.6084">
        <ele>875</ele>
        <time>2018-09-26T12:49:57Z</time>
      </trkpt>
      <trkpt lat="45.51071" lon="2.60839">
        <ele>874</ele>
        <time>2018-09-26T12:49:57Z</time>
      </trkpt>
      <trkpt lat="45.51069" lon="2.60839">
        <ele>874</ele>
        <time>2018-09-26T12:49:57Z</time>
      </trkpt>
      <trkpt lat="45.51067" lon="2.60838">
        <ele>874</ele>
        <time>2018-09-26T12:49:57Z</time>
      </trkpt>
      <trkpt lat="45.51065" lon="2.60837">
        <ele>874</ele>
        <time>2018-09-26T12:49:57Z</time>
      </trkpt>
      <trkpt lat="45.51063" lon="2.60836">
        <ele>874</ele>
        <time>2018-09-26T12:49:57Z</time>
      </trkpt>
      <trkpt lat="45.51059" lon="2.60834">
        <ele>874</ele>
        <time>2018-09-26T12:49:57Z</time>
      </trkpt>
      <trkpt lat="45.51057" lon="2.60833">
        <ele>874</ele>
        <time>2018-09-26T12:49:57Z</time>
      </trkpt>
      <trkpt lat="45.51054" lon="2.60831">
        <ele>874</ele>
        <time>2018-09-26T12:49:57Z</time>
      </trkpt>
      <trkpt lat="45.51052" lon="2.6083">
        <ele>874</ele>
        <time>2018-09-26T12:49:57Z</time>
      </trkpt>
      <trkpt lat="45.51049" lon="2.60828">
        <ele>873</ele>
        <time>2018-09-26T12:49:57Z</time>
      </trkpt>
      <trkpt lat="45.51047" lon="2.60828">
        <ele>873</ele>
        <time>2018-09-26T12:49:57Z</time>
      </trkpt>
      <trkpt lat="45.51044" lon="2.60828">
        <ele>873</ele>
        <time>2018-09-26T12:49:57Z</time>
      </trkpt>
      <trkpt lat="45.51042" lon="2.60828">
        <ele>873</ele>
        <time>2018-09-26T12:49:57Z</time>
      </trkpt>
      <trkpt lat="45.51039" lon="2.60826">
        <ele>873</ele>
        <time>2018-09-26T12:49:57Z</time>
      </trkpt>
      <trkpt lat="45.51037" lon="2.60825">
        <ele>873</ele>
        <time>2018-09-26T12:49:57Z</time>
      </trkpt>
      <trkpt lat="45.51035" lon="2.60824">
        <ele>873</ele>
        <time>2018-09-26T12:49:57Z</time>
      </trkpt>
      <trkpt lat="45.51032" lon="2.60823">
        <ele>873</ele>
        <time>2018-09-26T12:49:57Z</time>
      </trkpt>
      <trkpt lat="45.5103" lon="2.60822">
        <ele>873</ele>
        <time>2018-09-26T12:49:57Z</time>
      </trkpt>
      <trkpt lat="45.51027" lon="2.60821">
        <ele>873</ele>
        <time>2018-09-26T12:49:57Z</time>
      </trkpt>
      <trkpt lat="45.51025" lon="2.60819">
        <ele>873</ele>
        <time>2018-09-26T12:49:57Z</time>
      </trkpt>
      <trkpt lat="45.51023" lon="2.60818">
        <ele>872</ele>
        <time>2018-09-26T12:49:57Z</time>
      </trkpt>
      <trkpt lat="45.51021" lon="2.60817">
        <ele>872</ele>
        <time>2018-09-26T12:49:57Z</time>
      </trkpt>
      <trkpt lat="45.51018" lon="2.60816">
        <ele>872</ele>
        <time>2018-09-26T12:49:57Z</time>
      </trkpt>
      <trkpt lat="45.51016" lon="2.60816">
        <ele>872</ele>
        <time>2018-09-26T12:49:57Z</time>
      </trkpt>
      <trkpt lat="45.51013" lon="2.60814">
        <ele>872</ele>
        <time>2018-09-26T12:49:57Z</time>
      </trkpt>
      <trkpt lat="45.5101" lon="2.60813">
        <ele>872</ele>
        <time>2018-09-26T12:49:57Z</time>
      </trkpt>
      <trkpt lat="45.51008" lon="2.60812">
        <ele>872</ele>
        <time>2018-09-26T12:49:57Z</time>
      </trkpt>
      <trkpt lat="45.51006" lon="2.60812">
        <ele>872</ele>
        <time>2018-09-26T12:49:57Z</time>
      </trkpt>
      <trkpt lat="45.51004" lon="2.60811">
        <ele>872</ele>
        <time>2018-09-26T12:49:57Z</time>
      </trkpt>
      <trkpt lat="45.51001" lon="2.6081">
        <ele>872</ele>
        <time>2018-09-26T12:49:57Z</time>
      </trkpt>
      <trkpt lat="45.50999" lon="2.6081">
        <ele>872</ele>
        <time>2018-09-26T12:49:57Z</time>
      </trkpt>
      <trkpt lat="45.50997" lon="2.60809">
        <ele>872</ele>
        <time>2018-09-26T12:49:57Z</time>
      </trkpt>
      <trkpt lat="45.50994" lon="2.60807">
        <ele>872</ele>
        <time>2018-09-26T12:49:57Z</time>
      </trkpt>
      <trkpt lat="45.50992" lon="2.60806">
        <ele>872</ele>
        <time>2018-09-26T12:49:57Z</time>
      </trkpt>
      <trkpt lat="45.50989" lon="2.60805">
        <ele>871</ele>
        <time>2018-09-26T12:49:57Z</time>
      </trkpt>
      <trkpt lat="45.50987" lon="2.60804">
        <ele>871</ele>
        <time>2018-09-26T12:49:57Z</time>
      </trkpt>
      <trkpt lat="45.50985" lon="2.60802">
        <ele>871</ele>
        <time>2018-09-26T12:49:57Z</time>
      </trkpt>
      <trkpt lat="45.50983" lon="2.608">
        <ele>871</ele>
        <time>2018-09-26T12:49:57Z</time>
      </trkpt>
      <trkpt lat="45.5098" lon="2.60799">
        <ele>871</ele>
        <time>2018-09-26T12:49:57Z</time>
      </trkpt>
      <trkpt lat="45.50978" lon="2.60798">
        <ele>871</ele>
        <time>2018-09-26T12:49:57Z</time>
      </trkpt>
      <trkpt lat="45.50975" lon="2.60796">
        <ele>871</ele>
        <time>2018-09-26T12:49:57Z</time>
      </trkpt>
      <trkpt lat="45.50972" lon="2.60794">
        <ele>871</ele>
        <time>2018-09-26T12:49:57Z</time>
      </trkpt>
      <trkpt lat="45.5097" lon="2.60792">
        <ele>871</ele>
        <time>2018-09-26T12:49:57Z</time>
      </trkpt>
      <trkpt lat="45.50968" lon="2.6079">
        <ele>871</ele>
        <time>2018-09-26T12:49:57Z</time>
      </trkpt>
      <trkpt lat="45.50966" lon="2.60789">
        <ele>871</ele>
        <time>2018-09-26T12:49:57Z</time>
      </trkpt>
      <trkpt lat="45.50963" lon="2.60788">
        <ele>871</ele>
        <time>2018-09-26T12:49:57Z</time>
      </trkpt>
      <trkpt lat="45.50961" lon="2.60787">
        <ele>870</ele>
        <time>2018-09-26T12:49:57Z</time>
      </trkpt>
      <trkpt lat="45.50959" lon="2.60786">
        <ele>870</ele>
        <time>2018-09-26T12:49:57Z</time>
      </trkpt>
      <trkpt lat="45.50957" lon="2.60784">
        <ele>870</ele>
        <time>2018-09-26T12:49:57Z</time>
      </trkpt>
      <trkpt lat="45.50954" lon="2.60782">
        <ele>870</ele>
        <time>2018-09-26T12:49:57Z</time>
      </trkpt>
      <trkpt lat="45.50952" lon="2.6078">
        <ele>870</ele>
        <time>2018-09-26T12:49:57Z</time>
      </trkpt>
      <trkpt lat="45.5095" lon="2.60779">
        <ele>870</ele>
        <time>2018-09-26T12:49:57Z</time>
      </trkpt>
      <trkpt lat="45.50948" lon="2.60777">
        <ele>870</ele>
        <time>2018-09-26T12:49:57Z</time>
      </trkpt>
      <trkpt lat="45.50945" lon="2.60775">
        <ele>870</ele>
        <time>2018-09-26T12:49:57Z</time>
      </trkpt>
      <trkpt lat="45.50942" lon="2.60773">
        <ele>870</ele>
        <time>2018-09-26T12:49:57Z</time>
      </trkpt>
      <trkpt lat="45.5094" lon="2.6077">
        <ele>870</ele>
        <time>2018-09-26T12:49:57Z</time>
      </trkpt>
      <trkpt lat="45.50938" lon="2.60769">
        <ele>869</ele>
        <time>2018-09-26T12:49:57Z</time>
      </trkpt>
      <trkpt lat="45.50937" lon="2.60768">
        <ele>869</ele>
        <time>2018-09-26T12:49:57Z</time>
      </trkpt>
      <trkpt lat="45.50935" lon="2.60766">
        <ele>869</ele>
        <time>2018-09-26T12:49:57Z</time>
      </trkpt>
      <trkpt lat="45.50933" lon="2.60762">
        <ele>869</ele>
        <time>2018-09-26T12:49:57Z</time>
      </trkpt>
      <trkpt lat="45.50931" lon="2.6076">
        <ele>869</ele>
        <time>2018-09-26T12:49:57Z</time>
      </trkpt>
      <trkpt lat="45.5093" lon="2.60757">
        <ele>869</ele>
        <time>2018-09-26T12:49:57Z</time>
      </trkpt>
      <trkpt lat="45.50928" lon="2.60756">
        <ele>869</ele>
        <time>2018-09-26T12:49:57Z</time>
      </trkpt>
      <trkpt lat="45.50928" lon="2.60754">
        <ele>869</ele>
        <time>2018-09-26T12:49:57Z</time>
      </trkpt>
      <trkpt lat="45.50926" lon="2.60751">
        <ele>869</ele>
        <time>2018-09-26T12:49:57Z</time>
      </trkpt>
      <trkpt lat="45.50924" lon="2.60748">
        <ele>869</ele>
        <time>2018-09-26T12:49:57Z</time>
      </trkpt>
      <trkpt lat="45.50921" lon="2.60746">
        <ele>869</ele>
        <time>2018-09-26T12:49:57Z</time>
      </trkpt>
      <trkpt lat="45.5092" lon="2.60744">
        <ele>868</ele>
        <time>2018-09-26T12:49:57Z</time>
      </trkpt>
      <trkpt lat="45.50918" lon="2.60742">
        <ele>868</ele>
        <time>2018-09-26T12:49:57Z</time>
      </trkpt>
      <trkpt lat="45.50915" lon="2.6074">
        <ele>868</ele>
        <time>2018-09-26T12:49:57Z</time>
      </trkpt>
      <trkpt lat="45.50913" lon="2.60737">
        <ele>868</ele>
        <time>2018-09-26T12:49:57Z</time>
      </trkpt>
      <trkpt lat="45.50911" lon="2.60735">
        <ele>868</ele>
        <time>2018-09-26T12:49:57Z</time>
      </trkpt>
      <trkpt lat="45.50909" lon="2.60734">
        <ele>868</ele>
        <time>2018-09-26T12:49:57Z</time>
      </trkpt>
      <trkpt lat="45.50908" lon="2.60733">
        <ele>868</ele>
        <time>2018-09-26T12:49:57Z</time>
      </trkpt>
      <trkpt lat="45.50906" lon="2.60731">
        <ele>868</ele>
        <time>2018-09-26T12:49:57Z</time>
      </trkpt>
      <trkpt lat="45.50904" lon="2.60729">
        <ele>868</ele>
        <time>2018-09-26T12:49:57Z</time>
      </trkpt>
      <trkpt lat="45.50902" lon="2.60728">
        <ele>868</ele>
        <time>2018-09-26T12:49:57Z</time>
      </trkpt>
      <trkpt lat="45.50901" lon="2.60726">
        <ele>868</ele>
        <time>2018-09-26T12:49:57Z</time>
      </trkpt>
      <trkpt lat="45.50899" lon="2.60724">
        <ele>868</ele>
        <time>2018-09-26T12:49:57Z</time>
      </trkpt>
      <trkpt lat="45.50898" lon="2.60722">
        <ele>868</ele>
        <time>2018-09-26T12:49:57Z</time>
      </trkpt>
      <trkpt lat="45.50897" lon="2.6072">
        <ele>868</ele>
        <time>2018-09-26T12:49:57Z</time>
      </trkpt>
      <trkpt lat="45.50896" lon="2.60718">
        <ele>867</ele>
        <time>2018-09-26T12:49:57Z</time>
      </trkpt>
      <trkpt lat="45.50894" lon="2.60715">
        <ele>867</ele>
        <time>2018-09-26T12:49:57Z</time>
      </trkpt>
      <trkpt lat="45.50892" lon="2.60712">
        <ele>867</ele>
        <time>2018-09-26T12:49:57Z</time>
      </trkpt>
      <trkpt lat="45.5089" lon="2.60708">
        <ele>867</ele>
        <time>2018-09-26T12:49:57Z</time>
      </trkpt>
      <trkpt lat="45.50889" lon="2.60706">
        <ele>867</ele>
        <time>2018-09-26T12:49:57Z</time>
      </trkpt>
      <trkpt lat="45.50887" lon="2.60702">
        <ele>867</ele>
        <time>2018-09-26T12:49:57Z</time>
      </trkpt>
      <trkpt lat="45.50885" lon="2.60699">
        <ele>867</ele>
        <time>2018-09-26T12:49:57Z</time>
      </trkpt>
      <trkpt lat="45.50883" lon="2.60696">
        <ele>867</ele>
        <time>2018-09-26T12:49:57Z</time>
      </trkpt>
      <trkpt lat="45.50881" lon="2.60694">
        <ele>867</ele>
        <time>2018-09-26T12:49:57Z</time>
      </trkpt>
      <trkpt lat="45.50879" lon="2.60691">
        <ele>867</ele>
        <time>2018-09-26T12:49:57Z</time>
      </trkpt>
      <trkpt lat="45.50877" lon="2.60688">
        <ele>866</ele>
        <time>2018-09-26T12:49:57Z</time>
      </trkpt>
      <trkpt lat="45.50875" lon="2.60684">
        <ele>866</ele>
        <time>2018-09-26T12:49:57Z</time>
      </trkpt>
      <trkpt lat="45.50874" lon="2.60682">
        <ele>866</ele>
        <time>2018-09-26T12:49:57Z</time>
      </trkpt>
      <trkpt lat="45.50872" lon="2.60677">
        <ele>866</ele>
        <time>2018-09-26T12:49:57Z</time>
      </trkpt>
      <trkpt lat="45.5087" lon="2.60673">
        <ele>866</ele>
        <time>2018-09-26T12:49:57Z</time>
      </trkpt>
      <trkpt lat="45.50869" lon="2.60671">
        <ele>866</ele>
        <time>2018-09-26T12:49:57Z</time>
      </trkpt>
      <trkpt lat="45.50867" lon="2.60668">
        <ele>866</ele>
        <time>2018-09-26T12:49:57Z</time>
      </trkpt>
      <trkpt lat="45.50866" lon="2.60664">
        <ele>866</ele>
        <time>2018-09-26T12:49:57Z</time>
      </trkpt>
      <trkpt lat="45.50865" lon="2.60662">
        <ele>866</ele>
        <time>2018-09-26T12:49:57Z</time>
      </trkpt>
      <trkpt lat="45.50864" lon="2.60659">
        <ele>866</ele>
        <time>2018-09-26T12:49:57Z</time>
      </trkpt>
      <trkpt lat="45.50862" lon="2.60657">
        <ele>866</ele>
        <time>2018-09-26T12:49:57Z</time>
      </trkpt>
      <trkpt lat="45.5086" lon="2.60653">
        <ele>866</ele>
        <time>2018-09-26T12:49:57Z</time>
      </trkpt>
      <trkpt lat="45.50859" lon="2.6065">
        <ele>866</ele>
        <time>2018-09-26T12:49:57Z</time>
      </trkpt>
      <trkpt lat="45.50857" lon="2.60648">
        <ele>866</ele>
        <time>2018-09-26T12:49:57Z</time>
      </trkpt>
      <trkpt lat="45.50856" lon="2.60645">
        <ele>866</ele>
        <time>2018-09-26T12:49:57Z</time>
      </trkpt>
      <trkpt lat="45.50854" lon="2.60642">
        <ele>866</ele>
        <time>2018-09-26T12:49:57Z</time>
      </trkpt>
      <trkpt lat="45.50852" lon="2.60639">
        <ele>865</ele>
        <time>2018-09-26T12:49:57Z</time>
      </trkpt>
      <trkpt lat="45.5085" lon="2.60638">
        <ele>865</ele>
        <time>2018-09-26T12:49:57Z</time>
      </trkpt>
      <trkpt lat="45.50849" lon="2.60636">
        <ele>865</ele>
        <time>2018-09-26T12:49:57Z</time>
      </trkpt>
      <trkpt lat="45.50847" lon="2.60632">
        <ele>865</ele>
        <time>2018-09-26T12:49:57Z</time>
      </trkpt>
      <trkpt lat="45.50846" lon="2.60629">
        <ele>865</ele>
        <time>2018-09-26T12:49:57Z</time>
      </trkpt>
      <trkpt lat="45.50845" lon="2.60626">
        <ele>865</ele>
        <time>2018-09-26T12:49:57Z</time>
      </trkpt>
      <trkpt lat="45.50843" lon="2.60623">
        <ele>865</ele>
        <time>2018-09-26T12:49:57Z</time>
      </trkpt>
      <trkpt lat="45.50841" lon="2.60621">
        <ele>865</ele>
        <time>2018-09-26T12:49:57Z</time>
      </trkpt>
      <trkpt lat="45.50841" lon="2.60618">
        <ele>865</ele>
        <time>2018-09-26T12:49:57Z</time>
      </trkpt>
      <trkpt lat="45.50839" lon="2.60615">
        <ele>865</ele>
        <time>2018-09-26T12:49:57Z</time>
      </trkpt>
      <trkpt lat="45.50837" lon="2.60612">
        <ele>865</ele>
        <time>2018-09-26T12:49:57Z</time>
      </trkpt>
      <trkpt lat="45.50836" lon="2.60609">
        <ele>865</ele>
        <time>2018-09-26T12:49:57Z</time>
      </trkpt>
      <trkpt lat="45.50834" lon="2.60606">
        <ele>865</ele>
        <time>2018-09-26T12:49:57Z</time>
      </trkpt>
      <trkpt lat="45.50832" lon="2.60604">
        <ele>865</ele>
        <time>2018-09-26T12:49:57Z</time>
      </trkpt>
      <trkpt lat="45.50831" lon="2.60602">
        <ele>865</ele>
        <time>2018-09-26T12:49:57Z</time>
      </trkpt>
      <trkpt lat="45.5083" lon="2.606">
        <ele>864</ele>
        <time>2018-09-26T12:49:57Z</time>
      </trkpt>
      <trkpt lat="45.50828" lon="2.60598">
        <ele>864</ele>
        <time>2018-09-26T12:49:57Z</time>
      </trkpt>
      <trkpt lat="45.50827" lon="2.60596">
        <ele>864</ele>
        <time>2018-09-26T12:49:57Z</time>
      </trkpt>
      <trkpt lat="45.50825" lon="2.60595">
        <ele>864</ele>
        <time>2018-09-26T12:49:57Z</time>
      </trkpt>
      <trkpt lat="45.50823" lon="2.60593">
        <ele>864</ele>
        <time>2018-09-26T12:49:57Z</time>
      </trkpt>
      <trkpt lat="45.50821" lon="2.60591">
        <ele>864</ele>
        <time>2018-09-26T12:49:57Z</time>
      </trkpt>
      <trkpt lat="45.50819" lon="2.60589">
        <ele>864</ele>
        <time>2018-09-26T12:49:57Z</time>
      </trkpt>
      <trkpt lat="45.50817" lon="2.60587">
        <ele>864</ele>
        <time>2018-09-26T12:49:57Z</time>
      </trkpt>
      <trkpt lat="45.50816" lon="2.60585">
        <ele>864</ele>
        <time>2018-09-26T12:49:57Z</time>
      </trkpt>
      <trkpt lat="45.50814" lon="2.60583">
        <ele>864</ele>
        <time>2018-09-26T12:49:57Z</time>
      </trkpt>
      <trkpt lat="45.50812" lon="2.60582">
        <ele>864</ele>
        <time>2018-09-26T12:49:57Z</time>
      </trkpt>
      <trkpt lat="45.50811" lon="2.6058">
        <ele>864</ele>
        <time>2018-09-26T12:49:57Z</time>
      </trkpt>
      <trkpt lat="45.50808" lon="2.60576">
        <ele>864</ele>
        <time>2018-09-26T12:49:57Z</time>
      </trkpt>
      <trkpt lat="45.50806" lon="2.60574">
        <ele>863</ele>
        <time>2018-09-26T12:49:57Z</time>
      </trkpt>
      <trkpt lat="45.50803" lon="2.60571">
        <ele>863</ele>
        <time>2018-09-26T12:49:57Z</time>
      </trkpt>
      <trkpt lat="45.50801" lon="2.60569">
        <ele>863</ele>
        <time>2018-09-26T12:49:57Z</time>
      </trkpt>
      <trkpt lat="45.50799" lon="2.60566">
        <ele>863</ele>
        <time>2018-09-26T12:49:57Z</time>
      </trkpt>
      <trkpt lat="45.50797" lon="2.60564">
        <ele>863</ele>
        <time>2018-09-26T12:49:57Z</time>
      </trkpt>
      <trkpt lat="45.50797" lon="2.60563">
        <ele>863</ele>
        <time>2018-09-26T12:49:57Z</time>
      </trkpt>
      <trkpt lat="45.50789" lon="2.60553">
        <ele>862</ele>
        <time>2018-09-26T12:49:57Z</time>
      </trkpt>
      <trkpt lat="45.50789" lon="2.60553">
        <ele>862</ele>
        <time>2018-09-26T12:49:57Z</time>
      </trkpt>
      <trkpt lat="45.50788" lon="2.60554">
        <ele>862</ele>
        <time>2018-09-26T12:49:57Z</time>
      </trkpt>
      <trkpt lat="45.50787" lon="2.60553">
        <ele>862</ele>
        <time>2018-09-26T12:49:57Z</time>
      </trkpt>
      <trkpt lat="45.50785" lon="2.60552">
        <ele>862</ele>
        <time>2018-09-26T12:49:57Z</time>
      </trkpt>
      <trkpt lat="45.50783" lon="2.6055">
        <ele>862</ele>
        <time>2018-09-26T12:49:57Z</time>
      </trkpt>
      <trkpt lat="45.50781" lon="2.60548">
        <ele>862</ele>
        <time>2018-09-26T12:49:57Z</time>
      </trkpt>
      <trkpt lat="45.5078" lon="2.60546">
        <ele>862</ele>
        <time>2018-09-26T12:49:57Z</time>
      </trkpt>
      <trkpt lat="45.50778" lon="2.60544">
        <ele>862</ele>
        <time>2018-09-26T12:49:57Z</time>
      </trkpt>
      <trkpt lat="45.50777" lon="2.60542">
        <ele>862</ele>
        <time>2018-09-26T12:49:57Z</time>
      </trkpt>
      <trkpt lat="45.50775" lon="2.6054">
        <ele>862</ele>
        <time>2018-09-26T12:49:57Z</time>
      </trkpt>
      <trkpt lat="45.50774" lon="2.60539">
        <ele>862</ele>
        <time>2018-09-26T12:49:57Z</time>
      </trkpt>
      <trkpt lat="45.50772" lon="2.60537">
        <ele>862</ele>
        <time>2018-09-26T12:49:57Z</time>
      </trkpt>
      <trkpt lat="45.50771" lon="2.60534">
        <ele>862</ele>
        <time>2018-09-26T12:49:57Z</time>
      </trkpt>
      <trkpt lat="45.50769" lon="2.60532">
        <ele>862</ele>
        <time>2018-09-26T12:49:57Z</time>
      </trkpt>
      <trkpt lat="45.50768" lon="2.60529">
        <ele>862</ele>
        <time>2018-09-26T12:49:57Z</time>
      </trkpt>
      <trkpt lat="45.50766" lon="2.60526">
        <ele>862</ele>
        <time>2018-09-26T12:49:57Z</time>
      </trkpt>
      <trkpt lat="45.50765" lon="2.60524">
        <ele>862</ele>
        <time>2018-09-26T12:49:57Z</time>
      </trkpt>
      <trkpt lat="45.50763" lon="2.60521">
        <ele>862</ele>
        <time>2018-09-26T12:49:57Z</time>
      </trkpt>
      <trkpt lat="45.50761" lon="2.60518">
        <ele>862</ele>
        <time>2018-09-26T12:49:57Z</time>
      </trkpt>
      <trkpt lat="45.5076" lon="2.60515">
        <ele>862</ele>
        <time>2018-09-26T12:49:57Z</time>
      </trkpt>
      <trkpt lat="45.50759" lon="2.60513">
        <ele>862</ele>
        <time>2018-09-26T12:49:57Z</time>
      </trkpt>
      <trkpt lat="45.50757" lon="2.6051">
        <ele>862</ele>
        <time>2018-09-26T12:49:57Z</time>
      </trkpt>
      <trkpt lat="45.50756" lon="2.60508">
        <ele>862</ele>
        <time>2018-09-26T12:49:57Z</time>
      </trkpt>
      <trkpt lat="45.50755" lon="2.60505">
        <ele>862</ele>
        <time>2018-09-26T12:49:57Z</time>
      </trkpt>
      <trkpt lat="45.50754" lon="2.60502">
        <ele>862</ele>
        <time>2018-09-26T12:49:57Z</time>
      </trkpt>
      <trkpt lat="45.50752" lon="2.60499">
        <ele>862</ele>
        <time>2018-09-26T12:49:57Z</time>
      </trkpt>
      <trkpt lat="45.50751" lon="2.60496">
        <ele>862</ele>
        <time>2018-09-26T12:49:57Z</time>
      </trkpt>
      <trkpt lat="45.50749" lon="2.60493">
        <ele>862</ele>
        <time>2018-09-26T12:49:57Z</time>
      </trkpt>
      <trkpt lat="45.50748" lon="2.6049">
        <ele>862</ele>
        <time>2018-09-26T12:49:57Z</time>
      </trkpt>
      <trkpt lat="45.50747" lon="2.60487">
        <ele>862</ele>
        <time>2018-09-26T12:49:57Z</time>
      </trkpt>
      <trkpt lat="45.50745" lon="2.60485">
        <ele>862</ele>
        <time>2018-09-26T12:49:57Z</time>
      </trkpt>
      <trkpt lat="45.50743" lon="2.60482">
        <ele>862</ele>
        <time>2018-09-26T12:49:57Z</time>
      </trkpt>
      <trkpt lat="45.50741" lon="2.6048">
        <ele>862</ele>
        <time>2018-09-26T12:49:57Z</time>
      </trkpt>
      <trkpt lat="45.50739" lon="2.60477">
        <ele>862</ele>
        <time>2018-09-26T12:49:57Z</time>
      </trkpt>
      <trkpt lat="45.50738" lon="2.60475">
        <ele>862</ele>
        <time>2018-09-26T12:49:57Z</time>
      </trkpt>
      <trkpt lat="45.50736" lon="2.60472">
        <ele>862</ele>
        <time>2018-09-26T12:49:57Z</time>
      </trkpt>
      <trkpt lat="45.50734" lon="2.60469">
        <ele>862</ele>
        <time>2018-09-26T12:49:57Z</time>
      </trkpt>
      <trkpt lat="45.50733" lon="2.60466">
        <ele>862</ele>
        <time>2018-09-26T12:49:57Z</time>
      </trkpt>
      <trkpt lat="45.50731" lon="2.60464">
        <ele>862</ele>
        <time>2018-09-26T12:49:57Z</time>
      </trkpt>
      <trkpt lat="45.5073" lon="2.60461">
        <ele>862</ele>
        <time>2018-09-26T12:49:57Z</time>
      </trkpt>
      <trkpt lat="45.50728" lon="2.60459">
        <ele>862</ele>
        <time>2018-09-26T12:49:57Z</time>
      </trkpt>
      <trkpt lat="45.50727" lon="2.60457">
        <ele>862</ele>
        <time>2018-09-26T12:49:57Z</time>
      </trkpt>
      <trkpt lat="45.50725" lon="2.60455">
        <ele>862</ele>
        <time>2018-09-26T12:49:57Z</time>
      </trkpt>
      <trkpt lat="45.50724" lon="2.60453">
        <ele>862</ele>
        <time>2018-09-26T12:49:57Z</time>
      </trkpt>
      <trkpt lat="45.50722" lon="2.60451">
        <ele>862</ele>
        <time>2018-09-26T12:49:57Z</time>
      </trkpt>
      <trkpt lat="45.5072" lon="2.60448">
        <ele>862</ele>
        <time>2018-09-26T12:49:57Z</time>
      </trkpt>
      <trkpt lat="45.50718" lon="2.60445">
        <ele>861</ele>
        <time>2018-09-26T12:49:57Z</time>
      </trkpt>
      <trkpt lat="45.50716" lon="2.60442">
        <ele>861</ele>
        <time>2018-09-26T12:49:57Z</time>
      </trkpt>
      <trkpt lat="45.50714" lon="2.60438">
        <ele>861</ele>
        <time>2018-09-26T12:49:57Z</time>
      </trkpt>
      <trkpt lat="45.50711" lon="2.60435">
        <ele>861</ele>
        <time>2018-09-26T12:49:57Z</time>
      </trkpt>
      <trkpt lat="45.50709" lon="2.60432">
        <ele>861</ele>
        <time>2018-09-26T12:49:57Z</time>
      </trkpt>
      <trkpt lat="45.50707" lon="2.60429">
        <ele>861</ele>
        <time>2018-09-26T12:49:57Z</time>
      </trkpt>
      <trkpt lat="45.50705" lon="2.60427">
        <ele>860</ele>
        <time>2018-09-26T12:49:57Z</time>
      </trkpt>
      <trkpt lat="45.50703" lon="2.60424">
        <ele>860</ele>
        <time>2018-09-26T12:49:57Z</time>
      </trkpt>
      <trkpt lat="45.50701" lon="2.60422">
        <ele>860</ele>
        <time>2018-09-26T12:49:57Z</time>
      </trkpt>
      <trkpt lat="45.50699" lon="2.60419">
        <ele>860</ele>
        <time>2018-09-26T12:49:57Z</time>
      </trkpt>
      <trkpt lat="45.50698" lon="2.60416">
        <ele>860</ele>
        <time>2018-09-26T12:49:57Z</time>
      </trkpt>
      <trkpt lat="45.50695" lon="2.60414">
        <ele>860</ele>
        <time>2018-09-26T12:49:57Z</time>
      </trkpt>
      <trkpt lat="45.50694" lon="2.60412">
        <ele>860</ele>
        <time>2018-09-26T12:49:57Z</time>
      </trkpt>
      <trkpt lat="45.50692" lon="2.6041">
        <ele>860</ele>
        <time>2018-09-26T12:49:57Z</time>
      </trkpt>
      <trkpt lat="45.50692" lon="2.60411">
        <ele>860</ele>
        <time>2018-09-26T12:49:57Z</time>
      </trkpt>
      <trkpt lat="45.50691" lon="2.6041">
        <ele>860</ele>
        <time>2018-09-26T12:49:57Z</time>
      </trkpt>
      <trkpt lat="45.50688" lon="2.60408">
        <ele>860</ele>
        <time>2018-09-26T12:49:57Z</time>
      </trkpt>
      <trkpt lat="45.50687" lon="2.60408">
        <ele>860</ele>
        <time>2018-09-26T12:49:57Z</time>
      </trkpt>
      <trkpt lat="45.50687" lon="2.60407">
        <ele>860</ele>
        <time>2018-09-26T12:49:57Z</time>
      </trkpt>
      <trkpt lat="45.50686" lon="2.60404">
        <ele>860</ele>
        <time>2018-09-26T12:49:57Z</time>
      </trkpt>
      <trkpt lat="45.50685" lon="2.60402">
        <ele>860</ele>
        <time>2018-09-26T12:49:57Z</time>
      </trkpt>
      <trkpt lat="45.50683" lon="2.604">
        <ele>860</ele>
        <time>2018-09-26T12:49:57Z</time>
      </trkpt>
      <trkpt lat="45.50682" lon="2.60397">
        <ele>860</ele>
        <time>2018-09-26T12:49:57Z</time>
      </trkpt>
      <trkpt lat="45.50681" lon="2.60395">
        <ele>860</ele>
        <time>2018-09-26T12:49:57Z</time>
      </trkpt>
      <trkpt lat="45.5068" lon="2.60392">
        <ele>860</ele>
        <time>2018-09-26T12:49:57Z</time>
      </trkpt>
      <trkpt lat="45.50679" lon="2.6039">
        <ele>860</ele>
        <time>2018-09-26T12:49:57Z</time>
      </trkpt>
      <trkpt lat="45.50678" lon="2.60387">
        <ele>860</ele>
        <time>2018-09-26T12:49:57Z</time>
      </trkpt>
      <trkpt lat="45.50677" lon="2.60384">
        <ele>860</ele>
        <time>2018-09-26T12:49:57Z</time>
      </trkpt>
      <trkpt lat="45.50677" lon="2.60381">
        <ele>860</ele>
        <time>2018-09-26T12:49:57Z</time>
      </trkpt>
      <trkpt lat="45.50676" lon="2.60378">
        <ele>860</ele>
        <time>2018-09-26T12:49:57Z</time>
      </trkpt>
      <trkpt lat="45.50676" lon="2.60375">
        <ele>860</ele>
        <time>2018-09-26T12:49:57Z</time>
      </trkpt>
      <trkpt lat="45.50674" lon="2.60372">
        <ele>860</ele>
        <time>2018-09-26T12:49:57Z</time>
      </trkpt>
      <trkpt lat="45.50673" lon="2.60368">
        <ele>859</ele>
        <time>2018-09-26T12:49:57Z</time>
      </trkpt>
      <trkpt lat="45.50672" lon="2.60365">
        <ele>859</ele>
        <time>2018-09-26T12:49:57Z</time>
      </trkpt>
      <trkpt lat="45.50672" lon="2.60362">
        <ele>859</ele>
        <time>2018-09-26T12:49:57Z</time>
      </trkpt>
      <trkpt lat="45.5067" lon="2.60359">
        <ele>859</ele>
        <time>2018-09-26T12:49:57Z</time>
      </trkpt>
      <trkpt lat="45.50669" lon="2.60356">
        <ele>859</ele>
        <time>2018-09-26T12:49:57Z</time>
      </trkpt>
      <trkpt lat="45.50668" lon="2.60353">
        <ele>859</ele>
        <time>2018-09-26T12:49:57Z</time>
      </trkpt>
      <trkpt lat="45.50667" lon="2.6035">
        <ele>859</ele>
        <time>2018-09-26T12:49:57Z</time>
      </trkpt>
      <trkpt lat="45.50666" lon="2.60347">
        <ele>859</ele>
        <time>2018-09-26T12:49:57Z</time>
      </trkpt>
      <trkpt lat="45.50665" lon="2.60344">
        <ele>859</ele>
        <time>2018-09-26T12:49:57Z</time>
      </trkpt>
      <trkpt lat="45.50664" lon="2.60342">
        <ele>859</ele>
        <time>2018-09-26T12:49:57Z</time>
      </trkpt>
      <trkpt lat="45.50663" lon="2.60341">
        <ele>859</ele>
        <time>2018-09-26T12:49:57Z</time>
      </trkpt>
      <trkpt lat="45.50663" lon="2.60338">
        <ele>859</ele>
        <time>2018-09-26T12:49:57Z</time>
      </trkpt>
      <trkpt lat="45.50661" lon="2.60335">
        <ele>858</ele>
        <time>2018-09-26T12:49:57Z</time>
      </trkpt>
      <trkpt lat="45.50659" lon="2.60333">
        <ele>858</ele>
        <time>2018-09-26T12:49:57Z</time>
      </trkpt>
      <trkpt lat="45.50658" lon="2.60331">
        <ele>858</ele>
        <time>2018-09-26T12:49:57Z</time>
      </trkpt>
      <trkpt lat="45.50657" lon="2.60329">
        <ele>858</ele>
        <time>2018-09-26T12:49:57Z</time>
      </trkpt>
      <trkpt lat="45.50656" lon="2.60327">
        <ele>858</ele>
        <time>2018-09-26T12:49:57Z</time>
      </trkpt>
      <trkpt lat="45.50655" lon="2.60326">
        <ele>858</ele>
        <time>2018-09-26T12:49:57Z</time>
      </trkpt>
      <trkpt lat="45.50654" lon="2.60323">
        <ele>858</ele>
        <time>2018-09-26T12:49:57Z</time>
      </trkpt>
      <trkpt lat="45.50652" lon="2.6032">
        <ele>857</ele>
        <time>2018-09-26T12:49:57Z</time>
      </trkpt>
      <trkpt lat="45.5065" lon="2.60317">
        <ele>857</ele>
        <time>2018-09-26T12:49:57Z</time>
      </trkpt>
      <trkpt lat="45.50648" lon="2.60314">
        <ele>857</ele>
        <time>2018-09-26T12:49:57Z</time>
      </trkpt>
      <trkpt lat="45.50646" lon="2.6031">
        <ele>857</ele>
        <time>2018-09-26T12:49:57Z</time>
      </trkpt>
      <trkpt lat="45.50645" lon="2.60307">
        <ele>856</ele>
        <time>2018-09-26T12:49:57Z</time>
      </trkpt>
      <trkpt lat="45.50643" lon="2.60303">
        <ele>856</ele>
        <time>2018-09-26T12:49:57Z</time>
      </trkpt>
      <trkpt lat="45.50642" lon="2.603">
        <ele>856</ele>
        <time>2018-09-26T12:49:57Z</time>
      </trkpt>
      <trkpt lat="45.50641" lon="2.60296">
        <ele>856</ele>
        <time>2018-09-26T12:49:57Z</time>
      </trkpt>
      <trkpt lat="45.5064" lon="2.60294">
        <ele>856</ele>
        <time>2018-09-26T12:49:57Z</time>
      </trkpt>
      <trkpt lat="45.50639" lon="2.60291">
        <ele>856</ele>
        <time>2018-09-26T12:49:57Z</time>
      </trkpt>
      <trkpt lat="45.50638" lon="2.60289">
        <ele>855</ele>
        <time>2018-09-26T12:49:57Z</time>
      </trkpt>
      <trkpt lat="45.50636" lon="2.60287">
        <ele>855</ele>
        <time>2018-09-26T12:49:57Z</time>
      </trkpt>
      <trkpt lat="45.50635" lon="2.60285">
        <ele>855</ele>
        <time>2018-09-26T12:49:57Z</time>
      </trkpt>
      <trkpt lat="45.50634" lon="2.60283">
        <ele>855</ele>
        <time>2018-09-26T12:49:57Z</time>
      </trkpt>
      <trkpt lat="45.50633" lon="2.60281">
        <ele>855</ele>
        <time>2018-09-26T12:49:57Z</time>
      </trkpt>
      <trkpt lat="45.50632" lon="2.60279">
        <ele>854</ele>
        <time>2018-09-26T12:49:57Z</time>
      </trkpt>
      <trkpt lat="45.5063" lon="2.60277">
        <ele>854</ele>
        <time>2018-09-26T12:49:57Z</time>
      </trkpt>
      <trkpt lat="45.50628" lon="2.60276">
        <ele>854</ele>
        <time>2018-09-26T12:49:57Z</time>
      </trkpt>
      <trkpt lat="45.50627" lon="2.60274">
        <ele>854</ele>
        <time>2018-09-26T12:49:57Z</time>
      </trkpt>
      <trkpt lat="45.50625" lon="2.60272">
        <ele>853</ele>
        <time>2018-09-26T12:49:57Z</time>
      </trkpt>
      <trkpt lat="45.50624" lon="2.60269">
        <ele>853</ele>
        <time>2018-09-26T12:49:57Z</time>
      </trkpt>
      <trkpt lat="45.50623" lon="2.60267">
        <ele>853</ele>
        <time>2018-09-26T12:49:57Z</time>
      </trkpt>
      <trkpt lat="45.50622" lon="2.60265">
        <ele>853</ele>
        <time>2018-09-26T12:49:57Z</time>
      </trkpt>
      <trkpt lat="45.5062" lon="2.60263">
        <ele>853</ele>
        <time>2018-09-26T12:49:57Z</time>
      </trkpt>
      <trkpt lat="45.50618" lon="2.60259">
        <ele>852</ele>
        <time>2018-09-26T12:49:57Z</time>
      </trkpt>
      <trkpt lat="45.50617" lon="2.60257">
        <ele>852</ele>
        <time>2018-09-26T12:49:57Z</time>
      </trkpt>
      <trkpt lat="45.50615" lon="2.60254">
        <ele>852</ele>
        <time>2018-09-26T12:49:57Z</time>
      </trkpt>
      <trkpt lat="45.50614" lon="2.60251">
        <ele>852</ele>
        <time>2018-09-26T12:49:57Z</time>
      </trkpt>
      <trkpt lat="45.50612" lon="2.60247">
        <ele>851</ele>
        <time>2018-09-26T12:49:57Z</time>
      </trkpt>
      <trkpt lat="45.5061" lon="2.60244">
        <ele>851</ele>
        <time>2018-09-26T12:49:57Z</time>
      </trkpt>
      <trkpt lat="45.50608" lon="2.6024">
        <ele>851</ele>
        <time>2018-09-26T12:49:57Z</time>
      </trkpt>
      <trkpt lat="45.50607" lon="2.60237">
        <ele>851</ele>
        <time>2018-09-26T12:49:57Z</time>
      </trkpt>
      <trkpt lat="45.50605" lon="2.60234">
        <ele>851</ele>
        <time>2018-09-26T12:49:57Z</time>
      </trkpt>
      <trkpt lat="45.50604" lon="2.6023">
        <ele>850</ele>
        <time>2018-09-26T12:49:57Z</time>
      </trkpt>
      <trkpt lat="45.50602" lon="2.60226">
        <ele>850</ele>
        <time>2018-09-26T12:49:57Z</time>
      </trkpt>
      <trkpt lat="45.50601" lon="2.60223">
        <ele>850</ele>
        <time>2018-09-26T12:49:57Z</time>
      </trkpt>
      <trkpt lat="45.50599" lon="2.60221">
        <ele>850</ele>
        <time>2018-09-26T12:49:57Z</time>
      </trkpt>
      <trkpt lat="45.50598" lon="2.60218">
        <ele>850</ele>
        <time>2018-09-26T12:49:57Z</time>
      </trkpt>
      <trkpt lat="45.50596" lon="2.60216">
        <ele>850</ele>
        <time>2018-09-26T12:49:57Z</time>
      </trkpt>
      <trkpt lat="45.50595" lon="2.60214">
        <ele>850</ele>
        <time>2018-09-26T12:49:57Z</time>
      </trkpt>
      <trkpt lat="45.50594" lon="2.60212">
        <ele>849</ele>
        <time>2018-09-26T12:49:57Z</time>
      </trkpt>
      <trkpt lat="45.50593" lon="2.6021">
        <ele>849</ele>
        <time>2018-09-26T12:49:57Z</time>
      </trkpt>
      <trkpt lat="45.50591" lon="2.60207">
        <ele>849</ele>
        <time>2018-09-26T12:49:57Z</time>
      </trkpt>
      <trkpt lat="45.5059" lon="2.60205">
        <ele>849</ele>
        <time>2018-09-26T12:49:57Z</time>
      </trkpt>
      <trkpt lat="45.50588" lon="2.60203">
        <ele>849</ele>
        <time>2018-09-26T12:49:57Z</time>
      </trkpt>
      <trkpt lat="45.50586" lon="2.602">
        <ele>848</ele>
        <time>2018-09-26T12:49:57Z</time>
      </trkpt>
      <trkpt lat="45.50584" lon="2.60198">
        <ele>848</ele>
        <time>2018-09-26T12:49:57Z</time>
      </trkpt>
      <trkpt lat="45.50582" lon="2.60196">
        <ele>848</ele>
        <time>2018-09-26T12:49:57Z</time>
      </trkpt>
      <trkpt lat="45.50581" lon="2.60195">
        <ele>848</ele>
        <time>2018-09-26T12:49:57Z</time>
      </trkpt>
      <trkpt lat="45.5058" lon="2.60195">
        <ele>848</ele>
        <time>2018-09-26T12:49:57Z</time>
      </trkpt>
      <trkpt lat="45.5058" lon="2.60194">
        <ele>848</ele>
        <time>2018-09-26T12:49:57Z</time>
      </trkpt>
      <trkpt lat="45.5058" lon="2.60195">
        <ele>848</ele>
        <time>2018-09-26T12:49:57Z</time>
      </trkpt>
      <trkpt lat="45.5058" lon="2.60195">
        <ele>848</ele>
        <time>2018-09-26T12:49:57Z</time>
      </trkpt>
      <trkpt lat="45.5058" lon="2.60196">
        <ele>848</ele>
        <time>2018-09-26T12:49:57Z</time>
      </trkpt>
      <trkpt lat="45.50579" lon="2.60198">
        <ele>847</ele>
        <time>2018-09-26T12:49:57Z</time>
      </trkpt>
      <trkpt lat="45.50577" lon="2.602">
        <ele>847</ele>
        <time>2018-09-26T12:49:57Z</time>
      </trkpt>
      <trkpt lat="45.50576" lon="2.60202">
        <ele>847</ele>
        <time>2018-09-26T12:49:57Z</time>
      </trkpt>
      <trkpt lat="45.50574" lon="2.60204">
        <ele>846</ele>
        <time>2018-09-26T12:49:57Z</time>
      </trkpt>
      <trkpt lat="45.50572" lon="2.60206">
        <ele>846</ele>
        <time>2018-09-26T12:49:57Z</time>
      </trkpt>
      <trkpt lat="45.5057" lon="2.60208">
        <ele>846</ele>
        <time>2018-09-26T12:49:57Z</time>
      </trkpt>
      <trkpt lat="45.50568" lon="2.60211">
        <ele>845</ele>
        <time>2018-09-26T12:49:57Z</time>
      </trkpt>
      <trkpt lat="45.50567" lon="2.60214">
        <ele>845</ele>
        <time>2018-09-26T12:49:57Z</time>
      </trkpt>
      <trkpt lat="45.50565" lon="2.60216">
        <ele>844</ele>
        <time>2018-09-26T12:49:57Z</time>
      </trkpt>
      <trkpt lat="45.50564" lon="2.60217">
        <ele>844</ele>
        <time>2018-09-26T12:49:57Z</time>
      </trkpt>
      <trkpt lat="45.50562" lon="2.60218">
        <ele>844</ele>
        <time>2018-09-26T12:49:57Z</time>
      </trkpt>
      <trkpt lat="45.50559" lon="2.60219">
        <ele>843</ele>
        <time>2018-09-26T12:49:57Z</time>
      </trkpt>
      <trkpt lat="45.50556" lon="2.6022">
        <ele>843</ele>
        <time>2018-09-26T12:49:57Z</time>
      </trkpt>
      <trkpt lat="45.50555" lon="2.6022">
        <ele>842</ele>
        <time>2018-09-26T12:49:57Z</time>
      </trkpt>
      <trkpt lat="45.50554" lon="2.60219">
        <ele>842</ele>
        <time>2018-09-26T12:49:57Z</time>
      </trkpt>
      <trkpt lat="45.50552" lon="2.6022">
        <ele>842</ele>
        <time>2018-09-26T12:49:57Z</time>
      </trkpt>
      <trkpt lat="45.50551" lon="2.60221">
        <ele>842</ele>
        <time>2018-09-26T12:49:57Z</time>
      </trkpt>
      <trkpt lat="45.5055" lon="2.60221">
        <ele>841</ele>
        <time>2018-09-26T12:49:57Z</time>
      </trkpt>
      <trkpt lat="45.50547" lon="2.60221">
        <ele>841</ele>
        <time>2018-09-26T12:49:57Z</time>
      </trkpt>
      <trkpt lat="45.50545" lon="2.6022">
        <ele>841</ele>
        <time>2018-09-26T12:49:57Z</time>
      </trkpt>
      <trkpt lat="45.50543" lon="2.60219">
        <ele>840</ele>
        <time>2018-09-26T12:49:57Z</time>
      </trkpt>
      <trkpt lat="45.50541" lon="2.60218">
        <ele>840</ele>
        <time>2018-09-26T12:49:57Z</time>
      </trkpt>
      <trkpt lat="45.50538" lon="2.60216">
        <ele>840</ele>
        <time>2018-09-26T12:49:57Z</time>
      </trkpt>
      <trkpt lat="45.50536" lon="2.60215">
        <ele>839</ele>
        <time>2018-09-26T12:49:57Z</time>
      </trkpt>
      <trkpt lat="45.50534" lon="2.60214">
        <ele>839</ele>
        <time>2018-09-26T12:49:57Z</time>
      </trkpt>
      <trkpt lat="45.50531" lon="2.60213">
        <ele>839</ele>
        <time>2018-09-26T12:49:57Z</time>
      </trkpt>
      <trkpt lat="45.50529" lon="2.60212">
        <ele>838</ele>
        <time>2018-09-26T12:49:57Z</time>
      </trkpt>
      <trkpt lat="45.50527" lon="2.60211">
        <ele>838</ele>
        <time>2018-09-26T12:49:57Z</time>
      </trkpt>
      <trkpt lat="45.50525" lon="2.60209">
        <ele>838</ele>
        <time>2018-09-26T12:49:57Z</time>
      </trkpt>
      <trkpt lat="45.50523" lon="2.60207">
        <ele>837</ele>
        <time>2018-09-26T12:49:57Z</time>
      </trkpt>
      <trkpt lat="45.50521" lon="2.60205">
        <ele>837</ele>
        <time>2018-09-26T12:49:57Z</time>
      </trkpt>
      <trkpt lat="45.50519" lon="2.60203">
        <ele>837</ele>
        <time>2018-09-26T12:49:57Z</time>
      </trkpt>
      <trkpt lat="45.50518" lon="2.602">
        <ele>837</ele>
        <time>2018-09-26T12:49:57Z</time>
      </trkpt>
      <trkpt lat="45.50516" lon="2.60197">
        <ele>837</ele>
        <time>2018-09-26T12:49:57Z</time>
      </trkpt>
      <trkpt lat="45.50514" lon="2.60194">
        <ele>836</ele>
        <time>2018-09-26T12:49:57Z</time>
      </trkpt>
      <trkpt lat="45.50514" lon="2.60192">
        <ele>836</ele>
        <time>2018-09-26T12:49:57Z</time>
      </trkpt>
      <trkpt lat="45.50513" lon="2.6019">
        <ele>836</ele>
        <time>2018-09-26T12:49:57Z</time>
      </trkpt>
      <trkpt lat="45.50511" lon="2.60187">
        <ele>836</ele>
        <time>2018-09-26T12:49:57Z</time>
      </trkpt>
      <trkpt lat="45.50509" lon="2.60185">
        <ele>836</ele>
        <time>2018-09-26T12:49:57Z</time>
      </trkpt>
      <trkpt lat="45.50508" lon="2.60183">
        <ele>835</ele>
        <time>2018-09-26T12:49:57Z</time>
      </trkpt>
      <trkpt lat="45.50507" lon="2.60181">
        <ele>835</ele>
        <time>2018-09-26T12:49:57Z</time>
      </trkpt>
      <trkpt lat="45.50506" lon="2.6018">
        <ele>835</ele>
        <time>2018-09-26T12:49:57Z</time>
      </trkpt>
      <trkpt lat="45.50503" lon="2.60177">
        <ele>835</ele>
        <time>2018-09-26T12:49:57Z</time>
      </trkpt>
      <trkpt lat="45.50502" lon="2.60176">
        <ele>835</ele>
        <time>2018-09-26T12:49:57Z</time>
      </trkpt>
      <trkpt lat="45.505" lon="2.60174">
        <ele>834</ele>
        <time>2018-09-26T12:49:57Z</time>
      </trkpt>
      <trkpt lat="45.50498" lon="2.60171">
        <ele>834</ele>
        <time>2018-09-26T12:49:57Z</time>
      </trkpt>
      <trkpt lat="45.50496" lon="2.60169">
        <ele>834</ele>
        <time>2018-09-26T12:49:57Z</time>
      </trkpt>
      <trkpt lat="45.50494" lon="2.60167">
        <ele>834</ele>
        <time>2018-09-26T12:49:57Z</time>
      </trkpt>
      <trkpt lat="45.50492" lon="2.60165">
        <ele>833</ele>
        <time>2018-09-26T12:49:57Z</time>
      </trkpt>
      <trkpt lat="45.5049" lon="2.60163">
        <ele>833</ele>
        <time>2018-09-26T12:49:57Z</time>
      </trkpt>
      <trkpt lat="45.50489" lon="2.60161">
        <ele>833</ele>
        <time>2018-09-26T12:49:57Z</time>
      </trkpt>
      <trkpt lat="45.50487" lon="2.60158">
        <ele>833</ele>
        <time>2018-09-26T12:49:57Z</time>
      </trkpt>
      <trkpt lat="45.50486" lon="2.60156">
        <ele>832</ele>
        <time>2018-09-26T12:49:57Z</time>
      </trkpt>
      <trkpt lat="45.50484" lon="2.60154">
        <ele>832</ele>
        <time>2018-09-26T12:49:57Z</time>
      </trkpt>
      <trkpt lat="45.50482" lon="2.6015">
        <ele>832</ele>
        <time>2018-09-26T12:49:57Z</time>
      </trkpt>
      <trkpt lat="45.50481" lon="2.60149">
        <ele>832</ele>
        <time>2018-09-26T12:49:57Z</time>
      </trkpt>
      <trkpt lat="45.5048" lon="2.60147">
        <ele>832</ele>
        <time>2018-09-26T12:49:57Z</time>
      </trkpt>
      <trkpt lat="45.50479" lon="2.60144">
        <ele>832</ele>
        <time>2018-09-26T12:49:57Z</time>
      </trkpt>
      <trkpt lat="45.50478" lon="2.60142">
        <ele>831</ele>
        <time>2018-09-26T12:49:57Z</time>
      </trkpt>
      <trkpt lat="45.50477" lon="2.60139">
        <ele>831</ele>
        <time>2018-09-26T12:49:57Z</time>
      </trkpt>
      <trkpt lat="45.50476" lon="2.60135">
        <ele>831</ele>
        <time>2018-09-26T12:49:57Z</time>
      </trkpt>
      <trkpt lat="45.50475" lon="2.60132">
        <ele>831</ele>
        <time>2018-09-26T12:49:57Z</time>
      </trkpt>
      <trkpt lat="45.50475" lon="2.60129">
        <ele>831</ele>
        <time>2018-09-26T12:49:57Z</time>
      </trkpt>
      <trkpt lat="45.50474" lon="2.60126">
        <ele>831</ele>
        <time>2018-09-26T12:49:57Z</time>
      </trkpt>
      <trkpt lat="45.50473" lon="2.60124">
        <ele>831</ele>
        <time>2018-09-26T12:49:57Z</time>
      </trkpt>
      <trkpt lat="45.50472" lon="2.60121">
        <ele>831</ele>
        <time>2018-09-26T12:49:57Z</time>
      </trkpt>
      <trkpt lat="45.50472" lon="2.60117">
        <ele>831</ele>
        <time>2018-09-26T12:49:57Z</time>
      </trkpt>
      <trkpt lat="45.50472" lon="2.60113">
        <ele>831</ele>
        <time>2018-09-26T12:49:57Z</time>
      </trkpt>
      <trkpt lat="45.50472" lon="2.6011">
        <ele>831</ele>
        <time>2018-09-26T12:49:57Z</time>
      </trkpt>
      <trkpt lat="45.50471" lon="2.60106">
        <ele>831</ele>
        <time>2018-09-26T12:49:57Z</time>
      </trkpt>
      <trkpt lat="45.50471" lon="2.60102">
        <ele>831</ele>
        <time>2018-09-26T12:49:57Z</time>
      </trkpt>
      <trkpt lat="45.50471" lon="2.60099">
        <ele>831</ele>
        <time>2018-09-26T12:49:57Z</time>
      </trkpt>
      <trkpt lat="45.50471" lon="2.60094">
        <ele>831</ele>
        <time>2018-09-26T12:49:57Z</time>
      </trkpt>
      <trkpt lat="45.5047" lon="2.60091">
        <ele>831</ele>
        <time>2018-09-26T12:49:57Z</time>
      </trkpt>
      <trkpt lat="45.5047" lon="2.60087">
        <ele>831</ele>
        <time>2018-09-26T12:49:57Z</time>
      </trkpt>
      <trkpt lat="45.5047" lon="2.60083">
        <ele>831</ele>
        <time>2018-09-26T12:49:57Z</time>
      </trkpt>
      <trkpt lat="45.5047" lon="2.60079">
        <ele>831</ele>
        <time>2018-09-26T12:49:57Z</time>
      </trkpt>
      <trkpt lat="45.5047" lon="2.60076">
        <ele>831</ele>
        <time>2018-09-26T12:49:57Z</time>
      </trkpt>
      <trkpt lat="45.5047" lon="2.60071">
        <ele>831</ele>
        <time>2018-09-26T12:49:57Z</time>
      </trkpt>
      <trkpt lat="45.50469" lon="2.60066">
        <ele>830</ele>
        <time>2018-09-26T12:49:57Z</time>
      </trkpt>
      <trkpt lat="45.50469" lon="2.60063">
        <ele>830</ele>
        <time>2018-09-26T12:49:57Z</time>
      </trkpt>
      <trkpt lat="45.50469" lon="2.60059">
        <ele>830</ele>
        <time>2018-09-26T12:49:57Z</time>
      </trkpt>
      <trkpt lat="45.50468" lon="2.60054">
        <ele>830</ele>
        <time>2018-09-26T12:49:57Z</time>
      </trkpt>
      <trkpt lat="45.50468" lon="2.6005">
        <ele>830</ele>
        <time>2018-09-26T12:49:57Z</time>
      </trkpt>
      <trkpt lat="45.50467" lon="2.60046">
        <ele>830</ele>
        <time>2018-09-26T12:49:57Z</time>
      </trkpt>
      <trkpt lat="45.50468" lon="2.60043">
        <ele>830</ele>
        <time>2018-09-26T12:49:57Z</time>
      </trkpt>
      <trkpt lat="45.50468" lon="2.6004">
        <ele>830</ele>
        <time>2018-09-26T12:49:57Z</time>
      </trkpt>
      <trkpt lat="45.50469" lon="2.60036">
        <ele>830</ele>
        <time>2018-09-26T12:49:57Z</time>
      </trkpt>
      <trkpt lat="45.50469" lon="2.60033">
        <ele>830</ele>
        <time>2018-09-26T12:49:57Z</time>
      </trkpt>
      <trkpt lat="45.50469" lon="2.6003">
        <ele>830</ele>
        <time>2018-09-26T12:49:57Z</time>
      </trkpt>
      <trkpt lat="45.5047" lon="2.60027">
        <ele>830</ele>
        <time>2018-09-26T12:49:57Z</time>
      </trkpt>
      <trkpt lat="45.50471" lon="2.60025">
        <ele>831</ele>
        <time>2018-09-26T12:49:57Z</time>
      </trkpt>
      <trkpt lat="45.50471" lon="2.60023">
        <ele>831</ele>
        <time>2018-09-26T12:49:57Z</time>
      </trkpt>
      <trkpt lat="45.50471" lon="2.6002">
        <ele>831</ele>
        <time>2018-09-26T12:49:57Z</time>
      </trkpt>
      <trkpt lat="45.50472" lon="2.60018">
        <ele>831</ele>
        <time>2018-09-26T12:49:57Z</time>
      </trkpt>
      <trkpt lat="45.50472" lon="2.60016">
        <ele>831</ele>
        <time>2018-09-26T12:49:57Z</time>
      </trkpt>
      <trkpt lat="45.50473" lon="2.60013">
        <ele>831</ele>
        <time>2018-09-26T12:49:57Z</time>
      </trkpt>
      <trkpt lat="45.50473" lon="2.60009">
        <ele>831</ele>
        <time>2018-09-26T12:49:57Z</time>
      </trkpt>
      <trkpt lat="45.50474" lon="2.60007">
        <ele>831</ele>
        <time>2018-09-26T12:49:57Z</time>
      </trkpt>
      <trkpt lat="45.50475" lon="2.60003">
        <ele>831</ele>
        <time>2018-09-26T12:49:57Z</time>
      </trkpt>
      <trkpt lat="45.50476" lon="2.6">
        <ele>831</ele>
        <time>2018-09-26T12:49:57Z</time>
      </trkpt>
      <trkpt lat="45.50476" lon="2.59996">
        <ele>831</ele>
        <time>2018-09-26T12:49:57Z</time>
      </trkpt>
      <trkpt lat="45.50476" lon="2.59993">
        <ele>831</ele>
        <time>2018-09-26T12:49:57Z</time>
      </trkpt>
      <trkpt lat="45.50477" lon="2.59991">
        <ele>831</ele>
        <time>2018-09-26T12:49:57Z</time>
      </trkpt>
      <trkpt lat="45.50476" lon="2.59989">
        <ele>831</ele>
        <time>2018-09-26T12:49:57Z</time>
      </trkpt>
      <trkpt lat="45.50477" lon="2.59986">
        <ele>831</ele>
        <time>2018-09-26T12:49:57Z</time>
      </trkpt>
      <trkpt lat="45.50477" lon="2.59984">
        <ele>831</ele>
        <time>2018-09-26T12:49:57Z</time>
      </trkpt>
      <trkpt lat="45.50478" lon="2.59981">
        <ele>831</ele>
        <time>2018-09-26T12:49:57Z</time>
      </trkpt>
      <trkpt lat="45.50477" lon="2.59977">
        <ele>831</ele>
        <time>2018-09-26T12:49:57Z</time>
      </trkpt>
      <trkpt lat="45.50477" lon="2.59974">
        <ele>831</ele>
        <time>2018-09-26T12:49:57Z</time>
      </trkpt>
      <trkpt lat="45.50476" lon="2.5997">
        <ele>831</ele>
        <time>2018-09-26T12:49:57Z</time>
      </trkpt>
      <trkpt lat="45.50475" lon="2.59967">
        <ele>831</ele>
        <time>2018-09-26T12:49:57Z</time>
      </trkpt>
      <trkpt lat="45.50475" lon="2.59964">
        <ele>831</ele>
        <time>2018-09-26T12:49:57Z</time>
      </trkpt>
      <trkpt lat="45.50474" lon="2.59961">
        <ele>830</ele>
        <time>2018-09-26T12:49:57Z</time>
      </trkpt>
      <trkpt lat="45.50472" lon="2.59957">
        <ele>830</ele>
        <time>2018-09-26T12:49:57Z</time>
      </trkpt>
      <trkpt lat="45.5047" lon="2.59953">
        <ele>830</ele>
        <time>2018-09-26T12:49:57Z</time>
      </trkpt>
      <trkpt lat="45.50469" lon="2.59948">
        <ele>829</ele>
        <time>2018-09-26T12:49:57Z</time>
      </trkpt>
      <trkpt lat="45.50468" lon="2.59945">
        <ele>829</ele>
        <time>2018-09-26T12:49:57Z</time>
      </trkpt>
      <trkpt lat="45.50469" lon="2.59942">
        <ele>829</ele>
        <time>2018-09-26T12:49:57Z</time>
      </trkpt>
      <trkpt lat="45.50468" lon="2.59939">
        <ele>829</ele>
        <time>2018-09-26T12:49:57Z</time>
      </trkpt>
      <trkpt lat="45.50468" lon="2.59936">
        <ele>829</ele>
        <time>2018-09-26T12:49:57Z</time>
      </trkpt>
      <trkpt lat="45.50468" lon="2.59933">
        <ele>829</ele>
        <time>2018-09-26T12:49:57Z</time>
      </trkpt>
      <trkpt lat="45.50468" lon="2.59931">
        <ele>829</ele>
        <time>2018-09-26T12:49:57Z</time>
      </trkpt>
      <trkpt lat="45.50467" lon="2.59928">
        <ele>829</ele>
        <time>2018-09-26T12:49:57Z</time>
      </trkpt>
      <trkpt lat="45.50467" lon="2.59925">
        <ele>829</ele>
        <time>2018-09-26T12:49:57Z</time>
      </trkpt>
      <trkpt lat="45.50467" lon="2.59922">
        <ele>829</ele>
        <time>2018-09-26T12:49:57Z</time>
      </trkpt>
      <trkpt lat="45.50466" lon="2.59919">
        <ele>829</ele>
        <time>2018-09-26T12:49:57Z</time>
      </trkpt>
      <trkpt lat="45.50465" lon="2.59917">
        <ele>828</ele>
        <time>2018-09-26T12:49:57Z</time>
      </trkpt>
      <trkpt lat="45.50464" lon="2.59914">
        <ele>828</ele>
        <time>2018-09-26T12:49:57Z</time>
      </trkpt>
      <trkpt lat="45.50462" lon="2.59913">
        <ele>828</ele>
        <time>2018-09-26T12:49:57Z</time>
      </trkpt>
      <trkpt lat="45.50461" lon="2.59911">
        <ele>827</ele>
        <time>2018-09-26T12:49:57Z</time>
      </trkpt>
      <trkpt lat="45.50458" lon="2.59909">
        <ele>827</ele>
        <time>2018-09-26T12:49:57Z</time>
      </trkpt>
      <trkpt lat="45.50454" lon="2.59905">
        <ele>826</ele>
        <time>2018-09-26T12:49:57Z</time>
      </trkpt>
      <trkpt lat="45.5045" lon="2.59902">
        <ele>825</ele>
        <time>2018-09-26T12:49:57Z</time>
      </trkpt>
      <trkpt lat="45.50447" lon="2.599">
        <ele>825</ele>
        <time>2018-09-26T12:49:57Z</time>
      </trkpt>
      <trkpt lat="45.50444" lon="2.59899">
        <ele>824</ele>
        <time>2018-09-26T12:49:57Z</time>
      </trkpt>
      <trkpt lat="45.50441" lon="2.59899">
        <ele>823</ele>
        <time>2018-09-26T12:49:57Z</time>
      </trkpt>
      <trkpt lat="45.50438" lon="2.59898">
        <ele>823</ele>
        <time>2018-09-26T12:49:57Z</time>
      </trkpt>
      <trkpt lat="45.50435" lon="2.59898">
        <ele>822</ele>
        <time>2018-09-26T12:49:57Z</time>
      </trkpt>
      <trkpt lat="45.50433" lon="2.59897">
        <ele>822</ele>
        <time>2018-09-26T12:49:57Z</time>
      </trkpt>
      <trkpt lat="45.5043" lon="2.59896">
        <ele>821</ele>
        <time>2018-09-26T12:49:57Z</time>
      </trkpt>
      <trkpt lat="45.50427" lon="2.59896">
        <ele>821</ele>
        <time>2018-09-26T12:49:57Z</time>
      </trkpt>
      <trkpt lat="45.50424" lon="2.59895">
        <ele>820</ele>
        <time>2018-09-26T12:49:57Z</time>
      </trkpt>
      <trkpt lat="45.50422" lon="2.59895">
        <ele>820</ele>
        <time>2018-09-26T12:49:57Z</time>
      </trkpt>
      <trkpt lat="45.50419" lon="2.59894">
        <ele>819</ele>
        <time>2018-09-26T12:49:57Z</time>
      </trkpt>
      <trkpt lat="45.50417" lon="2.59893">
        <ele>819</ele>
        <time>2018-09-26T12:49:57Z</time>
      </trkpt>
      <trkpt lat="45.50414" lon="2.59892">
        <ele>818</ele>
        <time>2018-09-26T12:49:57Z</time>
      </trkpt>
      <trkpt lat="45.50412" lon="2.59891">
        <ele>817</ele>
        <time>2018-09-26T12:49:57Z</time>
      </trkpt>
      <trkpt lat="45.50409" lon="2.5989">
        <ele>817</ele>
        <time>2018-09-26T12:49:57Z</time>
      </trkpt>
      <trkpt lat="45.50406" lon="2.59889">
        <ele>817</ele>
        <time>2018-09-26T12:49:57Z</time>
      </trkpt>
      <trkpt lat="45.50404" lon="2.59888">
        <ele>816</ele>
        <time>2018-09-26T12:49:57Z</time>
      </trkpt>
      <trkpt lat="45.50402" lon="2.59886">
        <ele>816</ele>
        <time>2018-09-26T12:49:57Z</time>
      </trkpt>
      <trkpt lat="45.504" lon="2.59884">
        <ele>815</ele>
        <time>2018-09-26T12:49:57Z</time>
      </trkpt>
      <trkpt lat="45.50397" lon="2.59882">
        <ele>815</ele>
        <time>2018-09-26T12:49:57Z</time>
      </trkpt>
      <trkpt lat="45.50395" lon="2.5988">
        <ele>815</ele>
        <time>2018-09-26T12:49:57Z</time>
      </trkpt>
      <trkpt lat="45.50393" lon="2.59879">
        <ele>814</ele>
        <time>2018-09-26T12:49:57Z</time>
      </trkpt>
      <trkpt lat="45.50391" lon="2.59877">
        <ele>814</ele>
        <time>2018-09-26T12:49:57Z</time>
      </trkpt>
      <trkpt lat="45.50389" lon="2.59875">
        <ele>814</ele>
        <time>2018-09-26T12:49:57Z</time>
      </trkpt>
      <trkpt lat="45.50387" lon="2.59873">
        <ele>813</ele>
        <time>2018-09-26T12:49:57Z</time>
      </trkpt>
      <trkpt lat="45.50385" lon="2.59872">
        <ele>813</ele>
        <time>2018-09-26T12:49:57Z</time>
      </trkpt>
      <trkpt lat="45.50384" lon="2.5987">
        <ele>813</ele>
        <time>2018-09-26T12:49:57Z</time>
      </trkpt>
      <trkpt lat="45.50383" lon="2.59869">
        <ele>813</ele>
        <time>2018-09-26T12:49:57Z</time>
      </trkpt>
      <trkpt lat="45.50382" lon="2.59867">
        <ele>812</ele>
        <time>2018-09-26T12:49:57Z</time>
      </trkpt>
      <trkpt lat="45.5038" lon="2.59866">
        <ele>812</ele>
        <time>2018-09-26T12:49:57Z</time>
      </trkpt>
      <trkpt lat="45.50379" lon="2.59864">
        <ele>812</ele>
        <time>2018-09-26T12:49:57Z</time>
      </trkpt>
      <trkpt lat="45.50378" lon="2.59863">
        <ele>812</ele>
        <time>2018-09-26T12:49:57Z</time>
      </trkpt>
      <trkpt lat="45.50377" lon="2.59861">
        <ele>811</ele>
        <time>2018-09-26T12:49:57Z</time>
      </trkpt>
      <trkpt lat="45.50376" lon="2.5986">
        <ele>811</ele>
        <time>2018-09-26T12:49:57Z</time>
      </trkpt>
      <trkpt lat="45.50375" lon="2.59859">
        <ele>811</ele>
        <time>2018-09-26T12:49:57Z</time>
      </trkpt>
      <trkpt lat="45.50374" lon="2.59858">
        <ele>811</ele>
        <time>2018-09-26T12:49:57Z</time>
      </trkpt>
      <trkpt lat="45.50373" lon="2.59856">
        <ele>811</ele>
        <time>2018-09-26T12:49:57Z</time>
      </trkpt>
      <trkpt lat="45.50373" lon="2.59855">
        <ele>811</ele>
        <time>2018-09-26T12:49:57Z</time>
      </trkpt>
      <trkpt lat="45.50372" lon="2.59853">
        <ele>810</ele>
        <time>2018-09-26T12:49:57Z</time>
      </trkpt>
      <trkpt lat="45.50371" lon="2.59852">
        <ele>810</ele>
        <time>2018-09-26T12:49:57Z</time>
      </trkpt>
      <trkpt lat="45.50371" lon="2.59851">
        <ele>810</ele>
        <time>2018-09-26T12:49:57Z</time>
      </trkpt>
      <trkpt lat="45.5037" lon="2.59851">
        <ele>810</ele>
        <time>2018-09-26T12:49:57Z</time>
      </trkpt>
      <trkpt lat="45.50369" lon="2.59848">
        <ele>810</ele>
        <time>2018-09-26T12:49:57Z</time>
      </trkpt>
      <trkpt lat="45.50369" lon="2.59848">
        <ele>810</ele>
        <time>2018-09-26T12:49:57Z</time>
      </trkpt>
      <trkpt lat="45.50368" lon="2.59846">
        <ele>810</ele>
        <time>2018-09-26T12:49:57Z</time>
      </trkpt>
      <trkpt lat="45.50367" lon="2.59845">
        <ele>810</ele>
        <time>2018-09-26T12:49:57Z</time>
      </trkpt>
      <trkpt lat="45.50366" lon="2.59843">
        <ele>809</ele>
        <time>2018-09-26T12:49:57Z</time>
      </trkpt>
      <trkpt lat="45.50365" lon="2.59841">
        <ele>809</ele>
        <time>2018-09-26T12:49:57Z</time>
      </trkpt>
      <trkpt lat="45.50363" lon="2.59839">
        <ele>809</ele>
        <time>2018-09-26T12:49:57Z</time>
      </trkpt>
      <trkpt lat="45.50362" lon="2.59836">
        <ele>809</ele>
        <time>2018-09-26T12:49:57Z</time>
      </trkpt>
      <trkpt lat="45.50361" lon="2.59833">
        <ele>809</ele>
        <time>2018-09-26T12:49:57Z</time>
      </trkpt>
      <trkpt lat="45.50361" lon="2.59831">
        <ele>808</ele>
        <time>2018-09-26T12:49:57Z</time>
      </trkpt>
      <trkpt lat="45.5036" lon="2.59828">
        <ele>808</ele>
        <time>2018-09-26T12:49:57Z</time>
      </trkpt>
      <trkpt lat="45.50359" lon="2.59825">
        <ele>808</ele>
        <time>2018-09-26T12:49:57Z</time>
      </trkpt>
      <trkpt lat="45.50359" lon="2.59823">
        <ele>808</ele>
        <time>2018-09-26T12:49:57Z</time>
      </trkpt>
      <trkpt lat="45.50359" lon="2.5982">
        <ele>808</ele>
        <time>2018-09-26T12:49:57Z</time>
      </trkpt>
      <trkpt lat="45.50359" lon="2.59817">
        <ele>808</ele>
        <time>2018-09-26T12:49:57Z</time>
      </trkpt>
      <trkpt lat="45.50358" lon="2.59814">
        <ele>808</ele>
        <time>2018-09-26T12:49:57Z</time>
      </trkpt>
      <trkpt lat="45.50358" lon="2.59812">
        <ele>808</ele>
        <time>2018-09-26T12:49:57Z</time>
      </trkpt>
      <trkpt lat="45.50358" lon="2.59809">
        <ele>807</ele>
        <time>2018-09-26T12:49:57Z</time>
      </trkpt>
      <trkpt lat="45.50357" lon="2.59806">
        <ele>807</ele>
        <time>2018-09-26T12:49:57Z</time>
      </trkpt>
      <trkpt lat="45.50356" lon="2.59803">
        <ele>807</ele>
        <time>2018-09-26T12:49:57Z</time>
      </trkpt>
      <trkpt lat="45.50355" lon="2.598">
        <ele>807</ele>
        <time>2018-09-26T12:49:57Z</time>
      </trkpt>
      <trkpt lat="45.50354" lon="2.59797">
        <ele>807</ele>
        <time>2018-09-26T12:49:57Z</time>
      </trkpt>
      <trkpt lat="45.50352" lon="2.59795">
        <ele>806</ele>
        <time>2018-09-26T12:49:57Z</time>
      </trkpt>
      <trkpt lat="45.50351" lon="2.59792">
        <ele>806</ele>
        <time>2018-09-26T12:49:57Z</time>
      </trkpt>
      <trkpt lat="45.5035" lon="2.59791">
        <ele>806</ele>
        <time>2018-09-26T12:49:57Z</time>
      </trkpt>
      <trkpt lat="45.50348" lon="2.59788">
        <ele>805</ele>
        <time>2018-09-26T12:49:57Z</time>
      </trkpt>
      <trkpt lat="45.50347" lon="2.59786">
        <ele>805</ele>
        <time>2018-09-26T12:49:57Z</time>
      </trkpt>
      <trkpt lat="45.50345" lon="2.59783">
        <ele>805</ele>
        <time>2018-09-26T12:49:57Z</time>
      </trkpt>
      <trkpt lat="45.50343" lon="2.5978">
        <ele>805</ele>
        <time>2018-09-26T12:49:57Z</time>
      </trkpt>
      <trkpt lat="45.50342" lon="2.59777">
        <ele>804</ele>
        <time>2018-09-26T12:49:57Z</time>
      </trkpt>
      <trkpt lat="45.5034" lon="2.59775">
        <ele>804</ele>
        <time>2018-09-26T12:49:57Z</time>
      </trkpt>
      <trkpt lat="45.50339" lon="2.59772">
        <ele>804</ele>
        <time>2018-09-26T12:49:57Z</time>
      </trkpt>
      <trkpt lat="45.50337" lon="2.59769">
        <ele>804</ele>
        <time>2018-09-26T12:49:57Z</time>
      </trkpt>
      <trkpt lat="45.50336" lon="2.59766">
        <ele>803</ele>
        <time>2018-09-26T12:49:57Z</time>
      </trkpt>
      <trkpt lat="45.50335" lon="2.59763">
        <ele>803</ele>
        <time>2018-09-26T12:49:57Z</time>
      </trkpt>
      <trkpt lat="45.50333" lon="2.5976">
        <ele>803</ele>
        <time>2018-09-26T12:49:57Z</time>
      </trkpt>
      <trkpt lat="45.50332" lon="2.59756">
        <ele>802</ele>
        <time>2018-09-26T12:49:57Z</time>
      </trkpt>
      <trkpt lat="45.5033" lon="2.59754">
        <ele>802</ele>
        <time>2018-09-26T12:49:57Z</time>
      </trkpt>
      <trkpt lat="45.50329" lon="2.5975">
        <ele>802</ele>
        <time>2018-09-26T12:49:57Z</time>
      </trkpt>
      <trkpt lat="45.50328" lon="2.59747">
        <ele>802</ele>
        <time>2018-09-26T12:49:57Z</time>
      </trkpt>
      <trkpt lat="45.50327" lon="2.59745">
        <ele>801</ele>
        <time>2018-09-26T12:49:57Z</time>
      </trkpt>
      <trkpt lat="45.50326" lon="2.59742">
        <ele>801</ele>
        <time>2018-09-26T12:49:57Z</time>
      </trkpt>
      <trkpt lat="45.50326" lon="2.5974">
        <ele>801</ele>
        <time>2018-09-26T12:49:57Z</time>
      </trkpt>
      <trkpt lat="45.50326" lon="2.59737">
        <ele>801</ele>
        <time>2018-09-26T12:49:57Z</time>
      </trkpt>
      <trkpt lat="45.50325" lon="2.59734">
        <ele>801</ele>
        <time>2018-09-26T12:49:57Z</time>
      </trkpt>
      <trkpt lat="45.50324" lon="2.59731">
        <ele>801</ele>
        <time>2018-09-26T12:49:57Z</time>
      </trkpt>
      <trkpt lat="45.50324" lon="2.59728">
        <ele>801</ele>
        <time>2018-09-26T12:49:57Z</time>
      </trkpt>
      <trkpt lat="45.50322" lon="2.59725">
        <ele>800</ele>
        <time>2018-09-26T12:49:57Z</time>
      </trkpt>
      <trkpt lat="45.50321" lon="2.59721">
        <ele>800</ele>
        <time>2018-09-26T12:49:57Z</time>
      </trkpt>
      <trkpt lat="45.5032" lon="2.59718">
        <ele>800</ele>
        <time>2018-09-26T12:49:57Z</time>
      </trkpt>
      <trkpt lat="45.50319" lon="2.59715">
        <ele>800</ele>
        <time>2018-09-26T12:49:57Z</time>
      </trkpt>
      <trkpt lat="45.50318" lon="2.59712">
        <ele>800</ele>
        <time>2018-09-26T12:49:57Z</time>
      </trkpt>
      <trkpt lat="45.50317" lon="2.59708">
        <ele>799</ele>
        <time>2018-09-26T12:49:57Z</time>
      </trkpt>
      <trkpt lat="45.50315" lon="2.59705">
        <ele>799</ele>
        <time>2018-09-26T12:49:57Z</time>
      </trkpt>
      <trkpt lat="45.50315" lon="2.59702">
        <ele>799</ele>
        <time>2018-09-26T12:49:57Z</time>
      </trkpt>
      <trkpt lat="45.50314" lon="2.59697">
        <ele>799</ele>
        <time>2018-09-26T12:49:57Z</time>
      </trkpt>
      <trkpt lat="45.50313" lon="2.59694">
        <ele>799</ele>
        <time>2018-09-26T12:49:57Z</time>
      </trkpt>
      <trkpt lat="45.50312" lon="2.59691">
        <ele>799</ele>
        <time>2018-09-26T12:49:57Z</time>
      </trkpt>
      <trkpt lat="45.50311" lon="2.59687">
        <ele>798</ele>
        <time>2018-09-26T12:49:57Z</time>
      </trkpt>
      <trkpt lat="45.50311" lon="2.59682">
        <ele>798</ele>
        <time>2018-09-26T12:49:57Z</time>
      </trkpt>
      <trkpt lat="45.5031" lon="2.59679">
        <ele>798</ele>
        <time>2018-09-26T12:49:57Z</time>
      </trkpt>
      <trkpt lat="45.50309" lon="2.59676">
        <ele>798</ele>
        <time>2018-09-26T12:49:57Z</time>
      </trkpt>
      <trkpt lat="45.50308" lon="2.59672">
        <ele>798</ele>
        <time>2018-09-26T12:49:57Z</time>
      </trkpt>
      <trkpt lat="45.50307" lon="2.5967">
        <ele>798</ele>
        <time>2018-09-26T12:49:57Z</time>
      </trkpt>
      <trkpt lat="45.50305" lon="2.59666">
        <ele>798</ele>
        <time>2018-09-26T12:49:57Z</time>
      </trkpt>
      <trkpt lat="45.50304" lon="2.59662">
        <ele>798</ele>
        <time>2018-09-26T12:49:57Z</time>
      </trkpt>
      <trkpt lat="45.50303" lon="2.59658">
        <ele>798</ele>
        <time>2018-09-26T12:49:57Z</time>
      </trkpt>
      <trkpt lat="45.50301" lon="2.59654">
        <ele>797</ele>
        <time>2018-09-26T12:49:57Z</time>
      </trkpt>
      <trkpt lat="45.50299" lon="2.59651">
        <ele>797</ele>
        <time>2018-09-26T12:49:57Z</time>
      </trkpt>
      <trkpt lat="45.50298" lon="2.59648">
        <ele>797</ele>
        <time>2018-09-26T12:49:57Z</time>
      </trkpt>
      <trkpt lat="45.50296" lon="2.59647">
        <ele>797</ele>
        <time>2018-09-26T12:49:57Z</time>
      </trkpt>
      <trkpt lat="45.50293" lon="2.59646">
        <ele>797</ele>
        <time>2018-09-26T12:49:57Z</time>
      </trkpt>
      <trkpt lat="45.50292" lon="2.59644">
        <ele>797</ele>
        <time>2018-09-26T12:49:57Z</time>
      </trkpt>
      <trkpt lat="45.50289" lon="2.59642">
        <ele>797</ele>
        <time>2018-09-26T12:49:57Z</time>
      </trkpt>
      <trkpt lat="45.50287" lon="2.5964">
        <ele>797</ele>
        <time>2018-09-26T12:49:57Z</time>
      </trkpt>
      <trkpt lat="45.50286" lon="2.59637">
        <ele>797</ele>
        <time>2018-09-26T12:49:57Z</time>
      </trkpt>
      <trkpt lat="45.50283" lon="2.59636">
        <ele>797</ele>
        <time>2018-09-26T12:49:57Z</time>
      </trkpt>
      <trkpt lat="45.50282" lon="2.59634">
        <ele>797</ele>
        <time>2018-09-26T12:49:57Z</time>
      </trkpt>
      <trkpt lat="45.50281" lon="2.59632">
        <ele>797</ele>
        <time>2018-09-26T12:49:57Z</time>
      </trkpt>
      <trkpt lat="45.50278" lon="2.5963">
        <ele>797</ele>
        <time>2018-09-26T12:49:57Z</time>
      </trkpt>
      <trkpt lat="45.50276" lon="2.59628">
        <ele>797</ele>
        <time>2018-09-26T12:49:57Z</time>
      </trkpt>
      <trkpt lat="45.50274" lon="2.59626">
        <ele>797</ele>
        <time>2018-09-26T12:49:57Z</time>
      </trkpt>
      <trkpt lat="45.50271" lon="2.59626">
        <ele>798</ele>
        <time>2018-09-26T12:49:57Z</time>
      </trkpt>
      <trkpt lat="45.50268" lon="2.59628">
        <ele>798</ele>
        <time>2018-09-26T12:49:57Z</time>
      </trkpt>
      <trkpt lat="45.50266" lon="2.59629">
        <ele>798</ele>
        <time>2018-09-26T12:49:57Z</time>
      </trkpt>
      <trkpt lat="45.50264" lon="2.59632">
        <ele>798</ele>
        <time>2018-09-26T12:49:57Z</time>
      </trkpt>
      <trkpt lat="45.50261" lon="2.59635">
        <ele>798</ele>
        <time>2018-09-26T12:49:57Z</time>
      </trkpt>
      <trkpt lat="45.50259" lon="2.59636">
        <ele>799</ele>
        <time>2018-09-26T12:49:57Z</time>
      </trkpt>
      <trkpt lat="45.50257" lon="2.59636">
        <ele>799</ele>
        <time>2018-09-26T12:49:57Z</time>
      </trkpt>
      <trkpt lat="45.50255" lon="2.59637">
        <ele>799</ele>
        <time>2018-09-26T12:49:57Z</time>
      </trkpt>
      <trkpt lat="45.50252" lon="2.59638">
        <ele>799</ele>
        <time>2018-09-26T12:49:57Z</time>
      </trkpt>
      <trkpt lat="45.50249" lon="2.59639">
        <ele>799</ele>
        <time>2018-09-26T12:49:57Z</time>
      </trkpt>
      <trkpt lat="45.50247" lon="2.59641">
        <ele>800</ele>
        <time>2018-09-26T12:49:57Z</time>
      </trkpt>
      <trkpt lat="45.50245" lon="2.59641">
        <ele>800</ele>
        <time>2018-09-26T12:49:57Z</time>
      </trkpt>
      <trkpt lat="45.50243" lon="2.59642">
        <ele>800</ele>
        <time>2018-09-26T12:49:57Z</time>
      </trkpt>
      <trkpt lat="45.50241" lon="2.59643">
        <ele>800</ele>
        <time>2018-09-26T12:49:57Z</time>
      </trkpt>
      <trkpt lat="45.50239" lon="2.59643">
        <ele>800</ele>
        <time>2018-09-26T12:49:57Z</time>
      </trkpt>
      <trkpt lat="45.50237" lon="2.59644">
        <ele>800</ele>
        <time>2018-09-26T12:49:57Z</time>
      </trkpt>
      <trkpt lat="45.50234" lon="2.59645">
        <ele>801</ele>
        <time>2018-09-26T12:49:57Z</time>
      </trkpt>
      <trkpt lat="45.50232" lon="2.59646">
        <ele>801</ele>
        <time>2018-09-26T12:49:57Z</time>
      </trkpt>
      <trkpt lat="45.5023" lon="2.59646">
        <ele>801</ele>
        <time>2018-09-26T12:49:57Z</time>
      </trkpt>
      <trkpt lat="45.50227" lon="2.59646">
        <ele>801</ele>
        <time>2018-09-26T12:49:57Z</time>
      </trkpt>
      <trkpt lat="45.50225" lon="2.59646">
        <ele>801</ele>
        <time>2018-09-26T12:49:57Z</time>
      </trkpt>
      <trkpt lat="45.50223" lon="2.59646">
        <ele>801</ele>
        <time>2018-09-26T12:49:57Z</time>
      </trkpt>
      <trkpt lat="45.5022" lon="2.59646">
        <ele>801</ele>
        <time>2018-09-26T12:49:57Z</time>
      </trkpt>
      <trkpt lat="45.50218" lon="2.59645">
        <ele>802</ele>
        <time>2018-09-26T12:49:57Z</time>
      </trkpt>
      <trkpt lat="45.50215" lon="2.59644">
        <ele>802</ele>
        <time>2018-09-26T12:49:57Z</time>
      </trkpt>
      <trkpt lat="45.50213" lon="2.59643">
        <ele>802</ele>
        <time>2018-09-26T12:49:57Z</time>
      </trkpt>
      <trkpt lat="45.50211" lon="2.59642">
        <ele>802</ele>
        <time>2018-09-26T12:49:57Z</time>
      </trkpt>
      <trkpt lat="45.5021" lon="2.5964">
        <ele>803</ele>
        <time>2018-09-26T12:49:57Z</time>
      </trkpt>
      <trkpt lat="45.50207" lon="2.59639">
        <ele>803</ele>
        <time>2018-09-26T12:49:57Z</time>
      </trkpt>
      <trkpt lat="45.50205" lon="2.59637">
        <ele>803</ele>
        <time>2018-09-26T12:49:57Z</time>
      </trkpt>
      <trkpt lat="45.50203" lon="2.59636">
        <ele>803</ele>
        <time>2018-09-26T12:49:57Z</time>
      </trkpt>
      <trkpt lat="45.50201" lon="2.59635">
        <ele>803</ele>
        <time>2018-09-26T12:49:57Z</time>
      </trkpt>
      <trkpt lat="45.50198" lon="2.59634">
        <ele>804</ele>
        <time>2018-09-26T12:49:57Z</time>
      </trkpt>
      <trkpt lat="45.50196" lon="2.59632">
        <ele>804</ele>
        <time>2018-09-26T12:49:57Z</time>
      </trkpt>
      <trkpt lat="45.50194" lon="2.59631">
        <ele>804</ele>
        <time>2018-09-26T12:49:57Z</time>
      </trkpt>
      <trkpt lat="45.50192" lon="2.59629">
        <ele>804</ele>
        <time>2018-09-26T12:49:57Z</time>
      </trkpt>
      <trkpt lat="45.5019" lon="2.59627">
        <ele>805</ele>
        <time>2018-09-26T12:49:57Z</time>
      </trkpt>
      <trkpt lat="45.50188" lon="2.59626">
        <ele>805</ele>
        <time>2018-09-26T12:49:57Z</time>
      </trkpt>
      <trkpt lat="45.50186" lon="2.59623">
        <ele>805</ele>
        <time>2018-09-26T12:49:57Z</time>
      </trkpt>
      <trkpt lat="45.50185" lon="2.59621">
        <ele>805</ele>
        <time>2018-09-26T12:49:57Z</time>
      </trkpt>
      <trkpt lat="45.50183" lon="2.59619">
        <ele>805</ele>
        <time>2018-09-26T12:49:57Z</time>
      </trkpt>
      <trkpt lat="45.50181" lon="2.59617">
        <ele>805</ele>
        <time>2018-09-26T12:49:57Z</time>
      </trkpt>
      <trkpt lat="45.50179" lon="2.59615">
        <ele>805</ele>
        <time>2018-09-26T12:49:57Z</time>
      </trkpt>
      <trkpt lat="45.50176" lon="2.59612">
        <ele>806</ele>
        <time>2018-09-26T12:49:57Z</time>
      </trkpt>
      <trkpt lat="45.50174" lon="2.5961">
        <ele>806</ele>
        <time>2018-09-26T12:49:57Z</time>
      </trkpt>
      <trkpt lat="45.50172" lon="2.59607">
        <ele>806</ele>
        <time>2018-09-26T12:49:57Z</time>
      </trkpt>
      <trkpt lat="45.50171" lon="2.59604">
        <ele>806</ele>
        <time>2018-09-26T12:49:57Z</time>
      </trkpt>
      <trkpt lat="45.50169" lon="2.59602">
        <ele>806</ele>
        <time>2018-09-26T12:49:57Z</time>
      </trkpt>
      <trkpt lat="45.50167" lon="2.59599">
        <ele>806</ele>
        <time>2018-09-26T12:49:57Z</time>
      </trkpt>
      <trkpt lat="45.50166" lon="2.59596">
        <ele>806</ele>
        <time>2018-09-26T12:49:57Z</time>
      </trkpt>
      <trkpt lat="45.50164" lon="2.59593">
        <ele>806</ele>
        <time>2018-09-26T12:49:57Z</time>
      </trkpt>
      <trkpt lat="45.50163" lon="2.59589">
        <ele>806</ele>
        <time>2018-09-26T12:49:57Z</time>
      </trkpt>
      <trkpt lat="45.50162" lon="2.59586">
        <ele>806</ele>
        <time>2018-09-26T12:49:57Z</time>
      </trkpt>
      <trkpt lat="45.50161" lon="2.59583">
        <ele>806</ele>
        <time>2018-09-26T12:49:57Z</time>
      </trkpt>
      <trkpt lat="45.5016" lon="2.5958">
        <ele>806</ele>
        <time>2018-09-26T12:49:57Z</time>
      </trkpt>
      <trkpt lat="45.50159" lon="2.59577">
        <ele>807</ele>
        <time>2018-09-26T12:49:57Z</time>
      </trkpt>
      <trkpt lat="45.50158" lon="2.59573">
        <ele>807</ele>
        <time>2018-09-26T12:49:57Z</time>
      </trkpt>
      <trkpt lat="45.50157" lon="2.59569">
        <ele>807</ele>
        <time>2018-09-26T12:49:57Z</time>
      </trkpt>
      <trkpt lat="45.50156" lon="2.59566">
        <ele>807</ele>
        <time>2018-09-26T12:49:57Z</time>
      </trkpt>
      <trkpt lat="45.50155" lon="2.59562">
        <ele>807</ele>
        <time>2018-09-26T12:49:57Z</time>
      </trkpt>
      <trkpt lat="45.50154" lon="2.59559">
        <ele>807</ele>
        <time>2018-09-26T12:49:57Z</time>
      </trkpt>
      <trkpt lat="45.50152" lon="2.59556">
        <ele>807</ele>
        <time>2018-09-26T12:49:57Z</time>
      </trkpt>
      <trkpt lat="45.50151" lon="2.59553">
        <ele>807</ele>
        <time>2018-09-26T12:49:57Z</time>
      </trkpt>
      <trkpt lat="45.50151" lon="2.59551">
        <ele>806</ele>
        <time>2018-09-26T12:49:57Z</time>
      </trkpt>
      <trkpt lat="45.5015" lon="2.59548">
        <ele>806</ele>
        <time>2018-09-26T12:49:57Z</time>
      </trkpt>
      <trkpt lat="45.50149" lon="2.59543">
        <ele>806</ele>
        <time>2018-09-26T12:49:57Z</time>
      </trkpt>
      <trkpt lat="45.50148" lon="2.59539">
        <ele>806</ele>
        <time>2018-09-26T12:49:57Z</time>
      </trkpt>
      <trkpt lat="45.50148" lon="2.59536">
        <ele>806</ele>
        <time>2018-09-26T12:49:57Z</time>
      </trkpt>
      <trkpt lat="45.50146" lon="2.59532">
        <ele>806</ele>
        <time>2018-09-26T12:49:57Z</time>
      </trkpt>
      <trkpt lat="45.50146" lon="2.59529">
        <ele>806</ele>
        <time>2018-09-26T12:49:57Z</time>
      </trkpt>
      <trkpt lat="45.50145" lon="2.59526">
        <ele>806</ele>
        <time>2018-09-26T12:49:57Z</time>
      </trkpt>
      <trkpt lat="45.50144" lon="2.59523">
        <ele>806</ele>
        <time>2018-09-26T12:49:57Z</time>
      </trkpt>
      <trkpt lat="45.50143" lon="2.59521">
        <ele>806</ele>
        <time>2018-09-26T12:49:57Z</time>
      </trkpt>
      <trkpt lat="45.50142" lon="2.59517">
        <ele>806</ele>
        <time>2018-09-26T12:49:57Z</time>
      </trkpt>
      <trkpt lat="45.50142" lon="2.59513">
        <ele>805</ele>
        <time>2018-09-26T12:49:57Z</time>
      </trkpt>
      <trkpt lat="45.50141" lon="2.5951">
        <ele>805</ele>
        <time>2018-09-26T12:49:57Z</time>
      </trkpt>
      <trkpt lat="45.5014" lon="2.59507">
        <ele>805</ele>
        <time>2018-09-26T12:49:57Z</time>
      </trkpt>
      <trkpt lat="45.50139" lon="2.59503">
        <ele>805</ele>
        <time>2018-09-26T12:49:57Z</time>
      </trkpt>
      <trkpt lat="45.50137" lon="2.59499">
        <ele>805</ele>
        <time>2018-09-26T12:49:57Z</time>
      </trkpt>
      <trkpt lat="45.50136" lon="2.59496">
        <ele>805</ele>
        <time>2018-09-26T12:49:57Z</time>
      </trkpt>
      <trkpt lat="45.50135" lon="2.59493">
        <ele>805</ele>
        <time>2018-09-26T12:49:57Z</time>
      </trkpt>
      <trkpt lat="45.50133" lon="2.59491">
        <ele>805</ele>
        <time>2018-09-26T12:49:57Z</time>
      </trkpt>
      <trkpt lat="45.50131" lon="2.59488">
        <ele>805</ele>
        <time>2018-09-26T12:49:57Z</time>
      </trkpt>
      <trkpt lat="45.50129" lon="2.59485">
        <ele>805</ele>
        <time>2018-09-26T12:49:57Z</time>
      </trkpt>
      <trkpt lat="45.50127" lon="2.59482">
        <ele>805</ele>
        <time>2018-09-26T12:49:57Z</time>
      </trkpt>
      <trkpt lat="45.50125" lon="2.5948">
        <ele>805</ele>
        <time>2018-09-26T12:49:57Z</time>
      </trkpt>
      <trkpt lat="45.50124" lon="2.59477">
        <ele>805</ele>
        <time>2018-09-26T12:49:57Z</time>
      </trkpt>
      <trkpt lat="45.50122" lon="2.59475">
        <ele>805</ele>
        <time>2018-09-26T12:49:57Z</time>
      </trkpt>
      <trkpt lat="45.5012" lon="2.59473">
        <ele>805</ele>
        <time>2018-09-26T12:49:57Z</time>
      </trkpt>
      <trkpt lat="45.50117" lon="2.59471">
        <ele>805</ele>
        <time>2018-09-26T12:49:57Z</time>
      </trkpt>
      <trkpt lat="45.50115" lon="2.59469">
        <ele>805</ele>
        <time>2018-09-26T12:49:57Z</time>
      </trkpt>
      <trkpt lat="45.50113" lon="2.59468">
        <ele>805</ele>
        <time>2018-09-26T12:49:57Z</time>
      </trkpt>
      <trkpt lat="45.50111" lon="2.59465">
        <ele>805</ele>
        <time>2018-09-26T12:49:57Z</time>
      </trkpt>
      <trkpt lat="45.50109" lon="2.59463">
        <ele>805</ele>
        <time>2018-09-26T12:49:57Z</time>
      </trkpt>
      <trkpt lat="45.50107" lon="2.59462">
        <ele>805</ele>
        <time>2018-09-26T12:49:57Z</time>
      </trkpt>
      <trkpt lat="45.50106" lon="2.5946">
        <ele>805</ele>
        <time>2018-09-26T12:49:57Z</time>
      </trkpt>
      <trkpt lat="45.50104" lon="2.59458">
        <ele>805</ele>
        <time>2018-09-26T12:49:57Z</time>
      </trkpt>
      <trkpt lat="45.50103" lon="2.59455">
        <ele>805</ele>
        <time>2018-09-26T12:49:57Z</time>
      </trkpt>
      <trkpt lat="45.50101" lon="2.59453">
        <ele>805</ele>
        <time>2018-09-26T12:49:57Z</time>
      </trkpt>
      <trkpt lat="45.501" lon="2.59451">
        <ele>805</ele>
        <time>2018-09-26T12:49:57Z</time>
      </trkpt>
      <trkpt lat="45.50098" lon="2.59449">
        <ele>805</ele>
        <time>2018-09-26T12:49:57Z</time>
      </trkpt>
      <trkpt lat="45.50096" lon="2.59448">
        <ele>805</ele>
        <time>2018-09-26T12:49:57Z</time>
      </trkpt>
      <trkpt lat="45.50094" lon="2.59447">
        <ele>805</ele>
        <time>2018-09-26T12:49:57Z</time>
      </trkpt>
      <trkpt lat="45.50092" lon="2.59446">
        <ele>805</ele>
        <time>2018-09-26T12:49:57Z</time>
      </trkpt>
      <trkpt lat="45.5009" lon="2.59445">
        <ele>805</ele>
        <time>2018-09-26T12:49:57Z</time>
      </trkpt>
      <trkpt lat="45.50088" lon="2.59445">
        <ele>805</ele>
        <time>2018-09-26T12:49:57Z</time>
      </trkpt>
      <trkpt lat="45.50085" lon="2.59447">
        <ele>805</ele>
        <time>2018-09-26T12:49:57Z</time>
      </trkpt>
      <trkpt lat="45.50084" lon="2.59448">
        <ele>806</ele>
        <time>2018-09-26T12:49:57Z</time>
      </trkpt>
      <trkpt lat="45.50082" lon="2.59449">
        <ele>806</ele>
        <time>2018-09-26T12:49:57Z</time>
      </trkpt>
      <trkpt lat="45.5008" lon="2.5945">
        <ele>806</ele>
        <time>2018-09-26T12:49:57Z</time>
      </trkpt>
      <trkpt lat="45.50078" lon="2.59449">
        <ele>806</ele>
        <time>2018-09-26T12:49:57Z</time>
      </trkpt>
      <trkpt lat="45.50076" lon="2.59449">
        <ele>806</ele>
        <time>2018-09-26T12:49:57Z</time>
      </trkpt>
      <trkpt lat="45.50075" lon="2.5945">
        <ele>806</ele>
        <time>2018-09-26T12:49:57Z</time>
      </trkpt>
      <trkpt lat="45.50073" lon="2.5945">
        <ele>806</ele>
        <time>2018-09-26T12:49:57Z</time>
      </trkpt>
      <trkpt lat="45.50071" lon="2.59451">
        <ele>806</ele>
        <time>2018-09-26T12:49:57Z</time>
      </trkpt>
      <trkpt lat="45.5007" lon="2.59451">
        <ele>806</ele>
        <time>2018-09-26T12:49:57Z</time>
      </trkpt>
      <trkpt lat="45.50068" lon="2.59451">
        <ele>806</ele>
        <time>2018-09-26T12:49:57Z</time>
      </trkpt>
      <trkpt lat="45.50066" lon="2.59452">
        <ele>806</ele>
        <time>2018-09-26T12:49:57Z</time>
      </trkpt>
      <trkpt lat="45.50064" lon="2.59453">
        <ele>806</ele>
        <time>2018-09-26T12:49:57Z</time>
      </trkpt>
      <trkpt lat="45.50062" lon="2.59455">
        <ele>806</ele>
        <time>2018-09-26T12:49:57Z</time>
      </trkpt>
      <trkpt lat="45.5006" lon="2.59456">
        <ele>806</ele>
        <time>2018-09-26T12:49:57Z</time>
      </trkpt>
      <trkpt lat="45.50059" lon="2.59458">
        <ele>806</ele>
        <time>2018-09-26T12:49:57Z</time>
      </trkpt>
      <trkpt lat="45.50057" lon="2.5946">
        <ele>806</ele>
        <time>2018-09-26T12:49:57Z</time>
      </trkpt>
      <trkpt lat="45.50056" lon="2.59461">
        <ele>806</ele>
        <time>2018-09-26T12:49:57Z</time>
      </trkpt>
      <trkpt lat="45.50054" lon="2.59462">
        <ele>806</ele>
        <time>2018-09-26T12:49:57Z</time>
      </trkpt>
      <trkpt lat="45.50052" lon="2.59464">
        <ele>806</ele>
        <time>2018-09-26T12:49:57Z</time>
      </trkpt>
      <trkpt lat="45.5005" lon="2.59466">
        <ele>806</ele>
        <time>2018-09-26T12:49:57Z</time>
      </trkpt>
      <trkpt lat="45.50048" lon="2.59466">
        <ele>806</ele>
        <time>2018-09-26T12:49:57Z</time>
      </trkpt>
      <trkpt lat="45.50046" lon="2.59467">
        <ele>806</ele>
        <time>2018-09-26T12:49:57Z</time>
      </trkpt>
      <trkpt lat="45.50044" lon="2.59467">
        <ele>806</ele>
        <time>2018-09-26T12:49:57Z</time>
      </trkpt>
      <trkpt lat="45.50042" lon="2.59468">
        <ele>806</ele>
        <time>2018-09-26T12:49:57Z</time>
      </trkpt>
      <trkpt lat="45.5004" lon="2.59469">
        <ele>806</ele>
        <time>2018-09-26T12:49:57Z</time>
      </trkpt>
      <trkpt lat="45.50038" lon="2.5947">
        <ele>806</ele>
        <time>2018-09-26T12:49:57Z</time>
      </trkpt>
      <trkpt lat="45.50037" lon="2.59471">
        <ele>806</ele>
        <time>2018-09-26T12:49:57Z</time>
      </trkpt>
      <trkpt lat="45.50035" lon="2.59472">
        <ele>806</ele>
        <time>2018-09-26T12:49:57Z</time>
      </trkpt>
      <trkpt lat="45.50033" lon="2.59473">
        <ele>806</ele>
        <time>2018-09-26T12:49:57Z</time>
      </trkpt>
      <trkpt lat="45.50031" lon="2.59475">
        <ele>806</ele>
        <time>2018-09-26T12:49:57Z</time>
      </trkpt>
      <trkpt lat="45.50029" lon="2.59477">
        <ele>806</ele>
        <time>2018-09-26T12:49:57Z</time>
      </trkpt>
      <trkpt lat="45.50027" lon="2.5948">
        <ele>806</ele>
        <time>2018-09-26T12:49:57Z</time>
      </trkpt>
      <trkpt lat="45.50026" lon="2.59482">
        <ele>806</ele>
        <time>2018-09-26T12:49:57Z</time>
      </trkpt>
      <trkpt lat="45.50024" lon="2.59485">
        <ele>806</ele>
        <time>2018-09-26T12:49:57Z</time>
      </trkpt>
      <trkpt lat="45.50023" lon="2.59487">
        <ele>806</ele>
        <time>2018-09-26T12:49:57Z</time>
      </trkpt>
      <trkpt lat="45.50022" lon="2.5949">
        <ele>806</ele>
        <time>2018-09-26T12:49:57Z</time>
      </trkpt>
      <trkpt lat="45.5002" lon="2.59492">
        <ele>806</ele>
        <time>2018-09-26T12:49:57Z</time>
      </trkpt>
      <trkpt lat="45.50018" lon="2.59495">
        <ele>806</ele>
        <time>2018-09-26T12:49:57Z</time>
      </trkpt>
      <trkpt lat="45.50015" lon="2.59497">
        <ele>806</ele>
        <time>2018-09-26T12:49:57Z</time>
      </trkpt>
      <trkpt lat="45.50013" lon="2.59498">
        <ele>806</ele>
        <time>2018-09-26T12:49:57Z</time>
      </trkpt>
      <trkpt lat="45.50011" lon="2.59499">
        <ele>806</ele>
        <time>2018-09-26T12:49:57Z</time>
      </trkpt>
      <trkpt lat="45.5001" lon="2.59499">
        <ele>806</ele>
        <time>2018-09-26T12:49:57Z</time>
      </trkpt>
      <trkpt lat="45.50008" lon="2.59499">
        <ele>806</ele>
        <time>2018-09-26T12:49:57Z</time>
      </trkpt>
      <trkpt lat="45.50006" lon="2.59499">
        <ele>806</ele>
        <time>2018-09-26T12:49:57Z</time>
      </trkpt>
      <trkpt lat="45.50004" lon="2.59497">
        <ele>806</ele>
        <time>2018-09-26T12:49:57Z</time>
      </trkpt>
      <trkpt lat="45.50002" lon="2.59497">
        <ele>806</ele>
        <time>2018-09-26T12:49:57Z</time>
      </trkpt>
      <trkpt lat="45.49999" lon="2.59496">
        <ele>806</ele>
        <time>2018-09-26T12:49:57Z</time>
      </trkpt>
      <trkpt lat="45.49998" lon="2.59495">
        <ele>806</ele>
        <time>2018-09-26T12:49:57Z</time>
      </trkpt>
      <trkpt lat="45.49995" lon="2.59495">
        <ele>805</ele>
        <time>2018-09-26T12:49:57Z</time>
      </trkpt>
      <trkpt lat="45.49994" lon="2.59494">
        <ele>805</ele>
        <time>2018-09-26T12:49:57Z</time>
      </trkpt>
      <trkpt lat="45.4999" lon="2.59497">
        <ele>805</ele>
        <time>2018-09-26T12:49:57Z</time>
      </trkpt>
      <trkpt lat="45.4999" lon="2.59496">
        <ele>805</ele>
        <time>2018-09-26T12:49:57Z</time>
      </trkpt>
      <trkpt lat="45.4999" lon="2.59495">
        <ele>805</ele>
        <time>2018-09-26T12:49:57Z</time>
      </trkpt>
      <trkpt lat="45.49989" lon="2.59493">
        <ele>805</ele>
        <time>2018-09-26T12:49:57Z</time>
      </trkpt>
      <trkpt lat="45.49989" lon="2.59492">
        <ele>805</ele>
        <time>2018-09-26T12:49:57Z</time>
      </trkpt>
      <trkpt lat="45.49987" lon="2.59491">
        <ele>805</ele>
        <time>2018-09-26T12:49:57Z</time>
      </trkpt>
      <trkpt lat="45.49985" lon="2.5949">
        <ele>805</ele>
        <time>2018-09-26T12:49:57Z</time>
      </trkpt>
      <trkpt lat="45.49984" lon="2.59489">
        <ele>805</ele>
        <time>2018-09-26T12:49:57Z</time>
      </trkpt>
      <trkpt lat="45.49982" lon="2.59487">
        <ele>805</ele>
        <time>2018-09-26T12:49:57Z</time>
      </trkpt>
      <trkpt lat="45.4998" lon="2.59487">
        <ele>805</ele>
        <time>2018-09-26T12:49:57Z</time>
      </trkpt>
      <trkpt lat="45.49978" lon="2.59488">
        <ele>805</ele>
        <time>2018-09-26T12:49:57Z</time>
      </trkpt>
      <trkpt lat="45.49976" lon="2.59488">
        <ele>805</ele>
        <time>2018-09-26T12:49:57Z</time>
      </trkpt>
      <trkpt lat="45.49974" lon="2.59488">
        <ele>804</ele>
        <time>2018-09-26T12:49:57Z</time>
      </trkpt>
      <trkpt lat="45.49972" lon="2.59488">
        <ele>804</ele>
        <time>2018-09-26T12:49:57Z</time>
      </trkpt>
      <trkpt lat="45.4997" lon="2.59488">
        <ele>804</ele>
        <time>2018-09-26T12:49:57Z</time>
      </trkpt>
      <trkpt lat="45.49968" lon="2.59489">
        <ele>804</ele>
        <time>2018-09-26T12:49:57Z</time>
      </trkpt>
      <trkpt lat="45.49966" lon="2.59489">
        <ele>804</ele>
        <time>2018-09-26T12:49:57Z</time>
      </trkpt>
      <trkpt lat="45.49964" lon="2.59488">
        <ele>804</ele>
        <time>2018-09-26T12:49:57Z</time>
      </trkpt>
      <trkpt lat="45.49963" lon="2.59487">
        <ele>804</ele>
        <time>2018-09-26T12:49:57Z</time>
      </trkpt>
      <trkpt lat="45.49961" lon="2.59487">
        <ele>804</ele>
        <time>2018-09-26T12:49:57Z</time>
      </trkpt>
      <trkpt lat="45.4996" lon="2.59487">
        <ele>804</ele>
        <time>2018-09-26T12:49:57Z</time>
      </trkpt>
      <trkpt lat="45.49958" lon="2.59487">
        <ele>804</ele>
        <time>2018-09-26T12:49:57Z</time>
      </trkpt>
      <trkpt lat="45.49956" lon="2.59488">
        <ele>803</ele>
        <time>2018-09-26T12:49:57Z</time>
      </trkpt>
      <trkpt lat="45.49954" lon="2.59489">
        <ele>803</ele>
        <time>2018-09-26T12:49:57Z</time>
      </trkpt>
      <trkpt lat="45.49952" lon="2.59491">
        <ele>803</ele>
        <time>2018-09-26T12:49:57Z</time>
      </trkpt>
      <trkpt lat="45.4995" lon="2.59493">
        <ele>803</ele>
        <time>2018-09-26T12:49:57Z</time>
      </trkpt>
      <trkpt lat="45.49949" lon="2.59495">
        <ele>803</ele>
        <time>2018-09-26T12:49:57Z</time>
      </trkpt>
      <trkpt lat="45.49947" lon="2.59498">
        <ele>803</ele>
        <time>2018-09-26T12:49:57Z</time>
      </trkpt>
      <trkpt lat="45.49946" lon="2.59501">
        <ele>803</ele>
        <time>2018-09-26T12:49:57Z</time>
      </trkpt>
      <trkpt lat="45.49945" lon="2.59504">
        <ele>803</ele>
        <time>2018-09-26T12:49:57Z</time>
      </trkpt>
      <trkpt lat="45.49945" lon="2.59508">
        <ele>803</ele>
        <time>2018-09-26T12:49:57Z</time>
      </trkpt>
      <trkpt lat="45.49944" lon="2.59511">
        <ele>803</ele>
        <time>2018-09-26T12:49:57Z</time>
      </trkpt>
      <trkpt lat="45.49944" lon="2.59514">
        <ele>803</ele>
        <time>2018-09-26T12:49:57Z</time>
      </trkpt>
      <trkpt lat="45.49944" lon="2.59517">
        <ele>803</ele>
        <time>2018-09-26T12:49:57Z</time>
      </trkpt>
      <trkpt lat="45.49943" lon="2.5952">
        <ele>803</ele>
        <time>2018-09-26T12:49:57Z</time>
      </trkpt>
      <trkpt lat="45.49943" lon="2.59524">
        <ele>803</ele>
        <time>2018-09-26T12:49:57Z</time>
      </trkpt>
      <trkpt lat="45.49942" lon="2.59527">
        <ele>803</ele>
        <time>2018-09-26T12:49:57Z</time>
      </trkpt>
      <trkpt lat="45.49942" lon="2.5953">
        <ele>803</ele>
        <time>2018-09-26T12:49:57Z</time>
      </trkpt>
      <trkpt lat="45.49942" lon="2.59533">
        <ele>803</ele>
        <time>2018-09-26T12:49:57Z</time>
      </trkpt>
      <trkpt lat="45.49941" lon="2.59537">
        <ele>802</ele>
        <time>2018-09-26T12:49:57Z</time>
      </trkpt>
      <trkpt lat="45.4994" lon="2.59539">
        <ele>802</ele>
        <time>2018-09-26T12:49:57Z</time>
      </trkpt>
      <trkpt lat="45.49939" lon="2.59542">
        <ele>802</ele>
        <time>2018-09-26T12:49:57Z</time>
      </trkpt>
      <trkpt lat="45.49938" lon="2.59545">
        <ele>802</ele>
        <time>2018-09-26T12:49:57Z</time>
      </trkpt>
      <trkpt lat="45.49937" lon="2.59548">
        <ele>802</ele>
        <time>2018-09-26T12:49:57Z</time>
      </trkpt>
      <trkpt lat="45.49936" lon="2.5955">
        <ele>802</ele>
        <time>2018-09-26T12:49:57Z</time>
      </trkpt>
      <trkpt lat="45.49935" lon="2.59553">
        <ele>802</ele>
        <time>2018-09-26T12:49:57Z</time>
      </trkpt>
      <trkpt lat="45.49934" lon="2.59555">
        <ele>802</ele>
        <time>2018-09-26T12:49:57Z</time>
      </trkpt>
      <trkpt lat="45.49933" lon="2.59558">
        <ele>802</ele>
        <time>2018-09-26T12:49:57Z</time>
      </trkpt>
      <trkpt lat="45.49932" lon="2.5956">
        <ele>802</ele>
        <time>2018-09-26T12:49:57Z</time>
      </trkpt>
      <trkpt lat="45.4993" lon="2.59563">
        <ele>802</ele>
        <time>2018-09-26T12:49:57Z</time>
      </trkpt>
      <trkpt lat="45.49929" lon="2.59566">
        <ele>801</ele>
        <time>2018-09-26T12:49:57Z</time>
      </trkpt>
      <trkpt lat="45.49927" lon="2.59568">
        <ele>801</ele>
        <time>2018-09-26T12:49:57Z</time>
      </trkpt>
      <trkpt lat="45.49924" lon="2.59572">
        <ele>801</ele>
        <time>2018-09-26T12:49:57Z</time>
      </trkpt>
      <trkpt lat="45.49923" lon="2.59574">
        <ele>801</ele>
        <time>2018-09-26T12:49:57Z</time>
      </trkpt>
      <trkpt lat="45.49921" lon="2.59577">
        <ele>800</ele>
        <time>2018-09-26T12:49:57Z</time>
      </trkpt>
      <trkpt lat="45.49919" lon="2.5958">
        <ele>800</ele>
        <time>2018-09-26T12:49:57Z</time>
      </trkpt>
      <trkpt lat="45.49917" lon="2.59582">
        <ele>800</ele>
        <time>2018-09-26T12:49:57Z</time>
      </trkpt>
      <trkpt lat="45.49915" lon="2.59584">
        <ele>800</ele>
        <time>2018-09-26T12:49:57Z</time>
      </trkpt>
      <trkpt lat="45.49914" lon="2.59586">
        <ele>800</ele>
        <time>2018-09-26T12:49:57Z</time>
      </trkpt>
      <trkpt lat="45.49913" lon="2.59587">
        <ele>800</ele>
        <time>2018-09-26T12:49:57Z</time>
      </trkpt>
      <trkpt lat="45.49911" lon="2.5959">
        <ele>800</ele>
        <time>2018-09-26T12:49:57Z</time>
      </trkpt>
      <trkpt lat="45.49909" lon="2.59592">
        <ele>800</ele>
        <time>2018-09-26T12:49:57Z</time>
      </trkpt>
      <trkpt lat="45.49907" lon="2.59594">
        <ele>799</ele>
        <time>2018-09-26T12:49:57Z</time>
      </trkpt>
      <trkpt lat="45.49906" lon="2.59596">
        <ele>799</ele>
        <time>2018-09-26T12:49:57Z</time>
      </trkpt>
      <trkpt lat="45.49904" lon="2.59597">
        <ele>799</ele>
        <time>2018-09-26T12:49:57Z</time>
      </trkpt>
      <trkpt lat="45.49903" lon="2.59597">
        <ele>799</ele>
        <time>2018-09-26T12:49:57Z</time>
      </trkpt>
      <trkpt lat="45.49901" lon="2.59597">
        <ele>799</ele>
        <time>2018-09-26T12:49:57Z</time>
      </trkpt>
      <trkpt lat="45.49898" lon="2.59596">
        <ele>799</ele>
        <time>2018-09-26T12:49:57Z</time>
      </trkpt>
      <trkpt lat="45.49896" lon="2.59596">
        <ele>799</ele>
        <time>2018-09-26T12:49:57Z</time>
      </trkpt>
      <trkpt lat="45.49894" lon="2.59596">
        <ele>799</ele>
        <time>2018-09-26T12:49:57Z</time>
      </trkpt>
      <trkpt lat="45.49891" lon="2.59596">
        <ele>799</ele>
        <time>2018-09-26T12:49:57Z</time>
      </trkpt>
      <trkpt lat="45.49888" lon="2.59595">
        <ele>798</ele>
        <time>2018-09-26T12:49:57Z</time>
      </trkpt>
      <trkpt lat="45.49886" lon="2.59595">
        <ele>798</ele>
        <time>2018-09-26T12:49:57Z</time>
      </trkpt>
      <trkpt lat="45.49884" lon="2.59595">
        <ele>798</ele>
        <time>2018-09-26T12:49:57Z</time>
      </trkpt>
      <trkpt lat="45.49881" lon="2.59595">
        <ele>798</ele>
        <time>2018-09-26T12:49:57Z</time>
      </trkpt>
      <trkpt lat="45.49879" lon="2.59594">
        <ele>798</ele>
        <time>2018-09-26T12:49:57Z</time>
      </trkpt>
      <trkpt lat="45.49876" lon="2.59593">
        <ele>798</ele>
        <time>2018-09-26T12:49:57Z</time>
      </trkpt>
      <trkpt lat="45.49874" lon="2.59593">
        <ele>798</ele>
        <time>2018-09-26T12:49:57Z</time>
      </trkpt>
      <trkpt lat="45.49872" lon="2.59592">
        <ele>798</ele>
        <time>2018-09-26T12:49:57Z</time>
      </trkpt>
      <trkpt lat="45.4987" lon="2.59592">
        <ele>798</ele>
        <time>2018-09-26T12:49:57Z</time>
      </trkpt>
      <trkpt lat="45.49867" lon="2.59592">
        <ele>798</ele>
        <time>2018-09-26T12:49:57Z</time>
      </trkpt>
      <trkpt lat="45.49865" lon="2.59592">
        <ele>798</ele>
        <time>2018-09-26T12:49:57Z</time>
      </trkpt>
      <trkpt lat="45.49862" lon="2.59592">
        <ele>798</ele>
        <time>2018-09-26T12:49:57Z</time>
      </trkpt>
      <trkpt lat="45.4986" lon="2.59593">
        <ele>798</ele>
        <time>2018-09-26T12:49:57Z</time>
      </trkpt>
      <trkpt lat="45.49857" lon="2.59593">
        <ele>798</ele>
        <time>2018-09-26T12:49:57Z</time>
      </trkpt>
      <trkpt lat="45.49854" lon="2.59593">
        <ele>798</ele>
        <time>2018-09-26T12:49:57Z</time>
      </trkpt>
      <trkpt lat="45.49851" lon="2.59594">
        <ele>798</ele>
        <time>2018-09-26T12:49:57Z</time>
      </trkpt>
      <trkpt lat="45.49848" lon="2.59595">
        <ele>798</ele>
        <time>2018-09-26T12:49:57Z</time>
      </trkpt>
      <trkpt lat="45.49845" lon="2.59595">
        <ele>798</ele>
        <time>2018-09-26T12:49:57Z</time>
      </trkpt>
      <trkpt lat="45.49842" lon="2.59596">
        <ele>798</ele>
        <time>2018-09-26T12:49:57Z</time>
      </trkpt>
      <trkpt lat="45.4984" lon="2.59597">
        <ele>798</ele>
        <time>2018-09-26T12:49:57Z</time>
      </trkpt>
      <trkpt lat="45.49837" lon="2.59598">
        <ele>798</ele>
        <time>2018-09-26T12:49:57Z</time>
      </trkpt>
      <trkpt lat="45.49835" lon="2.59599">
        <ele>798</ele>
        <time>2018-09-26T12:49:57Z</time>
      </trkpt>
      <trkpt lat="45.49833" lon="2.59599">
        <ele>798</ele>
        <time>2018-09-26T12:49:57Z</time>
      </trkpt>
      <trkpt lat="45.4983" lon="2.59599">
        <ele>798</ele>
        <time>2018-09-26T12:49:57Z</time>
      </trkpt>
      <trkpt lat="45.49828" lon="2.596">
        <ele>798</ele>
        <time>2018-09-26T12:49:57Z</time>
      </trkpt>
      <trkpt lat="45.49826" lon="2.59601">
        <ele>798</ele>
        <time>2018-09-26T12:49:57Z</time>
      </trkpt>
      <trkpt lat="45.49824" lon="2.59602">
        <ele>798</ele>
        <time>2018-09-26T12:49:57Z</time>
      </trkpt>
      <trkpt lat="45.49821" lon="2.59602">
        <ele>798</ele>
        <time>2018-09-26T12:49:57Z</time>
      </trkpt>
      <trkpt lat="45.49819" lon="2.59603">
        <ele>798</ele>
        <time>2018-09-26T12:49:57Z</time>
      </trkpt>
      <trkpt lat="45.49817" lon="2.59603">
        <ele>798</ele>
        <time>2018-09-26T12:49:57Z</time>
      </trkpt>
      <trkpt lat="45.49814" lon="2.59602">
        <ele>798</ele>
        <time>2018-09-26T12:49:57Z</time>
      </trkpt>
      <trkpt lat="45.49812" lon="2.59602">
        <ele>798</ele>
        <time>2018-09-26T12:49:57Z</time>
      </trkpt>
      <trkpt lat="45.49809" lon="2.59602">
        <ele>798</ele>
        <time>2018-09-26T12:49:57Z</time>
      </trkpt>
      <trkpt lat="45.49806" lon="2.596">
        <ele>798</ele>
        <time>2018-09-26T12:49:57Z</time>
      </trkpt>
      <trkpt lat="45.49804" lon="2.596">
        <ele>798</ele>
        <time>2018-09-26T12:49:57Z</time>
      </trkpt>
      <trkpt lat="45.49801" lon="2.59598">
        <ele>798</ele>
        <time>2018-09-26T12:49:57Z</time>
      </trkpt>
      <trkpt lat="45.49799" lon="2.59597">
        <ele>798</ele>
        <time>2018-09-26T12:49:57Z</time>
      </trkpt>
      <trkpt lat="45.49796" lon="2.59597">
        <ele>798</ele>
        <time>2018-09-26T12:49:57Z</time>
      </trkpt>
      <trkpt lat="45.49794" lon="2.59596">
        <ele>798</ele>
        <time>2018-09-26T12:49:57Z</time>
      </trkpt>
      <trkpt lat="45.49791" lon="2.59596">
        <ele>798</ele>
        <time>2018-09-26T12:49:57Z</time>
      </trkpt>
      <trkpt lat="45.49763" lon="2.59611">
        <ele>799</ele>
        <time>2018-09-26T12:49:57Z</time>
      </trkpt>
      <trkpt lat="45.4977" lon="2.59603">
        <ele>798</ele>
        <time>2018-09-26T12:49:57Z</time>
      </trkpt>
      <trkpt lat="45.4978" lon="2.59597">
        <ele>798</ele>
        <time>2018-09-26T12:49:57Z</time>
      </trkpt>
      <trkpt lat="45.4978" lon="2.59596">
        <ele>798</ele>
        <time>2018-09-26T12:49:57Z</time>
      </trkpt>
      <trkpt lat="45.4978" lon="2.59595">
        <ele>798</ele>
        <time>2018-09-26T12:49:57Z</time>
      </trkpt>
      <trkpt lat="45.49779" lon="2.59595">
        <ele>798</ele>
        <time>2018-09-26T12:49:57Z</time>
      </trkpt>
      <trkpt lat="45.49778" lon="2.59596">
        <ele>798</ele>
        <time>2018-09-26T12:49:57Z</time>
      </trkpt>
      <trkpt lat="45.49777" lon="2.59596">
        <ele>798</ele>
        <time>2018-09-26T12:49:57Z</time>
      </trkpt>
      <trkpt lat="45.49775" lon="2.59595">
        <ele>798</ele>
        <time>2018-09-26T12:49:57Z</time>
      </trkpt>
      <trkpt lat="45.49773" lon="2.59596">
        <ele>798</ele>
        <time>2018-09-26T12:49:57Z</time>
      </trkpt>
      <trkpt lat="45.49771" lon="2.59596">
        <ele>798</ele>
        <time>2018-09-26T12:49:57Z</time>
      </trkpt>
      <trkpt lat="45.4977" lon="2.59597">
        <ele>798</ele>
        <time>2018-09-26T12:49:57Z</time>
      </trkpt>
      <trkpt lat="45.49768" lon="2.59598">
        <ele>798</ele>
        <time>2018-09-26T12:49:57Z</time>
      </trkpt>
      <trkpt lat="45.49766" lon="2.59598">
        <ele>798</ele>
        <time>2018-09-26T12:49:57Z</time>
      </trkpt>
      <trkpt lat="45.49764" lon="2.596">
        <ele>798</ele>
        <time>2018-09-26T12:49:57Z</time>
      </trkpt>
      <trkpt lat="45.49763" lon="2.59601">
        <ele>798</ele>
        <time>2018-09-26T12:49:57Z</time>
      </trkpt>
      <trkpt lat="45.49761" lon="2.59602">
        <ele>798</ele>
        <time>2018-09-26T12:49:57Z</time>
      </trkpt>
      <trkpt lat="45.49759" lon="2.59603">
        <ele>798</ele>
        <time>2018-09-26T12:49:57Z</time>
      </trkpt>
      <trkpt lat="45.49757" lon="2.59603">
        <ele>798</ele>
        <time>2018-09-26T12:49:57Z</time>
      </trkpt>
      <trkpt lat="45.49754" lon="2.59605">
        <ele>798</ele>
        <time>2018-09-26T12:49:57Z</time>
      </trkpt>
      <trkpt lat="45.49752" lon="2.59607">
        <ele>798</ele>
        <time>2018-09-26T12:49:57Z</time>
      </trkpt>
      <trkpt lat="45.4975" lon="2.59607">
        <ele>798</ele>
        <time>2018-09-26T12:49:57Z</time>
      </trkpt>
      <trkpt lat="45.49748" lon="2.59609">
        <ele>798</ele>
        <time>2018-09-26T12:49:57Z</time>
      </trkpt>
      <trkpt lat="45.49746" lon="2.59612">
        <ele>798</ele>
        <time>2018-09-26T12:49:57Z</time>
      </trkpt>
      <trkpt lat="45.49744" lon="2.59613">
        <ele>799</ele>
        <time>2018-09-26T12:49:57Z</time>
      </trkpt>
      <trkpt lat="45.49743" lon="2.59615">
        <ele>799</ele>
        <time>2018-09-26T12:49:57Z</time>
      </trkpt>
      <trkpt lat="45.4974" lon="2.59617">
        <ele>799</ele>
        <time>2018-09-26T12:49:57Z</time>
      </trkpt>
      <trkpt lat="45.49738" lon="2.5962">
        <ele>799</ele>
        <time>2018-09-26T12:49:57Z</time>
      </trkpt>
      <trkpt lat="45.49737" lon="2.59622">
        <ele>799</ele>
        <time>2018-09-26T12:49:57Z</time>
      </trkpt>
      <trkpt lat="45.49734" lon="2.59623">
        <ele>799</ele>
        <time>2018-09-26T12:49:57Z</time>
      </trkpt>
      <trkpt lat="45.49733" lon="2.59625">
        <ele>799</ele>
        <time>2018-09-26T12:49:57Z</time>
      </trkpt>
      <trkpt lat="45.49732" lon="2.59628">
        <ele>799</ele>
        <time>2018-09-26T12:49:57Z</time>
      </trkpt>
      <trkpt lat="45.4973" lon="2.5963">
        <ele>799</ele>
        <time>2018-09-26T12:49:57Z</time>
      </trkpt>
      <trkpt lat="45.49729" lon="2.59634">
        <ele>799</ele>
        <time>2018-09-26T12:49:57Z</time>
      </trkpt>
      <trkpt lat="45.49728" lon="2.59637">
        <ele>799</ele>
        <time>2018-09-26T12:49:57Z</time>
      </trkpt>
      <trkpt lat="45.49726" lon="2.59641">
        <ele>799</ele>
        <time>2018-09-26T12:49:57Z</time>
      </trkpt>
      <trkpt lat="45.49725" lon="2.59643">
        <ele>799</ele>
        <time>2018-09-26T12:49:57Z</time>
      </trkpt>
      <trkpt lat="45.49725" lon="2.59646">
        <ele>799</ele>
        <time>2018-09-26T12:49:57Z</time>
      </trkpt>
      <trkpt lat="45.49724" lon="2.59648">
        <ele>799</ele>
        <time>2018-09-26T12:49:57Z</time>
      </trkpt>
      <trkpt lat="45.49723" lon="2.59651">
        <ele>799</ele>
        <time>2018-09-26T12:49:57Z</time>
      </trkpt>
      <trkpt lat="45.49721" lon="2.59652">
        <ele>799</ele>
        <time>2018-09-26T12:49:57Z</time>
      </trkpt>
      <trkpt lat="45.4972" lon="2.59654">
        <ele>799</ele>
        <time>2018-09-26T12:49:57Z</time>
      </trkpt>
      <trkpt lat="45.49719" lon="2.59657">
        <ele>799</ele>
        <time>2018-09-26T12:49:57Z</time>
      </trkpt>
      <trkpt lat="45.49719" lon="2.5966">
        <ele>800</ele>
        <time>2018-09-26T12:49:57Z</time>
      </trkpt>
      <trkpt lat="45.49719" lon="2.59663">
        <ele>800</ele>
        <time>2018-09-26T12:49:57Z</time>
      </trkpt>
      <trkpt lat="45.49719" lon="2.59667">
        <ele>800</ele>
        <time>2018-09-26T12:49:57Z</time>
      </trkpt>
      <trkpt lat="45.49718" lon="2.59671">
        <ele>800</ele>
        <time>2018-09-26T12:49:57Z</time>
      </trkpt>
      <trkpt lat="45.49718" lon="2.59675">
        <ele>800</ele>
        <time>2018-09-26T12:49:57Z</time>
      </trkpt>
      <trkpt lat="45.49718" lon="2.59678">
        <ele>800</ele>
        <time>2018-09-26T12:49:57Z</time>
      </trkpt>
      <trkpt lat="45.49717" lon="2.59681">
        <ele>800</ele>
        <time>2018-09-26T12:49:57Z</time>
      </trkpt>
      <trkpt lat="45.49717" lon="2.59685">
        <ele>800</ele>
        <time>2018-09-26T12:49:57Z</time>
      </trkpt>
      <trkpt lat="45.49717" lon="2.59689">
        <ele>800</ele>
        <time>2018-09-26T12:49:57Z</time>
      </trkpt>
      <trkpt lat="45.49717" lon="2.59692">
        <ele>800</ele>
        <time>2018-09-26T12:49:57Z</time>
      </trkpt>
      <trkpt lat="45.49717" lon="2.59695">
        <ele>800</ele>
        <time>2018-09-26T12:49:57Z</time>
      </trkpt>
      <trkpt lat="45.49716" lon="2.59697">
        <ele>800</ele>
        <time>2018-09-26T12:49:57Z</time>
      </trkpt>
      <trkpt lat="45.49715" lon="2.597">
        <ele>800</ele>
        <time>2018-09-26T12:49:57Z</time>
      </trkpt>
      <trkpt lat="45.49714" lon="2.59702">
        <ele>800</ele>
        <time>2018-09-26T12:49:57Z</time>
      </trkpt>
      <trkpt lat="45.49714" lon="2.59704">
        <ele>800</ele>
        <time>2018-09-26T12:49:57Z</time>
      </trkpt>
      <trkpt lat="45.49713" lon="2.59706">
        <ele>800</ele>
        <time>2018-09-26T12:49:57Z</time>
      </trkpt>
      <trkpt lat="45.49712" lon="2.59707">
        <ele>800</ele>
        <time>2018-09-26T12:49:57Z</time>
      </trkpt>
      <trkpt lat="45.49711" lon="2.59708">
        <ele>800</ele>
        <time>2018-09-26T12:49:57Z</time>
      </trkpt>
      <trkpt lat="45.4971" lon="2.59708">
        <ele>800</ele>
        <time>2018-09-26T12:49:57Z</time>
      </trkpt>
      <trkpt lat="45.49709" lon="2.59708">
        <ele>800</ele>
        <time>2018-09-26T12:49:57Z</time>
      </trkpt>
      <trkpt lat="45.49707" lon="2.59708">
        <ele>800</ele>
        <time>2018-09-26T12:49:57Z</time>
      </trkpt>
      <trkpt lat="45.49706" lon="2.59708">
        <ele>800</ele>
        <time>2018-09-26T12:49:57Z</time>
      </trkpt>
      <trkpt lat="45.49703" lon="2.59709">
        <ele>799</ele>
        <time>2018-09-26T12:49:57Z</time>
      </trkpt>
      <trkpt lat="45.49701" lon="2.5971">
        <ele>799</ele>
        <time>2018-09-26T12:49:57Z</time>
      </trkpt>
      <trkpt lat="45.49699" lon="2.59711">
        <ele>799</ele>
        <time>2018-09-26T12:49:57Z</time>
      </trkpt>
      <trkpt lat="45.49697" lon="2.59712">
        <ele>799</ele>
        <time>2018-09-26T12:49:57Z</time>
      </trkpt>
      <trkpt lat="45.49695" lon="2.59711">
        <ele>799</ele>
        <time>2018-09-26T12:49:57Z</time>
      </trkpt>
      <trkpt lat="45.49693" lon="2.59712">
        <ele>799</ele>
        <time>2018-09-26T12:49:57Z</time>
      </trkpt>
      <trkpt lat="45.49691" lon="2.59714">
        <ele>799</ele>
        <time>2018-09-26T12:49:57Z</time>
      </trkpt>
      <trkpt lat="45.49688" lon="2.59717">
        <ele>799</ele>
        <time>2018-09-26T12:49:57Z</time>
      </trkpt>
      <trkpt lat="45.49686" lon="2.59719">
        <ele>799</ele>
        <time>2018-09-26T12:49:57Z</time>
      </trkpt>
      <trkpt lat="45.49683" lon="2.59722">
        <ele>799</ele>
        <time>2018-09-26T12:49:57Z</time>
      </trkpt>
      <trkpt lat="45.49681" lon="2.59723">
        <ele>799</ele>
        <time>2018-09-26T12:49:57Z</time>
      </trkpt>
      <trkpt lat="45.49679" lon="2.59725">
        <ele>799</ele>
        <time>2018-09-26T12:49:57Z</time>
      </trkpt>
      <trkpt lat="45.49677" lon="2.59728">
        <ele>799</ele>
        <time>2018-09-26T12:49:57Z</time>
      </trkpt>
      <trkpt lat="45.49676" lon="2.59731">
        <ele>799</ele>
        <time>2018-09-26T12:49:57Z</time>
      </trkpt>
      <trkpt lat="45.49675" lon="2.59734">
        <ele>799</ele>
        <time>2018-09-26T12:49:57Z</time>
      </trkpt>
      <trkpt lat="45.49674" lon="2.59735">
        <ele>799</ele>
        <time>2018-09-26T12:49:57Z</time>
      </trkpt>
      <trkpt lat="45.49673" lon="2.59739">
        <ele>799</ele>
        <time>2018-09-26T12:49:57Z</time>
      </trkpt>
      <trkpt lat="45.49672" lon="2.59742">
        <ele>799</ele>
        <time>2018-09-26T12:49:57Z</time>
      </trkpt>
      <trkpt lat="45.49673" lon="2.59745">
        <ele>799</ele>
        <time>2018-09-26T12:49:57Z</time>
      </trkpt>
      <trkpt lat="45.49672" lon="2.59749">
        <ele>799</ele>
        <time>2018-09-26T12:49:57Z</time>
      </trkpt>
      <trkpt lat="45.49672" lon="2.59751">
        <ele>799</ele>
        <time>2018-09-26T12:49:57Z</time>
      </trkpt>
      <trkpt lat="45.49672" lon="2.59754">
        <ele>799</ele>
        <time>2018-09-26T12:49:57Z</time>
      </trkpt>
      <trkpt lat="45.49672" lon="2.59757">
        <ele>800</ele>
        <time>2018-09-26T12:49:57Z</time>
      </trkpt>
      <trkpt lat="45.49672" lon="2.59761">
        <ele>800</ele>
        <time>2018-09-26T12:49:57Z</time>
      </trkpt>
      <trkpt lat="45.49672" lon="2.59764">
        <ele>800</ele>
        <time>2018-09-26T12:49:57Z</time>
      </trkpt>
      <trkpt lat="45.49671" lon="2.59767">
        <ele>800</ele>
        <time>2018-09-26T12:49:57Z</time>
      </trkpt>
      <trkpt lat="45.49671" lon="2.5977">
        <ele>800</ele>
        <time>2018-09-26T12:49:57Z</time>
      </trkpt>
      <trkpt lat="45.49671" lon="2.59773">
        <ele>800</ele>
        <time>2018-09-26T12:49:57Z</time>
      </trkpt>
      <trkpt lat="45.49671" lon="2.59778">
        <ele>800</ele>
        <time>2018-09-26T12:49:57Z</time>
      </trkpt>
      <trkpt lat="45.49669" lon="2.5978">
        <ele>800</ele>
        <time>2018-09-26T12:49:57Z</time>
      </trkpt>
      <trkpt lat="45.49666" lon="2.59782">
        <ele>800</ele>
        <time>2018-09-26T12:49:57Z</time>
      </trkpt>
      <trkpt lat="45.49664" lon="2.59784">
        <ele>800</ele>
        <time>2018-09-26T12:49:57Z</time>
      </trkpt>
      <trkpt lat="45.49663" lon="2.59788">
        <ele>800</ele>
        <time>2018-09-26T12:49:57Z</time>
      </trkpt>
      <trkpt lat="45.49664" lon="2.5979">
        <ele>800</ele>
        <time>2018-09-26T12:49:57Z</time>
      </trkpt>
      <trkpt lat="45.49665" lon="2.59793">
        <ele>800</ele>
        <time>2018-09-26T12:49:57Z</time>
      </trkpt>
      <trkpt lat="45.49666" lon="2.59795">
        <ele>800</ele>
        <time>2018-09-26T12:49:57Z</time>
      </trkpt>
      <trkpt lat="45.49665" lon="2.59798">
        <ele>800</ele>
        <time>2018-09-26T12:49:57Z</time>
      </trkpt>
      <trkpt lat="45.49662" lon="2.598">
        <ele>800</ele>
        <time>2018-09-26T12:49:57Z</time>
      </trkpt>
      <trkpt lat="45.49662" lon="2.59802">
        <ele>800</ele>
        <time>2018-09-26T12:49:57Z</time>
      </trkpt>
      <trkpt lat="45.49661" lon="2.59805">
        <ele>800</ele>
        <time>2018-09-26T12:49:57Z</time>
      </trkpt>
      <trkpt lat="45.4966" lon="2.59808">
        <ele>800</ele>
        <time>2018-09-26T12:49:57Z</time>
      </trkpt>
      <trkpt lat="45.4966" lon="2.59812">
        <ele>800</ele>
        <time>2018-09-26T12:49:57Z</time>
      </trkpt>
      <trkpt lat="45.49662" lon="2.59815">
        <ele>800</ele>
        <time>2018-09-26T12:49:57Z</time>
      </trkpt>
      <trkpt lat="45.49662" lon="2.59818">
        <ele>800</ele>
        <time>2018-09-26T12:49:57Z</time>
      </trkpt>
      <trkpt lat="45.49662" lon="2.59823">
        <ele>800</ele>
        <time>2018-09-26T12:49:57Z</time>
      </trkpt>
      <trkpt lat="45.49663" lon="2.59827">
        <ele>800</ele>
        <time>2018-09-26T12:49:57Z</time>
      </trkpt>
      <trkpt lat="45.49663" lon="2.59831">
        <ele>800</ele>
        <time>2018-09-26T12:49:57Z</time>
      </trkpt>
      <trkpt lat="45.49663" lon="2.59832">
        <ele>800</ele>
        <time>2018-09-26T12:49:57Z</time>
      </trkpt>
      <trkpt lat="45.49663" lon="2.59836">
        <ele>800</ele>
        <time>2018-09-26T12:49:57Z</time>
      </trkpt>
      <trkpt lat="45.49662" lon="2.59841">
        <ele>800</ele>
        <time>2018-09-26T12:49:57Z</time>
      </trkpt>
      <trkpt lat="45.49662" lon="2.59845">
        <ele>800</ele>
        <time>2018-09-26T12:49:57Z</time>
      </trkpt>
      <trkpt lat="45.49662" lon="2.59849">
        <ele>800</ele>
        <time>2018-09-26T12:49:57Z</time>
      </trkpt>
      <trkpt lat="45.49662" lon="2.59853">
        <ele>800</ele>
        <time>2018-09-26T12:49:57Z</time>
      </trkpt>
      <trkpt lat="45.49661" lon="2.59857">
        <ele>800</ele>
        <time>2018-09-26T12:49:57Z</time>
      </trkpt>
      <trkpt lat="45.49661" lon="2.59861">
        <ele>800</ele>
        <time>2018-09-26T12:49:57Z</time>
      </trkpt>
      <trkpt lat="45.49661" lon="2.59867">
        <ele>800</ele>
        <time>2018-09-26T12:49:57Z</time>
      </trkpt>
      <trkpt lat="45.4966" lon="2.59871">
        <ele>800</ele>
        <time>2018-09-26T12:49:57Z</time>
      </trkpt>
      <trkpt lat="45.4966" lon="2.59873">
        <ele>800</ele>
        <time>2018-09-26T12:49:57Z</time>
      </trkpt>
      <trkpt lat="45.49661" lon="2.59874">
        <ele>800</ele>
        <time>2018-09-26T12:49:57Z</time>
      </trkpt>
      <trkpt lat="45.49661" lon="2.59876">
        <ele>800</ele>
        <time>2018-09-26T12:49:57Z</time>
      </trkpt>
      <trkpt lat="45.49661" lon="2.59879">
        <ele>800</ele>
        <time>2018-09-26T12:49:57Z</time>
      </trkpt>
      <trkpt lat="45.4966" lon="2.59883">
        <ele>800</ele>
        <time>2018-09-26T12:49:57Z</time>
      </trkpt>
      <trkpt lat="45.4966" lon="2.59885">
        <ele>800</ele>
        <time>2018-09-26T12:49:57Z</time>
      </trkpt>
      <trkpt lat="45.4966" lon="2.59887">
        <ele>800</ele>
        <time>2018-09-26T12:49:57Z</time>
      </trkpt>
      <trkpt lat="45.49658" lon="2.59889">
        <ele>800</ele>
        <time>2018-09-26T12:49:57Z</time>
      </trkpt>
      <trkpt lat="45.49658" lon="2.59892">
        <ele>801</ele>
        <time>2018-09-26T12:49:57Z</time>
      </trkpt>
      <trkpt lat="45.49658" lon="2.59896">
        <ele>801</ele>
        <time>2018-09-26T12:49:57Z</time>
      </trkpt>
      <trkpt lat="45.49657" lon="2.599">
        <ele>801</ele>
        <time>2018-09-26T12:49:57Z</time>
      </trkpt>
      <trkpt lat="45.49657" lon="2.59904">
        <ele>801</ele>
        <time>2018-09-26T12:49:57Z</time>
      </trkpt>
      <trkpt lat="45.49657" lon="2.59908">
        <ele>801</ele>
        <time>2018-09-26T12:49:57Z</time>
      </trkpt>
      <trkpt lat="45.49656" lon="2.59912">
        <ele>801</ele>
        <time>2018-09-26T12:49:57Z</time>
      </trkpt>
      <trkpt lat="45.49655" lon="2.59914">
        <ele>801</ele>
        <time>2018-09-26T12:49:57Z</time>
      </trkpt>
      <trkpt lat="45.49653" lon="2.59917">
        <ele>801</ele>
        <time>2018-09-26T12:49:57Z</time>
      </trkpt>
      <trkpt lat="45.49653" lon="2.5992">
        <ele>801</ele>
        <time>2018-09-26T12:49:57Z</time>
      </trkpt>
      <trkpt lat="45.49652" lon="2.59922">
        <ele>801</ele>
        <time>2018-09-26T12:49:57Z</time>
      </trkpt>
      <trkpt lat="45.49651" lon="2.59925">
        <ele>800</ele>
        <time>2018-09-26T12:49:57Z</time>
      </trkpt>
      <trkpt lat="45.49649" lon="2.59928">
        <ele>800</ele>
        <time>2018-09-26T12:49:57Z</time>
      </trkpt>
      <trkpt lat="45.49648" lon="2.59932">
        <ele>800</ele>
        <time>2018-09-26T12:49:57Z</time>
      </trkpt>
      <trkpt lat="45.49647" lon="2.59935">
        <ele>800</ele>
        <time>2018-09-26T12:49:57Z</time>
      </trkpt>
      <trkpt lat="45.49646" lon="2.59937">
        <ele>800</ele>
        <time>2018-09-26T12:49:57Z</time>
      </trkpt>
      <trkpt lat="45.49646" lon="2.5994">
        <ele>800</ele>
        <time>2018-09-26T12:49:57Z</time>
      </trkpt>
      <trkpt lat="45.49645" lon="2.59942">
        <ele>800</ele>
        <time>2018-09-26T12:49:57Z</time>
      </trkpt>
      <trkpt lat="45.49644" lon="2.59944">
        <ele>800</ele>
        <time>2018-09-26T12:49:57Z</time>
      </trkpt>
      <trkpt lat="45.49643" lon="2.59947">
        <ele>801</ele>
        <time>2018-09-26T12:49:57Z</time>
      </trkpt>
      <trkpt lat="45.49641" lon="2.59949">
        <ele>801</ele>
        <time>2018-09-26T12:49:57Z</time>
      </trkpt>
      <trkpt lat="45.4964" lon="2.59951">
        <ele>802</ele>
        <time>2018-09-26T12:49:57Z</time>
      </trkpt>
      <trkpt lat="45.4964" lon="2.59954">
        <ele>802</ele>
        <time>2018-09-26T12:49:57Z</time>
      </trkpt>
      <trkpt lat="45.4964" lon="2.59957">
        <ele>802</ele>
        <time>2018-09-26T12:49:57Z</time>
      </trkpt>
      <trkpt lat="45.49639" lon="2.5996">
        <ele>803</ele>
        <time>2018-09-26T12:49:57Z</time>
      </trkpt>
      <trkpt lat="45.49638" lon="2.59962">
        <ele>803</ele>
        <time>2018-09-26T12:49:57Z</time>
      </trkpt>
      <trkpt lat="45.49638" lon="2.59965">
        <ele>803</ele>
        <time>2018-09-26T12:49:57Z</time>
      </trkpt>
      <trkpt lat="45.49637" lon="2.59968">
        <ele>804</ele>
        <time>2018-09-26T12:49:57Z</time>
      </trkpt>
      <trkpt lat="45.49637" lon="2.5997">
        <ele>804</ele>
        <time>2018-09-26T12:49:57Z</time>
      </trkpt>
      <trkpt lat="45.49637" lon="2.59973">
        <ele>804</ele>
        <time>2018-09-26T12:49:57Z</time>
      </trkpt>
      <trkpt lat="45.49636" lon="2.59975">
        <ele>804</ele>
        <time>2018-09-26T12:49:57Z</time>
      </trkpt>
      <trkpt lat="45.49636" lon="2.59976">
        <ele>804</ele>
        <time>2018-09-26T12:49:57Z</time>
      </trkpt>
      <trkpt lat="45.49637" lon="2.59979">
        <ele>804</ele>
        <time>2018-09-26T12:49:57Z</time>
      </trkpt>
      <trkpt lat="45.49637" lon="2.59982">
        <ele>805</ele>
        <time>2018-09-26T12:49:57Z</time>
      </trkpt>
      <trkpt lat="45.49638" lon="2.59984">
        <ele>805</ele>
        <time>2018-09-26T12:49:57Z</time>
      </trkpt>
      <trkpt lat="45.49637" lon="2.59988">
        <ele>805</ele>
        <time>2018-09-26T12:49:57Z</time>
      </trkpt>
      <trkpt lat="45.49636" lon="2.59991">
        <ele>805</ele>
        <time>2018-09-26T12:49:57Z</time>
      </trkpt>
      <trkpt lat="45.49635" lon="2.59994">
        <ele>806</ele>
        <time>2018-09-26T12:49:57Z</time>
      </trkpt>
      <trkpt lat="45.49634" lon="2.59996">
        <ele>806</ele>
        <time>2018-09-26T12:49:57Z</time>
      </trkpt>
      <trkpt lat="45.49633" lon="2.59998">
        <ele>806</ele>
        <time>2018-09-26T12:49:57Z</time>
      </trkpt>
      <trkpt lat="45.49633" lon="2.60001">
        <ele>806</ele>
        <time>2018-09-26T12:49:57Z</time>
      </trkpt>
      <trkpt lat="45.49633" lon="2.60004">
        <ele>807</ele>
        <time>2018-09-26T12:49:57Z</time>
      </trkpt>
      <trkpt lat="45.49634" lon="2.60006">
        <ele>807</ele>
        <time>2018-09-26T12:49:57Z</time>
      </trkpt>
      <trkpt lat="45.49636" lon="2.6001">
        <ele>807</ele>
        <time>2018-09-26T12:49:57Z</time>
      </trkpt>
      <trkpt lat="45.49636" lon="2.60012">
        <ele>807</ele>
        <time>2018-09-26T12:49:57Z</time>
      </trkpt>
      <trkpt lat="45.49636" lon="2.60014">
        <ele>808</ele>
        <time>2018-09-26T12:49:57Z</time>
      </trkpt>
      <trkpt lat="45.49635" lon="2.60017">
        <ele>808</ele>
        <time>2018-09-26T12:49:57Z</time>
      </trkpt>
      <trkpt lat="45.49635" lon="2.6002">
        <ele>808</ele>
        <time>2018-09-26T12:49:57Z</time>
      </trkpt>
      <trkpt lat="45.49634" lon="2.60024">
        <ele>809</ele>
        <time>2018-09-26T12:49:57Z</time>
      </trkpt>
      <trkpt lat="45.49633" lon="2.60027">
        <ele>809</ele>
        <time>2018-09-26T12:49:57Z</time>
      </trkpt>
      <trkpt lat="45.49632" lon="2.60029">
        <ele>810</ele>
        <time>2018-09-26T12:49:57Z</time>
      </trkpt>
      <trkpt lat="45.49631" lon="2.60032">
        <ele>810</ele>
        <time>2018-09-26T12:49:57Z</time>
      </trkpt>
      <trkpt lat="45.49629" lon="2.60034">
        <ele>810</ele>
        <time>2018-09-26T12:49:57Z</time>
      </trkpt>
      <trkpt lat="45.49628" lon="2.60036">
        <ele>811</ele>
        <time>2018-09-26T12:49:57Z</time>
      </trkpt>
      <trkpt lat="45.49627" lon="2.60038">
        <ele>811</ele>
        <time>2018-09-26T12:49:57Z</time>
      </trkpt>
      <trkpt lat="45.49627" lon="2.60038">
        <ele>811</ele>
        <time>2018-09-26T12:49:57Z</time>
      </trkpt>
      <trkpt lat="45.49625" lon="2.60038">
        <ele>811</ele>
        <time>2018-09-26T12:49:57Z</time>
      </trkpt>
      <trkpt lat="45.49625" lon="2.60038">
        <ele>811</ele>
        <time>2018-09-26T12:49:57Z</time>
      </trkpt>
      <trkpt lat="45.49625" lon="2.60038">
        <ele>811</ele>
        <time>2018-09-26T12:49:57Z</time>
      </trkpt>
      <trkpt lat="45.49624" lon="2.60039">
        <ele>811</ele>
        <time>2018-09-26T12:49:57Z</time>
      </trkpt>
      <trkpt lat="45.49623" lon="2.60039">
        <ele>811</ele>
        <time>2018-09-26T12:49:57Z</time>
      </trkpt>
      <trkpt lat="45.49621" lon="2.60041">
        <ele>811</ele>
        <time>2018-09-26T12:49:57Z</time>
      </trkpt>
      <trkpt lat="45.49621" lon="2.6004">
        <ele>811</ele>
        <time>2018-09-26T12:49:57Z</time>
      </trkpt>
      <trkpt lat="45.4962" lon="2.6004">
        <ele>811</ele>
        <time>2018-09-26T12:49:57Z</time>
      </trkpt>
      <trkpt lat="45.49619" lon="2.60041">
        <ele>811</ele>
        <time>2018-09-26T12:49:57Z</time>
      </trkpt>
      <trkpt lat="45.49618" lon="2.60041">
        <ele>811</ele>
        <time>2018-09-26T12:49:57Z</time>
      </trkpt>
      <trkpt lat="45.49616" lon="2.6004">
        <ele>811</ele>
        <time>2018-09-26T12:49:57Z</time>
      </trkpt>
      <trkpt lat="45.49615" lon="2.60039">
        <ele>811</ele>
        <time>2018-09-26T12:49:57Z</time>
      </trkpt>
      <trkpt lat="45.49613" lon="2.60039">
        <ele>812</ele>
        <time>2018-09-26T12:49:57Z</time>
      </trkpt>
      <trkpt lat="45.49612" lon="2.60039">
        <ele>812</ele>
        <time>2018-09-26T12:49:57Z</time>
      </trkpt>
      <trkpt lat="45.49612" lon="2.60039">
        <ele>812</ele>
        <time>2018-09-26T12:49:57Z</time>
      </trkpt>
      <trkpt lat="45.49611" lon="2.60038">
        <ele>811</ele>
        <time>2018-09-26T12:49:57Z</time>
      </trkpt>
      <trkpt lat="45.4961" lon="2.60036">
        <ele>811</ele>
        <time>2018-09-26T12:49:57Z</time>
      </trkpt>
      <trkpt lat="45.49608" lon="2.60035">
        <ele>811</ele>
        <time>2018-09-26T12:49:57Z</time>
      </trkpt>
      <trkpt lat="45.49606" lon="2.60035">
        <ele>811</ele>
        <time>2018-09-26T12:49:57Z</time>
      </trkpt>
      <trkpt lat="45.49605" lon="2.60035">
        <ele>812</ele>
        <time>2018-09-26T12:49:57Z</time>
      </trkpt>
      <trkpt lat="45.49604" lon="2.60037">
        <ele>812</ele>
        <time>2018-09-26T12:49:57Z</time>
      </trkpt>
      <trkpt lat="45.49603" lon="2.60039">
        <ele>812</ele>
        <time>2018-09-26T12:49:57Z</time>
      </trkpt>
      <trkpt lat="45.49603" lon="2.60041">
        <ele>812</ele>
        <time>2018-09-26T12:49:57Z</time>
      </trkpt>
      <trkpt lat="45.49602" lon="2.60043">
        <ele>812</ele>
        <time>2018-09-26T12:49:57Z</time>
      </trkpt>
      <trkpt lat="45.49601" lon="2.60045">
        <ele>813</ele>
        <time>2018-09-26T12:49:57Z</time>
      </trkpt>
      <trkpt lat="45.49601" lon="2.60048">
        <ele>813</ele>
        <time>2018-09-26T12:49:57Z</time>
      </trkpt>
      <trkpt lat="45.49599" lon="2.6005">
        <ele>813</ele>
        <time>2018-09-26T12:49:57Z</time>
      </trkpt>
      <trkpt lat="45.49599" lon="2.60052">
        <ele>813</ele>
        <time>2018-09-26T12:49:57Z</time>
      </trkpt>
      <trkpt lat="45.49598" lon="2.60055">
        <ele>814</ele>
        <time>2018-09-26T12:49:57Z</time>
      </trkpt>
      <trkpt lat="45.49597" lon="2.60058">
        <ele>814</ele>
        <time>2018-09-26T12:49:57Z</time>
      </trkpt>
      <trkpt lat="45.49596" lon="2.60061">
        <ele>815</ele>
        <time>2018-09-26T12:49:57Z</time>
      </trkpt>
      <trkpt lat="45.49595" lon="2.60064">
        <ele>815</ele>
        <time>2018-09-26T12:49:57Z</time>
      </trkpt>
      <trkpt lat="45.49594" lon="2.60066">
        <ele>815</ele>
        <time>2018-09-26T12:49:57Z</time>
      </trkpt>
      <trkpt lat="45.49592" lon="2.60069">
        <ele>816</ele>
        <time>2018-09-26T12:49:57Z</time>
      </trkpt>
      <trkpt lat="45.49591" lon="2.60072">
        <ele>816</ele>
        <time>2018-09-26T12:49:57Z</time>
      </trkpt>
      <trkpt lat="45.49591" lon="2.60076">
        <ele>816</ele>
        <time>2018-09-26T12:49:57Z</time>
      </trkpt>
      <trkpt lat="45.49589" lon="2.6008">
        <ele>816</ele>
        <time>2018-09-26T12:49:57Z</time>
      </trkpt>
      <trkpt lat="45.49588" lon="2.60083">
        <ele>816</ele>
        <time>2018-09-26T12:49:57Z</time>
      </trkpt>
      <trkpt lat="45.49587" lon="2.60085">
        <ele>817</ele>
        <time>2018-09-26T12:49:57Z</time>
      </trkpt>
      <trkpt lat="45.49586" lon="2.60086">
        <ele>817</ele>
        <time>2018-09-26T12:49:57Z</time>
      </trkpt>
      <trkpt lat="45.49584" lon="2.60088">
        <ele>817</ele>
        <time>2018-09-26T12:49:57Z</time>
      </trkpt>
      <trkpt lat="45.49583" lon="2.60091">
        <ele>817</ele>
        <time>2018-09-26T12:49:57Z</time>
      </trkpt>
      <trkpt lat="45.49583" lon="2.60093">
        <ele>817</ele>
        <time>2018-09-26T12:49:57Z</time>
      </trkpt>
      <trkpt lat="45.49583" lon="2.60094">
        <ele>817</ele>
        <time>2018-09-26T12:49:57Z</time>
      </trkpt>
      <trkpt lat="45.49583" lon="2.60095">
        <ele>817</ele>
        <time>2018-09-26T12:49:57Z</time>
      </trkpt>
      <trkpt lat="45.49582" lon="2.60097">
        <ele>817</ele>
        <time>2018-09-26T12:49:57Z</time>
      </trkpt>
      <trkpt lat="45.4958" lon="2.601">
        <ele>817</ele>
        <time>2018-09-26T12:49:57Z</time>
      </trkpt>
      <trkpt lat="45.4958" lon="2.60103">
        <ele>817</ele>
        <time>2018-09-26T12:49:57Z</time>
      </trkpt>
      <trkpt lat="45.49579" lon="2.60105">
        <ele>817</ele>
        <time>2018-09-26T12:49:57Z</time>
      </trkpt>
      <trkpt lat="45.49578" lon="2.60108">
        <ele>817</ele>
        <time>2018-09-26T12:49:57Z</time>
      </trkpt>
      <trkpt lat="45.49577" lon="2.60112">
        <ele>817</ele>
        <time>2018-09-26T12:49:57Z</time>
      </trkpt>
      <trkpt lat="45.49577" lon="2.60115">
        <ele>817</ele>
        <time>2018-09-26T12:49:57Z</time>
      </trkpt>
      <trkpt lat="45.49577" lon="2.60117">
        <ele>817</ele>
        <time>2018-09-26T12:49:57Z</time>
      </trkpt>
      <trkpt lat="45.49577" lon="2.60117">
        <ele>817</ele>
        <time>2018-09-26T12:49:57Z</time>
      </trkpt>
      <trkpt lat="45.49576" lon="2.60119">
        <ele>817</ele>
        <time>2018-09-26T12:49:57Z</time>
      </trkpt>
      <trkpt lat="45.49574" lon="2.60119">
        <ele>817</ele>
        <time>2018-09-26T12:49:57Z</time>
      </trkpt>
      <trkpt lat="45.49574" lon="2.6012">
        <ele>817</ele>
        <time>2018-09-26T12:49:57Z</time>
      </trkpt>
      <trkpt lat="45.49573" lon="2.60121">
        <ele>817</ele>
        <time>2018-09-26T12:49:57Z</time>
      </trkpt>
      <trkpt lat="45.49571" lon="2.60122">
        <ele>817</ele>
        <time>2018-09-26T12:49:57Z</time>
      </trkpt>
      <trkpt lat="45.4957" lon="2.60124">
        <ele>817</ele>
        <time>2018-09-26T12:49:57Z</time>
      </trkpt>
      <trkpt lat="45.49569" lon="2.60127">
        <ele>818</ele>
        <time>2018-09-26T12:49:57Z</time>
      </trkpt>
      <trkpt lat="45.49568" lon="2.6013">
        <ele>818</ele>
        <time>2018-09-26T12:49:57Z</time>
      </trkpt>
      <trkpt lat="45.49566" lon="2.60132">
        <ele>818</ele>
        <time>2018-09-26T12:49:57Z</time>
      </trkpt>
      <trkpt lat="45.49564" lon="2.60132">
        <ele>818</ele>
        <time>2018-09-26T12:49:57Z</time>
      </trkpt>
      <trkpt lat="45.49563" lon="2.60134">
        <ele>818</ele>
        <time>2018-09-26T12:49:57Z</time>
      </trkpt>
      <trkpt lat="45.49562" lon="2.60137">
        <ele>818</ele>
        <time>2018-09-26T12:49:57Z</time>
      </trkpt>
      <trkpt lat="45.49561" lon="2.60138">
        <ele>818</ele>
        <time>2018-09-26T12:49:57Z</time>
      </trkpt>
      <trkpt lat="45.4956" lon="2.6014">
        <ele>818</ele>
        <time>2018-09-26T12:49:57Z</time>
      </trkpt>
      <trkpt lat="45.49558" lon="2.60142">
        <ele>818</ele>
        <time>2018-09-26T12:49:57Z</time>
      </trkpt>
      <trkpt lat="45.49558" lon="2.60145">
        <ele>818</ele>
        <time>2018-09-26T12:49:57Z</time>
      </trkpt>
      <trkpt lat="45.49557" lon="2.60146">
        <ele>818</ele>
        <time>2018-09-26T12:49:57Z</time>
      </trkpt>
      <trkpt lat="45.49558" lon="2.60148">
        <ele>818</ele>
        <time>2018-09-26T12:49:57Z</time>
      </trkpt>
      <trkpt lat="45.49558" lon="2.6015">
        <ele>818</ele>
        <time>2018-09-26T12:49:57Z</time>
      </trkpt>
      <trkpt lat="45.49557" lon="2.60153">
        <ele>818</ele>
        <time>2018-09-26T12:49:57Z</time>
      </trkpt>
      <trkpt lat="45.49556" lon="2.60154">
        <ele>818</ele>
        <time>2018-09-26T12:49:57Z</time>
      </trkpt>
      <trkpt lat="45.49557" lon="2.60155">
        <ele>818</ele>
        <time>2018-09-26T12:49:57Z</time>
      </trkpt>
      <trkpt lat="45.49558" lon="2.60156">
        <ele>818</ele>
        <time>2018-09-26T12:49:57Z</time>
      </trkpt>
      <trkpt lat="45.49559" lon="2.60159">
        <ele>818</ele>
        <time>2018-09-26T12:49:57Z</time>
      </trkpt>
      <trkpt lat="45.4956" lon="2.60162">
        <ele>818</ele>
        <time>2018-09-26T12:49:57Z</time>
      </trkpt>
      <trkpt lat="45.49559" lon="2.60166">
        <ele>818</ele>
        <time>2018-09-26T12:49:57Z</time>
      </trkpt>
      <trkpt lat="45.49559" lon="2.60169">
        <ele>818</ele>
        <time>2018-09-26T12:49:57Z</time>
      </trkpt>
      <trkpt lat="45.49558" lon="2.6017">
        <ele>818</ele>
        <time>2018-09-26T12:49:57Z</time>
      </trkpt>
      <trkpt lat="45.49555" lon="2.60173">
        <ele>818</ele>
        <time>2018-09-26T12:49:57Z</time>
      </trkpt>
      <trkpt lat="45.49555" lon="2.60177">
        <ele>818</ele>
        <time>2018-09-26T12:49:57Z</time>
      </trkpt>
      <trkpt lat="45.49554" lon="2.6018">
        <ele>818</ele>
        <time>2018-09-26T12:49:57Z</time>
      </trkpt>
      <trkpt lat="45.49554" lon="2.60183">
        <ele>818</ele>
        <time>2018-09-26T12:49:57Z</time>
      </trkpt>
      <trkpt lat="45.49553" lon="2.60185">
        <ele>818</ele>
        <time>2018-09-26T12:49:57Z</time>
      </trkpt>
      <trkpt lat="45.4955" lon="2.60187">
        <ele>819</ele>
        <time>2018-09-26T12:49:57Z</time>
      </trkpt>
      <trkpt lat="45.49548" lon="2.6019">
        <ele>819</ele>
        <time>2018-09-26T12:49:57Z</time>
      </trkpt>
      <trkpt lat="45.49547" lon="2.60193">
        <ele>819</ele>
        <time>2018-09-26T12:49:57Z</time>
      </trkpt>
      <trkpt lat="45.49547" lon="2.60197">
        <ele>819</ele>
        <time>2018-09-26T12:49:57Z</time>
      </trkpt>
      <trkpt lat="45.49547" lon="2.60199">
        <ele>819</ele>
        <time>2018-09-26T12:49:57Z</time>
      </trkpt>
      <trkpt lat="45.49546" lon="2.60201">
        <ele>819</ele>
        <time>2018-09-26T12:49:57Z</time>
      </trkpt>
      <trkpt lat="45.49545" lon="2.60204">
        <ele>820</ele>
        <time>2018-09-26T12:49:57Z</time>
      </trkpt>
      <trkpt lat="45.49545" lon="2.60207">
        <ele>820</ele>
        <time>2018-09-26T12:49:57Z</time>
      </trkpt>
      <trkpt lat="45.49544" lon="2.6021">
        <ele>820</ele>
        <time>2018-09-26T12:49:57Z</time>
      </trkpt>
      <trkpt lat="45.49543" lon="2.60213">
        <ele>820</ele>
        <time>2018-09-26T12:49:57Z</time>
      </trkpt>
      <trkpt lat="45.49543" lon="2.60215">
        <ele>820</ele>
        <time>2018-09-26T12:49:57Z</time>
      </trkpt>
      <trkpt lat="45.49543" lon="2.60218">
        <ele>820</ele>
        <time>2018-09-26T12:49:57Z</time>
      </trkpt>
      <trkpt lat="45.49543" lon="2.60221">
        <ele>820</ele>
        <time>2018-09-26T12:49:57Z</time>
      </trkpt>
      <trkpt lat="45.49542" lon="2.60224">
        <ele>821</ele>
        <time>2018-09-26T12:49:57Z</time>
      </trkpt>
      <trkpt lat="45.49541" lon="2.60227">
        <ele>821</ele>
        <time>2018-09-26T12:49:57Z</time>
      </trkpt>
      <trkpt lat="45.4954" lon="2.60229">
        <ele>821</ele>
        <time>2018-09-26T12:49:57Z</time>
      </trkpt>
      <trkpt lat="45.49539" lon="2.6023">
        <ele>821</ele>
        <time>2018-09-26T12:49:57Z</time>
      </trkpt>
      <trkpt lat="45.49538" lon="2.60231">
        <ele>822</ele>
        <time>2018-09-26T12:49:57Z</time>
      </trkpt>
      <trkpt lat="45.49538" lon="2.60232">
        <ele>822</ele>
        <time>2018-09-26T12:49:57Z</time>
      </trkpt>
      <trkpt lat="45.49537" lon="2.60233">
        <ele>822</ele>
        <time>2018-09-26T12:49:57Z</time>
      </trkpt>
      <trkpt lat="45.49535" lon="2.60235">
        <ele>822</ele>
        <time>2018-09-26T12:49:57Z</time>
      </trkpt>
      <trkpt lat="45.49534" lon="2.60239">
        <ele>823</ele>
        <time>2018-09-26T12:49:57Z</time>
      </trkpt>
      <trkpt lat="45.49536" lon="2.60241">
        <ele>822</ele>
        <time>2018-09-26T12:49:57Z</time>
      </trkpt>
      <trkpt lat="45.49536" lon="2.60245">
        <ele>823</ele>
        <time>2018-09-26T12:49:57Z</time>
      </trkpt>
      <trkpt lat="45.49535" lon="2.60249">
        <ele>823</ele>
        <time>2018-09-26T12:49:57Z</time>
      </trkpt>
      <trkpt lat="45.49534" lon="2.60251">
        <ele>823</ele>
        <time>2018-09-26T12:49:57Z</time>
      </trkpt>
      <trkpt lat="45.49533" lon="2.60254">
        <ele>824</ele>
        <time>2018-09-26T12:49:57Z</time>
      </trkpt>
      <trkpt lat="45.49532" lon="2.60256">
        <ele>824</ele>
        <time>2018-09-26T12:49:57Z</time>
      </trkpt>
      <trkpt lat="45.49531" lon="2.60259">
        <ele>824</ele>
        <time>2018-09-26T12:49:57Z</time>
      </trkpt>
      <trkpt lat="45.49532" lon="2.60261">
        <ele>824</ele>
        <time>2018-09-26T12:49:57Z</time>
      </trkpt>
      <trkpt lat="45.49532" lon="2.60264">
        <ele>824</ele>
        <time>2018-09-26T12:49:57Z</time>
      </trkpt>
      <trkpt lat="45.49533" lon="2.60267">
        <ele>824</ele>
        <time>2018-09-26T12:49:57Z</time>
      </trkpt>
      <trkpt lat="45.49533" lon="2.6027">
        <ele>824</ele>
        <time>2018-09-26T12:49:57Z</time>
      </trkpt>
      <trkpt lat="45.49532" lon="2.60273">
        <ele>825</ele>
        <time>2018-09-26T12:49:57Z</time>
      </trkpt>
      <trkpt lat="45.49531" lon="2.60276">
        <ele>825</ele>
        <time>2018-09-26T12:49:57Z</time>
      </trkpt>
      <trkpt lat="45.49531" lon="2.60278">
        <ele>826</ele>
        <time>2018-09-26T12:49:57Z</time>
      </trkpt>
      <trkpt lat="45.4953" lon="2.60281">
        <ele>826</ele>
        <time>2018-09-26T12:49:57Z</time>
      </trkpt>
      <trkpt lat="45.49531" lon="2.60284">
        <ele>826</ele>
        <time>2018-09-26T12:49:57Z</time>
      </trkpt>
      <trkpt lat="45.49529" lon="2.60287">
        <ele>827</ele>
        <time>2018-09-26T12:49:57Z</time>
      </trkpt>
      <trkpt lat="45.49529" lon="2.60289">
        <ele>827</ele>
        <time>2018-09-26T12:49:57Z</time>
      </trkpt>
      <trkpt lat="45.49529" lon="2.60291">
        <ele>827</ele>
        <time>2018-09-26T12:49:57Z</time>
      </trkpt>
      <trkpt lat="45.4953" lon="2.60294">
        <ele>827</ele>
        <time>2018-09-26T12:49:57Z</time>
      </trkpt>
      <trkpt lat="45.49529" lon="2.60297">
        <ele>827</ele>
        <time>2018-09-26T12:49:57Z</time>
      </trkpt>
      <trkpt lat="45.49529" lon="2.60298">
        <ele>828</ele>
        <time>2018-09-26T12:49:57Z</time>
      </trkpt>
      <trkpt lat="45.49528" lon="2.60301">
        <ele>828</ele>
        <time>2018-09-26T12:49:57Z</time>
      </trkpt>
      <trkpt lat="45.49527" lon="2.60304">
        <ele>829</ele>
        <time>2018-09-26T12:49:57Z</time>
      </trkpt>
      <trkpt lat="45.49526" lon="2.60305">
        <ele>829</ele>
        <time>2018-09-26T12:49:57Z</time>
      </trkpt>
      <trkpt lat="45.49527" lon="2.60307">
        <ele>829</ele>
        <time>2018-09-26T12:49:57Z</time>
      </trkpt>
      <trkpt lat="45.49528" lon="2.60309">
        <ele>829</ele>
        <time>2018-09-26T12:49:57Z</time>
      </trkpt>
      <trkpt lat="45.49528" lon="2.60312">
        <ele>829</ele>
        <time>2018-09-26T12:49:57Z</time>
      </trkpt>
      <trkpt lat="45.49527" lon="2.60315">
        <ele>829</ele>
        <time>2018-09-26T12:49:57Z</time>
      </trkpt>
      <trkpt lat="45.49527" lon="2.60318">
        <ele>830</ele>
        <time>2018-09-26T12:49:57Z</time>
      </trkpt>
      <trkpt lat="45.49527" lon="2.60321">
        <ele>830</ele>
        <time>2018-09-26T12:49:57Z</time>
      </trkpt>
      <trkpt lat="45.49526" lon="2.60324">
        <ele>830</ele>
        <time>2018-09-26T12:49:57Z</time>
      </trkpt>
      <trkpt lat="45.49526" lon="2.60328">
        <ele>830</ele>
        <time>2018-09-26T12:49:57Z</time>
      </trkpt>
      <trkpt lat="45.49527" lon="2.60332">
        <ele>830</ele>
        <time>2018-09-26T12:49:57Z</time>
      </trkpt>
      <trkpt lat="45.49526" lon="2.60334">
        <ele>831</ele>
        <time>2018-09-26T12:49:57Z</time>
      </trkpt>
      <trkpt lat="45.49525" lon="2.60335">
        <ele>831</ele>
        <time>2018-09-26T12:49:57Z</time>
      </trkpt>
      <trkpt lat="45.49525" lon="2.60336">
        <ele>831</ele>
        <time>2018-09-26T12:49:57Z</time>
      </trkpt>
      <trkpt lat="45.49525" lon="2.60339">
        <ele>831</ele>
        <time>2018-09-26T12:49:57Z</time>
      </trkpt>
      <trkpt lat="45.49526" lon="2.60341">
        <ele>831</ele>
        <time>2018-09-26T12:49:57Z</time>
      </trkpt>
      <trkpt lat="45.49525" lon="2.60343">
        <ele>831</ele>
        <time>2018-09-26T12:49:57Z</time>
      </trkpt>
      <trkpt lat="45.49525" lon="2.60347">
        <ele>831</ele>
        <time>2018-09-26T12:49:57Z</time>
      </trkpt>
      <trkpt lat="45.49524" lon="2.6035">
        <ele>831</ele>
        <time>2018-09-26T12:49:57Z</time>
      </trkpt>
      <trkpt lat="45.49523" lon="2.60354">
        <ele>832</ele>
        <time>2018-09-26T12:49:57Z</time>
      </trkpt>
      <trkpt lat="45.49522" lon="2.60357">
        <ele>832</ele>
        <time>2018-09-26T12:49:57Z</time>
      </trkpt>
      <trkpt lat="45.49522" lon="2.60359">
        <ele>832</ele>
        <time>2018-09-26T12:49:57Z</time>
      </trkpt>
      <trkpt lat="45.49521" lon="2.60362">
        <ele>833</ele>
        <time>2018-09-26T12:49:57Z</time>
      </trkpt>
      <trkpt lat="45.49519" lon="2.60365">
        <ele>833</ele>
        <time>2018-09-26T12:49:57Z</time>
      </trkpt>
      <trkpt lat="45.49518" lon="2.60367">
        <ele>834</ele>
        <time>2018-09-26T12:49:57Z</time>
      </trkpt>
      <trkpt lat="45.49517" lon="2.60369">
        <ele>834</ele>
        <time>2018-09-26T12:49:57Z</time>
      </trkpt>
      <trkpt lat="45.49516" lon="2.6037">
        <ele>835</ele>
        <time>2018-09-26T12:49:57Z</time>
      </trkpt>
      <trkpt lat="45.49514" lon="2.60373">
        <ele>835</ele>
        <time>2018-09-26T12:49:57Z</time>
      </trkpt>
      <trkpt lat="45.49514" lon="2.60378">
        <ele>835</ele>
        <time>2018-09-26T12:49:57Z</time>
      </trkpt>
      <trkpt lat="45.49512" lon="2.60382">
        <ele>836</ele>
        <time>2018-09-26T12:49:57Z</time>
      </trkpt>
      <trkpt lat="45.49511" lon="2.60384">
        <ele>836</ele>
        <time>2018-09-26T12:49:57Z</time>
      </trkpt>
      <trkpt lat="45.4951" lon="2.60387">
        <ele>837</ele>
        <time>2018-09-26T12:49:57Z</time>
      </trkpt>
      <trkpt lat="45.49509" lon="2.60389">
        <ele>837</ele>
        <time>2018-09-26T12:49:57Z</time>
      </trkpt>
      <trkpt lat="45.49507" lon="2.60391">
        <ele>837</ele>
        <time>2018-09-26T12:49:57Z</time>
      </trkpt>
      <trkpt lat="45.49505" lon="2.60394">
        <ele>838</ele>
        <time>2018-09-26T12:49:57Z</time>
      </trkpt>
      <trkpt lat="45.49505" lon="2.60395">
        <ele>838</ele>
        <time>2018-09-26T12:49:57Z</time>
      </trkpt>
      <trkpt lat="45.49503" lon="2.60397">
        <ele>838</ele>
        <time>2018-09-26T12:49:57Z</time>
      </trkpt>
      <trkpt lat="45.49501" lon="2.60398">
        <ele>838</ele>
        <time>2018-09-26T12:49:57Z</time>
      </trkpt>
      <trkpt lat="45.495" lon="2.60399">
        <ele>838</ele>
        <time>2018-09-26T12:49:57Z</time>
      </trkpt>
      <trkpt lat="45.49498" lon="2.60401">
        <ele>838</ele>
        <time>2018-09-26T12:49:57Z</time>
      </trkpt>
      <trkpt lat="45.49497" lon="2.60403">
        <ele>839</ele>
        <time>2018-09-26T12:49:57Z</time>
      </trkpt>
      <trkpt lat="45.49496" lon="2.60405">
        <ele>839</ele>
        <time>2018-09-26T12:49:57Z</time>
      </trkpt>
      <trkpt lat="45.49495" lon="2.60407">
        <ele>839</ele>
        <time>2018-09-26T12:49:57Z</time>
      </trkpt>
      <trkpt lat="45.49494" lon="2.60408">
        <ele>839</ele>
        <time>2018-09-26T12:49:57Z</time>
      </trkpt>
      <trkpt lat="45.49493" lon="2.6041">
        <ele>839</ele>
        <time>2018-09-26T12:49:57Z</time>
      </trkpt>
      <trkpt lat="45.49492" lon="2.60412">
        <ele>839</ele>
        <time>2018-09-26T12:49:57Z</time>
      </trkpt>
      <trkpt lat="45.49491" lon="2.60414">
        <ele>839</ele>
        <time>2018-09-26T12:49:57Z</time>
      </trkpt>
      <trkpt lat="45.49489" lon="2.60417">
        <ele>839</ele>
        <time>2018-09-26T12:49:57Z</time>
      </trkpt>
      <trkpt lat="45.49488" lon="2.60419">
        <ele>839</ele>
        <time>2018-09-26T12:49:57Z</time>
      </trkpt>
      <trkpt lat="45.49487" lon="2.60422">
        <ele>839</ele>
        <time>2018-09-26T12:49:57Z</time>
      </trkpt>
      <trkpt lat="45.49486" lon="2.60425">
        <ele>840</ele>
        <time>2018-09-26T12:49:57Z</time>
      </trkpt>
      <trkpt lat="45.49485" lon="2.60428">
        <ele>840</ele>
        <time>2018-09-26T12:49:57Z</time>
      </trkpt>
      <trkpt lat="45.49484" lon="2.60431">
        <ele>840</ele>
        <time>2018-09-26T12:49:57Z</time>
      </trkpt>
      <trkpt lat="45.49483" lon="2.60435">
        <ele>840</ele>
        <time>2018-09-26T12:49:57Z</time>
      </trkpt>
      <trkpt lat="45.49484" lon="2.60438">
        <ele>840</ele>
        <time>2018-09-26T12:49:57Z</time>
      </trkpt>
      <trkpt lat="45.49485" lon="2.60442">
        <ele>839</ele>
        <time>2018-09-26T12:49:57Z</time>
      </trkpt>
      <trkpt lat="45.49484" lon="2.60444">
        <ele>839</ele>
        <time>2018-09-26T12:49:57Z</time>
      </trkpt>
      <trkpt lat="45.49482" lon="2.60447">
        <ele>839</ele>
        <time>2018-09-26T12:49:57Z</time>
      </trkpt>
      <trkpt lat="45.4948" lon="2.60449">
        <ele>840</ele>
        <time>2018-09-26T12:49:57Z</time>
      </trkpt>
      <trkpt lat="45.49479" lon="2.60451">
        <ele>840</ele>
        <time>2018-09-26T12:49:57Z</time>
      </trkpt>
      <trkpt lat="45.49476" lon="2.60455">
        <ele>840</ele>
        <time>2018-09-26T12:49:57Z</time>
      </trkpt>
      <trkpt lat="45.49474" lon="2.60457">
        <ele>840</ele>
        <time>2018-09-26T12:49:57Z</time>
      </trkpt>
      <trkpt lat="45.49472" lon="2.6046">
        <ele>840</ele>
        <time>2018-09-26T12:49:57Z</time>
      </trkpt>
      <trkpt lat="45.49471" lon="2.60463">
        <ele>840</ele>
        <time>2018-09-26T12:49:57Z</time>
      </trkpt>
      <trkpt lat="45.49469" lon="2.60465">
        <ele>841</ele>
        <time>2018-09-26T12:49:57Z</time>
      </trkpt>
      <trkpt lat="45.49468" lon="2.60465">
        <ele>841</ele>
        <time>2018-09-26T12:49:57Z</time>
      </trkpt>
      <trkpt lat="45.49467" lon="2.60468">
        <ele>841</ele>
        <time>2018-09-26T12:49:57Z</time>
      </trkpt>
      <trkpt lat="45.49465" lon="2.60468">
        <ele>841</ele>
        <time>2018-09-26T12:49:57Z</time>
      </trkpt>
      <trkpt lat="45.49464" lon="2.60471">
        <ele>841</ele>
        <time>2018-09-26T12:49:57Z</time>
      </trkpt>
      <trkpt lat="45.49464" lon="2.60473">
        <ele>841</ele>
        <time>2018-09-26T12:49:57Z</time>
      </trkpt>
      <trkpt lat="45.49463" lon="2.60475">
        <ele>841</ele>
        <time>2018-09-26T12:49:57Z</time>
      </trkpt>
      <trkpt lat="45.49461" lon="2.60478">
        <ele>840</ele>
        <time>2018-09-26T12:49:57Z</time>
      </trkpt>
      <trkpt lat="45.49459" lon="2.6048">
        <ele>840</ele>
        <time>2018-09-26T12:49:57Z</time>
      </trkpt>
      <trkpt lat="45.49458" lon="2.60483">
        <ele>840</ele>
        <time>2018-09-26T12:49:57Z</time>
      </trkpt>
      <trkpt lat="45.49457" lon="2.60487">
        <ele>840</ele>
        <time>2018-09-26T12:49:57Z</time>
      </trkpt>
      <trkpt lat="45.49457" lon="2.6049">
        <ele>839</ele>
        <time>2018-09-26T12:49:57Z</time>
      </trkpt>
      <trkpt lat="45.49457" lon="2.60493">
        <ele>839</ele>
        <time>2018-09-26T12:49:57Z</time>
      </trkpt>
      <trkpt lat="45.49457" lon="2.60495">
        <ele>839</ele>
        <time>2018-09-26T12:49:57Z</time>
      </trkpt>
      <trkpt lat="45.49457" lon="2.60496">
        <ele>839</ele>
        <time>2018-09-26T12:49:57Z</time>
      </trkpt>
      <trkpt lat="45.49456" lon="2.60497">
        <ele>839</ele>
        <time>2018-09-26T12:49:57Z</time>
      </trkpt>
      <trkpt lat="45.49455" lon="2.605">
        <ele>839</ele>
        <time>2018-09-26T12:49:57Z</time>
      </trkpt>
      <trkpt lat="45.49454" lon="2.60503">
        <ele>839</ele>
        <time>2018-09-26T12:49:57Z</time>
      </trkpt>
      <trkpt lat="45.49453" lon="2.60505">
        <ele>838</ele>
        <time>2018-09-26T12:49:57Z</time>
      </trkpt>
      <trkpt lat="45.49452" lon="2.60507">
        <ele>838</ele>
        <time>2018-09-26T12:49:57Z</time>
      </trkpt>
      <trkpt lat="45.49451" lon="2.60509">
        <ele>838</ele>
        <time>2018-09-26T12:49:57Z</time>
      </trkpt>
      <trkpt lat="45.4945" lon="2.60511">
        <ele>838</ele>
        <time>2018-09-26T12:49:57Z</time>
      </trkpt>
      <trkpt lat="45.49448" lon="2.60512">
        <ele>838</ele>
        <time>2018-09-26T12:49:57Z</time>
      </trkpt>
      <trkpt lat="45.49447" lon="2.60514">
        <ele>838</ele>
        <time>2018-09-26T12:49:57Z</time>
      </trkpt>
      <trkpt lat="45.49446" lon="2.60516">
        <ele>838</ele>
        <time>2018-09-26T12:49:57Z</time>
      </trkpt>
      <trkpt lat="45.49444" lon="2.6052">
        <ele>837</ele>
        <time>2018-09-26T12:49:57Z</time>
      </trkpt>
      <trkpt lat="45.49444" lon="2.60523">
        <ele>837</ele>
        <time>2018-09-26T12:49:57Z</time>
      </trkpt>
      <trkpt lat="45.49444" lon="2.60526">
        <ele>836</ele>
        <time>2018-09-26T12:49:57Z</time>
      </trkpt>
      <trkpt lat="45.49442" lon="2.60529">
        <ele>836</ele>
        <time>2018-09-26T12:49:57Z</time>
      </trkpt>
      <trkpt lat="45.49441" lon="2.60532">
        <ele>836</ele>
        <time>2018-09-26T12:49:57Z</time>
      </trkpt>
      <trkpt lat="45.49441" lon="2.60534">
        <ele>836</ele>
        <time>2018-09-26T12:49:57Z</time>
      </trkpt>
      <trkpt lat="45.49439" lon="2.60537">
        <ele>835</ele>
        <time>2018-09-26T12:49:57Z</time>
      </trkpt>
      <trkpt lat="45.49438" lon="2.60541">
        <ele>835</ele>
        <time>2018-09-26T12:49:57Z</time>
      </trkpt>
      <trkpt lat="45.49437" lon="2.60544">
        <ele>834</ele>
        <time>2018-09-26T12:49:57Z</time>
      </trkpt>
      <trkpt lat="45.49436" lon="2.60546">
        <ele>834</ele>
        <time>2018-09-26T12:49:57Z</time>
      </trkpt>
      <trkpt lat="45.49435" lon="2.60549">
        <ele>834</ele>
        <time>2018-09-26T12:49:57Z</time>
      </trkpt>
      <trkpt lat="45.49434" lon="2.60551">
        <ele>834</ele>
        <time>2018-09-26T12:49:57Z</time>
      </trkpt>
      <trkpt lat="45.49432" lon="2.60553">
        <ele>833</ele>
        <time>2018-09-26T12:49:57Z</time>
      </trkpt>
      <trkpt lat="45.49431" lon="2.60556">
        <ele>833</ele>
        <time>2018-09-26T12:49:57Z</time>
      </trkpt>
      <trkpt lat="45.49429" lon="2.6056">
        <ele>833</ele>
        <time>2018-09-26T12:49:57Z</time>
      </trkpt>
      <trkpt lat="45.49428" lon="2.60563">
        <ele>833</ele>
        <time>2018-09-26T12:49:57Z</time>
      </trkpt>
      <trkpt lat="45.49426" lon="2.60566">
        <ele>832</ele>
        <time>2018-09-26T12:49:57Z</time>
      </trkpt>
      <trkpt lat="45.49425" lon="2.60568">
        <ele>832</ele>
        <time>2018-09-26T12:49:57Z</time>
      </trkpt>
      <trkpt lat="45.49423" lon="2.60571">
        <ele>832</ele>
        <time>2018-09-26T12:49:57Z</time>
      </trkpt>
      <trkpt lat="45.49421" lon="2.60573">
        <ele>832</ele>
        <time>2018-09-26T12:49:57Z</time>
      </trkpt>
      <trkpt lat="45.49421" lon="2.60576">
        <ele>831</ele>
        <time>2018-09-26T12:49:57Z</time>
      </trkpt>
      <trkpt lat="45.49419" lon="2.60579">
        <ele>831</ele>
        <time>2018-09-26T12:49:57Z</time>
      </trkpt>
      <trkpt lat="45.49419" lon="2.60582">
        <ele>831</ele>
        <time>2018-09-26T12:49:57Z</time>
      </trkpt>
      <trkpt lat="45.49419" lon="2.60586">
        <ele>831</ele>
        <time>2018-09-26T12:49:57Z</time>
      </trkpt>
      <trkpt lat="45.49419" lon="2.60589">
        <ele>830</ele>
        <time>2018-09-26T12:49:57Z</time>
      </trkpt>
      <trkpt lat="45.4942" lon="2.60592">
        <ele>830</ele>
        <time>2018-09-26T12:49:57Z</time>
      </trkpt>
      <trkpt lat="45.49421" lon="2.60596">
        <ele>830</ele>
        <time>2018-09-26T12:49:57Z</time>
      </trkpt>
      <trkpt lat="45.49422" lon="2.60599">
        <ele>829</ele>
        <time>2018-09-26T12:49:57Z</time>
      </trkpt>
      <trkpt lat="45.49422" lon="2.60602">
        <ele>829</ele>
        <time>2018-09-26T12:49:57Z</time>
      </trkpt>
      <trkpt lat="45.49423" lon="2.60604">
        <ele>829</ele>
        <time>2018-09-26T12:49:57Z</time>
      </trkpt>
      <trkpt lat="45.49424" lon="2.60607">
        <ele>828</ele>
        <time>2018-09-26T12:49:57Z</time>
      </trkpt>
      <trkpt lat="45.49426" lon="2.6061">
        <ele>828</ele>
        <time>2018-09-26T12:49:57Z</time>
      </trkpt>
      <trkpt lat="45.49427" lon="2.60613">
        <ele>828</ele>
        <time>2018-09-26T12:49:57Z</time>
      </trkpt>
      <trkpt lat="45.49428" lon="2.60615">
        <ele>828</ele>
        <time>2018-09-26T12:49:57Z</time>
      </trkpt>
      <trkpt lat="45.49428" lon="2.60617">
        <ele>827</ele>
        <time>2018-09-26T12:49:57Z</time>
      </trkpt>
      <trkpt lat="45.49429" lon="2.60621">
        <ele>827</ele>
        <time>2018-09-26T12:49:57Z</time>
      </trkpt>
      <trkpt lat="45.49429" lon="2.60625">
        <ele>827</ele>
        <time>2018-09-26T12:49:57Z</time>
      </trkpt>
      <trkpt lat="45.4943" lon="2.60628">
        <ele>826</ele>
        <time>2018-09-26T12:49:57Z</time>
      </trkpt>
      <trkpt lat="45.49431" lon="2.60631">
        <ele>826</ele>
        <time>2018-09-26T12:49:57Z</time>
      </trkpt>
      <trkpt lat="45.49432" lon="2.60634">
        <ele>826</ele>
        <time>2018-09-26T12:49:57Z</time>
      </trkpt>
      <trkpt lat="45.49433" lon="2.60637">
        <ele>825</ele>
        <time>2018-09-26T12:49:57Z</time>
      </trkpt>
      <trkpt lat="45.49434" lon="2.60641">
        <ele>825</ele>
        <time>2018-09-26T12:49:57Z</time>
      </trkpt>
      <trkpt lat="45.49435" lon="2.60645">
        <ele>825</ele>
        <time>2018-09-26T12:49:57Z</time>
      </trkpt>
      <trkpt lat="45.49436" lon="2.60649">
        <ele>824</ele>
        <time>2018-09-26T12:49:57Z</time>
      </trkpt>
      <trkpt lat="45.49437" lon="2.60652">
        <ele>824</ele>
        <time>2018-09-26T12:49:57Z</time>
      </trkpt>
      <trkpt lat="45.49438" lon="2.60655">
        <ele>824</ele>
        <time>2018-09-26T12:49:57Z</time>
      </trkpt>
      <trkpt lat="45.49439" lon="2.60658">
        <ele>824</ele>
        <time>2018-09-26T12:49:57Z</time>
      </trkpt>
      <trkpt lat="45.4944" lon="2.60661">
        <ele>824</ele>
        <time>2018-09-26T12:49:57Z</time>
      </trkpt>
      <trkpt lat="45.49442" lon="2.60664">
        <ele>824</ele>
        <time>2018-09-26T12:49:57Z</time>
      </trkpt>
      <trkpt lat="45.49443" lon="2.60668">
        <ele>824</ele>
        <time>2018-09-26T12:49:57Z</time>
      </trkpt>
      <trkpt lat="45.49444" lon="2.60671">
        <ele>823</ele>
        <time>2018-09-26T12:49:57Z</time>
      </trkpt>
      <trkpt lat="45.49445" lon="2.60675">
        <ele>823</ele>
        <time>2018-09-26T12:49:57Z</time>
      </trkpt>
      <trkpt lat="45.49446" lon="2.60678">
        <ele>823</ele>
        <time>2018-09-26T12:49:57Z</time>
      </trkpt>
      <trkpt lat="45.49447" lon="2.60682">
        <ele>823</ele>
        <time>2018-09-26T12:49:57Z</time>
      </trkpt>
      <trkpt lat="45.49447" lon="2.60685">
        <ele>823</ele>
        <time>2018-09-26T12:49:57Z</time>
      </trkpt>
      <trkpt lat="45.49448" lon="2.60688">
        <ele>823</ele>
        <time>2018-09-26T12:49:57Z</time>
      </trkpt>
      <trkpt lat="45.49449" lon="2.60691">
        <ele>823</ele>
        <time>2018-09-26T12:49:57Z</time>
      </trkpt>
      <trkpt lat="45.4945" lon="2.60695">
        <ele>823</ele>
        <time>2018-09-26T12:49:57Z</time>
      </trkpt>
      <trkpt lat="45.49451" lon="2.60699">
        <ele>822</ele>
        <time>2018-09-26T12:49:57Z</time>
      </trkpt>
      <trkpt lat="45.49451" lon="2.60702">
        <ele>822</ele>
        <time>2018-09-26T12:49:57Z</time>
      </trkpt>
      <trkpt lat="45.49452" lon="2.60706">
        <ele>822</ele>
        <time>2018-09-26T12:49:57Z</time>
      </trkpt>
      <trkpt lat="45.49452" lon="2.6071">
        <ele>822</ele>
        <time>2018-09-26T12:49:57Z</time>
      </trkpt>
      <trkpt lat="45.49452" lon="2.60715">
        <ele>822</ele>
        <time>2018-09-26T12:49:57Z</time>
      </trkpt>
      <trkpt lat="45.49451" lon="2.60718">
        <ele>822</ele>
        <time>2018-09-26T12:49:57Z</time>
      </trkpt>
      <trkpt lat="45.49451" lon="2.60722">
        <ele>822</ele>
        <time>2018-09-26T12:49:57Z</time>
      </trkpt>
      <trkpt lat="45.4945" lon="2.60725">
        <ele>822</ele>
        <time>2018-09-26T12:49:57Z</time>
      </trkpt>
      <trkpt lat="45.49449" lon="2.60729">
        <ele>822</ele>
        <time>2018-09-26T12:49:57Z</time>
      </trkpt>
      <trkpt lat="45.49448" lon="2.60732">
        <ele>822</ele>
        <time>2018-09-26T12:49:57Z</time>
      </trkpt>
      <trkpt lat="45.49447" lon="2.60735">
        <ele>822</ele>
        <time>2018-09-26T12:49:57Z</time>
      </trkpt>
      <trkpt lat="45.49445" lon="2.60738">
        <ele>822</ele>
        <time>2018-09-26T12:49:57Z</time>
      </trkpt>
      <trkpt lat="45.49444" lon="2.60741">
        <ele>822</ele>
        <time>2018-09-26T12:49:57Z</time>
      </trkpt>
      <trkpt lat="45.49443" lon="2.60743">
        <ele>822</ele>
        <time>2018-09-26T12:49:57Z</time>
      </trkpt>
      <trkpt lat="45.49441" lon="2.60746">
        <ele>822</ele>
        <time>2018-09-26T12:49:57Z</time>
      </trkpt>
      <trkpt lat="45.4944" lon="2.60748">
        <ele>822</ele>
        <time>2018-09-26T12:49:57Z</time>
      </trkpt>
      <trkpt lat="45.4944" lon="2.60751">
        <ele>822</ele>
        <time>2018-09-26T12:49:57Z</time>
      </trkpt>
      <trkpt lat="45.49439" lon="2.60755">
        <ele>822</ele>
        <time>2018-09-26T12:49:57Z</time>
      </trkpt>
      <trkpt lat="45.49438" lon="2.60758">
        <ele>822</ele>
        <time>2018-09-26T12:49:57Z</time>
      </trkpt>
      <trkpt lat="45.49437" lon="2.60761">
        <ele>822</ele>
        <time>2018-09-26T12:49:57Z</time>
      </trkpt>
      <trkpt lat="45.49438" lon="2.60764">
        <ele>822</ele>
        <time>2018-09-26T12:49:57Z</time>
      </trkpt>
      <trkpt lat="45.49438" lon="2.60766">
        <ele>822</ele>
        <time>2018-09-26T12:49:57Z</time>
      </trkpt>
      <trkpt lat="45.49439" lon="2.60769">
        <ele>822</ele>
        <time>2018-09-26T12:49:57Z</time>
      </trkpt>
      <trkpt lat="45.49439" lon="2.60772">
        <ele>822</ele>
        <time>2018-09-26T12:49:57Z</time>
      </trkpt>
      <trkpt lat="45.4944" lon="2.60776">
        <ele>822</ele>
        <time>2018-09-26T12:49:57Z</time>
      </trkpt>
      <trkpt lat="45.49441" lon="2.60779">
        <ele>822</ele>
        <time>2018-09-26T12:49:57Z</time>
      </trkpt>
      <trkpt lat="45.49442" lon="2.60782">
        <ele>822</ele>
        <time>2018-09-26T12:49:57Z</time>
      </trkpt>
      <trkpt lat="45.49443" lon="2.60786">
        <ele>822</ele>
        <time>2018-09-26T12:49:57Z</time>
      </trkpt>
      <trkpt lat="45.49444" lon="2.60787">
        <ele>822</ele>
        <time>2018-09-26T12:49:57Z</time>
      </trkpt>
      <trkpt lat="45.49446" lon="2.6079">
        <ele>822</ele>
        <time>2018-09-26T12:49:57Z</time>
      </trkpt>
      <trkpt lat="45.49447" lon="2.60794">
        <ele>822</ele>
        <time>2018-09-26T12:49:57Z</time>
      </trkpt>
      <trkpt lat="45.49449" lon="2.60797">
        <ele>822</ele>
        <time>2018-09-26T12:49:57Z</time>
      </trkpt>
      <trkpt lat="45.49451" lon="2.60798">
        <ele>822</ele>
        <time>2018-09-26T12:49:57Z</time>
      </trkpt>
      <trkpt lat="45.49452" lon="2.60801">
        <ele>822</ele>
        <time>2018-09-26T12:49:57Z</time>
      </trkpt>
      <trkpt lat="45.49455" lon="2.60805">
        <ele>822</ele>
        <time>2018-09-26T12:49:57Z</time>
      </trkpt>
      <trkpt lat="45.49456" lon="2.60807">
        <ele>823</ele>
        <time>2018-09-26T12:49:57Z</time>
      </trkpt>
      <trkpt lat="45.49458" lon="2.6081">
        <ele>823</ele>
        <time>2018-09-26T12:49:57Z</time>
      </trkpt>
      <trkpt lat="45.49459" lon="2.60812">
        <ele>823</ele>
        <time>2018-09-26T12:49:57Z</time>
      </trkpt>
      <trkpt lat="45.49461" lon="2.60814">
        <ele>823</ele>
        <time>2018-09-26T12:49:57Z</time>
      </trkpt>
      <trkpt lat="45.49463" lon="2.60816">
        <ele>823</ele>
        <time>2018-09-26T12:49:57Z</time>
      </trkpt>
      <trkpt lat="45.49464" lon="2.6082">
        <ele>823</ele>
        <time>2018-09-26T12:49:57Z</time>
      </trkpt>
      <trkpt lat="45.49466" lon="2.60822">
        <ele>823</ele>
        <time>2018-09-26T12:49:57Z</time>
      </trkpt>
      <trkpt lat="45.49467" lon="2.60825">
        <ele>823</ele>
        <time>2018-09-26T12:49:57Z</time>
      </trkpt>
      <trkpt lat="45.49469" lon="2.60828">
        <ele>823</ele>
        <time>2018-09-26T12:49:57Z</time>
      </trkpt>
      <trkpt lat="45.49471" lon="2.60831">
        <ele>823</ele>
        <time>2018-09-26T12:49:57Z</time>
      </trkpt>
      <trkpt lat="45.49472" lon="2.60834">
        <ele>823</ele>
        <time>2018-09-26T12:49:57Z</time>
      </trkpt>
      <trkpt lat="45.49473" lon="2.60837">
        <ele>823</ele>
        <time>2018-09-26T12:49:57Z</time>
      </trkpt>
      <trkpt lat="45.49474" lon="2.60839">
        <ele>823</ele>
        <time>2018-09-26T12:49:57Z</time>
      </trkpt>
      <trkpt lat="45.49476" lon="2.60843">
        <ele>823</ele>
        <time>2018-09-26T12:49:57Z</time>
      </trkpt>
      <trkpt lat="45.49477" lon="2.60846">
        <ele>823</ele>
        <time>2018-09-26T12:49:57Z</time>
      </trkpt>
      <trkpt lat="45.49478" lon="2.60849">
        <ele>823</ele>
        <time>2018-09-26T12:49:57Z</time>
      </trkpt>
      <trkpt lat="45.49479" lon="2.60852">
        <ele>823</ele>
        <time>2018-09-26T12:49:57Z</time>
      </trkpt>
      <trkpt lat="45.4948" lon="2.60856">
        <ele>823</ele>
        <time>2018-09-26T12:49:57Z</time>
      </trkpt>
      <trkpt lat="45.49481" lon="2.60858">
        <ele>823</ele>
        <time>2018-09-26T12:49:57Z</time>
      </trkpt>
      <trkpt lat="45.49482" lon="2.60861">
        <ele>823</ele>
        <time>2018-09-26T12:49:57Z</time>
      </trkpt>
      <trkpt lat="45.49483" lon="2.60863">
        <ele>823</ele>
        <time>2018-09-26T12:49:57Z</time>
      </trkpt>
      <trkpt lat="45.49485" lon="2.60865">
        <ele>823</ele>
        <time>2018-09-26T12:49:57Z</time>
      </trkpt>
      <trkpt lat="45.49487" lon="2.60867">
        <ele>823</ele>
        <time>2018-09-26T12:49:57Z</time>
      </trkpt>
      <trkpt lat="45.49489" lon="2.60869">
        <ele>823</ele>
        <time>2018-09-26T12:49:57Z</time>
      </trkpt>
      <trkpt lat="45.49492" lon="2.6087">
        <ele>824</ele>
        <time>2018-09-26T12:49:57Z</time>
      </trkpt>
      <trkpt lat="45.49493" lon="2.60872">
        <ele>824</ele>
        <time>2018-09-26T12:49:57Z</time>
      </trkpt>
      <trkpt lat="45.49495" lon="2.60873">
        <ele>824</ele>
        <time>2018-09-26T12:49:57Z</time>
      </trkpt>
      <trkpt lat="45.49497" lon="2.60874">
        <ele>824</ele>
        <time>2018-09-26T12:49:57Z</time>
      </trkpt>
      <trkpt lat="45.495" lon="2.60875">
        <ele>824</ele>
        <time>2018-09-26T12:49:57Z</time>
      </trkpt>
      <trkpt lat="45.49502" lon="2.60877">
        <ele>824</ele>
        <time>2018-09-26T12:49:57Z</time>
      </trkpt>
      <trkpt lat="45.49504" lon="2.60877">
        <ele>824</ele>
        <time>2018-09-26T12:49:57Z</time>
      </trkpt>
      <trkpt lat="45.49507" lon="2.60878">
        <ele>824</ele>
        <time>2018-09-26T12:49:57Z</time>
      </trkpt>
      <trkpt lat="45.49509" lon="2.60879">
        <ele>824</ele>
        <time>2018-09-26T12:49:57Z</time>
      </trkpt>
      <trkpt lat="45.49511" lon="2.60879">
        <ele>824</ele>
        <time>2018-09-26T12:49:57Z</time>
      </trkpt>
      <trkpt lat="45.49514" lon="2.60879">
        <ele>824</ele>
        <time>2018-09-26T12:49:57Z</time>
      </trkpt>
      <trkpt lat="45.49516" lon="2.60878">
        <ele>824</ele>
        <time>2018-09-26T12:49:57Z</time>
      </trkpt>
      <trkpt lat="45.49519" lon="2.60878">
        <ele>824</ele>
        <time>2018-09-26T12:49:57Z</time>
      </trkpt>
      <trkpt lat="45.49522" lon="2.60877">
        <ele>824</ele>
        <time>2018-09-26T12:49:57Z</time>
      </trkpt>
      <trkpt lat="45.49524" lon="2.60877">
        <ele>824</ele>
        <time>2018-09-26T12:49:57Z</time>
      </trkpt>
      <trkpt lat="45.49527" lon="2.60876">
        <ele>824</ele>
        <time>2018-09-26T12:49:57Z</time>
      </trkpt>
      <trkpt lat="45.4953" lon="2.60876">
        <ele>824</ele>
        <time>2018-09-26T12:49:57Z</time>
      </trkpt>
      <trkpt lat="45.49532" lon="2.60876">
        <ele>824</ele>
        <time>2018-09-26T12:49:57Z</time>
      </trkpt>
      <trkpt lat="45.49534" lon="2.60876">
        <ele>824</ele>
        <time>2018-09-26T12:49:57Z</time>
      </trkpt>
      <trkpt lat="45.49536" lon="2.60876">
        <ele>824</ele>
        <time>2018-09-26T12:49:57Z</time>
      </trkpt>
      <trkpt lat="45.49539" lon="2.60876">
        <ele>824</ele>
        <time>2018-09-26T12:49:57Z</time>
      </trkpt>
      <trkpt lat="45.49542" lon="2.60876">
        <ele>824</ele>
        <time>2018-09-26T12:49:57Z</time>
      </trkpt>
      <trkpt lat="45.49544" lon="2.60876">
        <ele>824</ele>
        <time>2018-09-26T12:49:57Z</time>
      </trkpt>
      <trkpt lat="45.49546" lon="2.60875">
        <ele>824</ele>
        <time>2018-09-26T12:49:57Z</time>
      </trkpt>
      <trkpt lat="45.49549" lon="2.60876">
        <ele>824</ele>
        <time>2018-09-26T12:49:57Z</time>
      </trkpt>
      <trkpt lat="45.49552" lon="2.60876">
        <ele>824</ele>
        <time>2018-09-26T12:49:57Z</time>
      </trkpt>
      <trkpt lat="45.49554" lon="2.60877">
        <ele>824</ele>
        <time>2018-09-26T12:49:57Z</time>
      </trkpt>
      <trkpt lat="45.49557" lon="2.60878">
        <ele>824</ele>
        <time>2018-09-26T12:49:57Z</time>
      </trkpt>
      <trkpt lat="45.49559" lon="2.60878">
        <ele>824</ele>
        <time>2018-09-26T12:49:57Z</time>
      </trkpt>
      <trkpt lat="45.49562" lon="2.60879">
        <ele>824</ele>
        <time>2018-09-26T12:49:57Z</time>
      </trkpt>
      <trkpt lat="45.49565" lon="2.6088">
        <ele>824</ele>
        <time>2018-09-26T12:49:57Z</time>
      </trkpt>
      <trkpt lat="45.49567" lon="2.60881">
        <ele>824</ele>
        <time>2018-09-26T12:49:57Z</time>
      </trkpt>
      <trkpt lat="45.4957" lon="2.60882">
        <ele>824</ele>
        <time>2018-09-26T12:49:57Z</time>
      </trkpt>
      <trkpt lat="45.49572" lon="2.60884">
        <ele>824</ele>
        <time>2018-09-26T12:49:57Z</time>
      </trkpt>
      <trkpt lat="45.49575" lon="2.60885">
        <ele>824</ele>
        <time>2018-09-26T12:49:57Z</time>
      </trkpt>
      <trkpt lat="45.49577" lon="2.60887">
        <ele>824</ele>
        <time>2018-09-26T12:49:57Z</time>
      </trkpt>
      <trkpt lat="45.49579" lon="2.60888">
        <ele>824</ele>
        <time>2018-09-26T12:49:57Z</time>
      </trkpt>
      <trkpt lat="45.49582" lon="2.60889">
        <ele>824</ele>
        <time>2018-09-26T12:49:57Z</time>
      </trkpt>
      <trkpt lat="45.49585" lon="2.6089">
        <ele>824</ele>
        <time>2018-09-26T12:49:57Z</time>
      </trkpt>
      <trkpt lat="45.49587" lon="2.6089">
        <ele>824</ele>
        <time>2018-09-26T12:49:57Z</time>
      </trkpt>
      <trkpt lat="45.4959" lon="2.6089">
        <ele>824</ele>
        <time>2018-09-26T12:49:57Z</time>
      </trkpt>
      <trkpt lat="45.49593" lon="2.6089">
        <ele>825</ele>
        <time>2018-09-26T12:49:57Z</time>
      </trkpt>
      <trkpt lat="45.49595" lon="2.6089">
        <ele>825</ele>
        <time>2018-09-26T12:49:57Z</time>
      </trkpt>
      <trkpt lat="45.49597" lon="2.60889">
        <ele>825</ele>
        <time>2018-09-26T12:49:57Z</time>
      </trkpt>
      <trkpt lat="45.496" lon="2.60888">
        <ele>825</ele>
        <time>2018-09-26T12:49:57Z</time>
      </trkpt>
      <trkpt lat="45.49603" lon="2.60887">
        <ele>825</ele>
        <time>2018-09-26T12:49:57Z</time>
      </trkpt>
      <trkpt lat="45.49605" lon="2.60886">
        <ele>825</ele>
        <time>2018-09-26T12:49:57Z</time>
      </trkpt>
      <trkpt lat="45.49608" lon="2.60886">
        <ele>825</ele>
        <time>2018-09-26T12:49:57Z</time>
      </trkpt>
      <trkpt lat="45.4961" lon="2.60886">
        <ele>825</ele>
        <time>2018-09-26T12:49:57Z</time>
      </trkpt>
      <trkpt lat="45.49613" lon="2.60884">
        <ele>825</ele>
        <time>2018-09-26T12:49:57Z</time>
      </trkpt>
      <trkpt lat="45.49616" lon="2.60884">
        <ele>825</ele>
        <time>2018-09-26T12:49:57Z</time>
      </trkpt>
      <trkpt lat="45.49619" lon="2.60884">
        <ele>825</ele>
        <time>2018-09-26T12:49:57Z</time>
      </trkpt>
      <trkpt lat="45.49622" lon="2.60883">
        <ele>825</ele>
        <time>2018-09-26T12:49:57Z</time>
      </trkpt>
      <trkpt lat="45.49624" lon="2.60883">
        <ele>825</ele>
        <time>2018-09-26T12:49:57Z</time>
      </trkpt>
      <trkpt lat="45.49627" lon="2.60882">
        <ele>825</ele>
        <time>2018-09-26T12:49:57Z</time>
      </trkpt>
      <trkpt lat="45.49629" lon="2.60882">
        <ele>825</ele>
        <time>2018-09-26T12:49:57Z</time>
      </trkpt>
      <trkpt lat="45.49631" lon="2.60882">
        <ele>825</ele>
        <time>2018-09-26T12:49:57Z</time>
      </trkpt>
      <trkpt lat="45.49633" lon="2.60883">
        <ele>825</ele>
        <time>2018-09-26T12:49:57Z</time>
      </trkpt>
      <trkpt lat="45.49636" lon="2.60884">
        <ele>825</ele>
        <time>2018-09-26T12:49:57Z</time>
      </trkpt>
      <trkpt lat="45.49638" lon="2.60884">
        <ele>825</ele>
        <time>2018-09-26T12:49:57Z</time>
      </trkpt>
      <trkpt lat="45.49641" lon="2.60885">
        <ele>825</ele>
        <time>2018-09-26T12:49:57Z</time>
      </trkpt>
      <trkpt lat="45.49644" lon="2.60887">
        <ele>825</ele>
        <time>2018-09-26T12:49:57Z</time>
      </trkpt>
      <trkpt lat="45.49646" lon="2.60889">
        <ele>825</ele>
        <time>2018-09-26T12:49:57Z</time>
      </trkpt>
      <trkpt lat="45.49648" lon="2.60891">
        <ele>825</ele>
        <time>2018-09-26T12:49:57Z</time>
      </trkpt>
      <trkpt lat="45.4965" lon="2.60892">
        <ele>825</ele>
        <time>2018-09-26T12:49:57Z</time>
      </trkpt>
      <trkpt lat="45.49653" lon="2.60895">
        <ele>825</ele>
        <time>2018-09-26T12:49:57Z</time>
      </trkpt>
      <trkpt lat="45.49655" lon="2.60896">
        <ele>825</ele>
        <time>2018-09-26T12:49:57Z</time>
      </trkpt>
      <trkpt lat="45.49656" lon="2.60897">
        <ele>825</ele>
        <time>2018-09-26T12:49:57Z</time>
      </trkpt>
      <trkpt lat="45.49658" lon="2.60898">
        <ele>825</ele>
        <time>2018-09-26T12:49:57Z</time>
      </trkpt>
      <trkpt lat="45.49661" lon="2.609">
        <ele>825</ele>
        <time>2018-09-26T12:49:57Z</time>
      </trkpt>
      <trkpt lat="45.49663" lon="2.60901">
        <ele>825</ele>
        <time>2018-09-26T12:49:57Z</time>
      </trkpt>
      <trkpt lat="45.49665" lon="2.60902">
        <ele>825</ele>
        <time>2018-09-26T12:49:57Z</time>
      </trkpt>
      <trkpt lat="45.49667" lon="2.60903">
        <ele>826</ele>
        <time>2018-09-26T12:49:57Z</time>
      </trkpt>
      <trkpt lat="45.4967" lon="2.60905">
        <ele>826</ele>
        <time>2018-09-26T12:49:57Z</time>
      </trkpt>
      <trkpt lat="45.49672" lon="2.60906">
        <ele>826</ele>
        <time>2018-09-26T12:49:57Z</time>
      </trkpt>
      <trkpt lat="45.49674" lon="2.60907">
        <ele>826</ele>
        <time>2018-09-26T12:49:57Z</time>
      </trkpt>
      <trkpt lat="45.49676" lon="2.60908">
        <ele>826</ele>
        <time>2018-09-26T12:49:57Z</time>
      </trkpt>
      <trkpt lat="45.49679" lon="2.60909">
        <ele>826</ele>
        <time>2018-09-26T12:49:57Z</time>
      </trkpt>
      <trkpt lat="45.49681" lon="2.6091">
        <ele>826</ele>
        <time>2018-09-26T12:49:57Z</time>
      </trkpt>
      <trkpt lat="45.49684" lon="2.6091">
        <ele>826</ele>
        <time>2018-09-26T12:49:57Z</time>
      </trkpt>
      <trkpt lat="45.49686" lon="2.6091">
        <ele>826</ele>
        <time>2018-09-26T12:49:57Z</time>
      </trkpt>
      <trkpt lat="45.49689" lon="2.6091">
        <ele>826</ele>
        <time>2018-09-26T12:49:57Z</time>
      </trkpt>
      <trkpt lat="45.49692" lon="2.6091">
        <ele>826</ele>
        <time>2018-09-26T12:49:57Z</time>
      </trkpt>
      <trkpt lat="45.49694" lon="2.60909">
        <ele>826</ele>
        <time>2018-09-26T12:49:57Z</time>
      </trkpt>
      <trkpt lat="45.49697" lon="2.60908">
        <ele>826</ele>
        <time>2018-09-26T12:49:57Z</time>
      </trkpt>
      <trkpt lat="45.497" lon="2.60908">
        <ele>826</ele>
        <time>2018-09-26T12:49:57Z</time>
      </trkpt>
      <trkpt lat="45.49702" lon="2.60907">
        <ele>826</ele>
        <time>2018-09-26T12:49:57Z</time>
      </trkpt>
      <trkpt lat="45.49705" lon="2.60905">
        <ele>826</ele>
        <time>2018-09-26T12:49:57Z</time>
      </trkpt>
      <trkpt lat="45.49707" lon="2.60905">
        <ele>826</ele>
        <time>2018-09-26T12:49:57Z</time>
      </trkpt>
      <trkpt lat="45.49709" lon="2.60905">
        <ele>827</ele>
        <time>2018-09-26T12:49:57Z</time>
      </trkpt>
      <trkpt lat="45.49712" lon="2.60905">
        <ele>827</ele>
        <time>2018-09-26T12:49:57Z</time>
      </trkpt>
      <trkpt lat="45.49714" lon="2.60905">
        <ele>827</ele>
        <time>2018-09-26T12:49:57Z</time>
      </trkpt>
      <trkpt lat="45.49717" lon="2.60906">
        <ele>827</ele>
        <time>2018-09-26T12:49:57Z</time>
      </trkpt>
      <trkpt lat="45.49719" lon="2.60907">
        <ele>827</ele>
        <time>2018-09-26T12:49:57Z</time>
      </trkpt>
      <trkpt lat="45.49721" lon="2.60907">
        <ele>827</ele>
        <time>2018-09-26T12:49:57Z</time>
      </trkpt>
      <trkpt lat="45.49724" lon="2.60909">
        <ele>827</ele>
        <time>2018-09-26T12:49:57Z</time>
      </trkpt>
      <trkpt lat="45.49727" lon="2.6091">
        <ele>827</ele>
        <time>2018-09-26T12:49:57Z</time>
      </trkpt>
      <trkpt lat="45.49729" lon="2.60911">
        <ele>827</ele>
        <time>2018-09-26T12:49:57Z</time>
      </trkpt>
      <trkpt lat="45.49732" lon="2.60912">
        <ele>827</ele>
        <time>2018-09-26T12:49:57Z</time>
      </trkpt>
      <trkpt lat="45.49735" lon="2.60913">
        <ele>827</ele>
        <time>2018-09-26T12:49:57Z</time>
      </trkpt>
      <trkpt lat="45.49737" lon="2.60914">
        <ele>827</ele>
        <time>2018-09-26T12:49:57Z</time>
      </trkpt>
      <trkpt lat="45.4974" lon="2.60914">
        <ele>827</ele>
        <time>2018-09-26T12:49:57Z</time>
      </trkpt>
      <trkpt lat="45.49742" lon="2.60914">
        <ele>827</ele>
        <time>2018-09-26T12:49:57Z</time>
      </trkpt>
      <trkpt lat="45.49744" lon="2.60915">
        <ele>827</ele>
        <time>2018-09-26T12:49:57Z</time>
      </trkpt>
      <trkpt lat="45.49747" lon="2.60916">
        <ele>828</ele>
        <time>2018-09-26T12:49:57Z</time>
      </trkpt>
      <trkpt lat="45.4975" lon="2.60917">
        <ele>828</ele>
        <time>2018-09-26T12:49:57Z</time>
      </trkpt>
      <trkpt lat="45.49752" lon="2.60918">
        <ele>828</ele>
        <time>2018-09-26T12:49:57Z</time>
      </trkpt>
      <trkpt lat="45.49755" lon="2.60919">
        <ele>828</ele>
        <time>2018-09-26T12:49:57Z</time>
      </trkpt>
      <trkpt lat="45.49757" lon="2.6092">
        <ele>828</ele>
        <time>2018-09-26T12:49:57Z</time>
      </trkpt>
      <trkpt lat="45.49759" lon="2.6092">
        <ele>828</ele>
        <time>2018-09-26T12:49:57Z</time>
      </trkpt>
      <trkpt lat="45.49761" lon="2.60921">
        <ele>828</ele>
        <time>2018-09-26T12:49:57Z</time>
      </trkpt>
      <trkpt lat="45.49763" lon="2.60921">
        <ele>828</ele>
        <time>2018-09-26T12:49:57Z</time>
      </trkpt>
      <trkpt lat="45.49766" lon="2.60922">
        <ele>828</ele>
        <time>2018-09-26T12:49:57Z</time>
      </trkpt>
      <trkpt lat="45.49768" lon="2.60923">
        <ele>828</ele>
        <time>2018-09-26T12:49:57Z</time>
      </trkpt>
      <trkpt lat="45.4977" lon="2.60924">
        <ele>828</ele>
        <time>2018-09-26T12:49:57Z</time>
      </trkpt>
      <trkpt lat="45.49773" lon="2.60925">
        <ele>828</ele>
        <time>2018-09-26T12:49:57Z</time>
      </trkpt>
      <trkpt lat="45.49775" lon="2.60925">
        <ele>828</ele>
        <time>2018-09-26T12:49:57Z</time>
      </trkpt>
      <trkpt lat="45.49777" lon="2.60926">
        <ele>828</ele>
        <time>2018-09-26T12:49:57Z</time>
      </trkpt>
      <trkpt lat="45.49779" lon="2.60928">
        <ele>828</ele>
        <time>2018-09-26T12:49:57Z</time>
      </trkpt>
      <trkpt lat="45.49781" lon="2.60929">
        <ele>828</ele>
        <time>2018-09-26T12:49:57Z</time>
      </trkpt>
      <trkpt lat="45.49784" lon="2.6093">
        <ele>829</ele>
        <time>2018-09-26T12:49:57Z</time>
      </trkpt>
      <trkpt lat="45.49786" lon="2.60931">
        <ele>829</ele>
        <time>2018-09-26T12:49:57Z</time>
      </trkpt>
      <trkpt lat="45.49788" lon="2.60933">
        <ele>829</ele>
        <time>2018-09-26T12:49:57Z</time>
      </trkpt>
      <trkpt lat="45.49791" lon="2.60935">
        <ele>829</ele>
        <time>2018-09-26T12:49:57Z</time>
      </trkpt>
      <trkpt lat="45.49794" lon="2.60937">
        <ele>829</ele>
        <time>2018-09-26T12:49:57Z</time>
      </trkpt>
      <trkpt lat="45.49795" lon="2.60938">
        <ele>829</ele>
        <time>2018-09-26T12:49:57Z</time>
      </trkpt>
      <trkpt lat="45.49798" lon="2.6094">
        <ele>829</ele>
        <time>2018-09-26T12:49:57Z</time>
      </trkpt>
      <trkpt lat="45.498" lon="2.60942">
        <ele>829</ele>
        <time>2018-09-26T12:49:57Z</time>
      </trkpt>
      <trkpt lat="45.49801" lon="2.60943">
        <ele>829</ele>
        <time>2018-09-26T12:49:57Z</time>
      </trkpt>
      <trkpt lat="45.49803" lon="2.60945">
        <ele>829</ele>
        <time>2018-09-26T12:49:57Z</time>
      </trkpt>
      <trkpt lat="45.49804" lon="2.60947">
        <ele>829</ele>
        <time>2018-09-26T12:49:57Z</time>
      </trkpt>
      <trkpt lat="45.49806" lon="2.60948">
        <ele>829</ele>
        <time>2018-09-26T12:49:57Z</time>
      </trkpt>
      <trkpt lat="45.49808" lon="2.6095">
        <ele>829</ele>
        <time>2018-09-26T12:49:57Z</time>
      </trkpt>
      <trkpt lat="45.49809" lon="2.60952">
        <ele>829</ele>
        <time>2018-09-26T12:49:57Z</time>
      </trkpt>
      <trkpt lat="45.4981" lon="2.60954">
        <ele>830</ele>
        <time>2018-09-26T12:49:57Z</time>
      </trkpt>
      <trkpt lat="45.49812" lon="2.60956">
        <ele>830</ele>
        <time>2018-09-26T12:49:57Z</time>
      </trkpt>
      <trkpt lat="45.49813" lon="2.60957">
        <ele>830</ele>
        <time>2018-09-26T12:49:57Z</time>
      </trkpt>
      <trkpt lat="45.49815" lon="2.60958">
        <ele>830</ele>
        <time>2018-09-26T12:49:57Z</time>
      </trkpt>
      <trkpt lat="45.49817" lon="2.60959">
        <ele>830</ele>
        <time>2018-09-26T12:49:57Z</time>
      </trkpt>
      <trkpt lat="45.49819" lon="2.60959">
        <ele>830</ele>
        <time>2018-09-26T12:49:57Z</time>
      </trkpt>
      <trkpt lat="45.49822" lon="2.6096">
        <ele>830</ele>
        <time>2018-09-26T12:49:57Z</time>
      </trkpt>
      <trkpt lat="45.49825" lon="2.60961">
        <ele>830</ele>
        <time>2018-09-26T12:49:57Z</time>
      </trkpt>
      <trkpt lat="45.49827" lon="2.60962">
        <ele>830</ele>
        <time>2018-09-26T12:49:57Z</time>
      </trkpt>
      <trkpt lat="45.49829" lon="2.60963">
        <ele>830</ele>
        <time>2018-09-26T12:49:57Z</time>
      </trkpt>
      <trkpt lat="45.49831" lon="2.60965">
        <ele>830</ele>
        <time>2018-09-26T12:49:57Z</time>
      </trkpt>
      <trkpt lat="45.49834" lon="2.60965">
        <ele>830</ele>
        <time>2018-09-26T12:49:57Z</time>
      </trkpt>
      <trkpt lat="45.49836" lon="2.60967">
        <ele>830</ele>
        <time>2018-09-26T12:49:57Z</time>
      </trkpt>
      <trkpt lat="45.49838" lon="2.60968">
        <ele>830</ele>
        <time>2018-09-26T12:49:57Z</time>
      </trkpt>
      <trkpt lat="45.49839" lon="2.60968">
        <ele>830</ele>
        <time>2018-09-26T12:49:57Z</time>
      </trkpt>
      <trkpt lat="45.49841" lon="2.60969">
        <ele>830</ele>
        <time>2018-09-26T12:49:57Z</time>
      </trkpt>
      <trkpt lat="45.49843" lon="2.60969">
        <ele>830</ele>
        <time>2018-09-26T12:49:57Z</time>
      </trkpt>
      <trkpt lat="45.49846" lon="2.60969">
        <ele>831</ele>
        <time>2018-09-26T12:49:57Z</time>
      </trkpt>
      <trkpt lat="45.49848" lon="2.60971">
        <ele>831</ele>
        <time>2018-09-26T12:49:57Z</time>
      </trkpt>
      <trkpt lat="45.49851" lon="2.60974">
        <ele>831</ele>
        <time>2018-09-26T12:49:57Z</time>
      </trkpt>
      <trkpt lat="45.49853" lon="2.60976">
        <ele>831</ele>
        <time>2018-09-26T12:49:57Z</time>
      </trkpt>
      <trkpt lat="45.49855" lon="2.60978">
        <ele>831</ele>
        <time>2018-09-26T12:49:57Z</time>
      </trkpt>
      <trkpt lat="45.49857" lon="2.6098">
        <ele>831</ele>
        <time>2018-09-26T12:49:57Z</time>
      </trkpt>
      <trkpt lat="45.49859" lon="2.60982">
        <ele>831</ele>
        <time>2018-09-26T12:49:57Z</time>
      </trkpt>
      <trkpt lat="45.49861" lon="2.60985">
        <ele>831</ele>
        <time>2018-09-26T12:49:57Z</time>
      </trkpt>
      <trkpt lat="45.49861" lon="2.60987">
        <ele>831</ele>
        <time>2018-09-26T12:49:57Z</time>
      </trkpt>
      <trkpt lat="45.49862" lon="2.6099">
        <ele>831</ele>
        <time>2018-09-26T12:49:57Z</time>
      </trkpt>
      <trkpt lat="45.49864" lon="2.60993">
        <ele>831</ele>
        <time>2018-09-26T12:49:57Z</time>
      </trkpt>
      <trkpt lat="45.49866" lon="2.60994">
        <ele>831</ele>
        <time>2018-09-26T12:49:57Z</time>
      </trkpt>
      <trkpt lat="45.49868" lon="2.60997">
        <ele>831</ele>
        <time>2018-09-26T12:49:57Z</time>
      </trkpt>
      <trkpt lat="45.4987" lon="2.60999">
        <ele>832</ele>
        <time>2018-09-26T12:49:57Z</time>
      </trkpt>
      <trkpt lat="45.49872" lon="2.61001">
        <ele>832</ele>
        <time>2018-09-26T12:49:57Z</time>
      </trkpt>
      <trkpt lat="45.49873" lon="2.61004">
        <ele>832</ele>
        <time>2018-09-26T12:49:57Z</time>
      </trkpt>
      <trkpt lat="45.49875" lon="2.61006">
        <ele>832</ele>
        <time>2018-09-26T12:49:57Z</time>
      </trkpt>
      <trkpt lat="45.49877" lon="2.61008">
        <ele>832</ele>
        <time>2018-09-26T12:49:57Z</time>
      </trkpt>
      <trkpt lat="45.49879" lon="2.6101">
        <ele>832</ele>
        <time>2018-09-26T12:49:57Z</time>
      </trkpt>
      <trkpt lat="45.4988" lon="2.61013">
        <ele>832</ele>
        <time>2018-09-26T12:49:57Z</time>
      </trkpt>
      <trkpt lat="45.49882" lon="2.61015">
        <ele>832</ele>
        <time>2018-09-26T12:49:57Z</time>
      </trkpt>
      <trkpt lat="45.49883" lon="2.61018">
        <ele>832</ele>
        <time>2018-09-26T12:49:57Z</time>
      </trkpt>
      <trkpt lat="45.49884" lon="2.61021">
        <ele>832</ele>
        <time>2018-09-26T12:49:57Z</time>
      </trkpt>
      <trkpt lat="45.49884" lon="2.61025">
        <ele>832</ele>
        <time>2018-09-26T12:49:57Z</time>
      </trkpt>
      <trkpt lat="45.49883" lon="2.61029">
        <ele>832</ele>
        <time>2018-09-26T12:49:57Z</time>
      </trkpt>
      <trkpt lat="45.49882" lon="2.61033">
        <ele>832</ele>
        <time>2018-09-26T12:49:57Z</time>
      </trkpt>
      <trkpt lat="45.49881" lon="2.61037">
        <ele>832</ele>
        <time>2018-09-26T12:49:57Z</time>
      </trkpt>
      <trkpt lat="45.4988" lon="2.6104">
        <ele>832</ele>
        <time>2018-09-26T12:49:57Z</time>
      </trkpt>
      <trkpt lat="45.49879" lon="2.61044">
        <ele>832</ele>
        <time>2018-09-26T12:49:57Z</time>
      </trkpt>
      <trkpt lat="45.49878" lon="2.61047">
        <ele>832</ele>
        <time>2018-09-26T12:49:57Z</time>
      </trkpt>
      <trkpt lat="45.49877" lon="2.61051">
        <ele>832</ele>
        <time>2018-09-26T12:49:57Z</time>
      </trkpt>
      <trkpt lat="45.49876" lon="2.61053">
        <ele>832</ele>
        <time>2018-09-26T12:49:57Z</time>
      </trkpt>
      <trkpt lat="45.49875" lon="2.61056">
        <ele>832</ele>
        <time>2018-09-26T12:49:57Z</time>
      </trkpt>
      <trkpt lat="45.49874" lon="2.6106">
        <ele>832</ele>
        <time>2018-09-26T12:49:57Z</time>
      </trkpt>
      <trkpt lat="45.49874" lon="2.61063">
        <ele>832</ele>
        <time>2018-09-26T12:49:57Z</time>
      </trkpt>
      <trkpt lat="45.49874" lon="2.61066">
        <ele>832</ele>
        <time>2018-09-26T12:49:57Z</time>
      </trkpt>
      <trkpt lat="45.49873" lon="2.6107">
        <ele>832</ele>
        <time>2018-09-26T12:49:57Z</time>
      </trkpt>
      <trkpt lat="45.49872" lon="2.61073">
        <ele>832</ele>
        <time>2018-09-26T12:49:57Z</time>
      </trkpt>
      <trkpt lat="45.49871" lon="2.61077">
        <ele>832</ele>
        <time>2018-09-26T12:49:57Z</time>
      </trkpt>
      <trkpt lat="45.4987" lon="2.6108">
        <ele>832</ele>
        <time>2018-09-26T12:49:57Z</time>
      </trkpt>
      <trkpt lat="45.49869" lon="2.61083">
        <ele>832</ele>
        <time>2018-09-26T12:49:57Z</time>
      </trkpt>
      <trkpt lat="45.49869" lon="2.61087">
        <ele>832</ele>
        <time>2018-09-26T12:49:57Z</time>
      </trkpt>
      <trkpt lat="45.49868" lon="2.6109">
        <ele>832</ele>
        <time>2018-09-26T12:49:57Z</time>
      </trkpt>
      <trkpt lat="45.49867" lon="2.61093">
        <ele>832</ele>
        <time>2018-09-26T12:49:57Z</time>
      </trkpt>
      <trkpt lat="45.49866" lon="2.61097">
        <ele>832</ele>
        <time>2018-09-26T12:49:57Z</time>
      </trkpt>
      <trkpt lat="45.49865" lon="2.611">
        <ele>832</ele>
        <time>2018-09-26T12:49:57Z</time>
      </trkpt>
      <trkpt lat="45.49864" lon="2.61103">
        <ele>832</ele>
        <time>2018-09-26T12:49:57Z</time>
      </trkpt>
      <trkpt lat="45.49864" lon="2.61106">
        <ele>832</ele>
        <time>2018-09-26T12:49:57Z</time>
      </trkpt>
      <trkpt lat="45.49863" lon="2.6111">
        <ele>832</ele>
        <time>2018-09-26T12:49:57Z</time>
      </trkpt>
      <trkpt lat="45.49862" lon="2.61113">
        <ele>832</ele>
        <time>2018-09-26T12:49:57Z</time>
      </trkpt>
      <trkpt lat="45.49861" lon="2.61117">
        <ele>832</ele>
        <time>2018-09-26T12:49:57Z</time>
      </trkpt>
      <trkpt lat="45.4986" lon="2.6112">
        <ele>832</ele>
        <time>2018-09-26T12:49:57Z</time>
      </trkpt>
      <trkpt lat="45.49859" lon="2.61124">
        <ele>832</ele>
        <time>2018-09-26T12:49:57Z</time>
      </trkpt>
      <trkpt lat="45.49859" lon="2.61128">
        <ele>832</ele>
        <time>2018-09-26T12:49:57Z</time>
      </trkpt>
      <trkpt lat="45.49858" lon="2.61131">
        <ele>832</ele>
        <time>2018-09-26T12:49:57Z</time>
      </trkpt>
      <trkpt lat="45.49858" lon="2.61135">
        <ele>832</ele>
        <time>2018-09-26T12:49:57Z</time>
      </trkpt>
      <trkpt lat="45.49857" lon="2.6114">
        <ele>832</ele>
        <time>2018-09-26T12:49:57Z</time>
      </trkpt>
      <trkpt lat="45.49856" lon="2.61143">
        <ele>832</ele>
        <time>2018-09-26T12:49:57Z</time>
      </trkpt>
      <trkpt lat="45.49855" lon="2.61145">
        <ele>833</ele>
        <time>2018-09-26T12:49:57Z</time>
      </trkpt>
      <trkpt lat="45.49854" lon="2.61147">
        <ele>833</ele>
        <time>2018-09-26T12:49:57Z</time>
      </trkpt>
      <trkpt lat="45.49854" lon="2.61151">
        <ele>833</ele>
        <time>2018-09-26T12:49:57Z</time>
      </trkpt>
      <trkpt lat="45.49854" lon="2.61154">
        <ele>833</ele>
        <time>2018-09-26T12:49:57Z</time>
      </trkpt>
      <trkpt lat="45.49853" lon="2.61157">
        <ele>833</ele>
        <time>2018-09-26T12:49:57Z</time>
      </trkpt>
      <trkpt lat="45.49853" lon="2.6116">
        <ele>833</ele>
        <time>2018-09-26T12:49:57Z</time>
      </trkpt>
      <trkpt lat="45.49852" lon="2.61164">
        <ele>833</ele>
        <time>2018-09-26T12:49:57Z</time>
      </trkpt>
      <trkpt lat="45.49852" lon="2.61168">
        <ele>833</ele>
        <time>2018-09-26T12:49:57Z</time>
      </trkpt>
      <trkpt lat="45.49852" lon="2.61171">
        <ele>833</ele>
        <time>2018-09-26T12:49:57Z</time>
      </trkpt>
      <trkpt lat="45.49851" lon="2.61174">
        <ele>833</ele>
        <time>2018-09-26T12:49:57Z</time>
      </trkpt>
      <trkpt lat="45.49851" lon="2.61177">
        <ele>833</ele>
        <time>2018-09-26T12:49:57Z</time>
      </trkpt>
      <trkpt lat="45.49851" lon="2.6118">
        <ele>833</ele>
        <time>2018-09-26T12:49:57Z</time>
      </trkpt>
      <trkpt lat="45.4985" lon="2.61184">
        <ele>833</ele>
        <time>2018-09-26T12:49:57Z</time>
      </trkpt>
      <trkpt lat="45.4985" lon="2.61187">
        <ele>833</ele>
        <time>2018-09-26T12:49:57Z</time>
      </trkpt>
      <trkpt lat="45.49849" lon="2.6119">
        <ele>833</ele>
        <time>2018-09-26T12:49:57Z</time>
      </trkpt>
      <trkpt lat="45.49849" lon="2.61194">
        <ele>833</ele>
        <time>2018-09-26T12:49:57Z</time>
      </trkpt>
      <trkpt lat="45.49848" lon="2.61197">
        <ele>833</ele>
        <time>2018-09-26T12:49:57Z</time>
      </trkpt>
      <trkpt lat="45.49848" lon="2.612">
        <ele>833</ele>
        <time>2018-09-26T12:49:57Z</time>
      </trkpt>
      <trkpt lat="45.49848" lon="2.61203">
        <ele>833</ele>
        <time>2018-09-26T12:49:57Z</time>
      </trkpt>
      <trkpt lat="45.49848" lon="2.61206">
        <ele>833</ele>
        <time>2018-09-26T12:49:57Z</time>
      </trkpt>
      <trkpt lat="45.49848" lon="2.61209">
        <ele>833</ele>
        <time>2018-09-26T12:49:57Z</time>
      </trkpt>
      <trkpt lat="45.49847" lon="2.61212">
        <ele>833</ele>
        <time>2018-09-26T12:49:57Z</time>
      </trkpt>
      <trkpt lat="45.49847" lon="2.61215">
        <ele>833</ele>
        <time>2018-09-26T12:49:57Z</time>
      </trkpt>
      <trkpt lat="45.49848" lon="2.61218">
        <ele>833</ele>
        <time>2018-09-26T12:49:57Z</time>
      </trkpt>
      <trkpt lat="45.49848" lon="2.61221">
        <ele>834</ele>
        <time>2018-09-26T12:49:57Z</time>
      </trkpt>
      <trkpt lat="45.49847" lon="2.61225">
        <ele>834</ele>
        <time>2018-09-26T12:49:57Z</time>
      </trkpt>
      <trkpt lat="45.49847" lon="2.61229">
        <ele>834</ele>
        <time>2018-09-26T12:49:57Z</time>
      </trkpt>
      <trkpt lat="45.49848" lon="2.61232">
        <ele>834</ele>
        <time>2018-09-26T12:49:57Z</time>
      </trkpt>
      <trkpt lat="45.49848" lon="2.61236">
        <ele>834</ele>
        <time>2018-09-26T12:49:57Z</time>
      </trkpt>
      <trkpt lat="45.49848" lon="2.6124">
        <ele>834</ele>
        <time>2018-09-26T12:49:57Z</time>
      </trkpt>
      <trkpt lat="45.49848" lon="2.61243">
        <ele>834</ele>
        <time>2018-09-26T12:49:57Z</time>
      </trkpt>
      <trkpt lat="45.49848" lon="2.61247">
        <ele>834</ele>
        <time>2018-09-26T12:49:57Z</time>
      </trkpt>
      <trkpt lat="45.49849" lon="2.61251">
        <ele>834</ele>
        <time>2018-09-26T12:49:57Z</time>
      </trkpt>
      <trkpt lat="45.49849" lon="2.61254">
        <ele>834</ele>
        <time>2018-09-26T12:49:57Z</time>
      </trkpt>
      <trkpt lat="45.4985" lon="2.61257">
        <ele>834</ele>
        <time>2018-09-26T12:49:57Z</time>
      </trkpt>
      <trkpt lat="45.4985" lon="2.61261">
        <ele>834</ele>
        <time>2018-09-26T12:49:57Z</time>
      </trkpt>
      <trkpt lat="45.4985" lon="2.61265">
        <ele>834</ele>
        <time>2018-09-26T12:49:57Z</time>
      </trkpt>
      <trkpt lat="45.4985" lon="2.61269">
        <ele>834</ele>
        <time>2018-09-26T12:49:57Z</time>
      </trkpt>
      <trkpt lat="45.4985" lon="2.61273">
        <ele>834</ele>
        <time>2018-09-26T12:49:57Z</time>
      </trkpt>
      <trkpt lat="45.49851" lon="2.61276">
        <ele>834</ele>
        <time>2018-09-26T12:49:57Z</time>
      </trkpt>
      <trkpt lat="45.49851" lon="2.61279">
        <ele>834</ele>
        <time>2018-09-26T12:49:57Z</time>
      </trkpt>
      <trkpt lat="45.49852" lon="2.61283">
        <ele>834</ele>
        <time>2018-09-26T12:49:57Z</time>
      </trkpt>
      <trkpt lat="45.49854" lon="2.61287">
        <ele>834</ele>
        <time>2018-09-26T12:49:57Z</time>
      </trkpt>
      <trkpt lat="45.49854" lon="2.61289">
        <ele>834</ele>
        <time>2018-09-26T12:49:57Z</time>
      </trkpt>
      <trkpt lat="45.49854" lon="2.61292">
        <ele>834</ele>
        <time>2018-09-26T12:49:57Z</time>
      </trkpt>
      <trkpt lat="45.49854" lon="2.61295">
        <ele>834</ele>
        <time>2018-09-26T12:49:57Z</time>
      </trkpt>
      <trkpt lat="45.49855" lon="2.61298">
        <ele>834</ele>
        <time>2018-09-26T12:49:57Z</time>
      </trkpt>
      <trkpt lat="45.49856" lon="2.61301">
        <ele>835</ele>
        <time>2018-09-26T12:49:57Z</time>
      </trkpt>
      <trkpt lat="45.49856" lon="2.61303">
        <ele>835</ele>
        <time>2018-09-26T12:49:57Z</time>
      </trkpt>
      <trkpt lat="45.49857" lon="2.61307">
        <ele>835</ele>
        <time>2018-09-26T12:49:57Z</time>
      </trkpt>
      <trkpt lat="45.49857" lon="2.6131">
        <ele>835</ele>
        <time>2018-09-26T12:49:57Z</time>
      </trkpt>
      <trkpt lat="45.49857" lon="2.61314">
        <ele>835</ele>
        <time>2018-09-26T12:49:57Z</time>
      </trkpt>
      <trkpt lat="45.49857" lon="2.61318">
        <ele>835</ele>
        <time>2018-09-26T12:49:57Z</time>
      </trkpt>
      <trkpt lat="45.49857" lon="2.61321">
        <ele>835</ele>
        <time>2018-09-26T12:49:57Z</time>
      </trkpt>
      <trkpt lat="45.49856" lon="2.61324">
        <ele>835</ele>
        <time>2018-09-26T12:49:57Z</time>
      </trkpt>
      <trkpt lat="45.49855" lon="2.61328">
        <ele>835</ele>
        <time>2018-09-26T12:49:57Z</time>
      </trkpt>
      <trkpt lat="45.49853" lon="2.61331">
        <ele>835</ele>
        <time>2018-09-26T12:49:57Z</time>
      </trkpt>
      <trkpt lat="45.49852" lon="2.61334">
        <ele>835</ele>
        <time>2018-09-26T12:49:57Z</time>
      </trkpt>
      <trkpt lat="45.49851" lon="2.61337">
        <ele>835</ele>
        <time>2018-09-26T12:49:57Z</time>
      </trkpt>
      <trkpt lat="45.49849" lon="2.6134">
        <ele>835</ele>
        <time>2018-09-26T12:49:57Z</time>
      </trkpt>
      <trkpt lat="45.49847" lon="2.61343">
        <ele>834</ele>
        <time>2018-09-26T12:49:57Z</time>
      </trkpt>
      <trkpt lat="45.49846" lon="2.61345">
        <ele>834</ele>
        <time>2018-09-26T12:49:57Z</time>
      </trkpt>
      <trkpt lat="45.49844" lon="2.61348">
        <ele>834</ele>
        <time>2018-09-26T12:49:57Z</time>
      </trkpt>
      <trkpt lat="45.49843" lon="2.61351">
        <ele>834</ele>
        <time>2018-09-26T12:49:57Z</time>
      </trkpt>
      <trkpt lat="45.49841" lon="2.61354">
        <ele>834</ele>
        <time>2018-09-26T12:49:57Z</time>
      </trkpt>
      <trkpt lat="45.4984" lon="2.61357">
        <ele>834</ele>
        <time>2018-09-26T12:49:57Z</time>
      </trkpt>
      <trkpt lat="45.49839" lon="2.61361">
        <ele>834</ele>
        <time>2018-09-26T12:49:57Z</time>
      </trkpt>
      <trkpt lat="45.49839" lon="2.61364">
        <ele>834</ele>
        <time>2018-09-26T12:49:57Z</time>
      </trkpt>
      <trkpt lat="45.49839" lon="2.61366">
        <ele>834</ele>
        <time>2018-09-26T12:49:57Z</time>
      </trkpt>
      <trkpt lat="45.49838" lon="2.61369">
        <ele>834</ele>
        <time>2018-09-26T12:49:57Z</time>
      </trkpt>
      <trkpt lat="45.49838" lon="2.61372">
        <ele>834</ele>
        <time>2018-09-26T12:49:57Z</time>
      </trkpt>
      <trkpt lat="45.49838" lon="2.61375">
        <ele>834</ele>
        <time>2018-09-26T12:49:57Z</time>
      </trkpt>
      <trkpt lat="45.49838" lon="2.61378">
        <ele>834</ele>
        <time>2018-09-26T12:49:57Z</time>
      </trkpt>
      <trkpt lat="45.49837" lon="2.61382">
        <ele>834</ele>
        <time>2018-09-26T12:49:57Z</time>
      </trkpt>
      <trkpt lat="45.49837" lon="2.61385">
        <ele>834</ele>
        <time>2018-09-26T12:49:57Z</time>
      </trkpt>
      <trkpt lat="45.49837" lon="2.61389">
        <ele>834</ele>
        <time>2018-09-26T12:49:57Z</time>
      </trkpt>
      <trkpt lat="45.49837" lon="2.61393">
        <ele>834</ele>
        <time>2018-09-26T12:49:57Z</time>
      </trkpt>
      <trkpt lat="45.49837" lon="2.61397">
        <ele>834</ele>
        <time>2018-09-26T12:49:57Z</time>
      </trkpt>
      <trkpt lat="45.49837" lon="2.61399">
        <ele>834</ele>
        <time>2018-09-26T12:49:57Z</time>
      </trkpt>
      <trkpt lat="45.49837" lon="2.61403">
        <ele>834</ele>
        <time>2018-09-26T12:49:57Z</time>
      </trkpt>
      <trkpt lat="45.49837" lon="2.61408">
        <ele>834</ele>
        <time>2018-09-26T12:49:57Z</time>
      </trkpt>
      <trkpt lat="45.49837" lon="2.6141">
        <ele>834</ele>
        <time>2018-09-26T12:49:57Z</time>
      </trkpt>
      <trkpt lat="45.49837" lon="2.61413">
        <ele>834</ele>
        <time>2018-09-26T12:49:57Z</time>
      </trkpt>
      <trkpt lat="45.49837" lon="2.61417">
        <ele>834</ele>
        <time>2018-09-26T12:49:57Z</time>
      </trkpt>
      <trkpt lat="45.49837" lon="2.6142">
        <ele>834</ele>
        <time>2018-09-26T12:49:57Z</time>
      </trkpt>
      <trkpt lat="45.49838" lon="2.61423">
        <ele>834</ele>
        <time>2018-09-26T12:49:57Z</time>
      </trkpt>
      <trkpt lat="45.49838" lon="2.61426">
        <ele>835</ele>
        <time>2018-09-26T12:49:57Z</time>
      </trkpt>
      <trkpt lat="45.49839" lon="2.61429">
        <ele>835</ele>
        <time>2018-09-26T12:49:57Z</time>
      </trkpt>
      <trkpt lat="45.49841" lon="2.6143">
        <ele>835</ele>
        <time>2018-09-26T12:49:57Z</time>
      </trkpt>
      <trkpt lat="45.49843" lon="2.61432">
        <ele>835</ele>
        <time>2018-09-26T12:49:57Z</time>
      </trkpt>
      <trkpt lat="45.49845" lon="2.61434">
        <ele>835</ele>
        <time>2018-09-26T12:49:57Z</time>
      </trkpt>
      <trkpt lat="45.49847" lon="2.61435">
        <ele>835</ele>
        <time>2018-09-26T12:49:57Z</time>
      </trkpt>
      <trkpt lat="45.49849" lon="2.61438">
        <ele>835</ele>
        <time>2018-09-26T12:49:57Z</time>
      </trkpt>
      <trkpt lat="45.4985" lon="2.6144">
        <ele>835</ele>
        <time>2018-09-26T12:49:57Z</time>
      </trkpt>
      <trkpt lat="45.49852" lon="2.61442">
        <ele>835</ele>
        <time>2018-09-26T12:49:57Z</time>
      </trkpt>
      <trkpt lat="45.49854" lon="2.61445">
        <ele>835</ele>
        <time>2018-09-26T12:49:57Z</time>
      </trkpt>
      <trkpt lat="45.49857" lon="2.61447">
        <ele>835</ele>
        <time>2018-09-26T12:49:57Z</time>
      </trkpt>
      <trkpt lat="45.49859" lon="2.61448">
        <ele>835</ele>
        <time>2018-09-26T12:49:57Z</time>
      </trkpt>
      <trkpt lat="45.49861" lon="2.61451">
        <ele>835</ele>
        <time>2018-09-26T12:49:57Z</time>
      </trkpt>
      <trkpt lat="45.49863" lon="2.61453">
        <ele>836</ele>
        <time>2018-09-26T12:49:57Z</time>
      </trkpt>
      <trkpt lat="45.49865" lon="2.61454">
        <ele>836</ele>
        <time>2018-09-26T12:49:57Z</time>
      </trkpt>
      <trkpt lat="45.49867" lon="2.61457">
        <ele>836</ele>
        <time>2018-09-26T12:49:57Z</time>
      </trkpt>
      <trkpt lat="45.49868" lon="2.61458">
        <ele>836</ele>
        <time>2018-09-26T12:49:57Z</time>
      </trkpt>
      <trkpt lat="45.4987" lon="2.6146">
        <ele>836</ele>
        <time>2018-09-26T12:49:57Z</time>
      </trkpt>
      <trkpt lat="45.49872" lon="2.61462">
        <ele>836</ele>
        <time>2018-09-26T12:49:57Z</time>
      </trkpt>
      <trkpt lat="45.49874" lon="2.61463">
        <ele>836</ele>
        <time>2018-09-26T12:49:57Z</time>
      </trkpt>
      <trkpt lat="45.49876" lon="2.61465">
        <ele>836</ele>
        <time>2018-09-26T12:49:57Z</time>
      </trkpt>
      <trkpt lat="45.49879" lon="2.61466">
        <ele>836</ele>
        <time>2018-09-26T12:49:57Z</time>
      </trkpt>
      <trkpt lat="45.49881" lon="2.61468">
        <ele>836</ele>
        <time>2018-09-26T12:49:57Z</time>
      </trkpt>
      <trkpt lat="45.49883" lon="2.6147">
        <ele>836</ele>
        <time>2018-09-26T12:49:57Z</time>
      </trkpt>
      <trkpt lat="45.49885" lon="2.61472">
        <ele>836</ele>
        <time>2018-09-26T12:49:57Z</time>
      </trkpt>
      <trkpt lat="45.49887" lon="2.61473">
        <ele>836</ele>
        <time>2018-09-26T12:49:57Z</time>
      </trkpt>
      <trkpt lat="45.4989" lon="2.61474">
        <ele>836</ele>
        <time>2018-09-26T12:49:57Z</time>
      </trkpt>
      <trkpt lat="45.49892" lon="2.61475">
        <ele>837</ele>
        <time>2018-09-26T12:49:57Z</time>
      </trkpt>
      <trkpt lat="45.49894" lon="2.61476">
        <ele>837</ele>
        <time>2018-09-26T12:49:57Z</time>
      </trkpt>
      <trkpt lat="45.49896" lon="2.61477">
        <ele>837</ele>
        <time>2018-09-26T12:49:57Z</time>
      </trkpt>
      <trkpt lat="45.49899" lon="2.61478">
        <ele>837</ele>
        <time>2018-09-26T12:49:57Z</time>
      </trkpt>
      <trkpt lat="45.49901" lon="2.61478">
        <ele>837</ele>
        <time>2018-09-26T12:49:57Z</time>
      </trkpt>
      <trkpt lat="45.49903" lon="2.6148">
        <ele>837</ele>
        <time>2018-09-26T12:49:57Z</time>
      </trkpt>
      <trkpt lat="45.49905" lon="2.61481">
        <ele>837</ele>
        <time>2018-09-26T12:49:57Z</time>
      </trkpt>
      <trkpt lat="45.49907" lon="2.61482">
        <ele>837</ele>
        <time>2018-09-26T12:49:57Z</time>
      </trkpt>
      <trkpt lat="45.4991" lon="2.61482">
        <ele>837</ele>
        <time>2018-09-26T12:49:57Z</time>
      </trkpt>
      <trkpt lat="45.49913" lon="2.61483">
        <ele>837</ele>
        <time>2018-09-26T12:49:57Z</time>
      </trkpt>
      <trkpt lat="45.49915" lon="2.61483">
        <ele>837</ele>
        <time>2018-09-26T12:49:57Z</time>
      </trkpt>
      <trkpt lat="45.49917" lon="2.61483">
        <ele>837</ele>
        <time>2018-09-26T12:49:57Z</time>
      </trkpt>
      <trkpt lat="45.49919" lon="2.61484">
        <ele>837</ele>
        <time>2018-09-26T12:49:57Z</time>
      </trkpt>
      <trkpt lat="45.49922" lon="2.61485">
        <ele>837</ele>
        <time>2018-09-26T12:49:57Z</time>
      </trkpt>
      <trkpt lat="45.49924" lon="2.61485">
        <ele>837</ele>
        <time>2018-09-26T12:49:57Z</time>
      </trkpt>
      <trkpt lat="45.49926" lon="2.61486">
        <ele>837</ele>
        <time>2018-09-26T12:49:57Z</time>
      </trkpt>
      <trkpt lat="45.49928" lon="2.61487">
        <ele>837</ele>
        <time>2018-09-26T12:49:57Z</time>
      </trkpt>
      <trkpt lat="45.4993" lon="2.61487">
        <ele>837</ele>
        <time>2018-09-26T12:49:57Z</time>
      </trkpt>
      <trkpt lat="45.49932" lon="2.61489">
        <ele>837</ele>
        <time>2018-09-26T12:49:57Z</time>
      </trkpt>
      <trkpt lat="45.49935" lon="2.6149">
        <ele>838</ele>
        <time>2018-09-26T12:49:57Z</time>
      </trkpt>
      <trkpt lat="45.49937" lon="2.61492">
        <ele>838</ele>
        <time>2018-09-26T12:49:57Z</time>
      </trkpt>
      <trkpt lat="45.49939" lon="2.61493">
        <ele>838</ele>
        <time>2018-09-26T12:49:57Z</time>
      </trkpt>
      <trkpt lat="45.49941" lon="2.61495">
        <ele>838</ele>
        <time>2018-09-26T12:49:57Z</time>
      </trkpt>
      <trkpt lat="45.49943" lon="2.61497">
        <ele>838</ele>
        <time>2018-09-26T12:49:57Z</time>
      </trkpt>
      <trkpt lat="45.49945" lon="2.615">
        <ele>838</ele>
        <time>2018-09-26T12:49:57Z</time>
      </trkpt>
      <trkpt lat="45.49947" lon="2.61503">
        <ele>838</ele>
        <time>2018-09-26T12:49:57Z</time>
      </trkpt>
      <trkpt lat="45.49948" lon="2.61505">
        <ele>838</ele>
        <time>2018-09-26T12:49:57Z</time>
      </trkpt>
      <trkpt lat="45.4995" lon="2.61508">
        <ele>838</ele>
        <time>2018-09-26T12:49:57Z</time>
      </trkpt>
      <trkpt lat="45.49951" lon="2.6151">
        <ele>838</ele>
        <time>2018-09-26T12:49:57Z</time>
      </trkpt>
      <trkpt lat="45.49952" lon="2.61512">
        <ele>838</ele>
        <time>2018-09-26T12:49:57Z</time>
      </trkpt>
      <trkpt lat="45.49954" lon="2.61515">
        <ele>838</ele>
        <time>2018-09-26T12:49:57Z</time>
      </trkpt>
      <trkpt lat="45.49956" lon="2.61518">
        <ele>838</ele>
        <time>2018-09-26T12:49:57Z</time>
      </trkpt>
      <trkpt lat="45.49957" lon="2.6152">
        <ele>838</ele>
        <time>2018-09-26T12:49:57Z</time>
      </trkpt>
      <trkpt lat="45.49959" lon="2.61523">
        <ele>838</ele>
        <time>2018-09-26T12:49:57Z</time>
      </trkpt>
      <trkpt lat="45.4996" lon="2.61525">
        <ele>838</ele>
        <time>2018-09-26T12:49:57Z</time>
      </trkpt>
      <trkpt lat="45.49962" lon="2.61528">
        <ele>838</ele>
        <time>2018-09-26T12:49:57Z</time>
      </trkpt>
      <trkpt lat="45.49964" lon="2.6153">
        <ele>838</ele>
        <time>2018-09-26T12:49:57Z</time>
      </trkpt>
      <trkpt lat="45.49966" lon="2.61533">
        <ele>838</ele>
        <time>2018-09-26T12:49:57Z</time>
      </trkpt>
      <trkpt lat="45.49968" lon="2.61535">
        <ele>839</ele>
        <time>2018-09-26T12:49:57Z</time>
      </trkpt>
      <trkpt lat="45.49971" lon="2.61537">
        <ele>839</ele>
        <time>2018-09-26T12:49:57Z</time>
      </trkpt>
      <trkpt lat="45.49973" lon="2.61539">
        <ele>839</ele>
        <time>2018-09-26T12:49:57Z</time>
      </trkpt>
      <trkpt lat="45.49975" lon="2.61541">
        <ele>839</ele>
        <time>2018-09-26T12:49:57Z</time>
      </trkpt>
      <trkpt lat="45.49977" lon="2.61543">
        <ele>839</ele>
        <time>2018-09-26T12:49:57Z</time>
      </trkpt>
      <trkpt lat="45.49979" lon="2.61545">
        <ele>839</ele>
        <time>2018-09-26T12:49:57Z</time>
      </trkpt>
      <trkpt lat="45.49981" lon="2.61547">
        <ele>839</ele>
        <time>2018-09-26T12:49:57Z</time>
      </trkpt>
      <trkpt lat="45.49983" lon="2.61548">
        <ele>839</ele>
        <time>2018-09-26T12:49:57Z</time>
      </trkpt>
      <trkpt lat="45.49985" lon="2.6155">
        <ele>839</ele>
        <time>2018-09-26T12:49:57Z</time>
      </trkpt>
      <trkpt lat="45.49987" lon="2.61551">
        <ele>839</ele>
        <time>2018-09-26T12:49:57Z</time>
      </trkpt>
      <trkpt lat="45.4999" lon="2.61552">
        <ele>839</ele>
        <time>2018-09-26T12:49:57Z</time>
      </trkpt>
      <trkpt lat="45.49992" lon="2.61553">
        <ele>839</ele>
        <time>2018-09-26T12:49:57Z</time>
      </trkpt>
      <trkpt lat="45.49994" lon="2.61555">
        <ele>840</ele>
        <time>2018-09-26T12:49:57Z</time>
      </trkpt>
      <trkpt lat="45.49996" lon="2.61556">
        <ele>840</ele>
        <time>2018-09-26T12:49:57Z</time>
      </trkpt>
      <trkpt lat="45.49998" lon="2.61558">
        <ele>840</ele>
        <time>2018-09-26T12:49:57Z</time>
      </trkpt>
      <trkpt lat="45.5" lon="2.61559">
        <ele>840</ele>
        <time>2018-09-26T12:49:57Z</time>
      </trkpt>
      <trkpt lat="45.50002" lon="2.6156">
        <ele>840</ele>
        <time>2018-09-26T12:49:57Z</time>
      </trkpt>
      <trkpt lat="45.50004" lon="2.61561">
        <ele>840</ele>
        <time>2018-09-26T12:49:57Z</time>
      </trkpt>
      <trkpt lat="45.50007" lon="2.61563">
        <ele>840</ele>
        <time>2018-09-26T12:49:57Z</time>
      </trkpt>
      <trkpt lat="45.50009" lon="2.61563">
        <ele>840</ele>
        <time>2018-09-26T12:49:57Z</time>
      </trkpt>
      <trkpt lat="45.50011" lon="2.61564">
        <ele>840</ele>
        <time>2018-09-26T12:49:57Z</time>
      </trkpt>
      <trkpt lat="45.50014" lon="2.61564">
        <ele>840</ele>
        <time>2018-09-26T12:49:57Z</time>
      </trkpt>
      <trkpt lat="45.50017" lon="2.61563">
        <ele>840</ele>
        <time>2018-09-26T12:49:57Z</time>
      </trkpt>
      <trkpt lat="45.50019" lon="2.61562">
        <ele>840</ele>
        <time>2018-09-26T12:49:57Z</time>
      </trkpt>
      <trkpt lat="45.50022" lon="2.61562">
        <ele>841</ele>
        <time>2018-09-26T12:49:57Z</time>
      </trkpt>
      <trkpt lat="45.50024" lon="2.61561">
        <ele>841</ele>
        <time>2018-09-26T12:49:57Z</time>
      </trkpt>
      <trkpt lat="45.50027" lon="2.6156">
        <ele>841</ele>
        <time>2018-09-26T12:49:57Z</time>
      </trkpt>
      <trkpt lat="45.50029" lon="2.61558">
        <ele>841</ele>
        <time>2018-09-26T12:49:57Z</time>
      </trkpt>
      <trkpt lat="45.50032" lon="2.61557">
        <ele>841</ele>
        <time>2018-09-26T12:49:57Z</time>
      </trkpt>
      <trkpt lat="45.50034" lon="2.61556">
        <ele>841</ele>
        <time>2018-09-26T12:49:57Z</time>
      </trkpt>
      <trkpt lat="45.50037" lon="2.61555">
        <ele>841</ele>
        <time>2018-09-26T12:49:57Z</time>
      </trkpt>
      <trkpt lat="45.50039" lon="2.61555">
        <ele>841</ele>
        <time>2018-09-26T12:49:57Z</time>
      </trkpt>
      <trkpt lat="45.50041" lon="2.61554">
        <ele>842</ele>
        <time>2018-09-26T12:49:57Z</time>
      </trkpt>
      <trkpt lat="45.50043" lon="2.61554">
        <ele>842</ele>
        <time>2018-09-26T12:49:57Z</time>
      </trkpt>
      <trkpt lat="45.50044" lon="2.61555">
        <ele>842</ele>
        <time>2018-09-26T12:49:57Z</time>
      </trkpt>
      <trkpt lat="45.50046" lon="2.61556">
        <ele>842</ele>
        <time>2018-09-26T12:49:57Z</time>
      </trkpt>
      <trkpt lat="45.50048" lon="2.61556">
        <ele>842</ele>
        <time>2018-09-26T12:49:57Z</time>
      </trkpt>
      <trkpt lat="45.5005" lon="2.61557">
        <ele>842</ele>
        <time>2018-09-26T12:49:57Z</time>
      </trkpt>
      <trkpt lat="45.50052" lon="2.61557">
        <ele>842</ele>
        <time>2018-09-26T12:49:57Z</time>
      </trkpt>
      <trkpt lat="45.50054" lon="2.61557">
        <ele>842</ele>
        <time>2018-09-26T12:49:57Z</time>
      </trkpt>
      <trkpt lat="45.50057" lon="2.61558">
        <ele>842</ele>
        <time>2018-09-26T12:49:57Z</time>
      </trkpt>
      <trkpt lat="45.50059" lon="2.61557">
        <ele>842</ele>
        <time>2018-09-26T12:49:57Z</time>
      </trkpt>
      <trkpt lat="45.50061" lon="2.61558">
        <ele>842</ele>
        <time>2018-09-26T12:49:57Z</time>
      </trkpt>
      <trkpt lat="45.50064" lon="2.61558">
        <ele>842</ele>
        <time>2018-09-26T12:49:57Z</time>
      </trkpt>
      <trkpt lat="45.50066" lon="2.61557">
        <ele>842</ele>
        <time>2018-09-26T12:49:57Z</time>
      </trkpt>
      <trkpt lat="45.50069" lon="2.61556">
        <ele>842</ele>
        <time>2018-09-26T12:49:57Z</time>
      </trkpt>
      <trkpt lat="45.50072" lon="2.61555">
        <ele>842</ele>
        <time>2018-09-26T12:49:57Z</time>
      </trkpt>
      <trkpt lat="45.50074" lon="2.61554">
        <ele>843</ele>
        <time>2018-09-26T12:49:57Z</time>
      </trkpt>
      <trkpt lat="45.50077" lon="2.61553">
        <ele>843</ele>
        <time>2018-09-26T12:49:57Z</time>
      </trkpt>
      <trkpt lat="45.5008" lon="2.6155">
        <ele>843</ele>
        <time>2018-09-26T12:49:57Z</time>
      </trkpt>
      <trkpt lat="45.50082" lon="2.61549">
        <ele>843</ele>
        <time>2018-09-26T12:49:57Z</time>
      </trkpt>
      <trkpt lat="45.50084" lon="2.61548">
        <ele>843</ele>
        <time>2018-09-26T12:49:57Z</time>
      </trkpt>
      <trkpt lat="45.50086" lon="2.61546">
        <ele>843</ele>
        <time>2018-09-26T12:49:57Z</time>
      </trkpt>
      <trkpt lat="45.50088" lon="2.61545">
        <ele>843</ele>
        <time>2018-09-26T12:49:57Z</time>
      </trkpt>
      <trkpt lat="45.50091" lon="2.61543">
        <ele>843</ele>
        <time>2018-09-26T12:49:57Z</time>
      </trkpt>
      <trkpt lat="45.50093" lon="2.61542">
        <ele>843</ele>
        <time>2018-09-26T12:49:57Z</time>
      </trkpt>
      <trkpt lat="45.50095" lon="2.61541">
        <ele>843</ele>
        <time>2018-09-26T12:49:57Z</time>
      </trkpt>
      <trkpt lat="45.50097" lon="2.6154">
        <ele>843</ele>
        <time>2018-09-26T12:49:57Z</time>
      </trkpt>
      <trkpt lat="45.50099" lon="2.61539">
        <ele>844</ele>
        <time>2018-09-26T12:49:57Z</time>
      </trkpt>
      <trkpt lat="45.50101" lon="2.61539">
        <ele>844</ele>
        <time>2018-09-26T12:49:57Z</time>
      </trkpt>
      <trkpt lat="45.50103" lon="2.61539">
        <ele>844</ele>
        <time>2018-09-26T12:49:57Z</time>
      </trkpt>
      <trkpt lat="45.50105" lon="2.6154">
        <ele>844</ele>
        <time>2018-09-26T12:49:57Z</time>
      </trkpt>
      <trkpt lat="45.50106" lon="2.6154">
        <ele>844</ele>
        <time>2018-09-26T12:49:57Z</time>
      </trkpt>
      <trkpt lat="45.50109" lon="2.6154">
        <ele>844</ele>
        <time>2018-09-26T12:49:57Z</time>
      </trkpt>
      <trkpt lat="45.50111" lon="2.61541">
        <ele>844</ele>
        <time>2018-09-26T12:49:57Z</time>
      </trkpt>
      <trkpt lat="45.50113" lon="2.61541">
        <ele>844</ele>
        <time>2018-09-26T12:49:57Z</time>
      </trkpt>
      <trkpt lat="45.50115" lon="2.61542">
        <ele>845</ele>
        <time>2018-09-26T12:49:57Z</time>
      </trkpt>
      <trkpt lat="45.50117" lon="2.61543">
        <ele>845</ele>
        <time>2018-09-26T12:49:57Z</time>
      </trkpt>
      <trkpt lat="45.5012" lon="2.61544">
        <ele>845</ele>
        <time>2018-09-26T12:49:57Z</time>
      </trkpt>
      <trkpt lat="45.50121" lon="2.61545">
        <ele>845</ele>
        <time>2018-09-26T12:49:57Z</time>
      </trkpt>
      <trkpt lat="45.50123" lon="2.61546">
        <ele>845</ele>
        <time>2018-09-26T12:49:57Z</time>
      </trkpt>
      <trkpt lat="45.50124" lon="2.61546">
        <ele>845</ele>
        <time>2018-09-26T12:49:57Z</time>
      </trkpt>
      <trkpt lat="45.50124" lon="2.61546">
        <ele>845</ele>
        <time>2018-09-26T12:49:57Z</time>
      </trkpt>
      <trkpt lat="45.50124" lon="2.61545">
        <ele>845</ele>
        <time>2018-09-26T12:49:57Z</time>
      </trkpt>
      <trkpt lat="45.50124" lon="2.61545">
        <ele>845</ele>
        <time>2018-09-26T12:49:57Z</time>
      </trkpt>
      <trkpt lat="45.50125" lon="2.61546">
        <ele>845</ele>
        <time>2018-09-26T12:49:57Z</time>
      </trkpt>
      <trkpt lat="45.50127" lon="2.61547">
        <ele>845</ele>
        <time>2018-09-26T12:49:57Z</time>
      </trkpt>
      <trkpt lat="45.50129" lon="2.61548">
        <ele>845</ele>
        <time>2018-09-26T12:49:57Z</time>
      </trkpt>
      <trkpt lat="45.5013" lon="2.61549">
        <ele>846</ele>
        <time>2018-09-26T12:49:57Z</time>
      </trkpt>
      <trkpt lat="45.50132" lon="2.61551">
        <ele>846</ele>
        <time>2018-09-26T12:49:57Z</time>
      </trkpt>
      <trkpt lat="45.50133" lon="2.61552">
        <ele>846</ele>
        <time>2018-09-26T12:49:57Z</time>
      </trkpt>
      <trkpt lat="45.50135" lon="2.61555">
        <ele>846</ele>
        <time>2018-09-26T12:49:57Z</time>
      </trkpt>
      <trkpt lat="45.50136" lon="2.61557">
        <ele>846</ele>
        <time>2018-09-26T12:49:57Z</time>
      </trkpt>
      <trkpt lat="45.50138" lon="2.61559">
        <ele>846</ele>
        <time>2018-09-26T12:49:57Z</time>
      </trkpt>
      <trkpt lat="45.50139" lon="2.6156">
        <ele>846</ele>
        <time>2018-09-26T12:49:57Z</time>
      </trkpt>
      <trkpt lat="45.50141" lon="2.61561">
        <ele>846</ele>
        <time>2018-09-26T12:49:57Z</time>
      </trkpt>
      <trkpt lat="45.50143" lon="2.61563">
        <ele>846</ele>
        <time>2018-09-26T12:49:57Z</time>
      </trkpt>
      <trkpt lat="45.50144" lon="2.61566">
        <ele>846</ele>
        <time>2018-09-26T12:49:57Z</time>
      </trkpt>
      <trkpt lat="45.50146" lon="2.61568">
        <ele>846</ele>
        <time>2018-09-26T12:49:57Z</time>
      </trkpt>
      <trkpt lat="45.50147" lon="2.61571">
        <ele>846</ele>
        <time>2018-09-26T12:49:57Z</time>
      </trkpt>
      <trkpt lat="45.50149" lon="2.61574">
        <ele>847</ele>
        <time>2018-09-26T12:49:57Z</time>
      </trkpt>
      <trkpt lat="45.5015" lon="2.61578">
        <ele>847</ele>
        <time>2018-09-26T12:49:57Z</time>
      </trkpt>
      <trkpt lat="45.50151" lon="2.61582">
        <ele>847</ele>
        <time>2018-09-26T12:49:57Z</time>
      </trkpt>
      <trkpt lat="45.50152" lon="2.61585">
        <ele>847</ele>
        <time>2018-09-26T12:49:57Z</time>
      </trkpt>
      <trkpt lat="45.50154" lon="2.61589">
        <ele>847</ele>
        <time>2018-09-26T12:49:57Z</time>
      </trkpt>
      <trkpt lat="45.50154" lon="2.61592">
        <ele>847</ele>
        <time>2018-09-26T12:49:57Z</time>
      </trkpt>
      <trkpt lat="45.50155" lon="2.61596">
        <ele>847</ele>
        <time>2018-09-26T12:49:57Z</time>
      </trkpt>
      <trkpt lat="45.50156" lon="2.61599">
        <ele>847</ele>
        <time>2018-09-26T12:49:57Z</time>
      </trkpt>
      <trkpt lat="45.50158" lon="2.61602">
        <ele>847</ele>
        <time>2018-09-26T12:49:57Z</time>
      </trkpt>
      <trkpt lat="45.50159" lon="2.61606">
        <ele>847</ele>
        <time>2018-09-26T12:49:57Z</time>
      </trkpt>
      <trkpt lat="45.5016" lon="2.61609">
        <ele>847</ele>
        <time>2018-09-26T12:49:57Z</time>
      </trkpt>
      <trkpt lat="45.50161" lon="2.61612">
        <ele>847</ele>
        <time>2018-09-26T12:49:57Z</time>
      </trkpt>
      <trkpt lat="45.50162" lon="2.61615">
        <ele>847</ele>
        <time>2018-09-26T12:49:57Z</time>
      </trkpt>
      <trkpt lat="45.50163" lon="2.61618">
        <ele>847</ele>
        <time>2018-09-26T12:49:57Z</time>
      </trkpt>
      <trkpt lat="45.50164" lon="2.6162">
        <ele>847</ele>
        <time>2018-09-26T12:49:57Z</time>
      </trkpt>
      <trkpt lat="45.50165" lon="2.61623">
        <ele>847</ele>
        <time>2018-09-26T12:49:57Z</time>
      </trkpt>
      <trkpt lat="45.50166" lon="2.61626">
        <ele>848</ele>
        <time>2018-09-26T12:49:57Z</time>
      </trkpt>
      <trkpt lat="45.50168" lon="2.61629">
        <ele>848</ele>
        <time>2018-09-26T12:49:57Z</time>
      </trkpt>
      <trkpt lat="45.50168" lon="2.61631">
        <ele>848</ele>
        <time>2018-09-26T12:49:57Z</time>
      </trkpt>
      <trkpt lat="45.50169" lon="2.61633">
        <ele>848</ele>
        <time>2018-09-26T12:49:57Z</time>
      </trkpt>
      <trkpt lat="45.50171" lon="2.61635">
        <ele>848</ele>
        <time>2018-09-26T12:49:57Z</time>
      </trkpt>
      <trkpt lat="45.50172" lon="2.61638">
        <ele>848</ele>
        <time>2018-09-26T12:49:57Z</time>
      </trkpt>
      <trkpt lat="45.50173" lon="2.61641">
        <ele>848</ele>
        <time>2018-09-26T12:49:57Z</time>
      </trkpt>
      <trkpt lat="45.50174" lon="2.61645">
        <ele>848</ele>
        <time>2018-09-26T12:49:57Z</time>
      </trkpt>
      <trkpt lat="45.50174" lon="2.61649">
        <ele>848</ele>
        <time>2018-09-26T12:49:57Z</time>
      </trkpt>
      <trkpt lat="45.50175" lon="2.61651">
        <ele>848</ele>
        <time>2018-09-26T12:49:57Z</time>
      </trkpt>
      <trkpt lat="45.50177" lon="2.61654">
        <ele>848</ele>
        <time>2018-09-26T12:49:57Z</time>
      </trkpt>
      <trkpt lat="45.50178" lon="2.61657">
        <ele>849</ele>
        <time>2018-09-26T12:49:57Z</time>
      </trkpt>
      <trkpt lat="45.50179" lon="2.6166">
        <ele>849</ele>
        <time>2018-09-26T12:49:57Z</time>
      </trkpt>
      <trkpt lat="45.5018" lon="2.61662">
        <ele>849</ele>
        <time>2018-09-26T12:49:57Z</time>
      </trkpt>
      <trkpt lat="45.50181" lon="2.61665">
        <ele>849</ele>
        <time>2018-09-26T12:49:57Z</time>
      </trkpt>
      <trkpt lat="45.50182" lon="2.61667">
        <ele>849</ele>
        <time>2018-09-26T12:49:57Z</time>
      </trkpt>
      <trkpt lat="45.50184" lon="2.6167">
        <ele>849</ele>
        <time>2018-09-26T12:49:57Z</time>
      </trkpt>
      <trkpt lat="45.50185" lon="2.61673">
        <ele>849</ele>
        <time>2018-09-26T12:49:57Z</time>
      </trkpt>
      <trkpt lat="45.50186" lon="2.61675">
        <ele>849</ele>
        <time>2018-09-26T12:49:57Z</time>
      </trkpt>
      <trkpt lat="45.50188" lon="2.61678">
        <ele>849</ele>
        <time>2018-09-26T12:49:57Z</time>
      </trkpt>
      <trkpt lat="45.50189" lon="2.61681">
        <ele>850</ele>
        <time>2018-09-26T12:49:57Z</time>
      </trkpt>
      <trkpt lat="45.50191" lon="2.61684">
        <ele>850</ele>
        <time>2018-09-26T12:49:57Z</time>
      </trkpt>
      <trkpt lat="45.50192" lon="2.61686">
        <ele>850</ele>
        <time>2018-09-26T12:49:57Z</time>
      </trkpt>
      <trkpt lat="45.50194" lon="2.61689">
        <ele>850</ele>
        <time>2018-09-26T12:49:57Z</time>
      </trkpt>
      <trkpt lat="45.50195" lon="2.61692">
        <ele>850</ele>
        <time>2018-09-26T12:49:57Z</time>
      </trkpt>
      <trkpt lat="45.50197" lon="2.61695">
        <ele>850</ele>
        <time>2018-09-26T12:49:57Z</time>
      </trkpt>
      <trkpt lat="45.50199" lon="2.61697">
        <ele>850</ele>
        <time>2018-09-26T12:49:57Z</time>
      </trkpt>
      <trkpt lat="45.50201" lon="2.61698">
        <ele>850</ele>
        <time>2018-09-26T12:49:57Z</time>
      </trkpt>
      <trkpt lat="45.50203" lon="2.617">
        <ele>850</ele>
        <time>2018-09-26T12:49:57Z</time>
      </trkpt>
      <trkpt lat="45.50204" lon="2.61702">
        <ele>850</ele>
        <time>2018-09-26T12:49:57Z</time>
      </trkpt>
      <trkpt lat="45.50206" lon="2.61703">
        <ele>851</ele>
        <time>2018-09-26T12:49:57Z</time>
      </trkpt>
      <trkpt lat="45.50208" lon="2.61705">
        <ele>851</ele>
        <time>2018-09-26T12:49:57Z</time>
      </trkpt>
      <trkpt lat="45.5021" lon="2.61706">
        <ele>851</ele>
        <time>2018-09-26T12:49:57Z</time>
      </trkpt>
      <trkpt lat="45.50212" lon="2.61708">
        <ele>851</ele>
        <time>2018-09-26T12:49:57Z</time>
      </trkpt>
      <trkpt lat="45.50215" lon="2.61709">
        <ele>851</ele>
        <time>2018-09-26T12:49:57Z</time>
      </trkpt>
      <trkpt lat="45.50217" lon="2.61711">
        <ele>851</ele>
        <time>2018-09-26T12:49:57Z</time>
      </trkpt>
      <trkpt lat="45.50219" lon="2.61713">
        <ele>851</ele>
        <time>2018-09-26T12:49:57Z</time>
      </trkpt>
      <trkpt lat="45.50221" lon="2.61716">
        <ele>851</ele>
        <time>2018-09-26T12:49:57Z</time>
      </trkpt>
      <trkpt lat="45.50223" lon="2.61719">
        <ele>852</ele>
        <time>2018-09-26T12:49:57Z</time>
      </trkpt>
      <trkpt lat="45.50225" lon="2.61721">
        <ele>852</ele>
        <time>2018-09-26T12:49:57Z</time>
      </trkpt>
      <trkpt lat="45.50226" lon="2.61723">
        <ele>852</ele>
        <time>2018-09-26T12:49:57Z</time>
      </trkpt>
      <trkpt lat="45.50228" lon="2.61726">
        <ele>852</ele>
        <time>2018-09-26T12:49:57Z</time>
      </trkpt>
      <trkpt lat="45.50229" lon="2.61729">
        <ele>852</ele>
        <time>2018-09-26T12:49:57Z</time>
      </trkpt>
      <trkpt lat="45.50231" lon="2.61731">
        <ele>852</ele>
        <time>2018-09-26T12:49:57Z</time>
      </trkpt>
      <trkpt lat="45.50232" lon="2.61733">
        <ele>852</ele>
        <time>2018-09-26T12:49:57Z</time>
      </trkpt>
      <trkpt lat="45.50233" lon="2.61736">
        <ele>852</ele>
        <time>2018-09-26T12:49:57Z</time>
      </trkpt>
      <trkpt lat="45.50234" lon="2.6174">
        <ele>852</ele>
        <time>2018-09-26T12:49:57Z</time>
      </trkpt>
      <trkpt lat="45.50235" lon="2.61743">
        <ele>853</ele>
        <time>2018-09-26T12:49:57Z</time>
      </trkpt>
      <trkpt lat="45.50236" lon="2.61746">
        <ele>853</ele>
        <time>2018-09-26T12:49:57Z</time>
      </trkpt>
      <trkpt lat="45.50237" lon="2.61749">
        <ele>853</ele>
        <time>2018-09-26T12:49:57Z</time>
      </trkpt>
      <trkpt lat="45.50237" lon="2.61753">
        <ele>853</ele>
        <time>2018-09-26T12:49:57Z</time>
      </trkpt>
      <trkpt lat="45.50238" lon="2.61756">
        <ele>853</ele>
        <time>2018-09-26T12:49:57Z</time>
      </trkpt>
      <trkpt lat="45.50238" lon="2.61759">
        <ele>853</ele>
        <time>2018-09-26T12:49:57Z</time>
      </trkpt>
      <trkpt lat="45.50237" lon="2.61762">
        <ele>853</ele>
        <time>2018-09-26T12:49:57Z</time>
      </trkpt>
      <trkpt lat="45.50237" lon="2.61765">
        <ele>853</ele>
        <time>2018-09-26T12:49:57Z</time>
      </trkpt>
      <trkpt lat="45.50237" lon="2.61768">
        <ele>853</ele>
        <time>2018-09-26T12:49:57Z</time>
      </trkpt>
      <trkpt lat="45.50237" lon="2.61772">
        <ele>853</ele>
        <time>2018-09-26T12:49:57Z</time>
      </trkpt>
      <trkpt lat="45.50236" lon="2.61774">
        <ele>853</ele>
        <time>2018-09-26T12:49:57Z</time>
      </trkpt>
      <trkpt lat="45.50236" lon="2.61776">
        <ele>853</ele>
        <time>2018-09-26T12:49:57Z</time>
      </trkpt>
      <trkpt lat="45.50235" lon="2.61779">
        <ele>853</ele>
        <time>2018-09-26T12:49:57Z</time>
      </trkpt>
      <trkpt lat="45.50236" lon="2.61782">
        <ele>853</ele>
        <time>2018-09-26T12:49:57Z</time>
      </trkpt>
      <trkpt lat="45.50235" lon="2.61786">
        <ele>853</ele>
        <time>2018-09-26T12:49:57Z</time>
      </trkpt>
      <trkpt lat="45.50234" lon="2.6179">
        <ele>853</ele>
        <time>2018-09-26T12:49:57Z</time>
      </trkpt>
      <trkpt lat="45.50234" lon="2.61793">
        <ele>853</ele>
        <time>2018-09-26T12:49:57Z</time>
      </trkpt>
      <trkpt lat="45.50234" lon="2.61797">
        <ele>853</ele>
        <time>2018-09-26T12:49:57Z</time>
      </trkpt>
      <trkpt lat="45.50233" lon="2.61801">
        <ele>853</ele>
        <time>2018-09-26T12:49:57Z</time>
      </trkpt>
      <trkpt lat="45.50233" lon="2.61805">
        <ele>853</ele>
        <time>2018-09-26T12:49:57Z</time>
      </trkpt>
      <trkpt lat="45.50233" lon="2.61808">
        <ele>853</ele>
        <time>2018-09-26T12:49:57Z</time>
      </trkpt>
      <trkpt lat="45.50234" lon="2.61812">
        <ele>854</ele>
        <time>2018-09-26T12:49:57Z</time>
      </trkpt>
      <trkpt lat="45.50234" lon="2.61815">
        <ele>854</ele>
        <time>2018-09-26T12:49:57Z</time>
      </trkpt>
      <trkpt lat="45.50234" lon="2.61819">
        <ele>854</ele>
        <time>2018-09-26T12:49:57Z</time>
      </trkpt>
      <trkpt lat="45.50234" lon="2.61822">
        <ele>854</ele>
        <time>2018-09-26T12:49:57Z</time>
      </trkpt>
      <trkpt lat="45.50235" lon="2.61825">
        <ele>854</ele>
        <time>2018-09-26T12:49:57Z</time>
      </trkpt>
      <trkpt lat="45.50235" lon="2.61828">
        <ele>854</ele>
        <time>2018-09-26T12:49:57Z</time>
      </trkpt>
      <trkpt lat="45.50236" lon="2.61831">
        <ele>854</ele>
        <time>2018-09-26T12:49:57Z</time>
      </trkpt>
      <trkpt lat="45.50236" lon="2.61835">
        <ele>854</ele>
        <time>2018-09-26T12:49:57Z</time>
      </trkpt>
      <trkpt lat="45.50237" lon="2.61838">
        <ele>854</ele>
        <time>2018-09-26T12:49:57Z</time>
      </trkpt>
      <trkpt lat="45.50237" lon="2.61841">
        <ele>854</ele>
        <time>2018-09-26T12:49:57Z</time>
      </trkpt>
      <trkpt lat="45.50238" lon="2.61845">
        <ele>854</ele>
        <time>2018-09-26T12:49:57Z</time>
      </trkpt>
      <trkpt lat="45.50239" lon="2.61849">
        <ele>855</ele>
        <time>2018-09-26T12:49:57Z</time>
      </trkpt>
      <trkpt lat="45.50238" lon="2.61851">
        <ele>855</ele>
        <time>2018-09-26T12:49:57Z</time>
      </trkpt>
      <trkpt lat="45.50237" lon="2.61855">
        <ele>855</ele>
        <time>2018-09-26T12:49:57Z</time>
      </trkpt>
      <trkpt lat="45.50235" lon="2.61859">
        <ele>854</ele>
        <time>2018-09-26T12:49:57Z</time>
      </trkpt>
      <trkpt lat="45.50234" lon="2.61861">
        <ele>854</ele>
        <time>2018-09-26T12:49:57Z</time>
      </trkpt>
      <trkpt lat="45.50233" lon="2.61864">
        <ele>854</ele>
        <time>2018-09-26T12:49:57Z</time>
      </trkpt>
      <trkpt lat="45.50231" lon="2.61867">
        <ele>854</ele>
        <time>2018-09-26T12:49:57Z</time>
      </trkpt>
      <trkpt lat="45.5023" lon="2.61869">
        <ele>854</ele>
        <time>2018-09-26T12:49:57Z</time>
      </trkpt>
      <trkpt lat="45.50228" lon="2.61872">
        <ele>854</ele>
        <time>2018-09-26T12:49:57Z</time>
      </trkpt>
      <trkpt lat="45.50227" lon="2.61874">
        <ele>854</ele>
        <time>2018-09-26T12:49:57Z</time>
      </trkpt>
      <trkpt lat="45.50226" lon="2.61876">
        <ele>854</ele>
        <time>2018-09-26T12:49:57Z</time>
      </trkpt>
      <trkpt lat="45.50224" lon="2.61879">
        <ele>854</ele>
        <time>2018-09-26T12:49:57Z</time>
      </trkpt>
      <trkpt lat="45.50223" lon="2.61881">
        <ele>854</ele>
        <time>2018-09-26T12:49:57Z</time>
      </trkpt>
      <trkpt lat="45.50221" lon="2.61884">
        <ele>854</ele>
        <time>2018-09-26T12:49:57Z</time>
      </trkpt>
      <trkpt lat="45.5022" lon="2.61887">
        <ele>854</ele>
        <time>2018-09-26T12:49:57Z</time>
      </trkpt>
      <trkpt lat="45.50218" lon="2.61889">
        <ele>854</ele>
        <time>2018-09-26T12:49:57Z</time>
      </trkpt>
      <trkpt lat="45.50216" lon="2.61893">
        <ele>854</ele>
        <time>2018-09-26T12:49:57Z</time>
      </trkpt>
      <trkpt lat="45.50215" lon="2.61895">
        <ele>854</ele>
        <time>2018-09-26T12:49:57Z</time>
      </trkpt>
      <trkpt lat="45.50213" lon="2.61896">
        <ele>854</ele>
        <time>2018-09-26T12:49:57Z</time>
      </trkpt>
      <trkpt lat="45.50211" lon="2.61898">
        <ele>854</ele>
        <time>2018-09-26T12:49:57Z</time>
      </trkpt>
      <trkpt lat="45.50209" lon="2.61899">
        <ele>854</ele>
        <time>2018-09-26T12:49:57Z</time>
      </trkpt>
      <trkpt lat="45.50206" lon="2.61901">
        <ele>853</ele>
        <time>2018-09-26T12:49:57Z</time>
      </trkpt>
      <trkpt lat="45.50204" lon="2.61902">
        <ele>853</ele>
        <time>2018-09-26T12:49:57Z</time>
      </trkpt>
      <trkpt lat="45.50201" lon="2.61902">
        <ele>853</ele>
        <time>2018-09-26T12:49:57Z</time>
      </trkpt>
      <trkpt lat="45.50199" lon="2.61903">
        <ele>853</ele>
        <time>2018-09-26T12:49:57Z</time>
      </trkpt>
      <trkpt lat="45.50198" lon="2.61903">
        <ele>853</ele>
        <time>2018-09-26T12:49:57Z</time>
      </trkpt>
      <trkpt lat="45.50195" lon="2.61902">
        <ele>853</ele>
        <time>2018-09-26T12:49:57Z</time>
      </trkpt>
      <trkpt lat="45.50193" lon="2.61902">
        <ele>853</ele>
        <time>2018-09-26T12:49:57Z</time>
      </trkpt>
      <trkpt lat="45.50191" lon="2.61901">
        <ele>853</ele>
        <time>2018-09-26T12:49:57Z</time>
      </trkpt>
      <trkpt lat="45.50189" lon="2.61901">
        <ele>852</ele>
        <time>2018-09-26T12:49:57Z</time>
      </trkpt>
      <trkpt lat="45.50186" lon="2.61899">
        <ele>852</ele>
        <time>2018-09-26T12:49:57Z</time>
      </trkpt>
      <trkpt lat="45.50184" lon="2.61898">
        <ele>852</ele>
        <time>2018-09-26T12:49:57Z</time>
      </trkpt>
      <trkpt lat="45.50181" lon="2.61896">
        <ele>852</ele>
        <time>2018-09-26T12:49:57Z</time>
      </trkpt>
      <trkpt lat="45.50179" lon="2.61894">
        <ele>852</ele>
        <time>2018-09-26T12:49:57Z</time>
      </trkpt>
      <trkpt lat="45.50176" lon="2.61893">
        <ele>852</ele>
        <time>2018-09-26T12:49:57Z</time>
      </trkpt>
      <trkpt lat="45.50173" lon="2.61891">
        <ele>852</ele>
        <time>2018-09-26T12:49:57Z</time>
      </trkpt>
      <trkpt lat="45.50171" lon="2.6189">
        <ele>852</ele>
        <time>2018-09-26T12:49:57Z</time>
      </trkpt>
      <trkpt lat="45.50169" lon="2.61889">
        <ele>851</ele>
        <time>2018-09-26T12:49:57Z</time>
      </trkpt>
      <trkpt lat="45.50167" lon="2.61887">
        <ele>851</ele>
        <time>2018-09-26T12:49:57Z</time>
      </trkpt>
      <trkpt lat="45.50164" lon="2.61887">
        <ele>851</ele>
        <time>2018-09-26T12:49:57Z</time>
      </trkpt>
      <trkpt lat="45.50162" lon="2.61886">
        <ele>851</ele>
        <time>2018-09-26T12:49:57Z</time>
      </trkpt>
      <trkpt lat="45.50159" lon="2.61886">
        <ele>851</ele>
        <time>2018-09-26T12:49:57Z</time>
      </trkpt>
      <trkpt lat="45.50157" lon="2.61885">
        <ele>851</ele>
        <time>2018-09-26T12:49:57Z</time>
      </trkpt>
      <trkpt lat="45.50155" lon="2.61885">
        <ele>851</ele>
        <time>2018-09-26T12:49:57Z</time>
      </trkpt>
      <trkpt lat="45.50152" lon="2.61886">
        <ele>851</ele>
        <time>2018-09-26T12:49:57Z</time>
      </trkpt>
      <trkpt lat="45.5015" lon="2.61886">
        <ele>851</ele>
        <time>2018-09-26T12:49:57Z</time>
      </trkpt>
      <trkpt lat="45.50147" lon="2.61886">
        <ele>851</ele>
        <time>2018-09-26T12:49:57Z</time>
      </trkpt>
      <trkpt lat="45.50144" lon="2.61885">
        <ele>850</ele>
        <time>2018-09-26T12:49:57Z</time>
      </trkpt>
      <trkpt lat="45.50142" lon="2.61885">
        <ele>850</ele>
        <time>2018-09-26T12:49:57Z</time>
      </trkpt>
      <trkpt lat="45.50139" lon="2.61886">
        <ele>850</ele>
        <time>2018-09-26T12:49:57Z</time>
      </trkpt>
      <trkpt lat="45.50137" lon="2.61887">
        <ele>850</ele>
        <time>2018-09-26T12:49:57Z</time>
      </trkpt>
      <trkpt lat="45.50134" lon="2.61888">
        <ele>850</ele>
        <time>2018-09-26T12:49:57Z</time>
      </trkpt>
      <trkpt lat="45.50132" lon="2.61888">
        <ele>850</ele>
        <time>2018-09-26T12:49:57Z</time>
      </trkpt>
      <trkpt lat="45.5013" lon="2.61889">
        <ele>850</ele>
        <time>2018-09-26T12:49:57Z</time>
      </trkpt>
      <trkpt lat="45.50128" lon="2.6189">
        <ele>850</ele>
        <time>2018-09-26T12:49:57Z</time>
      </trkpt>
      <trkpt lat="45.50126" lon="2.6189">
        <ele>849</ele>
        <time>2018-09-26T12:49:57Z</time>
      </trkpt>
      <trkpt lat="45.50123" lon="2.61891">
        <ele>849</ele>
        <time>2018-09-26T12:49:57Z</time>
      </trkpt>
      <trkpt lat="45.50121" lon="2.61891">
        <ele>849</ele>
        <time>2018-09-26T12:49:57Z</time>
      </trkpt>
      <trkpt lat="45.50119" lon="2.61892">
        <ele>849</ele>
        <time>2018-09-26T12:49:57Z</time>
      </trkpt>
      <trkpt lat="45.50117" lon="2.61893">
        <ele>849</ele>
        <time>2018-09-26T12:49:57Z</time>
      </trkpt>
      <trkpt lat="45.50115" lon="2.61894">
        <ele>849</ele>
        <time>2018-09-26T12:49:57Z</time>
      </trkpt>
      <trkpt lat="45.50112" lon="2.61895">
        <ele>849</ele>
        <time>2018-09-26T12:49:57Z</time>
      </trkpt>
      <trkpt lat="45.5011" lon="2.61895">
        <ele>849</ele>
        <time>2018-09-26T12:49:57Z</time>
      </trkpt>
      <trkpt lat="45.50107" lon="2.61896">
        <ele>848</ele>
        <time>2018-09-26T12:49:57Z</time>
      </trkpt>
      <trkpt lat="45.50105" lon="2.61896">
        <ele>848</ele>
        <time>2018-09-26T12:49:57Z</time>
      </trkpt>
      <trkpt lat="45.50102" lon="2.61897">
        <ele>848</ele>
        <time>2018-09-26T12:49:57Z</time>
      </trkpt>
      <trkpt lat="45.501" lon="2.61898">
        <ele>848</ele>
        <time>2018-09-26T12:49:57Z</time>
      </trkpt>
      <trkpt lat="45.50098" lon="2.61898">
        <ele>848</ele>
        <time>2018-09-26T12:49:57Z</time>
      </trkpt>
      <trkpt lat="45.50095" lon="2.61899">
        <ele>848</ele>
        <time>2018-09-26T12:49:57Z</time>
      </trkpt>
      <trkpt lat="45.50094" lon="2.61903">
        <ele>848</ele>
        <time>2018-09-26T12:49:57Z</time>
      </trkpt>
      <trkpt lat="45.50094" lon="2.61902">
        <ele>848</ele>
        <time>2018-09-26T12:49:57Z</time>
      </trkpt>
      <trkpt lat="45.50094" lon="2.61902">
        <ele>848</ele>
        <time>2018-09-26T12:49:57Z</time>
      </trkpt>
      <trkpt lat="45.50094" lon="2.61902">
        <ele>848</ele>
        <time>2018-09-26T12:49:57Z</time>
      </trkpt>
      <trkpt lat="45.50094" lon="2.61902">
        <ele>848</ele>
        <time>2018-09-26T12:49:57Z</time>
      </trkpt>
      <trkpt lat="45.50094" lon="2.61902">
        <ele>848</ele>
        <time>2018-09-26T12:49:57Z</time>
      </trkpt>
      <trkpt lat="45.50094" lon="2.61902">
        <ele>848</ele>
        <time>2018-09-26T12:49:57Z</time>
      </trkpt>
      <trkpt lat="45.50094" lon="2.61903">
        <ele>848</ele>
        <time>2018-09-26T12:49:57Z</time>
      </trkpt>
      <trkpt lat="45.50095" lon="2.61904">
        <ele>848</ele>
        <time>2018-09-26T12:49:57Z</time>
      </trkpt>
      <trkpt lat="45.50095" lon="2.61904">
        <ele>848</ele>
        <time>2018-09-26T12:49:57Z</time>
      </trkpt>
      <trkpt lat="45.50095" lon="2.61905">
        <ele>848</ele>
        <time>2018-09-26T12:49:57Z</time>
      </trkpt>
      <trkpt lat="45.50096" lon="2.61908">
        <ele>848</ele>
        <time>2018-09-26T12:49:57Z</time>
      </trkpt>
      <trkpt lat="45.50095" lon="2.61917">
        <ele>848</ele>
        <time>2018-09-26T12:49:57Z</time>
      </trkpt>
      <trkpt lat="45.50095" lon="2.61927">
        <ele>848</ele>
        <time>2018-09-26T12:49:57Z</time>
      </trkpt>
      <trkpt lat="45.50095" lon="2.61937">
        <ele>848</ele>
        <time>2018-09-26T12:49:57Z</time>
      </trkpt>
      <trkpt lat="45.50095" lon="2.61947">
        <ele>848</ele>
        <time>2018-09-26T12:49:57Z</time>
      </trkpt>
      <trkpt lat="45.50094" lon="2.61957">
        <ele>849</ele>
        <time>2018-09-26T12:49:57Z</time>
      </trkpt>
      <trkpt lat="45.50094" lon="2.61967">
        <ele>849</ele>
        <time>2018-09-26T12:49:57Z</time>
      </trkpt>
      <trkpt lat="45.50095" lon="2.61977">
        <ele>849</ele>
        <time>2018-09-26T12:49:57Z</time>
      </trkpt>
      <trkpt lat="45.50095" lon="2.61987">
        <ele>849</ele>
        <time>2018-09-26T12:49:57Z</time>
      </trkpt>
      <trkpt lat="45.50097" lon="2.61997">
        <ele>849</ele>
        <time>2018-09-26T12:49:57Z</time>
      </trkpt>
      <trkpt lat="45.50098" lon="2.62007">
        <ele>850</ele>
        <time>2018-09-26T12:49:57Z</time>
      </trkpt>
      <trkpt lat="45.50099" lon="2.62017">
        <ele>850</ele>
        <time>2018-09-26T12:49:57Z</time>
      </trkpt>
      <trkpt lat="45.501" lon="2.62027">
        <ele>850</ele>
        <time>2018-09-26T12:49:57Z</time>
      </trkpt>
      <trkpt lat="45.50101" lon="2.62037">
        <ele>850</ele>
        <time>2018-09-26T12:49:57Z</time>
      </trkpt>
      <trkpt lat="45.50102" lon="2.62047">
        <ele>850</ele>
        <time>2018-09-26T12:49:57Z</time>
      </trkpt>
      <trkpt lat="45.50104" lon="2.62057">
        <ele>851</ele>
        <time>2018-09-26T12:49:57Z</time>
      </trkpt>
      <trkpt lat="45.50105" lon="2.62066">
        <ele>851</ele>
        <time>2018-09-26T12:49:57Z</time>
      </trkpt>
      <trkpt lat="45.50105" lon="2.62075">
        <ele>851</ele>
        <time>2018-09-26T12:49:57Z</time>
      </trkpt>
      <trkpt lat="45.50107" lon="2.62084">
        <ele>851</ele>
        <time>2018-09-26T12:49:57Z</time>
      </trkpt>
      <trkpt lat="45.50108" lon="2.62093">
        <ele>852</ele>
        <time>2018-09-26T12:49:57Z</time>
      </trkpt>
      <trkpt lat="45.5011" lon="2.62102">
        <ele>852</ele>
        <time>2018-09-26T12:49:57Z</time>
      </trkpt>
      <trkpt lat="45.50111" lon="2.62111">
        <ele>852</ele>
        <time>2018-09-26T12:49:57Z</time>
      </trkpt>
      <trkpt lat="45.50113" lon="2.62121">
        <ele>853</ele>
        <time>2018-09-26T12:49:57Z</time>
      </trkpt>
      <trkpt lat="45.50114" lon="2.6213">
        <ele>853</ele>
        <time>2018-09-26T12:49:57Z</time>
      </trkpt>
      <trkpt lat="45.50114" lon="2.6214">
        <ele>853</ele>
        <time>2018-09-26T12:49:57Z</time>
      </trkpt>
      <trkpt lat="45.50114" lon="2.6215">
        <ele>854</ele>
        <time>2018-09-26T12:49:57Z</time>
      </trkpt>
      <trkpt lat="45.50115" lon="2.62159">
        <ele>854</ele>
        <time>2018-09-26T12:49:57Z</time>
      </trkpt>
      <trkpt lat="45.50115" lon="2.62169">
        <ele>855</ele>
        <time>2018-09-26T12:49:57Z</time>
      </trkpt>
      <trkpt lat="45.50115" lon="2.62178">
        <ele>855</ele>
        <time>2018-09-26T12:49:57Z</time>
      </trkpt>
      <trkpt lat="45.50113" lon="2.62188">
        <ele>856</ele>
        <time>2018-09-26T12:49:57Z</time>
      </trkpt>
      <trkpt lat="45.50111" lon="2.62196">
        <ele>856</ele>
        <time>2018-09-26T12:49:57Z</time>
      </trkpt>
      <trkpt lat="45.50108" lon="2.62204">
        <ele>856</ele>
        <time>2018-09-26T12:49:57Z</time>
      </trkpt>
      <trkpt lat="45.50106" lon="2.62212">
        <ele>857</ele>
        <time>2018-09-26T12:49:57Z</time>
      </trkpt>
      <trkpt lat="45.50103" lon="2.62221">
        <ele>857</ele>
        <time>2018-09-26T12:49:57Z</time>
      </trkpt>
      <trkpt lat="45.50099" lon="2.6223">
        <ele>858</ele>
        <time>2018-09-26T12:49:57Z</time>
      </trkpt>
      <trkpt lat="45.50097" lon="2.62239">
        <ele>858</ele>
        <time>2018-09-26T12:49:57Z</time>
      </trkpt>
      <trkpt lat="45.50094" lon="2.62248">
        <ele>858</ele>
        <time>2018-09-26T12:49:57Z</time>
      </trkpt>
      <trkpt lat="45.50093" lon="2.62258">
        <ele>859</ele>
        <time>2018-09-26T12:49:57Z</time>
      </trkpt>
      <trkpt lat="45.50092" lon="2.62269">
        <ele>859</ele>
        <time>2018-09-26T12:49:57Z</time>
      </trkpt>
      <trkpt lat="45.50091" lon="2.6228">
        <ele>860</ele>
        <time>2018-09-26T12:49:57Z</time>
      </trkpt>
      <trkpt lat="45.5009" lon="2.62291">
        <ele>860</ele>
        <time>2018-09-26T12:49:57Z</time>
      </trkpt>
      <trkpt lat="45.50088" lon="2.62301">
        <ele>860</ele>
        <time>2018-09-26T12:49:57Z</time>
      </trkpt>
      <trkpt lat="45.50087" lon="2.62312">
        <ele>861</ele>
        <time>2018-09-26T12:49:57Z</time>
      </trkpt>
      <trkpt lat="45.50085" lon="2.62322">
        <ele>861</ele>
        <time>2018-09-26T12:49:57Z</time>
      </trkpt>
      <trkpt lat="45.50084" lon="2.62332">
        <ele>861</ele>
        <time>2018-09-26T12:49:57Z</time>
      </trkpt>
      <trkpt lat="45.50083" lon="2.62343">
        <ele>861</ele>
        <time>2018-09-26T12:49:57Z</time>
      </trkpt>
      <trkpt lat="45.50082" lon="2.62354">
        <ele>861</ele>
        <time>2018-09-26T12:49:57Z</time>
      </trkpt>
      <trkpt lat="45.5008" lon="2.62364">
        <ele>861</ele>
        <time>2018-09-26T12:49:57Z</time>
      </trkpt>
      <trkpt lat="45.50078" lon="2.62374">
        <ele>860</ele>
        <time>2018-09-26T12:49:57Z</time>
      </trkpt>
      <trkpt lat="45.50077" lon="2.62383">
        <ele>861</ele>
        <time>2018-09-26T12:49:57Z</time>
      </trkpt>
      <trkpt lat="45.50076" lon="2.62393">
        <ele>861</ele>
        <time>2018-09-26T12:49:57Z</time>
      </trkpt>
      <trkpt lat="45.50077" lon="2.62402">
        <ele>861</ele>
        <time>2018-09-26T12:49:57Z</time>
      </trkpt>
      <trkpt lat="45.5008" lon="2.62411">
        <ele>861</ele>
        <time>2018-09-26T12:49:57Z</time>
      </trkpt>
      <trkpt lat="45.50083" lon="2.62419">
        <ele>861</ele>
        <time>2018-09-26T12:49:57Z</time>
      </trkpt>
      <trkpt lat="45.50087" lon="2.62427">
        <ele>862</ele>
        <time>2018-09-26T12:49:57Z</time>
      </trkpt>
      <trkpt lat="45.50092" lon="2.62434">
        <ele>862</ele>
        <time>2018-09-26T12:49:57Z</time>
      </trkpt>
      <trkpt lat="45.50096" lon="2.62442">
        <ele>862</ele>
        <time>2018-09-26T12:49:57Z</time>
      </trkpt>
      <trkpt lat="45.501" lon="2.62449">
        <ele>863</ele>
        <time>2018-09-26T12:49:57Z</time>
      </trkpt>
      <trkpt lat="45.50106" lon="2.62456">
        <ele>864</ele>
        <time>2018-09-26T12:49:57Z</time>
      </trkpt>
      <trkpt lat="45.5011" lon="2.62463">
        <ele>864</ele>
        <time>2018-09-26T12:49:57Z</time>
      </trkpt>
      <trkpt lat="45.50114" lon="2.62471">
        <ele>864</ele>
        <time>2018-09-26T12:49:57Z</time>
      </trkpt>
      <trkpt lat="45.50118" lon="2.62478">
        <ele>865</ele>
        <time>2018-09-26T12:49:57Z</time>
      </trkpt>
      <trkpt lat="45.50121" lon="2.62486">
        <ele>865</ele>
        <time>2018-09-26T12:49:57Z</time>
      </trkpt>
      <trkpt lat="45.50126" lon="2.62494">
        <ele>865</ele>
        <time>2018-09-26T12:49:57Z</time>
      </trkpt>
      <trkpt lat="45.50131" lon="2.62502">
        <ele>866</ele>
        <time>2018-09-26T12:49:57Z</time>
      </trkpt>
      <trkpt lat="45.50135" lon="2.6251">
        <ele>866</ele>
        <time>2018-09-26T12:49:57Z</time>
      </trkpt>
      <trkpt lat="45.5014" lon="2.62517">
        <ele>867</ele>
        <time>2018-09-26T12:49:57Z</time>
      </trkpt>
      <trkpt lat="45.50144" lon="2.62526">
        <ele>867</ele>
        <time>2018-09-26T12:49:57Z</time>
      </trkpt>
      <trkpt lat="45.50148" lon="2.62534">
        <ele>868</ele>
        <time>2018-09-26T12:49:57Z</time>
      </trkpt>
      <trkpt lat="45.50151" lon="2.62542">
        <ele>868</ele>
        <time>2018-09-26T12:49:57Z</time>
      </trkpt>
      <trkpt lat="45.50154" lon="2.62551">
        <ele>868</ele>
        <time>2018-09-26T12:49:57Z</time>
      </trkpt>
      <trkpt lat="45.50161" lon="2.62558">
        <ele>869</ele>
        <time>2018-09-26T12:49:57Z</time>
      </trkpt>
      <trkpt lat="45.50166" lon="2.62566">
        <ele>869</ele>
        <time>2018-09-26T12:49:57Z</time>
      </trkpt>
      <trkpt lat="45.5017" lon="2.62574">
        <ele>870</ele>
        <time>2018-09-26T12:49:57Z</time>
      </trkpt>
      <trkpt lat="45.50174" lon="2.62582">
        <ele>870</ele>
        <time>2018-09-26T12:49:57Z</time>
      </trkpt>
      <trkpt lat="45.50178" lon="2.62591">
        <ele>870</ele>
        <time>2018-09-26T12:49:57Z</time>
      </trkpt>
      <trkpt lat="45.5018" lon="2.62594">
        <ele>870</ele>
        <time>2018-09-26T12:49:57Z</time>
      </trkpt>
      <trkpt lat="45.50182" lon="2.62594">
        <ele>871</ele>
        <time>2018-09-26T12:49:57Z</time>
      </trkpt>
      <trkpt lat="45.50183" lon="2.62594">
        <ele>871</ele>
        <time>2018-09-26T12:49:57Z</time>
      </trkpt>
      <trkpt lat="45.50182" lon="2.62594">
        <ele>871</ele>
        <time>2018-09-26T12:49:57Z</time>
      </trkpt>
      <trkpt lat="45.50182" lon="2.62594">
        <ele>871</ele>
        <time>2018-09-26T12:49:57Z</time>
      </trkpt>
      <trkpt lat="45.50183" lon="2.62594">
        <ele>871</ele>
        <time>2018-09-26T12:49:57Z</time>
      </trkpt>
      <trkpt lat="45.50184" lon="2.62597">
        <ele>871</ele>
        <time>2018-09-26T12:49:57Z</time>
      </trkpt>
      <trkpt lat="45.50186" lon="2.62602">
        <ele>871</ele>
        <time>2018-09-26T12:49:57Z</time>
      </trkpt>
      <trkpt lat="45.50186" lon="2.62604">
        <ele>871</ele>
        <time>2018-09-26T12:49:57Z</time>
      </trkpt>
      <trkpt lat="45.50187" lon="2.62605">
        <ele>871</ele>
        <time>2018-09-26T12:49:57Z</time>
      </trkpt>
      <trkpt lat="45.50186" lon="2.62605">
        <ele>871</ele>
        <time>2018-09-26T12:49:57Z</time>
      </trkpt>
      <trkpt lat="45.50186" lon="2.62605">
        <ele>871</ele>
        <time>2018-09-26T12:49:57Z</time>
      </trkpt>
      <trkpt lat="45.50185" lon="2.62605">
        <ele>871</ele>
        <time>2018-09-26T12:49:57Z</time>
      </trkpt>
      <trkpt lat="45.50184" lon="2.62606">
        <ele>871</ele>
        <time>2018-09-26T12:49:57Z</time>
      </trkpt>
      <trkpt lat="45.50183" lon="2.62607">
        <ele>871</ele>
        <time>2018-09-26T12:49:57Z</time>
      </trkpt>
      <trkpt lat="45.50182" lon="2.62607">
        <ele>871</ele>
        <time>2018-09-26T12:49:57Z</time>
      </trkpt>
      <trkpt lat="45.50181" lon="2.62608">
        <ele>871</ele>
        <time>2018-09-26T12:49:57Z</time>
      </trkpt>
      <trkpt lat="45.5018" lon="2.62608">
        <ele>871</ele>
        <time>2018-09-26T12:49:57Z</time>
      </trkpt>
      <trkpt lat="45.50178" lon="2.62608">
        <ele>871</ele>
        <time>2018-09-26T12:49:57Z</time>
      </trkpt>
      <trkpt lat="45.50178" lon="2.62609">
        <ele>871</ele>
        <time>2018-09-26T12:49:57Z</time>
      </trkpt>
      <trkpt lat="45.50177" lon="2.6261">
        <ele>871</ele>
        <time>2018-09-26T12:49:57Z</time>
      </trkpt>
      <trkpt lat="45.50176" lon="2.6261">
        <ele>871</ele>
        <time>2018-09-26T12:49:57Z</time>
      </trkpt>
      <trkpt lat="45.50177" lon="2.62611">
        <ele>871</ele>
        <time>2018-09-26T12:49:57Z</time>
      </trkpt>
      <trkpt lat="45.50177" lon="2.62612">
        <ele>871</ele>
        <time>2018-09-26T12:49:57Z</time>
      </trkpt>
      <trkpt lat="45.50178" lon="2.62612">
        <ele>871</ele>
        <time>2018-09-26T12:49:57Z</time>
      </trkpt>
      <trkpt lat="45.50179" lon="2.62612">
        <ele>871</ele>
        <time>2018-09-26T12:49:57Z</time>
      </trkpt>
      <trkpt lat="45.50179" lon="2.62612">
        <ele>871</ele>
        <time>2018-09-26T12:49:57Z</time>
      </trkpt>
      <trkpt lat="45.5018" lon="2.62609">
        <ele>871</ele>
        <time>2018-09-26T12:49:57Z</time>
      </trkpt>
      <trkpt lat="45.50179" lon="2.62605">
        <ele>871</ele>
        <time>2018-09-26T12:49:57Z</time>
      </trkpt>
      <trkpt lat="45.5018" lon="2.62606">
        <ele>871</ele>
        <time>2018-09-26T12:49:57Z</time>
      </trkpt>
      <trkpt lat="45.50181" lon="2.62607">
        <ele>871</ele>
        <time>2018-09-26T12:49:57Z</time>
      </trkpt>
      <trkpt lat="45.50181" lon="2.62608">
        <ele>871</ele>
        <time>2018-09-26T12:49:57Z</time>
      </trkpt>
      <trkpt lat="45.50181" lon="2.62608">
        <ele>871</ele>
        <time>2018-09-26T12:49:57Z</time>
      </trkpt>
      <trkpt lat="45.50179" lon="2.62611">
        <ele>871</ele>
        <time>2018-09-26T12:49:57Z</time>
      </trkpt>
      <trkpt lat="45.50177" lon="2.62613">
        <ele>871</ele>
        <time>2018-09-26T12:49:57Z</time>
      </trkpt>
      <trkpt lat="45.50178" lon="2.62611">
        <ele>871</ele>
        <time>2018-09-26T12:49:57Z</time>
      </trkpt>
      <trkpt lat="45.50179" lon="2.62611">
        <ele>871</ele>
        <time>2018-09-26T12:49:57Z</time>
      </trkpt>
      <trkpt lat="45.50178" lon="2.62618">
        <ele>871</ele>
        <time>2018-09-26T12:49:57Z</time>
      </trkpt>
      <trkpt lat="45.50176" lon="2.62625">
        <ele>871</ele>
        <time>2018-09-26T12:49:57Z</time>
      </trkpt>
      <trkpt lat="45.50173" lon="2.62632">
        <ele>871</ele>
        <time>2018-09-26T12:49:57Z</time>
      </trkpt>
      <trkpt lat="45.5017" lon="2.6264">
        <ele>871</ele>
        <time>2018-09-26T12:49:57Z</time>
      </trkpt>
      <trkpt lat="45.50167" lon="2.62648">
        <ele>871</ele>
        <time>2018-09-26T12:49:57Z</time>
      </trkpt>
      <trkpt lat="45.50164" lon="2.62656">
        <ele>871</ele>
        <time>2018-09-26T12:49:57Z</time>
      </trkpt>
      <trkpt lat="45.50161" lon="2.62665">
        <ele>871</ele>
        <time>2018-09-26T12:49:57Z</time>
      </trkpt>
      <trkpt lat="45.50157" lon="2.62673">
        <ele>871</ele>
        <time>2018-09-26T12:49:57Z</time>
      </trkpt>
      <trkpt lat="45.50153" lon="2.62683">
        <ele>871</ele>
        <time>2018-09-26T12:49:57Z</time>
      </trkpt>
      <trkpt lat="45.5015" lon="2.62691">
        <ele>871</ele>
        <time>2018-09-26T12:49:57Z</time>
      </trkpt>
      <trkpt lat="45.50146" lon="2.627">
        <ele>871</ele>
        <time>2018-09-26T12:49:57Z</time>
      </trkpt>
      <trkpt lat="45.50142" lon="2.62709">
        <ele>871</ele>
        <time>2018-09-26T12:49:57Z</time>
      </trkpt>
      <trkpt lat="45.50139" lon="2.62718">
        <ele>871</ele>
        <time>2018-09-26T12:49:57Z</time>
      </trkpt>
      <trkpt lat="45.50135" lon="2.62727">
        <ele>871</ele>
        <time>2018-09-26T12:49:57Z</time>
      </trkpt>
      <trkpt lat="45.50132" lon="2.62735">
        <ele>871</ele>
        <time>2018-09-26T12:49:57Z</time>
      </trkpt>
      <trkpt lat="45.50129" lon="2.62744">
        <ele>871</ele>
        <time>2018-09-26T12:49:57Z</time>
      </trkpt>
      <trkpt lat="45.50127" lon="2.62754">
        <ele>871</ele>
        <time>2018-09-26T12:49:57Z</time>
      </trkpt>
      <trkpt lat="45.50126" lon="2.62765">
        <ele>871</ele>
        <time>2018-09-26T12:49:57Z</time>
      </trkpt>
      <trkpt lat="45.50125" lon="2.62776">
        <ele>871</ele>
        <time>2018-09-26T12:49:57Z</time>
      </trkpt>
      <trkpt lat="45.50124" lon="2.62781">
        <ele>871</ele>
        <time>2018-09-26T12:49:57Z</time>
      </trkpt>
      <trkpt lat="45.5012" lon="2.62781">
        <ele>870</ele>
        <time>2018-09-26T12:49:57Z</time>
      </trkpt>
      <trkpt lat="45.50119" lon="2.62785">
        <ele>870</ele>
        <time>2018-09-26T12:49:57Z</time>
      </trkpt>
      <trkpt lat="45.5012" lon="2.62795">
        <ele>870</ele>
        <time>2018-09-26T12:49:57Z</time>
      </trkpt>
      <trkpt lat="45.50121" lon="2.62804">
        <ele>870</ele>
        <time>2018-09-26T12:49:57Z</time>
      </trkpt>
      <trkpt lat="45.50122" lon="2.62813">
        <ele>870</ele>
        <time>2018-09-26T12:49:57Z</time>
      </trkpt>
      <trkpt lat="45.50123" lon="2.62822">
        <ele>871</ele>
        <time>2018-09-26T12:49:57Z</time>
      </trkpt>
      <trkpt lat="45.50124" lon="2.6283">
        <ele>871</ele>
        <time>2018-09-26T12:49:57Z</time>
      </trkpt>
      <trkpt lat="45.50124" lon="2.6284">
        <ele>871</ele>
        <time>2018-09-26T12:49:57Z</time>
      </trkpt>
      <trkpt lat="45.50125" lon="2.62849">
        <ele>871</ele>
        <time>2018-09-26T12:49:57Z</time>
      </trkpt>
      <trkpt lat="45.50125" lon="2.62858">
        <ele>871</ele>
        <time>2018-09-26T12:49:57Z</time>
      </trkpt>
      <trkpt lat="45.50125" lon="2.62867">
        <ele>871</ele>
        <time>2018-09-26T12:49:57Z</time>
      </trkpt>
      <trkpt lat="45.50125" lon="2.62876">
        <ele>871</ele>
        <time>2018-09-26T12:49:57Z</time>
      </trkpt>
      <trkpt lat="45.50124" lon="2.62885">
        <ele>871</ele>
        <time>2018-09-26T12:49:57Z</time>
      </trkpt>
      <trkpt lat="45.50119" lon="2.62891">
        <ele>870</ele>
        <time>2018-09-26T12:49:57Z</time>
      </trkpt>
      <trkpt lat="45.50113" lon="2.62894">
        <ele>870</ele>
        <time>2018-09-26T12:49:57Z</time>
      </trkpt>
      <trkpt lat="45.50114" lon="2.62893">
        <ele>870</ele>
        <time>2018-09-26T12:49:57Z</time>
      </trkpt>
      <trkpt lat="45.50112" lon="2.62894">
        <ele>870</ele>
        <time>2018-09-26T12:49:57Z</time>
      </trkpt>
      <trkpt lat="45.50107" lon="2.62896">
        <ele>870</ele>
        <time>2018-09-26T12:49:57Z</time>
      </trkpt>
      <trkpt lat="45.50102" lon="2.629">
        <ele>870</ele>
        <time>2018-09-26T12:49:57Z</time>
      </trkpt>
      <trkpt lat="45.501" lon="2.62907">
        <ele>869</ele>
        <time>2018-09-26T12:49:57Z</time>
      </trkpt>
      <trkpt lat="45.50098" lon="2.62913">
        <ele>869</ele>
        <time>2018-09-26T12:49:57Z</time>
      </trkpt>
      <trkpt lat="45.50094" lon="2.62919">
        <ele>869</ele>
        <time>2018-09-26T12:49:57Z</time>
      </trkpt>
      <trkpt lat="45.50088" lon="2.62919">
        <ele>869</ele>
        <time>2018-09-26T12:49:57Z</time>
      </trkpt>
      <trkpt lat="45.50081" lon="2.62921">
        <ele>869</ele>
        <time>2018-09-26T12:49:57Z</time>
      </trkpt>
      <trkpt lat="45.50075" lon="2.62925">
        <ele>868</ele>
        <time>2018-09-26T12:49:57Z</time>
      </trkpt>
      <trkpt lat="45.50071" lon="2.6293">
        <ele>868</ele>
        <time>2018-09-26T12:49:57Z</time>
      </trkpt>
      <trkpt lat="45.5007" lon="2.62939">
        <ele>868</ele>
        <time>2018-09-26T12:49:57Z</time>
      </trkpt>
      <trkpt lat="45.50068" lon="2.62948">
        <ele>868</ele>
        <time>2018-09-26T12:49:57Z</time>
      </trkpt>
      <trkpt lat="45.50067" lon="2.62958">
        <ele>868</ele>
        <time>2018-09-26T12:49:57Z</time>
      </trkpt>
      <trkpt lat="45.50065" lon="2.62967">
        <ele>868</ele>
        <time>2018-09-26T12:49:57Z</time>
      </trkpt>
      <trkpt lat="45.50064" lon="2.62976">
        <ele>868</ele>
        <time>2018-09-26T12:49:57Z</time>
      </trkpt>
      <trkpt lat="45.50063" lon="2.62986">
        <ele>867</ele>
        <time>2018-09-26T12:49:57Z</time>
      </trkpt>
      <trkpt lat="45.5006" lon="2.62993">
        <ele>867</ele>
        <time>2018-09-26T12:49:57Z</time>
      </trkpt>
      <trkpt lat="45.50059" lon="2.62994">
        <ele>867</ele>
        <time>2018-09-26T12:49:57Z</time>
      </trkpt>
      <trkpt lat="45.50057" lon="2.62994">
        <ele>867</ele>
        <time>2018-09-26T12:49:57Z</time>
      </trkpt>
      <trkpt lat="45.50056" lon="2.62994">
        <ele>867</ele>
        <time>2018-09-26T12:49:57Z</time>
      </trkpt>
    </trkseg>
  </trk>
</gpx>